<?xml version="1.0" encoding="UTF-8"?>
<gpx version="1.1" creator="Garmin Connect"
  xsi:schemaLocation="http://www.topografix.com/GPX/1/1 http://www.topografix.com/GPX/1/1/gpx.xsd http://www.garmin.com/xmlschemas/GpxExtensions/v3 http://www.garmin.com/xmlschemas/GpxExtensionsv3.xsd http://www.garmin.com/xmlschemas/TrackPointExtension/v1 http://www.garmin.com/xmlschemas/TrackPointExtensionv1.xsd"
  xmlns="http://www.topografix.com/GPX/1/1"
  xmlns:gpxtpx="http://www.garmin.com/xmlschemas/TrackPointExtension/v1"
  xmlns:gpxx="http://www.garmin.com/xmlschemas/GpxExtensions/v3" xmlns:xsi="http://www.w3.org/2001/XMLSchema-instance">
  <metadata>
    <link href="connect.garmin.com">
      <text>Garmin Connect</text>
    </link>
    <time>2014-11-28T06:19:24.000Z</time>
  </metadata>
  <trk>
    <name>Krater Ramon+Kanyon Prizm</name>
    <trkseg>
      <trkpt lon="34.80458130128682" lat="30.611905474215746">
        <ele>843.0</ele>
        <time>2014-11-28T06:19:24.000Z</time>
      </trkpt>
      <trkpt lon="34.80456680059433" lat="30.61190664768219">
        <ele>843.0</ele>
        <time>2014-11-28T06:19:33.000Z</time>
      </trkpt>
      <trkpt lon="34.80452857911587" lat="30.611943025141954">
        <ele>842.7999877929688</ele>
        <time>2014-11-28T06:19:37.000Z</time>
      </trkpt>
      <trkpt lon="34.80450318194926" lat="30.6119526643306">
        <ele>842.5999755859375</ele>
        <time>2014-11-28T06:19:38.000Z</time>
      </trkpt>
      <trkpt lon="34.80447141453624" lat="30.611961716786027">
        <ele>842.5999755859375</ele>
        <time>2014-11-28T06:19:39.000Z</time>
      </trkpt>
      <trkpt lon="34.804372508078814" lat="30.61197068542242">
        <ele>842.2000122070312</ele>
        <time>2014-11-28T06:19:42.000Z</time>
      </trkpt>
      <trkpt lon="34.804350547492504" lat="30.61195509508252">
        <ele>842.2000122070312</ele>
        <time>2014-11-28T06:19:43.000Z</time>
      </trkpt>
      <trkpt lon="34.80434157885611" lat="30.611933385953307">
        <ele>842.2000122070312</ele>
        <time>2014-11-28T06:19:44.000Z</time>
      </trkpt>
      <trkpt lon="34.80434216558933" lat="30.61191050335765">
        <ele>842.2000122070312</ele>
        <time>2014-11-28T06:19:45.000Z</time>
      </trkpt>
      <trkpt lon="34.80434099212289" lat="30.611888794228435">
        <ele>842.4000244140625</ele>
        <time>2014-11-28T06:19:46.000Z</time>
      </trkpt>
      <trkpt lon="34.804332526400685" lat="30.61186666600406">
        <ele>842.4000244140625</ele>
        <time>2014-11-28T06:19:47.000Z</time>
      </trkpt>
      <trkpt lon="34.804320288822055" lat="30.61184646561742">
        <ele>842.4000244140625</ele>
        <time>2014-11-28T06:19:48.000Z</time>
      </trkpt>
      <trkpt lon="34.804302183911204" lat="30.611810088157654">
        <ele>842.4000244140625</ele>
        <time>2014-11-28T06:19:50.000Z</time>
      </trkpt>
      <trkpt lon="34.804255329072475" lat="30.611751414835453">
        <ele>842.4000244140625</ele>
        <time>2014-11-28T06:19:55.000Z</time>
      </trkpt>
      <trkpt lon="34.80430696159601" lat="30.611676815897226">
        <ele>843.0</ele>
        <time>2014-11-28T06:20:01.000Z</time>
      </trkpt>
      <trkpt lon="34.80431257747114" lat="30.61164286918938">
        <ele>843.0</ele>
        <time>2014-11-28T06:20:03.000Z</time>
      </trkpt>
      <trkpt lon="34.804294891655445" lat="30.61140976846218">
        <ele>843.7999877929688</ele>
        <time>2014-11-28T06:20:13.000Z</time>
      </trkpt>
      <trkpt lon="34.80422716587782" lat="30.611276999115944">
        <ele>844.2000122070312</ele>
        <time>2014-11-28T06:20:19.000Z</time>
      </trkpt>
      <trkpt lon="34.80397964827716" lat="30.611145151779056">
        <ele>844.0</ele>
        <time>2014-11-28T06:20:26.000Z</time>
      </trkpt>
      <trkpt lon="34.80366641655564" lat="30.61090098693967">
        <ele>844.0</ele>
        <time>2014-11-28T06:20:35.000Z</time>
      </trkpt>
      <trkpt lon="34.80342392809689" lat="30.61067241244018">
        <ele>844.5999755859375</ele>
        <time>2014-11-28T06:20:43.000Z</time>
      </trkpt>
      <trkpt lon="34.80316140688956" lat="30.610404359176755">
        <ele>845.0</ele>
        <time>2014-11-28T06:20:53.000Z</time>
      </trkpt>
      <trkpt lon="34.803049424663186" lat="30.61039438471198">
        <ele>844.7999877929688</ele>
        <time>2014-11-28T06:20:56.000Z</time>
      </trkpt>
      <trkpt lon="34.80300910770893" lat="30.610413243994117">
        <ele>844.5999755859375</ele>
        <time>2014-11-28T06:20:57.000Z</time>
      </trkpt>
      <trkpt lon="34.80297088623047" lat="30.61044073663652">
        <ele>844.4000244140625</ele>
        <time>2014-11-28T06:20:58.000Z</time>
      </trkpt>
      <trkpt lon="34.802670227363706" lat="30.610693618655205">
        <ele>845.0</ele>
        <time>2014-11-28T06:21:05.000Z</time>
      </trkpt>
      <trkpt lon="34.80254567228258" lat="30.610803421586752">
        <ele>845.5999755859375</ele>
        <time>2014-11-28T06:21:08.000Z</time>
      </trkpt>
      <trkpt lon="34.80250887572765" lat="30.610828986391425">
        <ele>845.7999877929688</ele>
        <time>2014-11-28T06:21:09.000Z</time>
      </trkpt>
      <trkpt lon="34.80237199924886" lat="30.610886989161372">
        <ele>846.5999755859375</ele>
        <time>2014-11-28T06:21:14.000Z</time>
      </trkpt>
      <trkpt lon="34.80233729816973" lat="30.610884558409452">
        <ele>847.0</ele>
        <time>2014-11-28T06:21:15.000Z</time>
      </trkpt>
      <trkpt lon="34.80230410583317" lat="30.610870895907283">
        <ele>847.2000122070312</ele>
        <time>2014-11-28T06:21:16.000Z</time>
      </trkpt>
      <trkpt lon="34.80213931761682" lat="30.610722033306956">
        <ele>848.4000244140625</ele>
        <time>2014-11-28T06:21:21.000Z</time>
      </trkpt>
      <trkpt lon="34.80208659544587" lat="30.610646679997444">
        <ele>848.7999877929688</ele>
        <time>2014-11-28T06:21:23.000Z</time>
      </trkpt>
      <trkpt lon="34.80205080471933" lat="30.610613152384758">
        <ele>849.0</ele>
        <time>2014-11-28T06:21:24.000Z</time>
      </trkpt>
      <trkpt lon="34.80188023298979" lat="30.610440066084266">
        <ele>851.0</ele>
        <time>2014-11-28T06:21:30.000Z</time>
      </trkpt>
      <trkpt lon="34.8016601242125" lat="30.61014066450298">
        <ele>853.5999755859375</ele>
        <time>2014-11-28T06:21:41.000Z</time>
      </trkpt>
      <trkpt lon="34.801509752869606" lat="30.60993606224656">
        <ele>855.4000244140625</ele>
        <time>2014-11-28T06:21:50.000Z</time>
      </trkpt>
      <trkpt lon="34.801414366811514" lat="30.609737494960427">
        <ele>856.5999755859375</ele>
        <time>2014-11-28T06:21:59.000Z</time>
      </trkpt>
      <trkpt lon="34.80128947645426" lat="30.60958368703723">
        <ele>858.0</ele>
        <time>2014-11-28T06:22:06.000Z</time>
      </trkpt>
      <trkpt lon="34.80112594552338" lat="30.60946198180318">
        <ele>860.0</ele>
        <time>2014-11-28T06:22:12.000Z</time>
      </trkpt>
      <trkpt lon="34.80107934214175" lat="30.60929778032005">
        <ele>860.5999755859375</ele>
        <time>2014-11-28T06:22:17.000Z</time>
      </trkpt>
      <trkpt lon="34.800832411274314" lat="30.608982369303703">
        <ele>863.5999755859375</ele>
        <time>2014-11-28T06:22:28.000Z</time>
      </trkpt>
      <trkpt lon="34.80060609988868" lat="30.608724541962147">
        <ele>864.5999755859375</ele>
        <time>2014-11-28T06:22:38.000Z</time>
      </trkpt>
      <trkpt lon="34.80048724450171" lat="30.608642902225256">
        <ele>865.0</ele>
        <time>2014-11-28T06:22:44.000Z</time>
      </trkpt>
      <trkpt lon="34.8002303391695" lat="30.608461434021592">
        <ele>863.0</ele>
        <time>2014-11-28T06:22:52.000Z</time>
      </trkpt>
      <trkpt lon="34.79985382407904" lat="30.608273008838296">
        <ele>859.0</ele>
        <time>2014-11-28T06:23:00.000Z</time>
      </trkpt>
      <trkpt lon="34.799349904060364" lat="30.608108807355165">
        <ele>854.5999755859375</ele>
        <time>2014-11-28T06:23:08.000Z</time>
      </trkpt>
      <trkpt lon="34.79886165820062" lat="30.60804887674749">
        <ele>852.0</ele>
        <time>2014-11-28T06:23:15.000Z</time>
      </trkpt>
      <trkpt lon="34.79871170595288" lat="30.60804703272879">
        <ele>851.4000244140625</ele>
        <time>2014-11-28T06:23:17.000Z</time>
      </trkpt>
      <trkpt lon="34.79863886721432" lat="30.608036052435637">
        <ele>850.4000244140625</ele>
        <time>2014-11-28T06:23:18.000Z</time>
      </trkpt>
      <trkpt lon="34.79849813506007" lat="30.60800252482295">
        <ele>848.7999877929688</ele>
        <time>2014-11-28T06:23:20.000Z</time>
      </trkpt>
      <trkpt lon="34.79836134240031" lat="30.607984084635973">
        <ele>847.2000122070312</ele>
        <time>2014-11-28T06:23:22.000Z</time>
      </trkpt>
      <trkpt lon="34.79829512536526" lat="30.60798198916018">
        <ele>846.5999755859375</ele>
        <time>2014-11-28T06:23:23.000Z</time>
      </trkpt>
      <trkpt lon="34.7982289083302" lat="30.607986096292734">
        <ele>846.0</ele>
        <time>2014-11-28T06:23:24.000Z</time>
      </trkpt>
      <trkpt lon="34.79816319420934" lat="30.607994478195906">
        <ele>845.4000244140625</ele>
        <time>2014-11-28T06:23:25.000Z</time>
      </trkpt>
      <trkpt lon="34.798098066821694" lat="30.60800889506936">
        <ele>845.0</ele>
        <time>2014-11-28T06:23:26.000Z</time>
      </trkpt>
      <trkpt lon="34.797574281692505" lat="30.608190950006247">
        <ele>842.2000122070312</ele>
        <time>2014-11-28T06:23:34.000Z</time>
      </trkpt>
      <trkpt lon="34.79700221680105" lat="30.60843645595014">
        <ele>839.5999755859375</ele>
        <time>2014-11-28T06:23:42.000Z</time>
      </trkpt>
      <trkpt lon="34.79636133648455" lat="30.608761170879006">
        <ele>835.4000244140625</ele>
        <time>2014-11-28T06:23:49.000Z</time>
      </trkpt>
      <trkpt lon="34.79533555917442" lat="30.60923525132239">
        <ele>831.5999755859375</ele>
        <time>2014-11-28T06:24:00.000Z</time>
      </trkpt>
      <trkpt lon="34.794596610590816" lat="30.609580585733056">
        <ele>829.2000122070312</ele>
        <time>2014-11-28T06:24:09.000Z</time>
      </trkpt>
      <trkpt lon="34.794021528214216" lat="30.609879568219185">
        <ele>829.7999877929688</ele>
        <time>2014-11-28T06:24:17.000Z</time>
      </trkpt>
      <trkpt lon="34.79343395680189" lat="30.6102414149791">
        <ele>828.5999755859375</ele>
        <time>2014-11-28T06:24:26.000Z</time>
      </trkpt>
      <trkpt lon="34.792863400653005" lat="30.610505025833845">
        <ele>826.0</ele>
        <time>2014-11-28T06:24:34.000Z</time>
      </trkpt>
      <trkpt lon="34.79278787970543" lat="30.610523130744696">
        <ele>825.5999755859375</ele>
        <time>2014-11-28T06:24:35.000Z</time>
      </trkpt>
      <trkpt lon="34.79271277785301" lat="30.610535452142358">
        <ele>825.4000244140625</ele>
        <time>2014-11-28T06:24:36.000Z</time>
      </trkpt>
      <trkpt lon="34.79235738515854" lat="30.6105506233871">
        <ele>824.2000122070312</ele>
        <time>2014-11-28T06:24:41.000Z</time>
      </trkpt>
      <trkpt lon="34.79195178486407" lat="30.610449705272913">
        <ele>823.5999755859375</ele>
        <time>2014-11-28T06:24:48.000Z</time>
      </trkpt>
      <trkpt lon="34.79164567776024" lat="30.610255664214492">
        <ele>825.4000244140625</ele>
        <time>2014-11-28T06:24:55.000Z</time>
      </trkpt>
      <trkpt lon="34.79161608964205" lat="30.6102242320776">
        <ele>825.5999755859375</ele>
        <time>2014-11-28T06:24:56.000Z</time>
      </trkpt>
      <trkpt lon="34.79142867028713" lat="30.609956430271268">
        <ele>827.7999877929688</ele>
        <time>2014-11-28T06:25:05.000Z</time>
      </trkpt>
      <trkpt lon="34.791219122707844" lat="30.609652251005173">
        <ele>829.7999877929688</ele>
        <time>2014-11-28T06:25:16.000Z</time>
      </trkpt>
      <trkpt lon="34.79101167060435" lat="30.60936626046896">
        <ele>831.0</ele>
        <time>2014-11-28T06:25:28.000Z</time>
      </trkpt>
      <trkpt lon="34.79078100062907" lat="30.609102314338088">
        <ele>832.5999755859375</ele>
        <time>2014-11-28T06:25:39.000Z</time>
      </trkpt>
      <trkpt lon="34.79050364345312" lat="30.608916487544775">
        <ele>835.0</ele>
        <time>2014-11-28T06:25:48.000Z</time>
      </trkpt>
      <trkpt lon="34.79009259492159" lat="30.60874960385263">
        <ele>836.0</ele>
        <time>2014-11-28T06:25:59.000Z</time>
      </trkpt>
      <trkpt lon="34.78965053334832" lat="30.60869101434946">
        <ele>836.5999755859375</ele>
        <time>2014-11-28T06:26:09.000Z</time>
      </trkpt>
      <trkpt lon="34.78920042514801" lat="30.608720015734434">
        <ele>835.7999877929688</ele>
        <time>2014-11-28T06:26:19.000Z</time>
      </trkpt>
      <trkpt lon="34.78880798444152" lat="30.608874326571822">
        <ele>832.7999877929688</ele>
        <time>2014-11-28T06:26:29.000Z</time>
      </trkpt>
      <trkpt lon="34.788561556488276" lat="30.609020926058292">
        <ele>834.2000122070312</ele>
        <time>2014-11-28T06:26:37.000Z</time>
      </trkpt>
      <trkpt lon="34.788336753845215" lat="30.609155790880322">
        <ele>836.0</ele>
        <time>2014-11-28T06:26:44.000Z</time>
      </trkpt>
      <trkpt lon="34.78803810663521" lat="30.609295684844255">
        <ele>836.4000244140625</ele>
        <time>2014-11-28T06:26:52.000Z</time>
      </trkpt>
      <trkpt lon="34.787994688376784" lat="30.60930758714676">
        <ele>836.4000244140625</ele>
        <time>2014-11-28T06:26:56.000Z</time>
      </trkpt>
      <trkpt lon="34.787952275946736" lat="30.60931881889701">
        <ele>836.2000122070312</ele>
        <time>2014-11-28T06:27:09.000Z</time>
      </trkpt>
      <trkpt lon="34.78781171143055" lat="30.609367517754436">
        <ele>837.0</ele>
        <time>2014-11-28T06:27:14.000Z</time>
      </trkpt>
      <trkpt lon="34.78766745887697" lat="30.60940532013774">
        <ele>839.0</ele>
        <time>2014-11-28T06:27:17.000Z</time>
      </trkpt>
      <trkpt lon="34.78761222213507" lat="30.609409930184484">
        <ele>839.5999755859375</ele>
        <time>2014-11-28T06:27:18.000Z</time>
      </trkpt>
      <trkpt lon="34.78755715303123" lat="30.609412360936403">
        <ele>840.2000122070312</ele>
        <time>2014-11-28T06:27:19.000Z</time>
      </trkpt>
      <trkpt lon="34.78750032372773" lat="30.609410014003515">
        <ele>840.5999755859375</ele>
        <time>2014-11-28T06:27:20.000Z</time>
      </trkpt>
      <trkpt lon="34.78744198568165" lat="30.609403559938073">
        <ele>841.2000122070312</ele>
        <time>2014-11-28T06:27:21.000Z</time>
      </trkpt>
      <trkpt lon="34.787384904921055" lat="30.60939224436879">
        <ele>841.5999755859375</ele>
        <time>2014-11-28T06:27:22.000Z</time>
      </trkpt>
      <trkpt lon="34.78732908144593" lat="30.609376821666956">
        <ele>842.0</ele>
        <time>2014-11-28T06:27:23.000Z</time>
      </trkpt>
      <trkpt lon="34.78716286830604" lat="30.609307838603854">
        <ele>843.2000122070312</ele>
        <time>2014-11-28T06:27:26.000Z</time>
      </trkpt>
      <trkpt lon="34.7869576793164" lat="30.609201723709702">
        <ele>844.7999877929688</ele>
        <time>2014-11-28T06:27:30.000Z</time>
      </trkpt>
      <trkpt lon="34.78691266849637" lat="30.60917322523892">
        <ele>845.2000122070312</ele>
        <time>2014-11-28T06:27:31.000Z</time>
      </trkpt>
      <trkpt lon="34.78687109425664" lat="30.609139781445265">
        <ele>845.5999755859375</ele>
        <time>2014-11-28T06:27:32.000Z</time>
      </trkpt>
      <trkpt lon="34.786835722625256" lat="30.609104242175817">
        <ele>845.7999877929688</ele>
        <time>2014-11-28T06:27:33.000Z</time>
      </trkpt>
      <trkpt lon="34.786804458126426" lat="30.60906669124961">
        <ele>846.0</ele>
        <time>2014-11-28T06:27:34.000Z</time>
      </trkpt>
      <trkpt lon="34.78677696548402" lat="30.60902771539986">
        <ele>846.2000122070312</ele>
        <time>2014-11-28T06:27:35.000Z</time>
      </trkpt>
      <trkpt lon="34.78675198741257" lat="30.60898999683559">
        <ele>846.2000122070312</ele>
        <time>2014-11-28T06:27:36.000Z</time>
      </trkpt>
      <trkpt lon="34.786531124264" lat="30.608679447323084">
        <ele>846.5999755859375</ele>
        <time>2014-11-28T06:27:46.000Z</time>
      </trkpt>
      <trkpt lon="34.786342615261674" lat="30.608429834246635">
        <ele>846.5999755859375</ele>
        <time>2014-11-28T06:27:56.000Z</time>
      </trkpt>
      <trkpt lon="34.78612736798823" lat="30.608145352452993">
        <ele>846.2000122070312</ele>
        <time>2014-11-28T06:28:08.000Z</time>
      </trkpt>
      <trkpt lon="34.78594715707004" lat="30.60789397917688">
        <ele>846.2000122070312</ele>
        <time>2014-11-28T06:28:18.000Z</time>
      </trkpt>
      <trkpt lon="34.78583416901529" lat="30.607643611729145">
        <ele>846.7999877929688</ele>
        <time>2014-11-28T06:28:28.000Z</time>
      </trkpt>
      <trkpt lon="34.78572671301663" lat="30.607332978397608">
        <ele>847.0</ele>
        <time>2014-11-28T06:28:40.000Z</time>
      </trkpt>
      <trkpt lon="34.785631159320474" lat="30.607073809951544">
        <ele>847.7999877929688</ele>
        <time>2014-11-28T06:28:50.000Z</time>
      </trkpt>
      <trkpt lon="34.78554256260395" lat="30.606814976781607">
        <ele>848.7999877929688</ele>
        <time>2014-11-28T06:29:00.000Z</time>
      </trkpt>
      <trkpt lon="34.78540945798159" lat="30.606544241309166">
        <ele>850.4000244140625</ele>
        <time>2014-11-28T06:29:11.000Z</time>
      </trkpt>
      <trkpt lon="34.78518540970981" lat="30.60634701512754">
        <ele>853.0</ele>
        <time>2014-11-28T06:29:20.000Z</time>
      </trkpt>
      <trkpt lon="34.78509589098394" lat="30.606303848326206">
        <ele>853.4000244140625</ele>
        <time>2014-11-28T06:29:22.000Z</time>
      </trkpt>
      <trkpt lon="34.78505741804838" lat="30.606279205530882">
        <ele>853.5999755859375</ele>
        <time>2014-11-28T06:29:23.000Z</time>
      </trkpt>
      <trkpt lon="34.78501969948411" lat="30.60625473037362">
        <ele>853.5999755859375</ele>
        <time>2014-11-28T06:29:24.000Z</time>
      </trkpt>
      <trkpt lon="34.78497804142535" lat="30.60623126104474">
        <ele>853.7999877929688</ele>
        <time>2014-11-28T06:29:25.000Z</time>
      </trkpt>
      <trkpt lon="34.78493680246174" lat="30.60621315613389">
        <ele>854.0</ele>
        <time>2014-11-28T06:29:26.000Z</time>
      </trkpt>
      <trkpt lon="34.78489707224071" lat="30.606201253831387">
        <ele>854.2000122070312</ele>
        <time>2014-11-28T06:29:27.000Z</time>
      </trkpt>
      <trkpt lon="34.784854240715504" lat="30.606188848614693">
        <ele>854.5999755859375</ele>
        <time>2014-11-28T06:29:28.000Z</time>
      </trkpt>
      <trkpt lon="34.78480906225741" lat="30.606174934655428">
        <ele>854.7999877929688</ele>
        <time>2014-11-28T06:29:29.000Z</time>
      </trkpt>
      <trkpt lon="34.78476614691317" lat="30.606159763410687">
        <ele>855.2000122070312</ele>
        <time>2014-11-28T06:29:30.000Z</time>
      </trkpt>
      <trkpt lon="34.78427127934992" lat="30.605996735394">
        <ele>857.4000244140625</ele>
        <time>2014-11-28T06:29:42.000Z</time>
      </trkpt>
      <trkpt lon="34.78391529992223" lat="30.605848794803023">
        <ele>856.5999755859375</ele>
        <time>2014-11-28T06:29:50.000Z</time>
      </trkpt>
      <trkpt lon="34.78353585116565" lat="30.605564983561635">
        <ele>855.2000122070312</ele>
        <time>2014-11-28T06:29:59.000Z</time>
      </trkpt>
      <trkpt lon="34.78344775736332" lat="30.60543623752892">
        <ele>855.2000122070312</ele>
        <time>2014-11-28T06:30:02.000Z</time>
      </trkpt>
      <trkpt lon="34.78342889808118" lat="30.605388963595033">
        <ele>855.4000244140625</ele>
        <time>2014-11-28T06:30:03.000Z</time>
      </trkpt>
      <trkpt lon="34.78325765579939" lat="30.604864172637463">
        <ele>855.0</ele>
        <time>2014-11-28T06:30:14.000Z</time>
      </trkpt>
      <trkpt lon="34.783073673024774" lat="30.604357570409775">
        <ele>855.2000122070312</ele>
        <time>2014-11-28T06:30:25.000Z</time>
      </trkpt>
      <trkpt lon="34.78292590007186" lat="30.60396051965654">
        <ele>856.5999755859375</ele>
        <time>2014-11-28T06:30:34.000Z</time>
      </trkpt>
      <trkpt lon="34.78280964307487" lat="30.60358869843185">
        <ele>857.2000122070312</ele>
        <time>2014-11-28T06:30:44.000Z</time>
      </trkpt>
      <trkpt lon="34.78270847350359" lat="30.603281082585454">
        <ele>857.4000244140625</ele>
        <time>2014-11-28T06:30:54.000Z</time>
      </trkpt>
      <trkpt lon="34.78261224925518" lat="30.603078827261925">
        <ele>857.5999755859375</ele>
        <time>2014-11-28T06:31:01.000Z</time>
      </trkpt>
      <trkpt lon="34.78241837583482" lat="30.602883528918028">
        <ele>858.0</ele>
        <time>2014-11-28T06:31:09.000Z</time>
      </trkpt>
      <trkpt lon="34.782102294266224" lat="30.602717148140073">
        <ele>858.7999877929688</ele>
        <time>2014-11-28T06:31:21.000Z</time>
      </trkpt>
      <trkpt lon="34.781917221844196" lat="30.602654283866286">
        <ele>859.5999755859375</ele>
        <time>2014-11-28T06:31:29.000Z</time>
      </trkpt>
      <trkpt lon="34.78190263733268" lat="30.602651434019208">
        <ele>859.5999755859375</ele>
        <time>2014-11-28T06:31:38.000Z</time>
      </trkpt>
      <trkpt lon="34.781770119443536" lat="30.602617487311363">
        <ele>860.2000122070312</ele>
        <time>2014-11-28T06:31:45.000Z</time>
      </trkpt>
      <trkpt lon="34.78147901594639" lat="30.60252880677581">
        <ele>861.4000244140625</ele>
        <time>2014-11-28T06:31:53.000Z</time>
      </trkpt>
      <trkpt lon="34.78109009563923" lat="30.602393858134747">
        <ele>863.7999877929688</ele>
        <time>2014-11-28T06:32:03.000Z</time>
      </trkpt>
      <trkpt lon="34.78081122972071" lat="30.60221574269235">
        <ele>867.0</ele>
        <time>2014-11-28T06:32:12.000Z</time>
      </trkpt>
      <trkpt lon="34.78063671849668" lat="30.601992532610893">
        <ele>869.5999755859375</ele>
        <time>2014-11-28T06:32:21.000Z</time>
      </trkpt>
      <trkpt lon="34.78043018840253" lat="30.601748451590538">
        <ele>872.7999877929688</ele>
        <time>2014-11-28T06:32:30.000Z</time>
      </trkpt>
      <trkpt lon="34.780211336910725" lat="30.60148852877319">
        <ele>877.0</ele>
        <time>2014-11-28T06:32:40.000Z</time>
      </trkpt>
      <trkpt lon="34.78001620620489" lat="30.601258780807257">
        <ele>879.2000122070312</ele>
        <time>2014-11-28T06:32:50.000Z</time>
      </trkpt>
      <trkpt lon="34.77973507717252" lat="30.601023752242327">
        <ele>879.7999877929688</ele>
        <time>2014-11-28T06:33:02.000Z</time>
      </trkpt>
      <trkpt lon="34.779507676139474" lat="30.60087882913649">
        <ele>880.4000244140625</ele>
        <time>2014-11-28T06:33:11.000Z</time>
      </trkpt>
      <trkpt lon="34.77914985269308" lat="30.600700126960874">
        <ele>877.5999755859375</ele>
        <time>2014-11-28T06:33:23.000Z</time>
      </trkpt>
      <trkpt lon="34.77874115109444" lat="30.600541457533836">
        <ele>875.4000244140625</ele>
        <time>2014-11-28T06:33:35.000Z</time>
      </trkpt>
      <trkpt lon="34.7784183640033" lat="30.600501811131835">
        <ele>871.2000122070312</ele>
        <time>2014-11-28T06:33:43.000Z</time>
      </trkpt>
      <trkpt lon="34.77802634239197" lat="30.600612871348858">
        <ele>867.5999755859375</ele>
        <time>2014-11-28T06:33:51.000Z</time>
      </trkpt>
      <trkpt lon="34.77797362022102" lat="30.60064036399126">
        <ele>867.2000122070312</ele>
        <time>2014-11-28T06:33:52.000Z</time>
      </trkpt>
      <trkpt lon="34.77762183174491" lat="30.600882098078728">
        <ele>865.7999877929688</ele>
        <time>2014-11-28T06:33:58.000Z</time>
      </trkpt>
      <trkpt lon="34.77697206661105" lat="30.601348970085382">
        <ele>857.2000122070312</ele>
        <time>2014-11-28T06:34:07.000Z</time>
      </trkpt>
      <trkpt lon="34.776108814403415" lat="30.60192388482392">
        <ele>851.2000122070312</ele>
        <time>2014-11-28T06:34:18.000Z</time>
      </trkpt>
      <trkpt lon="34.77566641755402" lat="30.602158745750785">
        <ele>849.4000244140625</ele>
        <time>2014-11-28T06:34:24.000Z</time>
      </trkpt>
      <trkpt lon="34.77559994906187" lat="30.602181376889348">
        <ele>849.0</ele>
        <time>2014-11-28T06:34:25.000Z</time>
      </trkpt>
      <trkpt lon="34.77522410452366" lat="30.60223577544093">
        <ele>849.5999755859375</ele>
        <time>2014-11-28T06:34:31.000Z</time>
      </trkpt>
      <trkpt lon="34.775162329897285" lat="30.602236781269312">
        <ele>850.2000122070312</ele>
        <time>2014-11-28T06:34:32.000Z</time>
      </trkpt>
      <trkpt lon="34.77503299713135" lat="30.602219263091683">
        <ele>851.5999755859375</ele>
        <time>2014-11-28T06:34:34.000Z</time>
      </trkpt>
      <trkpt lon="34.77497532963753" lat="30.602206103503704">
        <ele>852.4000244140625</ele>
        <time>2014-11-28T06:34:35.000Z</time>
      </trkpt>
      <trkpt lon="34.77470660582185" lat="30.602108873426914">
        <ele>854.7999877929688</ele>
        <time>2014-11-28T06:34:41.000Z</time>
      </trkpt>
      <trkpt lon="34.77445422671735" lat="30.60199286788702">
        <ele>856.7999877929688</ele>
        <time>2014-11-28T06:34:48.000Z</time>
      </trkpt>
      <trkpt lon="34.77419229224324" lat="30.601827492937446">
        <ele>858.5999755859375</ele>
        <time>2014-11-28T06:34:56.000Z</time>
      </trkpt>
      <trkpt lon="34.773872438818216" lat="30.601618867367506">
        <ele>860.2000122070312</ele>
        <time>2014-11-28T06:35:07.000Z</time>
      </trkpt>
      <trkpt lon="34.773598266765475" lat="30.601454582065344">
        <ele>861.4000244140625</ele>
        <time>2014-11-28T06:35:15.000Z</time>
      </trkpt>
      <trkpt lon="34.77315888740122" lat="30.60119197703898">
        <ele>862.4000244140625</ele>
        <time>2014-11-28T06:35:27.000Z</time>
      </trkpt>
      <trkpt lon="34.772744569927454" lat="30.600920654833317">
        <ele>863.4000244140625</ele>
        <time>2014-11-28T06:35:38.000Z</time>
      </trkpt>
      <trkpt lon="34.772489089518785" lat="30.600694846361876">
        <ele>865.2000122070312</ele>
        <time>2014-11-28T06:35:46.000Z</time>
      </trkpt>
      <trkpt lon="34.7724642790854" lat="30.600659977644682">
        <ele>865.2000122070312</ele>
        <time>2014-11-28T06:35:47.000Z</time>
      </trkpt>
      <trkpt lon="34.772320026531816" lat="30.60039209201932">
        <ele>865.5999755859375</ele>
        <time>2014-11-28T06:35:55.000Z</time>
      </trkpt>
      <trkpt lon="34.77222891524434" lat="30.600046338513494">
        <ele>865.5999755859375</ele>
        <time>2014-11-28T06:36:04.000Z</time>
      </trkpt>
      <trkpt lon="34.77211047895253" lat="30.59960938990116">
        <ele>865.7999877929688</ele>
        <time>2014-11-28T06:36:15.000Z</time>
      </trkpt>
      <trkpt lon="34.771987684071064" lat="30.59923161752522">
        <ele>866.5999755859375</ele>
        <time>2014-11-28T06:36:26.000Z</time>
      </trkpt>
      <trkpt lon="34.77187151089311" lat="30.59889885596931">
        <ele>867.4000244140625</ele>
        <time>2014-11-28T06:36:36.000Z</time>
      </trkpt>
      <trkpt lon="34.77164067327976" lat="30.59858813881874">
        <ele>866.5999755859375</ele>
        <time>2014-11-28T06:36:47.000Z</time>
      </trkpt>
      <trkpt lon="34.77136147208512" lat="30.598409101366997">
        <ele>867.5999755859375</ele>
        <time>2014-11-28T06:36:55.000Z</time>
      </trkpt>
      <trkpt lon="34.770927960053086" lat="30.598285887390375">
        <ele>868.5999755859375</ele>
        <time>2014-11-28T06:37:05.000Z</time>
      </trkpt>
      <trkpt lon="34.77051607333124" lat="30.598195111379027">
        <ele>868.4000244140625</ele>
        <time>2014-11-28T06:37:15.000Z</time>
      </trkpt>
      <trkpt lon="34.77002464234829" lat="30.598075836896896">
        <ele>867.0</ele>
        <time>2014-11-28T06:37:26.000Z</time>
      </trkpt>
      <trkpt lon="34.769522147253156" lat="30.59799201786518">
        <ele>865.7999877929688</ele>
        <time>2014-11-28T06:37:35.000Z</time>
      </trkpt>
      <trkpt lon="34.76945391856134" lat="30.597996208816767">
        <ele>865.0</ele>
        <time>2014-11-28T06:37:36.000Z</time>
      </trkpt>
      <trkpt lon="34.769384264945984" lat="30.598004087805748">
        <ele>864.2000122070312</ele>
        <time>2014-11-28T06:37:37.000Z</time>
      </trkpt>
      <trkpt lon="34.7687254473567" lat="30.59811213053763">
        <ele>857.2000122070312</ele>
        <time>2014-11-28T06:37:46.000Z</time>
      </trkpt>
      <trkpt lon="34.768195962533355" lat="30.598216569051147">
        <ele>854.7999877929688</ele>
        <time>2014-11-28T06:37:54.000Z</time>
      </trkpt>
      <trkpt lon="34.768140809610486" lat="30.59823584742844">
        <ele>854.5999755859375</ele>
        <time>2014-11-28T06:37:55.000Z</time>
      </trkpt>
      <trkpt lon="34.768088925629854" lat="30.598260490223765">
        <ele>854.4000244140625</ele>
        <time>2014-11-28T06:37:56.000Z</time>
      </trkpt>
      <trkpt lon="34.76798851042986" lat="30.598327964544296">
        <ele>853.4000244140625</ele>
        <time>2014-11-28T06:37:58.000Z</time>
      </trkpt>
      <trkpt lon="34.76794375106692" lat="30.598370963707566">
        <ele>853.0</ele>
        <time>2014-11-28T06:37:59.000Z</time>
      </trkpt>
      <trkpt lon="34.76764694787562" lat="30.598661145195365">
        <ele>852.5999755859375</ele>
        <time>2014-11-28T06:38:05.000Z</time>
      </trkpt>
      <trkpt lon="34.76758978329599" lat="30.59870297089219">
        <ele>852.0</ele>
        <time>2014-11-28T06:38:06.000Z</time>
      </trkpt>
      <trkpt lon="34.767524572089314" lat="30.598729960620403">
        <ele>851.4000244140625</ele>
        <time>2014-11-28T06:38:07.000Z</time>
      </trkpt>
      <trkpt lon="34.7674560919404" lat="30.598743790760636">
        <ele>850.7999877929688</ele>
        <time>2014-11-28T06:38:08.000Z</time>
      </trkpt>
      <trkpt lon="34.76738601922989" lat="30.598751502111554">
        <ele>850.2000122070312</ele>
        <time>2014-11-28T06:38:09.000Z</time>
      </trkpt>
      <trkpt lon="34.76731820963323" lat="30.59875275939703">
        <ele>849.5999755859375</ele>
        <time>2014-11-28T06:38:10.000Z</time>
      </trkpt>
      <trkpt lon="34.76724939420819" lat="30.598749993368983">
        <ele>849.0</ele>
        <time>2014-11-28T06:38:11.000Z</time>
      </trkpt>
      <trkpt lon="34.76710162125528" lat="30.598745048046112">
        <ele>847.7999877929688</ele>
        <time>2014-11-28T06:38:13.000Z</time>
      </trkpt>
      <trkpt lon="34.767018388956785" lat="30.598752424120903">
        <ele>847.2000122070312</ele>
        <time>2014-11-28T06:38:14.000Z</time>
      </trkpt>
      <trkpt lon="34.766927529126406" lat="30.598769187927246">
        <ele>847.0</ele>
        <time>2014-11-28T06:38:15.000Z</time>
      </trkpt>
      <trkpt lon="34.76683574728668" lat="30.598797015845776">
        <ele>846.5999755859375</ele>
        <time>2014-11-28T06:38:16.000Z</time>
      </trkpt>
      <trkpt lon="34.766749078407884" lat="30.598831130191684">
        <ele>846.0</ele>
        <time>2014-11-28T06:38:17.000Z</time>
      </trkpt>
      <trkpt lon="34.766667606309056" lat="30.598867423832417">
        <ele>845.5999755859375</ele>
        <time>2014-11-28T06:38:18.000Z</time>
      </trkpt>
      <trkpt lon="34.7665929235518" lat="30.59890723787248">
        <ele>845.5999755859375</ele>
        <time>2014-11-28T06:38:19.000Z</time>
      </trkpt>
      <trkpt lon="34.76606871932745" lat="30.599246537312865">
        <ele>842.7999877929688</ele>
        <time>2014-11-28T06:38:27.000Z</time>
      </trkpt>
      <trkpt lon="34.76574920117855" lat="30.599591871723533">
        <ele>840.7999877929688</ele>
        <time>2014-11-28T06:38:34.000Z</time>
      </trkpt>
      <trkpt lon="34.76570125669241" lat="30.59962841682136">
        <ele>840.4000244140625</ele>
        <time>2014-11-28T06:38:35.000Z</time>
      </trkpt>
      <trkpt lon="34.765645852312446" lat="30.59965825639665">
        <ele>840.0</ele>
        <time>2014-11-28T06:38:36.000Z</time>
      </trkpt>
      <trkpt lon="34.76558407768607" lat="30.59968264773488">
        <ele>839.7999877929688</ele>
        <time>2014-11-28T06:38:37.000Z</time>
      </trkpt>
      <trkpt lon="34.76551601663232" lat="30.59970016591251">
        <ele>839.5999755859375</ele>
        <time>2014-11-28T06:38:38.000Z</time>
      </trkpt>
      <trkpt lon="34.7654446028173" lat="30.59971542097628">
        <ele>839.4000244140625</ele>
        <time>2014-11-28T06:38:39.000Z</time>
      </trkpt>
      <trkpt lon="34.76509985513985" lat="30.599807873368263">
        <ele>840.4000244140625</ele>
        <time>2014-11-28T06:38:44.000Z</time>
      </trkpt>
      <trkpt lon="34.7650405112654" lat="30.599837377667427">
        <ele>840.7999877929688</ele>
        <time>2014-11-28T06:38:45.000Z</time>
      </trkpt>
      <trkpt lon="34.76498971693218" lat="30.59987316839397">
        <ele>841.0</ele>
        <time>2014-11-28T06:38:46.000Z</time>
      </trkpt>
      <trkpt lon="34.76494621485472" lat="30.59991331771016">
        <ele>841.4000244140625</ele>
        <time>2014-11-28T06:38:47.000Z</time>
      </trkpt>
      <trkpt lon="34.76490774191916" lat="30.599958412349224">
        <ele>841.5999755859375</ele>
        <time>2014-11-28T06:38:48.000Z</time>
      </trkpt>
      <trkpt lon="34.764872370287776" lat="30.600004428997636">
        <ele>842.0</ele>
        <time>2014-11-28T06:38:49.000Z</time>
      </trkpt>
      <trkpt lon="34.76472292095423" lat="30.600174833089113">
        <ele>840.4000244140625</ele>
        <time>2014-11-28T06:38:53.000Z</time>
      </trkpt>
      <trkpt lon="34.76443047635257" lat="30.600369377061725">
        <ele>838.5999755859375</ele>
        <time>2014-11-28T06:38:59.000Z</time>
      </trkpt>
      <trkpt lon="34.76407608948648" lat="30.600545313209295">
        <ele>835.5999755859375</ele>
        <time>2014-11-28T06:39:05.000Z</time>
      </trkpt>
      <trkpt lon="34.763733856379986" lat="30.60074580833316">
        <ele>835.4000244140625</ele>
        <time>2014-11-28T06:39:11.000Z</time>
      </trkpt>
      <trkpt lon="34.76319087669253" lat="30.600899029523134">
        <ele>835.5999755859375</ele>
        <time>2014-11-28T06:39:19.000Z</time>
      </trkpt>
      <trkpt lon="34.76257204078138" lat="30.601021656766534">
        <ele>835.2000122070312</ele>
        <time>2014-11-28T06:39:29.000Z</time>
      </trkpt>
      <trkpt lon="34.76201212964952" lat="30.60112601146102">
        <ele>833.0</ele>
        <time>2014-11-28T06:39:37.000Z</time>
      </trkpt>
      <trkpt lon="34.761383486911654" lat="30.601259032264352">
        <ele>831.4000244140625</ele>
        <time>2014-11-28T06:39:46.000Z</time>
      </trkpt>
      <trkpt lon="34.76124401204288" lat="30.60129750519991">
        <ele>831.2000122070312</ele>
        <time>2014-11-28T06:39:48.000Z</time>
      </trkpt>
      <trkpt lon="34.76118114776909" lat="30.60132483020425">
        <ele>831.0</ele>
        <time>2014-11-28T06:39:49.000Z</time>
      </trkpt>
      <trkpt lon="34.76112934760749" lat="30.60135575942695">
        <ele>831.0</ele>
        <time>2014-11-28T06:39:50.000Z</time>
      </trkpt>
      <trkpt lon="34.7609528247267" lat="30.601489786058664">
        <ele>831.5999755859375</ele>
        <time>2014-11-28T06:39:54.000Z</time>
      </trkpt>
      <trkpt lon="34.7609078977257" lat="30.60151593759656">
        <ele>831.7999877929688</ele>
        <time>2014-11-28T06:39:55.000Z</time>
      </trkpt>
      <trkpt lon="34.760861126706004" lat="30.601537143811584">
        <ele>832.0</ele>
        <time>2014-11-28T06:39:56.000Z</time>
      </trkpt>
      <trkpt lon="34.76081108674407" lat="30.601552985608578">
        <ele>832.0</ele>
        <time>2014-11-28T06:39:57.000Z</time>
      </trkpt>
      <trkpt lon="34.76075400598347" lat="30.60156480409205">
        <ele>832.0</ele>
        <time>2014-11-28T06:39:58.000Z</time>
      </trkpt>
      <trkpt lon="34.76069340482354" lat="30.601575449109077">
        <ele>832.0</ele>
        <time>2014-11-28T06:39:59.000Z</time>
      </trkpt>
      <trkpt lon="34.760630959644914" lat="30.601590871810913">
        <ele>832.0</ele>
        <time>2014-11-28T06:40:00.000Z</time>
      </trkpt>
      <trkpt lon="34.76019593887031" lat="30.601770747452974">
        <ele>830.5999755859375</ele>
        <time>2014-11-28T06:40:07.000Z</time>
      </trkpt>
      <trkpt lon="34.760125363245606" lat="30.60178608633578">
        <ele>830.5999755859375</ele>
        <time>2014-11-28T06:40:08.000Z</time>
      </trkpt>
      <trkpt lon="34.760051937773824" lat="30.601795306429267">
        <ele>830.5999755859375</ele>
        <time>2014-11-28T06:40:09.000Z</time>
      </trkpt>
      <trkpt lon="34.75998328998685" lat="30.601802598685026">
        <ele>830.5999755859375</ele>
        <time>2014-11-28T06:40:10.000Z</time>
      </trkpt>
      <trkpt lon="34.75991983897984" lat="30.601815842092037">
        <ele>830.4000244140625</ele>
        <time>2014-11-28T06:40:11.000Z</time>
      </trkpt>
      <trkpt lon="34.759860998019576" lat="30.601837383583188">
        <ele>830.2000122070312</ele>
        <time>2014-11-28T06:40:12.000Z</time>
      </trkpt>
      <trkpt lon="34.75981070660055" lat="30.601866049692035">
        <ele>830.0</ele>
        <time>2014-11-28T06:40:13.000Z</time>
      </trkpt>
      <trkpt lon="34.75976527668536" lat="30.60190150514245">
        <ele>829.7999877929688</ele>
        <time>2014-11-28T06:40:14.000Z</time>
      </trkpt>
      <trkpt lon="34.75972303189337" lat="30.60194115154445">
        <ele>829.7999877929688</ele>
        <time>2014-11-28T06:40:15.000Z</time>
      </trkpt>
      <trkpt lon="34.75968221202493" lat="30.601982390508056">
        <ele>829.5999755859375</ele>
        <time>2014-11-28T06:40:16.000Z</time>
      </trkpt>
      <trkpt lon="34.75939244963229" lat="30.602221777662635">
        <ele>829.0</ele>
        <time>2014-11-28T06:40:22.000Z</time>
      </trkpt>
      <trkpt lon="34.75933251902461" lat="30.60225186869502">
        <ele>829.2000122070312</ele>
        <time>2014-11-28T06:40:23.000Z</time>
      </trkpt>
      <trkpt lon="34.75927040912211" lat="30.602278606966138">
        <ele>829.4000244140625</ele>
        <time>2014-11-28T06:40:24.000Z</time>
      </trkpt>
      <trkpt lon="34.75920796394348" lat="30.602301405742764">
        <ele>829.4000244140625</ele>
        <time>2014-11-28T06:40:25.000Z</time>
      </trkpt>
      <trkpt lon="34.75914786569774" lat="30.602321522310376">
        <ele>829.5999755859375</ele>
        <time>2014-11-28T06:40:26.000Z</time>
      </trkpt>
      <trkpt lon="34.758794819936156" lat="30.602444484829903">
        <ele>830.2000122070312</ele>
        <time>2014-11-28T06:40:32.000Z</time>
      </trkpt>
      <trkpt lon="34.758673617616296" lat="30.6024722289294">
        <ele>830.4000244140625</ele>
        <time>2014-11-28T06:40:34.000Z</time>
      </trkpt>
      <trkpt lon="34.75802938453853" lat="30.60251086950302">
        <ele>830.2000122070312</ele>
        <time>2014-11-28T06:40:44.000Z</time>
      </trkpt>
      <trkpt lon="34.7576146479696" lat="30.602459823712707">
        <ele>829.0</ele>
        <time>2014-11-28T06:40:51.000Z</time>
      </trkpt>
      <trkpt lon="34.757263362407684" lat="30.602375837042928">
        <ele>826.7999877929688</ele>
        <time>2014-11-28T06:41:00.000Z</time>
      </trkpt>
      <trkpt lon="34.75685608573258" lat="30.602277014404535">
        <ele>823.5999755859375</ele>
        <time>2014-11-28T06:41:08.000Z</time>
      </trkpt>
      <trkpt lon="34.7563748806715" lat="30.602244324982166">
        <ele>822.2000122070312</ele>
        <time>2014-11-28T06:41:17.000Z</time>
      </trkpt>
      <trkpt lon="34.75631897337735" lat="30.602253545075655">
        <ele>822.2000122070312</ele>
        <time>2014-11-28T06:41:18.000Z</time>
      </trkpt>
      <trkpt lon="34.75566434673965" lat="30.60236074961722">
        <ele>822.7999877929688</ele>
        <time>2014-11-28T06:41:29.000Z</time>
      </trkpt>
      <trkpt lon="34.755459325388074" lat="30.602411795407534">
        <ele>822.2000122070312</ele>
        <time>2014-11-28T06:41:32.000Z</time>
      </trkpt>
      <trkpt lon="34.75539201870561" lat="30.60243953950703">
        <ele>821.7999877929688</ele>
        <time>2014-11-28T06:41:33.000Z</time>
      </trkpt>
      <trkpt lon="34.755332758650184" lat="30.60247616842389">
        <ele>821.5999755859375</ele>
        <time>2014-11-28T06:41:34.000Z</time>
      </trkpt>
      <trkpt lon="34.75528221577406" lat="30.6025205925107">
        <ele>821.5999755859375</ele>
        <time>2014-11-28T06:41:35.000Z</time>
      </trkpt>
      <trkpt lon="34.755241898819804" lat="30.602570716291666">
        <ele>821.5999755859375</ele>
        <time>2014-11-28T06:41:36.000Z</time>
      </trkpt>
      <trkpt lon="34.755210718140006" lat="30.602625031024218">
        <ele>821.4000244140625</ele>
        <time>2014-11-28T06:41:37.000Z</time>
      </trkpt>
      <trkpt lon="34.75517920218408" lat="30.60268035158515">
        <ele>821.4000244140625</ele>
        <time>2014-11-28T06:41:38.000Z</time>
      </trkpt>
      <trkpt lon="34.75505196489394" lat="30.602897526696324">
        <ele>819.4000244140625</ele>
        <time>2014-11-28T06:41:42.000Z</time>
      </trkpt>
      <trkpt lon="34.755015755072236" lat="30.602944884449244">
        <ele>818.5999755859375</ele>
        <time>2014-11-28T06:41:43.000Z</time>
      </trkpt>
      <trkpt lon="34.75465550087392" lat="30.60323883779347">
        <ele>817.4000244140625</ele>
        <time>2014-11-28T06:41:50.000Z</time>
      </trkpt>
      <trkpt lon="34.75417974404991" lat="30.60347286053002">
        <ele>818.4000244140625</ele>
        <time>2014-11-28T06:41:57.000Z</time>
      </trkpt>
      <trkpt lon="34.753649001941085" lat="30.603840993717313">
        <ele>817.0</ele>
        <time>2014-11-28T06:42:06.000Z</time>
      </trkpt>
      <trkpt lon="34.75358278490603" lat="30.603871503844857">
        <ele>817.2000122070312</ele>
        <time>2014-11-28T06:42:07.000Z</time>
      </trkpt>
      <trkpt lon="34.75345152430236" lat="30.603914167732">
        <ele>817.5999755859375</ele>
        <time>2014-11-28T06:42:09.000Z</time>
      </trkpt>
      <trkpt lon="34.75338748656213" lat="30.603927578777075">
        <ele>817.5999755859375</ele>
        <time>2014-11-28T06:42:10.000Z</time>
      </trkpt>
      <trkpt lon="34.75332126952708" lat="30.603938475251198">
        <ele>817.7999877929688</ele>
        <time>2014-11-28T06:42:11.000Z</time>
      </trkpt>
      <trkpt lon="34.7532594949007" lat="30.603956328704953">
        <ele>818.0</ele>
        <time>2014-11-28T06:42:12.000Z</time>
      </trkpt>
      <trkpt lon="34.75319587625563" lat="30.603983737528324">
        <ele>818.0</ele>
        <time>2014-11-28T06:42:13.000Z</time>
      </trkpt>
      <trkpt lon="34.75313426926732" lat="30.60401131398976">
        <ele>818.2000122070312</ele>
        <time>2014-11-28T06:42:14.000Z</time>
      </trkpt>
      <trkpt lon="34.75251467898488" lat="30.604327395558357">
        <ele>819.7999877929688</ele>
        <time>2014-11-28T06:42:25.000Z</time>
      </trkpt>
      <trkpt lon="34.752009669318795" lat="30.604660408571362">
        <ele>815.4000244140625</ele>
        <time>2014-11-28T06:42:34.000Z</time>
      </trkpt>
      <trkpt lon="34.75137951783836" lat="30.60493441298604">
        <ele>816.5999755859375</ele>
        <time>2014-11-28T06:42:43.000Z</time>
      </trkpt>
      <trkpt lon="34.751125797629356" lat="30.605097776278853">
        <ele>816.2000122070312</ele>
        <time>2014-11-28T06:42:47.000Z</time>
      </trkpt>
      <trkpt lon="34.75107324309647" lat="30.605147816240788">
        <ele>816.0</ele>
        <time>2014-11-28T06:42:48.000Z</time>
      </trkpt>
      <trkpt lon="34.75102487951517" lat="30.60520213097334">
        <ele>816.0</ele>
        <time>2014-11-28T06:42:49.000Z</time>
      </trkpt>
      <trkpt lon="34.750982047989964" lat="30.60525979846716">
        <ele>815.7999877929688</ele>
        <time>2014-11-28T06:42:50.000Z</time>
      </trkpt>
      <trkpt lon="34.750947933644056" lat="30.60532090254128">
        <ele>815.4000244140625</ele>
        <time>2014-11-28T06:42:51.000Z</time>
      </trkpt>
      <trkpt lon="34.7509197704494" lat="30.605384688824415">
        <ele>815.0</ele>
        <time>2014-11-28T06:42:52.000Z</time>
      </trkpt>
      <trkpt lon="34.75089470855892" lat="30.605449229478836">
        <ele>814.4000244140625</ele>
        <time>2014-11-28T06:42:53.000Z</time>
      </trkpt>
      <trkpt lon="34.750668900087476" lat="30.605793558061123">
        <ele>813.0</ele>
        <time>2014-11-28T06:42:59.000Z</time>
      </trkpt>
      <trkpt lon="34.75036916323006" lat="30.606063874438405">
        <ele>811.4000244140625</ele>
        <time>2014-11-28T06:43:06.000Z</time>
      </trkpt>
      <trkpt lon="34.750021900981665" lat="30.606400491669774">
        <ele>810.7999877929688</ele>
        <time>2014-11-28T06:43:14.000Z</time>
      </trkpt>
      <trkpt lon="34.749695509672165" lat="30.60685613192618">
        <ele>810.0</ele>
        <time>2014-11-28T06:43:23.000Z</time>
      </trkpt>
      <trkpt lon="34.7494276240468" lat="30.60714405030012">
        <ele>811.2000122070312</ele>
        <time>2014-11-28T06:43:30.000Z</time>
      </trkpt>
      <trkpt lon="34.74923090077937" lat="30.607360638678074">
        <ele>811.5999755859375</ele>
        <time>2014-11-28T06:43:35.000Z</time>
      </trkpt>
      <trkpt lon="34.74918270483613" lat="30.60739617794752">
        <ele>811.7999877929688</ele>
        <time>2014-11-28T06:43:36.000Z</time>
      </trkpt>
      <trkpt lon="34.74913123995066" lat="30.60742450878024">
        <ele>812.0</ele>
        <time>2014-11-28T06:43:37.000Z</time>
      </trkpt>
      <trkpt lon="34.749078853055835" lat="30.60745225287974">
        <ele>812.2000122070312</ele>
        <time>2014-11-28T06:43:38.000Z</time>
      </trkpt>
      <trkpt lon="34.749029483646154" lat="30.607485864311457">
        <ele>812.4000244140625</ele>
        <time>2014-11-28T06:43:39.000Z</time>
      </trkpt>
      <trkpt lon="34.74898640066385" lat="30.607524756342173">
        <ele>812.5999755859375</ele>
        <time>2014-11-28T06:43:40.000Z</time>
      </trkpt>
      <trkpt lon="34.74896075204015" lat="30.607570186257362">
        <ele>812.7999877929688</ele>
        <time>2014-11-28T06:43:41.000Z</time>
      </trkpt>
      <trkpt lon="34.748956644907594" lat="30.607620645314455">
        <ele>812.5999755859375</ele>
        <time>2014-11-28T06:43:42.000Z</time>
      </trkpt>
      <trkpt lon="34.74896276369691" lat="30.607671104371548">
        <ele>812.2000122070312</ele>
        <time>2014-11-28T06:43:43.000Z</time>
      </trkpt>
      <trkpt lon="34.74897407926619" lat="30.6077235750854">
        <ele>811.7999877929688</ele>
        <time>2014-11-28T06:43:44.000Z</time>
      </trkpt>
      <trkpt lon="34.74900525994599" lat="30.60824534855783">
        <ele>811.2000122070312</ele>
        <time>2014-11-28T06:43:53.000Z</time>
      </trkpt>
      <trkpt lon="34.74896678701043" lat="30.60882101766765">
        <ele>808.4000244140625</ele>
        <time>2014-11-28T06:44:02.000Z</time>
      </trkpt>
      <trkpt lon="34.748784229159355" lat="30.609320579096675">
        <ele>807.5999755859375</ele>
        <time>2014-11-28T06:44:11.000Z</time>
      </trkpt>
      <trkpt lon="34.74853486754" lat="30.60993254184723">
        <ele>806.0</ele>
        <time>2014-11-28T06:44:23.000Z</time>
      </trkpt>
      <trkpt lon="34.74848600104451" lat="30.610022395849228">
        <ele>805.5999755859375</ele>
        <time>2014-11-28T06:44:25.000Z</time>
      </trkpt>
      <trkpt lon="34.748450964689255" lat="30.610062377527356">
        <ele>805.4000244140625</ele>
        <time>2014-11-28T06:44:26.000Z</time>
      </trkpt>
      <trkpt lon="34.74840385839343" lat="30.610092636197805">
        <ele>805.2000122070312</ele>
        <time>2014-11-28T06:44:27.000Z</time>
      </trkpt>
      <trkpt lon="34.74834870547056" lat="30.610114596784115">
        <ele>805.2000122070312</ele>
        <time>2014-11-28T06:44:28.000Z</time>
      </trkpt>
      <trkpt lon="34.74828508682549" lat="30.61012021265924">
        <ele>805.2000122070312</ele>
        <time>2014-11-28T06:44:29.000Z</time>
      </trkpt>
      <trkpt lon="34.74822213873267" lat="30.610117614269257">
        <ele>805.4000244140625</ele>
        <time>2014-11-28T06:44:30.000Z</time>
      </trkpt>
      <trkpt lon="34.748160699382424" lat="30.610112249851227">
        <ele>805.5999755859375</ele>
        <time>2014-11-28T06:44:31.000Z</time>
      </trkpt>
      <trkpt lon="34.748100098222494" lat="30.610104287043214">
        <ele>806.0</ele>
        <time>2014-11-28T06:44:32.000Z</time>
      </trkpt>
      <trkpt lon="34.74758829921484" lat="30.609978809952736">
        <ele>805.7999877929688</ele>
        <time>2014-11-28T06:44:41.000Z</time>
      </trkpt>
      <trkpt lon="34.74707784131169" lat="30.609779488295317">
        <ele>803.4000244140625</ele>
        <time>2014-11-28T06:44:51.000Z</time>
      </trkpt>
      <trkpt lon="34.74660577252507" lat="30.60966147109866">
        <ele>803.5999755859375</ele>
        <time>2014-11-28T06:45:00.000Z</time>
      </trkpt>
      <trkpt lon="34.74614669568837" lat="30.609598523005843">
        <ele>804.5999755859375</ele>
        <time>2014-11-28T06:45:10.000Z</time>
      </trkpt>
      <trkpt lon="34.74595718085766" lat="30.609465334564447">
        <ele>805.7999877929688</ele>
        <time>2014-11-28T06:45:17.000Z</time>
      </trkpt>
      <trkpt lon="34.745935471728444" lat="30.609420826658607">
        <ele>806.0</ele>
        <time>2014-11-28T06:45:19.000Z</time>
      </trkpt>
      <trkpt lon="34.74593999795616" lat="30.60939894989133">
        <ele>806.0</ele>
        <time>2014-11-28T06:45:20.000Z</time>
      </trkpt>
      <trkpt lon="34.74593915976584" lat="30.60918345116079">
        <ele>806.7999877929688</ele>
        <time>2014-11-28T06:45:30.000Z</time>
      </trkpt>
      <trkpt lon="34.74586338736117" lat="30.60897239483893">
        <ele>807.7999877929688</ele>
        <time>2014-11-28T06:45:39.000Z</time>
      </trkpt>
      <trkpt lon="34.7457289416343" lat="30.608777599409223">
        <ele>809.0</ele>
        <time>2014-11-28T06:45:48.000Z</time>
      </trkpt>
      <trkpt lon="34.7456512413919" lat="30.608677016571164">
        <ele>809.5999755859375</ele>
        <time>2014-11-28T06:45:54.000Z</time>
      </trkpt>
      <trkpt lon="34.74564470350742" lat="30.608664443716407">
        <ele>809.5999755859375</ele>
        <time>2014-11-28T06:45:55.000Z</time>
      </trkpt>
      <trkpt lon="34.74564168602228" lat="30.608653631061316">
        <ele>809.7999877929688</ele>
        <time>2014-11-28T06:45:56.000Z</time>
      </trkpt>
      <trkpt lon="34.74563322030008" lat="30.608639884740114">
        <ele>809.7999877929688</ele>
        <time>2014-11-28T06:45:57.000Z</time>
      </trkpt>
      <trkpt lon="34.74562743678689" lat="30.60862747952342">
        <ele>809.7999877929688</ele>
        <time>2014-11-28T06:45:58.000Z</time>
      </trkpt>
      <trkpt lon="34.74561620503664" lat="30.608613397926092">
        <ele>810.0</ele>
        <time>2014-11-28T06:45:59.000Z</time>
      </trkpt>
      <trkpt lon="34.74552140571177" lat="30.608443412929773">
        <ele>811.0</ele>
        <time>2014-11-28T06:46:08.000Z</time>
      </trkpt>
      <trkpt lon="34.745418559759855" lat="30.608232356607914">
        <ele>812.0</ele>
        <time>2014-11-28T06:46:17.000Z</time>
      </trkpt>
      <trkpt lon="34.74532946012914" lat="30.60808064416051">
        <ele>812.5999755859375</ele>
        <time>2014-11-28T06:46:25.000Z</time>
      </trkpt>
      <trkpt lon="34.745169868692756" lat="30.60786564834416">
        <ele>812.4000244140625</ele>
        <time>2014-11-28T06:46:36.000Z</time>
      </trkpt>
      <trkpt lon="34.74503869190812" lat="30.60769021511078">
        <ele>812.2000122070312</ele>
        <time>2014-11-28T06:46:45.000Z</time>
      </trkpt>
      <trkpt lon="34.744894774630666" lat="30.607488714158535">
        <ele>811.5999755859375</ele>
        <time>2014-11-28T06:46:54.000Z</time>
      </trkpt>
      <trkpt lon="34.744798969477415" lat="30.60726801864803">
        <ele>811.0</ele>
        <time>2014-11-28T06:47:01.000Z</time>
      </trkpt>
      <trkpt lon="34.744659243151546" lat="30.60707850381732">
        <ele>810.7999877929688</ele>
        <time>2014-11-28T06:47:06.000Z</time>
      </trkpt>
      <trkpt lon="34.744579615071416" lat="30.60687473975122">
        <ele>810.5999755859375</ele>
        <time>2014-11-28T06:47:11.000Z</time>
      </trkpt>
      <trkpt lon="34.74456804804504" lat="30.606835512444377">
        <ele>810.5999755859375</ele>
        <time>2014-11-28T06:47:12.000Z</time>
      </trkpt>
      <trkpt lon="34.744541896507144" lat="30.606756638735533">
        <ele>810.4000244140625</ele>
        <time>2014-11-28T06:47:14.000Z</time>
      </trkpt>
      <trkpt lon="34.74450962617993" lat="30.606485148891807">
        <ele>810.2000122070312</ele>
        <time>2014-11-28T06:47:21.000Z</time>
      </trkpt>
      <trkpt lon="34.74449093453586" lat="30.606406275182962">
        <ele>810.2000122070312</ele>
        <time>2014-11-28T06:47:23.000Z</time>
      </trkpt>
      <trkpt lon="34.744421783834696" lat="30.606173342093825">
        <ele>811.0</ele>
        <time>2014-11-28T06:47:29.000Z</time>
      </trkpt>
      <trkpt lon="34.74432916380465" lat="30.60589011758566">
        <ele>812.4000244140625</ele>
        <time>2014-11-28T06:47:37.000Z</time>
      </trkpt>
      <trkpt lon="34.744242411106825" lat="30.605672942474484">
        <ele>813.5999755859375</ele>
        <time>2014-11-28T06:47:44.000Z</time>
      </trkpt>
      <trkpt lon="34.74419035948813" lat="30.605557020753622">
        <ele>814.2000122070312</ele>
        <time>2014-11-28T06:47:47.000Z</time>
      </trkpt>
      <trkpt lon="34.74418013356626" lat="30.605518044903874">
        <ele>814.4000244140625</ele>
        <time>2014-11-28T06:47:48.000Z</time>
      </trkpt>
      <trkpt lon="34.744133446365595" lat="30.605317214503884">
        <ele>814.4000244140625</ele>
        <time>2014-11-28T06:47:53.000Z</time>
      </trkpt>
      <trkpt lon="34.74396178498864" lat="30.60506978072226">
        <ele>814.5999755859375</ele>
        <time>2014-11-28T06:48:01.000Z</time>
      </trkpt>
      <trkpt lon="34.74388995207846" lat="30.604990823194385">
        <ele>814.7999877929688</ele>
        <time>2014-11-28T06:48:04.000Z</time>
      </trkpt>
      <trkpt lon="34.743883246555924" lat="30.604961067438126">
        <ele>814.7999877929688</ele>
        <time>2014-11-28T06:48:05.000Z</time>
      </trkpt>
      <trkpt lon="34.74388240836561" lat="30.604931144043803">
        <ele>814.7999877929688</ele>
        <time>2014-11-28T06:48:06.000Z</time>
      </trkpt>
      <trkpt lon="34.74391769617796" lat="30.604703072458506">
        <ele>815.4000244140625</ele>
        <time>2014-11-28T06:48:14.000Z</time>
      </trkpt>
      <trkpt lon="34.74387813359499" lat="30.604533841833472">
        <ele>815.4000244140625</ele>
        <time>2014-11-28T06:48:20.000Z</time>
      </trkpt>
      <trkpt lon="34.74379900842905" lat="30.604374166578054">
        <ele>815.2000122070312</ele>
        <time>2014-11-28T06:48:25.000Z</time>
      </trkpt>
      <trkpt lon="34.743813844397664" lat="30.604346003383398">
        <ele>815.2000122070312</ele>
        <time>2014-11-28T06:48:26.000Z</time>
      </trkpt>
      <trkpt lon="34.74383060820401" lat="30.604327395558357">
        <ele>815.2000122070312</ele>
        <time>2014-11-28T06:48:27.000Z</time>
      </trkpt>
      <trkpt lon="34.743845611810684" lat="30.604310045018792">
        <ele>815.4000244140625</ele>
        <time>2014-11-28T06:48:28.000Z</time>
      </trkpt>
      <trkpt lon="34.743864638730884" lat="30.604292610660195">
        <ele>815.4000244140625</ele>
        <time>2014-11-28T06:48:29.000Z</time>
      </trkpt>
      <trkpt lon="34.743885174393654" lat="30.604273919016123">
        <ele>815.4000244140625</ele>
        <time>2014-11-28T06:48:30.000Z</time>
      </trkpt>
      <trkpt lon="34.74390596151352" lat="30.604251036420465">
        <ele>815.4000244140625</ele>
        <time>2014-11-28T06:48:31.000Z</time>
      </trkpt>
      <trkpt lon="34.74392507225275" lat="30.60422597452998">
        <ele>815.5999755859375</ele>
        <time>2014-11-28T06:48:32.000Z</time>
      </trkpt>
      <trkpt lon="34.7439413331449" lat="30.604197643697262">
        <ele>815.5999755859375</ele>
        <time>2014-11-28T06:48:33.000Z</time>
      </trkpt>
      <trkpt lon="34.743952229619026" lat="30.604168139398098">
        <ele>815.5999755859375</ele>
        <time>2014-11-28T06:48:34.000Z</time>
      </trkpt>
      <trkpt lon="34.74395667202771" lat="30.604136791080236">
        <ele>815.5999755859375</ele>
        <time>2014-11-28T06:48:35.000Z</time>
      </trkpt>
      <trkpt lon="34.743959018960595" lat="30.60410368256271">
        <ele>815.5999755859375</ele>
        <time>2014-11-28T06:48:36.000Z</time>
      </trkpt>
      <trkpt lon="34.743904285132885" lat="30.603815848007798">
        <ele>816.5999755859375</ele>
        <time>2014-11-28T06:48:44.000Z</time>
      </trkpt>
      <trkpt lon="34.74388123489916" lat="30.603777626529336">
        <ele>816.5999755859375</ele>
        <time>2014-11-28T06:48:45.000Z</time>
      </trkpt>
      <trkpt lon="34.74385064095259" lat="30.60374460183084">
        <ele>816.4000244140625</ele>
        <time>2014-11-28T06:48:46.000Z</time>
      </trkpt>
      <trkpt lon="34.74381761625409" lat="30.603714510798454">
        <ele>816.2000122070312</ele>
        <time>2014-11-28T06:48:47.000Z</time>
      </trkpt>
      <trkpt lon="34.74377503618598" lat="30.60369330458343">
        <ele>816.0</ele>
        <time>2014-11-28T06:48:48.000Z</time>
      </trkpt>
      <trkpt lon="34.743730863556266" lat="30.603674110025167">
        <ele>815.7999877929688</ele>
        <time>2014-11-28T06:48:49.000Z</time>
      </trkpt>
      <trkpt lon="34.74368660710752" lat="30.60365617275238">
        <ele>815.7999877929688</ele>
        <time>2014-11-28T06:48:50.000Z</time>
      </trkpt>
      <trkpt lon="34.74364218302071" lat="30.60363764874637">
        <ele>816.0</ele>
        <time>2014-11-28T06:48:51.000Z</time>
      </trkpt>
      <trkpt lon="34.74331805482507" lat="30.603420725092292">
        <ele>817.4000244140625</ele>
        <time>2014-11-28T06:48:59.000Z</time>
      </trkpt>
      <trkpt lon="34.743097024038434" lat="30.603299103677273">
        <ele>818.5999755859375</ele>
        <time>2014-11-28T06:49:04.000Z</time>
      </trkpt>
      <trkpt lon="34.74305477924645" lat="30.60327596962452">
        <ele>818.7999877929688</ele>
        <time>2014-11-28T06:49:05.000Z</time>
      </trkpt>
      <trkpt lon="34.743016976863146" lat="30.603248393163085">
        <ele>819.0</ele>
        <time>2014-11-28T06:49:06.000Z</time>
      </trkpt>
      <trkpt lon="34.74298160523176" lat="30.60321930795908">
        <ele>819.2000122070312</ele>
        <time>2014-11-28T06:49:07.000Z</time>
      </trkpt>
      <trkpt lon="34.74294480867684" lat="30.603191647678614">
        <ele>819.4000244140625</ele>
        <time>2014-11-28T06:49:08.000Z</time>
      </trkpt>
      <trkpt lon="34.74269921891391" lat="30.602970700711012">
        <ele>820.5999755859375</ele>
        <time>2014-11-28T06:49:16.000Z</time>
      </trkpt>
      <trkpt lon="34.74253116175532" lat="30.602782778441906">
        <ele>820.7999877929688</ele>
        <time>2014-11-28T06:49:22.000Z</time>
      </trkpt>
      <trkpt lon="34.742481373250484" lat="30.6027106102556">
        <ele>820.7999877929688</ele>
        <time>2014-11-28T06:49:24.000Z</time>
      </trkpt>
      <trkpt lon="34.742345083504915" lat="30.60242872685194">
        <ele>820.5999755859375</ele>
        <time>2014-11-28T06:49:32.000Z</time>
      </trkpt>
      <trkpt lon="34.742329409345984" lat="30.602389834821224">
        <ele>820.5999755859375</ele>
        <time>2014-11-28T06:49:33.000Z</time>
      </trkpt>
      <trkpt lon="34.7423149086535" lat="30.602352367714047">
        <ele>820.5999755859375</ele>
        <time>2014-11-28T06:49:34.000Z</time>
      </trkpt>
      <trkpt lon="34.74227836355567" lat="30.602080123499036">
        <ele>820.7999877929688</ele>
        <time>2014-11-28T06:49:41.000Z</time>
      </trkpt>
      <trkpt lon="34.74225983954966" lat="30.602000914514065">
        <ele>820.7999877929688</ele>
        <time>2014-11-28T06:49:43.000Z</time>
      </trkpt>
      <trkpt lon="34.74225154146552" lat="30.601958753541112">
        <ele>820.7999877929688</ele>
        <time>2014-11-28T06:49:44.000Z</time>
      </trkpt>
      <trkpt lon="34.74223729223013" lat="30.601918688043952">
        <ele>820.7999877929688</ele>
        <time>2014-11-28T06:49:45.000Z</time>
      </trkpt>
      <trkpt lon="34.742141319438815" lat="30.60170997865498">
        <ele>820.7999877929688</ele>
        <time>2014-11-28T06:49:52.000Z</time>
      </trkpt>
      <trkpt lon="34.74215615540743" lat="30.601526331156492">
        <ele>820.7999877929688</ele>
        <time>2014-11-28T06:49:57.000Z</time>
      </trkpt>
      <trkpt lon="34.74213670939207" lat="30.60141912661493">
        <ele>821.0</ele>
        <time>2014-11-28T06:50:00.000Z</time>
      </trkpt>
      <trkpt lon="34.742104690521955" lat="30.60138593427837">
        <ele>821.0</ele>
        <time>2014-11-28T06:50:01.000Z</time>
      </trkpt>
      <trkpt lon="34.742058254778385" lat="30.6013688351959">
        <ele>821.0</ele>
        <time>2014-11-28T06:50:02.000Z</time>
      </trkpt>
      <trkpt lon="34.74200896918774" lat="30.60135961510241">
        <ele>821.2000122070312</ele>
        <time>2014-11-28T06:50:03.000Z</time>
      </trkpt>
      <trkpt lon="34.7419607732445" lat="30.60135718435049">
        <ele>821.4000244140625</ele>
        <time>2014-11-28T06:50:04.000Z</time>
      </trkpt>
      <trkpt lon="34.74190989509225" lat="30.60135911218822">
        <ele>821.7999877929688</ele>
        <time>2014-11-28T06:50:05.000Z</time>
      </trkpt>
      <trkpt lon="34.741858346387744" lat="30.601363303139806">
        <ele>822.0</ele>
        <time>2014-11-28T06:50:06.000Z</time>
      </trkpt>
      <trkpt lon="34.74180595949292" lat="30.60136305168271">
        <ele>822.4000244140625</ele>
        <time>2014-11-28T06:50:07.000Z</time>
      </trkpt>
      <trkpt lon="34.741755332797766" lat="30.601353244856">
        <ele>822.7999877929688</ele>
        <time>2014-11-28T06:50:08.000Z</time>
      </trkpt>
      <trkpt lon="34.74171107634902" lat="30.601333463564515">
        <ele>823.0</ele>
        <time>2014-11-28T06:50:09.000Z</time>
      </trkpt>
      <trkpt lon="34.74166573025286" lat="30.60131460428238">
        <ele>823.2000122070312</ele>
        <time>2014-11-28T06:50:10.000Z</time>
      </trkpt>
      <trkpt lon="34.74162080325186" lat="30.60130245052278">
        <ele>823.4000244140625</ele>
        <time>2014-11-28T06:50:11.000Z</time>
      </trkpt>
      <trkpt lon="34.74157319404185" lat="30.60129323042929">
        <ele>823.5999755859375</ele>
        <time>2014-11-28T06:50:12.000Z</time>
      </trkpt>
      <trkpt lon="34.74152742885053" lat="30.601281998679042">
        <ele>823.7999877929688</ele>
        <time>2014-11-28T06:50:13.000Z</time>
      </trkpt>
      <trkpt lon="34.74145257845521" lat="30.60125157237053">
        <ele>824.2000122070312</ele>
        <time>2014-11-28T06:50:15.000Z</time>
      </trkpt>
      <trkpt lon="34.741429444402456" lat="30.60122617520392">
        <ele>824.2000122070312</ele>
        <time>2014-11-28T06:50:16.000Z</time>
      </trkpt>
      <trkpt lon="34.74141192622483" lat="30.601198598742485">
        <ele>824.2000122070312</ele>
        <time>2014-11-28T06:50:17.000Z</time>
      </trkpt>
      <trkpt lon="34.74139113910496" lat="30.601169178262353">
        <ele>824.2000122070312</ele>
        <time>2014-11-28T06:50:18.000Z</time>
      </trkpt>
      <trkpt lon="34.741364903748035" lat="30.6011426076293">
        <ele>824.4000244140625</ele>
        <time>2014-11-28T06:50:19.000Z</time>
      </trkpt>
      <trkpt lon="34.74133481271565" lat="30.601114109158516">
        <ele>824.4000244140625</ele>
        <time>2014-11-28T06:50:20.000Z</time>
      </trkpt>
      <trkpt lon="34.74125375971198" lat="30.601016208529472">
        <ele>824.5999755859375</ele>
        <time>2014-11-28T06:50:23.000Z</time>
      </trkpt>
      <trkpt lon="34.741025771945715" lat="30.600770954042673">
        <ele>825.0</ele>
        <time>2014-11-28T06:50:31.000Z</time>
      </trkpt>
      <trkpt lon="34.74095620214939" lat="30.600664084777236">
        <ele>825.0</ele>
        <time>2014-11-28T06:50:36.000Z</time>
      </trkpt>
      <trkpt lon="34.74073709920049" lat="30.60048781335354">
        <ele>825.7999877929688</ele>
        <time>2014-11-28T06:50:43.000Z</time>
      </trkpt>
      <trkpt lon="34.740418922156096" lat="30.600293101742864">
        <ele>827.0</ele>
        <time>2014-11-28T06:50:51.000Z</time>
      </trkpt>
      <trkpt lon="34.74012840539217" lat="30.60003938153386">
        <ele>828.4000244140625</ele>
        <time>2014-11-28T06:51:00.000Z</time>
      </trkpt>
      <trkpt lon="34.74001910537481" lat="30.599823715165257">
        <ele>828.4000244140625</ele>
        <time>2014-11-28T06:51:07.000Z</time>
      </trkpt>
      <trkpt lon="34.74003159441054" lat="30.599754815921187">
        <ele>828.2000122070312</ele>
        <time>2014-11-28T06:51:09.000Z</time>
      </trkpt>
      <trkpt lon="34.74002296105027" lat="30.59972506016493">
        <ele>828.0</ele>
        <time>2014-11-28T06:51:10.000Z</time>
      </trkpt>
      <trkpt lon="34.74000443704426" lat="30.59969631023705">
        <ele>828.2000122070312</ele>
        <time>2014-11-28T06:51:11.000Z</time>
      </trkpt>
      <trkpt lon="34.73998172208667" lat="30.59967032633722">
        <ele>828.2000122070312</ele>
        <time>2014-11-28T06:51:12.000Z</time>
      </trkpt>
      <trkpt lon="34.739953726530075" lat="30.599645851179957">
        <ele>828.4000244140625</ele>
        <time>2014-11-28T06:51:13.000Z</time>
      </trkpt>
      <trkpt lon="34.73991936072707" lat="30.599625064060092">
        <ele>828.7999877929688</ele>
        <time>2014-11-28T06:51:14.000Z</time>
      </trkpt>
      <trkpt lon="34.73987887613475" lat="30.599607126787305">
        <ele>829.0</ele>
        <time>2014-11-28T06:51:15.000Z</time>
      </trkpt>
      <trkpt lon="34.73983705043793" lat="30.599592374637723">
        <ele>829.4000244140625</ele>
        <time>2014-11-28T06:51:16.000Z</time>
      </trkpt>
      <trkpt lon="34.739805534482" lat="30.599572593346238">
        <ele>829.5999755859375</ele>
        <time>2014-11-28T06:51:17.000Z</time>
      </trkpt>
      <trkpt lon="34.739789525046945" lat="30.599545100703835">
        <ele>829.7999877929688</ele>
        <time>2014-11-28T06:51:18.000Z</time>
      </trkpt>
      <trkpt lon="34.73978156223893" lat="30.59951744042337">
        <ele>829.7999877929688</ele>
        <time>2014-11-28T06:51:19.000Z</time>
      </trkpt>
      <trkpt lon="34.739777371287346" lat="30.59948517009616">
        <ele>829.7999877929688</ele>
        <time>2014-11-28T06:51:20.000Z</time>
      </trkpt>
      <trkpt lon="34.739811569452286" lat="30.599233880639076">
        <ele>829.2000122070312</ele>
        <time>2014-11-28T06:51:27.000Z</time>
      </trkpt>
      <trkpt lon="34.73982850089669" lat="30.599020728841424">
        <ele>829.4000244140625</ele>
        <time>2014-11-28T06:51:33.000Z</time>
      </trkpt>
      <trkpt lon="34.73971241153777" lat="30.598761895671487">
        <ele>830.2000122070312</ele>
        <time>2014-11-28T06:51:41.000Z</time>
      </trkpt>
      <trkpt lon="34.7394550871104" lat="30.598586294800043">
        <ele>830.5999755859375</ele>
        <time>2014-11-28T06:51:50.000Z</time>
      </trkpt>
      <trkpt lon="34.73924000747502" lat="30.59840591624379">
        <ele>830.5999755859375</ele>
        <time>2014-11-28T06:51:58.000Z</time>
      </trkpt>
      <trkpt lon="34.738940270617604" lat="30.598270716145635">
        <ele>831.2000122070312</ele>
        <time>2014-11-28T06:52:08.000Z</time>
      </trkpt>
      <trkpt lon="34.738718904554844" lat="30.598168121650815">
        <ele>832.2000122070312</ele>
        <time>2014-11-28T06:52:15.000Z</time>
      </trkpt>
      <trkpt lon="34.73853265866637" lat="30.598013224080205">
        <ele>831.5999755859375</ele>
        <time>2014-11-28T06:52:23.000Z</time>
      </trkpt>
      <trkpt lon="34.7383276373148" lat="30.59794013388455">
        <ele>832.2000122070312</ele>
        <time>2014-11-28T06:52:32.000Z</time>
      </trkpt>
      <trkpt lon="34.73803007975221" lat="30.597908031195402">
        <ele>833.4000244140625</ele>
        <time>2014-11-28T06:52:42.000Z</time>
      </trkpt>
      <trkpt lon="34.73777996376157" lat="30.597827062010765">
        <ele>834.2000122070312</ele>
        <time>2014-11-28T06:52:51.000Z</time>
      </trkpt>
      <trkpt lon="34.737597489729524" lat="30.597655400633812">
        <ele>834.7999877929688</ele>
        <time>2014-11-28T06:52:59.000Z</time>
      </trkpt>
      <trkpt lon="34.737567314878106" lat="30.597449708729982">
        <ele>834.7999877929688</ele>
        <time>2014-11-28T06:53:06.000Z</time>
      </trkpt>
      <trkpt lon="34.737528590485454" lat="30.59722390025854">
        <ele>834.7999877929688</ele>
        <time>2014-11-28T06:53:13.000Z</time>
      </trkpt>
      <trkpt lon="34.73750880919397" lat="30.597041258588433">
        <ele>835.5999755859375</ele>
        <time>2014-11-28T06:53:20.000Z</time>
      </trkpt>
      <trkpt lon="34.737553149461746" lat="30.596755100414157">
        <ele>836.7999877929688</ele>
        <time>2014-11-28T06:53:31.000Z</time>
      </trkpt>
      <trkpt lon="34.737578043714166" lat="30.596529794856906">
        <ele>837.4000244140625</ele>
        <time>2014-11-28T06:53:41.000Z</time>
      </trkpt>
      <trkpt lon="34.737589275464416" lat="30.596317565068603">
        <ele>838.0</ele>
        <time>2014-11-28T06:53:49.000Z</time>
      </trkpt>
      <trkpt lon="34.737504199147224" lat="30.596112040802836">
        <ele>837.7999877929688</ele>
        <time>2014-11-28T06:53:57.000Z</time>
      </trkpt>
      <trkpt lon="34.73745642229915" lat="30.595883717760444">
        <ele>837.5999755859375</ele>
        <time>2014-11-28T06:54:04.000Z</time>
      </trkpt>
      <trkpt lon="34.73739909008145" lat="30.59574482962489">
        <ele>838.0</ele>
        <time>2014-11-28T06:54:10.000Z</time>
      </trkpt>
      <trkpt lon="34.73721586167812" lat="30.595516255125403">
        <ele>838.7999877929688</ele>
        <time>2014-11-28T06:54:20.000Z</time>
      </trkpt>
      <trkpt lon="34.73707688972354" lat="30.595385748893023">
        <ele>838.7999877929688</ele>
        <time>2014-11-28T06:54:28.000Z</time>
      </trkpt>
      <trkpt lon="34.73681981675327" lat="30.5952643789351">
        <ele>839.2000122070312</ele>
        <time>2014-11-28T06:54:37.000Z</time>
      </trkpt>
      <trkpt lon="34.73666173405945" lat="30.595072014257312">
        <ele>839.4000244140625</ele>
        <time>2014-11-28T06:54:45.000Z</time>
      </trkpt>
      <trkpt lon="34.736528377979994" lat="30.594928851351142">
        <ele>839.5999755859375</ele>
        <time>2014-11-28T06:54:53.000Z</time>
      </trkpt>
      <trkpt lon="34.736338360235095" lat="30.59477194212377">
        <ele>839.7999877929688</ele>
        <time>2014-11-28T06:55:01.000Z</time>
      </trkpt>
      <trkpt lon="34.73613870330155" lat="30.594545882195234">
        <ele>840.4000244140625</ele>
        <time>2014-11-28T06:55:10.000Z</time>
      </trkpt>
      <trkpt lon="34.73599839024246" lat="30.5942748952657">
        <ele>841.2000122070312</ele>
        <time>2014-11-28T06:55:20.000Z</time>
      </trkpt>
      <trkpt lon="34.73586126230657" lat="30.593941379338503">
        <ele>842.2000122070312</ele>
        <time>2014-11-28T06:55:30.000Z</time>
      </trkpt>
      <trkpt lon="34.735715836286545" lat="30.59363435022533">
        <ele>843.5999755859375</ele>
        <time>2014-11-28T06:55:40.000Z</time>
      </trkpt>
      <trkpt lon="34.73569119349122" lat="30.593525301665068">
        <ele>844.0</ele>
        <time>2014-11-28T06:55:43.000Z</time>
      </trkpt>
      <trkpt lon="34.735677195712924" lat="30.593247776851058">
        <ele>844.7999877929688</ele>
        <time>2014-11-28T06:55:50.000Z</time>
      </trkpt>
      <trkpt lon="34.73566512577236" lat="30.59301869943738">
        <ele>845.2000122070312</ele>
        <time>2014-11-28T06:55:57.000Z</time>
      </trkpt>
      <trkpt lon="34.735657162964344" lat="30.592815689742565">
        <ele>845.5999755859375</ele>
        <time>2014-11-28T06:56:04.000Z</time>
      </trkpt>
      <trkpt lon="34.73558901809156" lat="30.592615865170956">
        <ele>846.2000122070312</ele>
        <time>2014-11-28T06:56:11.000Z</time>
      </trkpt>
      <trkpt lon="34.735599495470524" lat="30.592389134690166">
        <ele>846.4000244140625</ele>
        <time>2014-11-28T06:56:18.000Z</time>
      </trkpt>
      <trkpt lon="34.735678201541305" lat="30.5921801738441">
        <ele>846.7999877929688</ele>
        <time>2014-11-28T06:56:25.000Z</time>
      </trkpt>
      <trkpt lon="34.73571055568755" lat="30.591976577416062">
        <ele>846.7999877929688</ele>
        <time>2014-11-28T06:56:33.000Z</time>
      </trkpt>
      <trkpt lon="34.73580066114664" lat="30.591754792258143">
        <ele>846.5999755859375</ele>
        <time>2014-11-28T06:56:42.000Z</time>
      </trkpt>
      <trkpt lon="34.735835613682866" lat="30.59155924245715">
        <ele>847.2000122070312</ele>
        <time>2014-11-28T06:56:48.000Z</time>
      </trkpt>
      <trkpt lon="34.73599704913795" lat="30.591268725693226">
        <ele>847.7999877929688</ele>
        <time>2014-11-28T06:56:57.000Z</time>
      </trkpt>
      <trkpt lon="34.73618580959737" lat="30.590961696580052">
        <ele>848.0</ele>
        <time>2014-11-28T06:57:07.000Z</time>
      </trkpt>
      <trkpt lon="34.73634950816631" lat="30.59067126363516">
        <ele>849.4000244140625</ele>
        <time>2014-11-28T06:57:16.000Z</time>
      </trkpt>
      <trkpt lon="34.73650809377432" lat="30.590391559526324">
        <ele>849.5999755859375</ele>
        <time>2014-11-28T06:57:25.000Z</time>
      </trkpt>
      <trkpt lon="34.73664983175695" lat="30.590087044984102">
        <ele>850.5999755859375</ele>
        <time>2014-11-28T06:57:36.000Z</time>
      </trkpt>
      <trkpt lon="34.736572382971644" lat="30.589855117723346">
        <ele>849.7999877929688</ele>
        <time>2014-11-28T06:57:44.000Z</time>
      </trkpt>
      <trkpt lon="34.73642494529486" lat="30.58956066146493">
        <ele>849.5999755859375</ele>
        <time>2014-11-28T06:57:54.000Z</time>
      </trkpt>
      <trkpt lon="34.7361895814538" lat="30.589267127215862">
        <ele>850.2000122070312</ele>
        <time>2014-11-28T06:58:05.000Z</time>
      </trkpt>
      <trkpt lon="34.73611473105848" lat="30.589027488604188">
        <ele>851.5999755859375</ele>
        <time>2014-11-28T06:58:13.000Z</time>
      </trkpt>
      <trkpt lon="34.7360550519079" lat="30.58872423134744">
        <ele>852.2000122070312</ele>
        <time>2014-11-28T06:58:23.000Z</time>
      </trkpt>
      <trkpt lon="34.73597651347518" lat="30.588438073173165">
        <ele>852.7999877929688</ele>
        <time>2014-11-28T06:58:32.000Z</time>
      </trkpt>
      <trkpt lon="34.73600786179304" lat="30.58815686032176">
        <ele>853.0</ele>
        <time>2014-11-28T06:58:42.000Z</time>
      </trkpt>
      <trkpt lon="34.73602311685681" lat="30.587935829535127">
        <ele>853.2000122070312</ele>
        <time>2014-11-28T06:58:50.000Z</time>
      </trkpt>
      <trkpt lon="34.73595899529755" lat="30.587716391310096">
        <ele>854.0</ele>
        <time>2014-11-28T06:58:58.000Z</time>
      </trkpt>
      <trkpt lon="34.73596880212426" lat="30.587480692192912">
        <ele>854.7999877929688</ele>
        <time>2014-11-28T06:59:07.000Z</time>
      </trkpt>
      <trkpt lon="34.736047172918916" lat="30.58719277381897">
        <ele>855.5999755859375</ele>
        <time>2014-11-28T06:59:18.000Z</time>
      </trkpt>
      <trkpt lon="34.73611515015364" lat="30.58692748658359">
        <ele>855.5999755859375</ele>
        <time>2014-11-28T06:59:28.000Z</time>
      </trkpt>
      <trkpt lon="34.73616770468652" lat="30.586664797738194">
        <ele>855.7999877929688</ele>
        <time>2014-11-28T06:59:37.000Z</time>
      </trkpt>
      <trkpt lon="34.73619821481407" lat="30.586446281522512">
        <ele>856.0</ele>
        <time>2014-11-28T06:59:45.000Z</time>
      </trkpt>
      <trkpt lon="34.73633266054094" lat="30.58627369813621">
        <ele>856.5999755859375</ele>
        <time>2014-11-28T06:59:53.000Z</time>
      </trkpt>
      <trkpt lon="34.73651681095362" lat="30.5861240811646">
        <ele>858.0</ele>
        <time>2014-11-28T07:00:01.000Z</time>
      </trkpt>
      <trkpt lon="34.736740943044424" lat="30.58602299541235">
        <ele>858.7999877929688</ele>
        <time>2014-11-28T07:00:08.000Z</time>
      </trkpt>
      <trkpt lon="34.736897349357605" lat="30.585946468636394">
        <ele>858.7999877929688</ele>
        <time>2014-11-28T07:00:14.000Z</time>
      </trkpt>
      <trkpt lon="34.73705057054758" lat="30.58587438426912">
        <ele>858.7999877929688</ele>
        <time>2014-11-28T07:00:21.000Z</time>
      </trkpt>
      <trkpt lon="34.737252071499825" lat="30.58576843701303">
        <ele>860.7999877929688</ele>
        <time>2014-11-28T07:00:30.000Z</time>
      </trkpt>
      <trkpt lon="34.7373809851706" lat="30.585652515292168">
        <ele>861.4000244140625</ele>
        <time>2014-11-28T07:00:38.000Z</time>
      </trkpt>
      <trkpt lon="34.737512497231364" lat="30.585508095100522">
        <ele>861.7999877929688</ele>
        <time>2014-11-28T07:00:48.000Z</time>
      </trkpt>
      <trkpt lon="34.73766672424972" lat="30.58541019447148">
        <ele>864.0</ele>
        <time>2014-11-28T07:00:57.000Z</time>
      </trkpt>
      <trkpt lon="34.73769078031182" lat="30.585290668532252">
        <ele>865.7999877929688</ele>
        <time>2014-11-28T07:01:04.000Z</time>
      </trkpt>
      <trkpt lon="34.73769304342568" lat="30.585273317992687">
        <ele>865.7999877929688</ele>
        <time>2014-11-28T07:01:05.000Z</time>
      </trkpt>
      <trkpt lon="34.737692875787616" lat="30.58525445871055">
        <ele>866.0</ele>
        <time>2014-11-28T07:01:06.000Z</time>
      </trkpt>
      <trkpt lon="34.7376989107579" lat="30.58523526415229">
        <ele>866.0</ele>
        <time>2014-11-28T07:01:07.000Z</time>
      </trkpt>
      <trkpt lon="34.737707041203976" lat="30.585218332707882">
        <ele>866.2000122070312</ele>
        <time>2014-11-28T07:01:08.000Z</time>
      </trkpt>
      <trkpt lon="34.737796392291784" lat="30.58510727249086">
        <ele>866.4000244140625</ele>
        <time>2014-11-28T07:01:15.000Z</time>
      </trkpt>
      <trkpt lon="34.73787920549512" lat="30.58493636548519">
        <ele>867.2000122070312</ele>
        <time>2014-11-28T07:01:24.000Z</time>
      </trkpt>
      <trkpt lon="34.737893622368574" lat="30.584756322205067">
        <ele>868.5999755859375</ele>
        <time>2014-11-28T07:01:34.000Z</time>
      </trkpt>
      <trkpt lon="34.73784517496824" lat="30.584565214812756">
        <ele>869.0</ele>
        <time>2014-11-28T07:01:42.000Z</time>
      </trkpt>
      <trkpt lon="34.73772975616157" lat="30.584401600062847">
        <ele>869.7999877929688</ele>
        <time>2014-11-28T07:01:49.000Z</time>
      </trkpt>
      <trkpt lon="34.73769849166274" lat="30.58424980379641">
        <ele>869.7999877929688</ele>
        <time>2014-11-28T07:01:55.000Z</time>
      </trkpt>
      <trkpt lon="34.73772598430514" lat="30.5841501429677">
        <ele>869.0</ele>
        <time>2014-11-28T07:02:01.000Z</time>
      </trkpt>
      <trkpt lon="34.737723134458065" lat="30.58412960730493">
        <ele>869.0</ele>
        <time>2014-11-28T07:02:08.000Z</time>
      </trkpt>
      <trkpt lon="34.73776303231716" lat="30.584096079692245">
        <ele>868.4000244140625</ele>
        <time>2014-11-28T07:02:14.000Z</time>
      </trkpt>
      <trkpt lon="34.73781717941165" lat="30.584076466038823">
        <ele>867.5999755859375</ele>
        <time>2014-11-28T07:02:21.000Z</time>
      </trkpt>
      <trkpt lon="34.737821286544204" lat="30.584080992266536">
        <ele>867.5999755859375</ele>
        <time>2014-11-28T07:02:31.000Z</time>
      </trkpt>
      <trkpt lon="34.73783268593252" lat="30.5840777233243">
        <ele>867.4000244140625</ele>
        <time>2014-11-28T07:02:33.000Z</time>
      </trkpt>
      <trkpt lon="34.73784861154854" lat="30.58406808413565">
        <ele>867.2000122070312</ele>
        <time>2014-11-28T07:02:34.000Z</time>
      </trkpt>
      <trkpt lon="34.73786495625973" lat="30.584055092185736">
        <ele>866.7999877929688</ele>
        <time>2014-11-28T07:02:35.000Z</time>
      </trkpt>
      <trkpt lon="34.73793460987508" lat="30.583918383345008">
        <ele>866.4000244140625</ele>
        <time>2014-11-28T07:02:42.000Z</time>
      </trkpt>
      <trkpt lon="34.738052040338516" lat="30.583762312307954">
        <ele>864.7999877929688</ele>
        <time>2014-11-28T07:02:49.000Z</time>
      </trkpt>
      <trkpt lon="34.73820962011814" lat="30.583595763891935">
        <ele>862.5999755859375</ele>
        <time>2014-11-28T07:02:57.000Z</time>
      </trkpt>
      <trkpt lon="34.738363763317466" lat="30.58349534869194">
        <ele>861.4000244140625</ele>
        <time>2014-11-28T07:03:03.000Z</time>
      </trkpt>
      <trkpt lon="34.73853701725602" lat="30.58344941586256">
        <ele>859.5999755859375</ele>
        <time>2014-11-28T07:03:09.000Z</time>
      </trkpt>
      <trkpt lon="34.73867531865835" lat="30.58340306393802">
        <ele>858.2000122070312</ele>
        <time>2014-11-28T07:03:14.000Z</time>
      </trkpt>
      <trkpt lon="34.73870272748172" lat="30.583388227969408">
        <ele>857.7999877929688</ele>
        <time>2014-11-28T07:03:15.000Z</time>
      </trkpt>
      <trkpt lon="34.73886433057487" lat="30.583312707021832">
        <ele>858.7999877929688</ele>
        <time>2014-11-28T07:03:21.000Z</time>
      </trkpt>
      <trkpt lon="34.73911662586033" lat="30.583218494430184">
        <ele>856.7999877929688</ele>
        <time>2014-11-28T07:03:29.000Z</time>
      </trkpt>
      <trkpt lon="34.739275043830276" lat="30.583156384527683">
        <ele>853.7999877929688</ele>
        <time>2014-11-28T07:03:35.000Z</time>
      </trkpt>
      <trkpt lon="34.73943295888603" lat="30.583065692335367">
        <ele>849.5999755859375</ele>
        <time>2014-11-28T07:03:42.000Z</time>
      </trkpt>
      <trkpt lon="34.73967142403126" lat="30.58287726715207">
        <ele>844.5999755859375</ele>
        <time>2014-11-28T07:03:52.000Z</time>
      </trkpt>
      <trkpt lon="34.73987175151706" lat="30.5828102119267">
        <ele>844.2000122070312</ele>
        <time>2014-11-28T07:03:59.000Z</time>
      </trkpt>
      <trkpt lon="34.74004785530269" lat="30.582728404551744">
        <ele>843.2000122070312</ele>
        <time>2014-11-28T07:04:07.000Z</time>
      </trkpt>
      <trkpt lon="34.740123208612204" lat="30.582707868888974">
        <ele>842.4000244140625</ele>
        <time>2014-11-28T07:04:10.000Z</time>
      </trkpt>
      <trkpt lon="34.74013150669634" lat="30.582689680159092">
        <ele>841.7999877929688</ele>
        <time>2014-11-28T07:04:11.000Z</time>
      </trkpt>
      <trkpt lon="34.740134524181485" lat="30.582669647410512">
        <ele>841.0</ele>
        <time>2014-11-28T07:04:12.000Z</time>
      </trkpt>
      <trkpt lon="34.740137876942754" lat="30.582648441195488">
        <ele>840.2000122070312</ele>
        <time>2014-11-28T07:04:13.000Z</time>
      </trkpt>
      <trkpt lon="34.74014014005661" lat="30.582627737894654">
        <ele>839.5999755859375</ele>
        <time>2014-11-28T07:04:14.000Z</time>
      </trkpt>
      <trkpt lon="34.7401424869895" lat="30.582603765651584">
        <ele>838.5999755859375</ele>
        <time>2014-11-28T07:04:15.000Z</time>
      </trkpt>
      <trkpt lon="34.7401475161314" lat="30.582576859742403">
        <ele>837.5999755859375</ele>
        <time>2014-11-28T07:04:16.000Z</time>
      </trkpt>
      <trkpt lon="34.74015430547297" lat="30.582551462575793">
        <ele>836.5999755859375</ele>
        <time>2014-11-28T07:04:17.000Z</time>
      </trkpt>
      <trkpt lon="34.74023192189634" lat="30.582407545298338">
        <ele>831.0</ele>
        <time>2014-11-28T07:04:24.000Z</time>
      </trkpt>
      <trkpt lon="34.74029663018882" lat="30.582341495901346">
        <ele>828.2000122070312</ele>
        <time>2014-11-28T07:04:30.000Z</time>
      </trkpt>
      <trkpt lon="34.74029830656946" lat="30.582348704338074">
        <ele>828.5999755859375</ele>
        <time>2014-11-28T07:04:39.000Z</time>
      </trkpt>
      <trkpt lon="34.74031154997647" lat="30.582293048501015">
        <ele>826.4000244140625</ele>
        <time>2014-11-28T07:04:46.000Z</time>
      </trkpt>
      <trkpt lon="34.740321105346084" lat="30.58229078538716">
        <ele>826.2000122070312</ele>
        <time>2014-11-28T07:04:53.000Z</time>
      </trkpt>
      <trkpt lon="34.74031448364258" lat="30.5823006760329">
        <ele>826.5999755859375</ele>
        <time>2014-11-28T07:05:15.000Z</time>
      </trkpt>
      <trkpt lon="34.740319177508354" lat="30.58229874819517">
        <ele>826.5999755859375</ele>
        <time>2014-11-28T07:05:30.000Z</time>
      </trkpt>
      <trkpt lon="34.74033351056278" lat="30.58230008929968">
        <ele>826.5999755859375</ele>
        <time>2014-11-28T07:05:36.000Z</time>
      </trkpt>
      <trkpt lon="34.74037416279316" lat="30.58228500187397">
        <ele>825.7999877929688</ele>
        <time>2014-11-28T07:05:42.000Z</time>
      </trkpt>
      <trkpt lon="34.740391513332725" lat="30.58227226138115">
        <ele>825.4000244140625</ele>
        <time>2014-11-28T07:05:45.000Z</time>
      </trkpt>
      <trkpt lon="34.74043342284858" lat="30.58224191889167">
        <ele>824.5999755859375</ele>
        <time>2014-11-28T07:05:51.000Z</time>
      </trkpt>
      <trkpt lon="34.7404757514596" lat="30.582242840901017">
        <ele>824.7999877929688</ele>
        <time>2014-11-28T07:06:00.000Z</time>
      </trkpt>
      <trkpt lon="34.740523444488645" lat="30.58226396329701">
        <ele>825.5999755859375</ele>
        <time>2014-11-28T07:06:07.000Z</time>
      </trkpt>
      <trkpt lon="34.740542471408844" lat="30.582271087914705">
        <ele>826.0</ele>
        <time>2014-11-28T07:06:10.000Z</time>
      </trkpt>
      <trkpt lon="34.74059896543622" lat="30.58225901797414">
        <ele>825.5999755859375</ele>
        <time>2014-11-28T07:06:17.000Z</time>
      </trkpt>
      <trkpt lon="34.740649592131376" lat="30.5822541564703">
        <ele>825.5999755859375</ele>
        <time>2014-11-28T07:06:25.000Z</time>
      </trkpt>
      <trkpt lon="34.74067574366927" lat="30.58224401436746">
        <ele>825.2000122070312</ele>
        <time>2014-11-28T07:06:29.000Z</time>
      </trkpt>
      <trkpt lon="34.74074170924723" lat="30.582210822030902">
        <ele>824.0</ele>
        <time>2014-11-28T07:06:37.000Z</time>
      </trkpt>
      <trkpt lon="34.740771716460586" lat="30.582147957757115">
        <ele>822.2000122070312</ele>
        <time>2014-11-28T07:06:45.000Z</time>
      </trkpt>
      <trkpt lon="34.74071857519448" lat="30.582119962200522">
        <ele>821.4000244140625</ele>
        <time>2014-11-28T07:06:52.000Z</time>
      </trkpt>
      <trkpt lon="34.740647580474615" lat="30.582104790955782">
        <ele>820.7999877929688</ele>
        <time>2014-11-28T07:07:00.000Z</time>
      </trkpt>
      <trkpt lon="34.74060935899615" lat="30.58208718895912">
        <ele>820.2000122070312</ele>
        <time>2014-11-28T07:07:10.000Z</time>
      </trkpt>
      <trkpt lon="34.74059318192303" lat="30.582088194787502">
        <ele>820.2000122070312</ele>
        <time>2014-11-28T07:07:21.000Z</time>
      </trkpt>
      <trkpt lon="34.740580106154084" lat="30.582072352990508">
        <ele>819.7999877929688</ele>
        <time>2014-11-28T07:07:24.000Z</time>
      </trkpt>
      <trkpt lon="34.740568874403834" lat="30.582059025764465">
        <ele>819.4000244140625</ele>
        <time>2014-11-28T07:07:25.000Z</time>
      </trkpt>
      <trkpt lon="34.740553703159094" lat="30.582044273614883">
        <ele>819.0</ele>
        <time>2014-11-28T07:07:26.000Z</time>
      </trkpt>
      <trkpt lon="34.740539621561766" lat="30.5820295214653">
        <ele>818.5999755859375</ele>
        <time>2014-11-28T07:07:27.000Z</time>
      </trkpt>
      <trkpt lon="34.74052621051669" lat="30.582016361877322">
        <ele>818.2000122070312</ele>
        <time>2014-11-28T07:07:28.000Z</time>
      </trkpt>
      <trkpt lon="34.74050994962454" lat="30.58200253173709">
        <ele>817.7999877929688</ele>
        <time>2014-11-28T07:07:29.000Z</time>
      </trkpt>
      <trkpt lon="34.74038606509566" lat="30.58191225863993">
        <ele>815.2000122070312</ele>
        <time>2014-11-28T07:07:35.000Z</time>
      </trkpt>
      <trkpt lon="34.740360751748085" lat="30.58174403384328">
        <ele>811.0</ele>
        <time>2014-11-28T07:07:41.000Z</time>
      </trkpt>
      <trkpt lon="34.74040559493005" lat="30.58154965750873">
        <ele>806.2000122070312</ele>
        <time>2014-11-28T07:07:49.000Z</time>
      </trkpt>
      <trkpt lon="34.74042596295476" lat="30.58146357536316">
        <ele>804.0</ele>
        <time>2014-11-28T07:07:55.000Z</time>
      </trkpt>
      <trkpt lon="34.74042789079249" lat="30.58140699751675">
        <ele>802.5999755859375</ele>
        <time>2014-11-28T07:08:02.000Z</time>
      </trkpt>
      <trkpt lon="34.74046007730067" lat="30.581334745511413">
        <ele>801.4000244140625</ele>
        <time>2014-11-28T07:08:10.000Z</time>
      </trkpt>
      <trkpt lon="34.74047809839249" lat="30.581310521811247">
        <ele>801.0</ele>
        <time>2014-11-28T07:08:13.000Z</time>
      </trkpt>
      <trkpt lon="34.740524953231215" lat="30.58130390010774">
        <ele>801.2000122070312</ele>
        <time>2014-11-28T07:08:17.000Z</time>
      </trkpt>
      <trkpt lon="34.74053693935275" lat="30.581303229555488">
        <ele>801.2000122070312</ele>
        <time>2014-11-28T07:08:18.000Z</time>
      </trkpt>
      <trkpt lon="34.740548841655254" lat="30.581298619508743">
        <ele>801.2000122070312</ele>
        <time>2014-11-28T07:08:19.000Z</time>
      </trkpt>
      <trkpt lon="34.7405912540853" lat="30.581242544576526">
        <ele>800.2000122070312</ele>
        <time>2014-11-28T07:08:26.000Z</time>
      </trkpt>
      <trkpt lon="34.7405896615237" lat="30.581230390816927">
        <ele>799.7999877929688</ele>
        <time>2014-11-28T07:08:27.000Z</time>
      </trkpt>
      <trkpt lon="34.74057147279382" lat="30.58118361979723">
        <ele>798.5999755859375</ele>
        <time>2014-11-28T07:08:33.000Z</time>
      </trkpt>
      <trkpt lon="34.74049695767462" lat="30.581158977001905">
        <ele>797.4000244140625</ele>
        <time>2014-11-28T07:08:42.000Z</time>
      </trkpt>
      <trkpt lon="34.74040593020618" lat="30.581171633675694">
        <ele>796.7999877929688</ele>
        <time>2014-11-28T07:08:51.000Z</time>
      </trkpt>
      <trkpt lon="34.740367624908686" lat="30.581163503229618">
        <ele>796.4000244140625</ele>
        <time>2014-11-28T07:08:58.000Z</time>
      </trkpt>
      <trkpt lon="34.74036628380418" lat="30.581117821857333">
        <ele>795.2000122070312</ele>
        <time>2014-11-28T07:09:07.000Z</time>
      </trkpt>
      <trkpt lon="34.74030610173941" lat="30.581101812422276">
        <ele>794.2000122070312</ele>
        <time>2014-11-28T07:09:16.000Z</time>
      </trkpt>
      <trkpt lon="34.74026821553707" lat="30.581090664491057">
        <ele>793.5999755859375</ele>
        <time>2014-11-28T07:09:23.000Z</time>
      </trkpt>
      <trkpt lon="34.740244410932064" lat="30.581059316173196">
        <ele>792.5999755859375</ele>
        <time>2014-11-28T07:09:30.000Z</time>
      </trkpt>
      <trkpt lon="34.74028422497213" lat="30.581010030582547">
        <ele>791.5999755859375</ele>
        <time>2014-11-28T07:09:38.000Z</time>
      </trkpt>
      <trkpt lon="34.740349939092994" lat="30.58096183463931">
        <ele>791.0</ele>
        <time>2014-11-28T07:09:46.000Z</time>
      </trkpt>
      <trkpt lon="34.74037072621286" lat="30.58094716630876">
        <ele>791.0</ele>
        <time>2014-11-28T07:09:51.000Z</time>
      </trkpt>
      <trkpt lon="34.740382293239236" lat="30.58093937113881">
        <ele>790.7999877929688</ele>
        <time>2014-11-28T07:09:52.000Z</time>
      </trkpt>
      <trkpt lon="34.74050802178681" lat="30.58088270947337">
        <ele>790.4000244140625</ele>
        <time>2014-11-28T07:09:59.000Z</time>
      </trkpt>
      <trkpt lon="34.74054825492203" lat="30.580868627876043">
        <ele>790.4000244140625</ele>
        <time>2014-11-28T07:10:01.000Z</time>
      </trkpt>
      <trkpt lon="34.7405671980232" lat="30.580869046971202">
        <ele>790.5999755859375</ele>
        <time>2014-11-28T07:10:02.000Z</time>
      </trkpt>
      <trkpt lon="34.74058588966727" lat="30.58086938224733">
        <ele>790.7999877929688</ele>
        <time>2014-11-28T07:10:03.000Z</time>
      </trkpt>
      <trkpt lon="34.740604581311345" lat="30.58086703531444">
        <ele>790.7999877929688</ele>
        <time>2014-11-28T07:10:04.000Z</time>
      </trkpt>
      <trkpt lon="34.74062528461218" lat="30.580860413610935">
        <ele>790.7999877929688</ele>
        <time>2014-11-28T07:10:05.000Z</time>
      </trkpt>
      <trkpt lon="34.74064431153238" lat="30.580851193517447">
        <ele>790.7999877929688</ele>
        <time>2014-11-28T07:10:06.000Z</time>
      </trkpt>
      <trkpt lon="34.740659734234214" lat="30.580839039757848">
        <ele>790.5999755859375</ele>
        <time>2014-11-28T07:10:07.000Z</time>
      </trkpt>
      <trkpt lon="34.74067532457411" lat="30.580827556550503">
        <ele>790.4000244140625</ele>
        <time>2014-11-28T07:10:08.000Z</time>
      </trkpt>
      <trkpt lon="34.74069024436176" lat="30.580816827714443">
        <ele>790.4000244140625</ele>
        <time>2014-11-28T07:10:09.000Z</time>
      </trkpt>
      <trkpt lon="34.74070449359715" lat="30.58080291375518">
        <ele>790.2000122070312</ele>
        <time>2014-11-28T07:10:10.000Z</time>
      </trkpt>
      <trkpt lon="34.74082552827895" lat="30.580664360895753">
        <ele>789.0</ele>
        <time>2014-11-28T07:10:18.000Z</time>
      </trkpt>
      <trkpt lon="34.74096341058612" lat="30.580477863550186">
        <ele>787.0</ele>
        <time>2014-11-28T07:10:26.000Z</time>
      </trkpt>
      <trkpt lon="34.74095972254872" lat="30.58039790019393">
        <ele>785.4000244140625</ele>
        <time>2014-11-28T07:10:30.000Z</time>
      </trkpt>
      <trkpt lon="34.74093759432435" lat="30.580387003719807">
        <ele>784.7999877929688</ele>
        <time>2014-11-28T07:10:31.000Z</time>
      </trkpt>
      <trkpt lon="34.74077356047928" lat="30.580287678167224">
        <ele>780.5999755859375</ele>
        <time>2014-11-28T07:10:38.000Z</time>
      </trkpt>
      <trkpt lon="34.74064791575074" lat="30.580221880227327">
        <ele>777.5999755859375</ele>
        <time>2014-11-28T07:10:44.000Z</time>
      </trkpt>
      <trkpt lon="34.740403750911355" lat="30.580227663740516">
        <ele>774.5999755859375</ele>
        <time>2014-11-28T07:10:52.000Z</time>
      </trkpt>
      <trkpt lon="34.740219013765454" lat="30.580225149169564">
        <ele>774.4000244140625</ele>
        <time>2014-11-28T07:10:59.000Z</time>
      </trkpt>
      <trkpt lon="34.73988960497081" lat="30.580225568264723">
        <ele>772.5999755859375</ele>
        <time>2014-11-28T07:11:06.000Z</time>
      </trkpt>
      <trkpt lon="34.73963647149503" lat="30.580190028995275">
        <ele>769.7999877929688</ele>
        <time>2014-11-28T07:11:13.000Z</time>
      </trkpt>
      <trkpt lon="34.739419212564826" lat="30.58008869178593">
        <ele>768.0</ele>
        <time>2014-11-28T07:11:20.000Z</time>
      </trkpt>
      <trkpt lon="34.739347798749804" lat="30.579992970451713">
        <ele>767.0</ele>
        <time>2014-11-28T07:11:26.000Z</time>
      </trkpt>
      <trkpt lon="34.73929675295949" lat="30.579953156411648">
        <ele>766.5999755859375</ele>
        <time>2014-11-28T07:11:31.000Z</time>
      </trkpt>
      <trkpt lon="34.7393306158483" lat="30.57994494214654">
        <ele>766.5999755859375</ele>
        <time>2014-11-28T07:11:45.000Z</time>
      </trkpt>
      <trkpt lon="34.7393340524286" lat="30.57993220165372">
        <ele>766.4000244140625</ele>
        <time>2014-11-28T07:12:15.000Z</time>
      </trkpt>
      <trkpt lon="34.739335561171174" lat="30.57993999682367">
        <ele>766.4000244140625</ele>
        <time>2014-11-28T07:12:36.000Z</time>
      </trkpt>
      <trkpt lon="34.73929348401725" lat="30.57991661131382">
        <ele>766.2000122070312</ele>
        <time>2014-11-28T07:12:46.000Z</time>
      </trkpt>
      <trkpt lon="34.739208240062" lat="30.579900182783604">
        <ele>766.2000122070312</ele>
        <time>2014-11-28T07:12:54.000Z</time>
      </trkpt>
      <trkpt lon="34.739195415750146" lat="30.579849807545543">
        <ele>765.5999755859375</ele>
        <time>2014-11-28T07:13:03.000Z</time>
      </trkpt>
      <trkpt lon="34.73914881236851" lat="30.57981845922768">
        <ele>765.4000244140625</ele>
        <time>2014-11-28T07:13:11.000Z</time>
      </trkpt>
      <trkpt lon="34.73911168053746" lat="30.579745704308152">
        <ele>764.5999755859375</ele>
        <time>2014-11-28T07:13:22.000Z</time>
      </trkpt>
      <trkpt lon="34.73906558007002" lat="30.57971779257059">
        <ele>764.4000244140625</ele>
        <time>2014-11-28T07:13:31.000Z</time>
      </trkpt>
      <trkpt lon="34.73905501887202" lat="30.579653503373265">
        <ele>763.4000244140625</ele>
        <time>2014-11-28T07:13:40.000Z</time>
      </trkpt>
      <trkpt lon="34.739043451845646" lat="30.579586029052734">
        <ele>761.7999877929688</ele>
        <time>2014-11-28T07:13:50.000Z</time>
      </trkpt>
      <trkpt lon="34.739038087427616" lat="30.57951260358095">
        <ele>760.2000122070312</ele>
        <time>2014-11-28T07:14:00.000Z</time>
      </trkpt>
      <trkpt lon="34.73900808021426" lat="30.579446302726865">
        <ele>758.5999755859375</ele>
        <time>2014-11-28T07:14:11.000Z</time>
      </trkpt>
      <trkpt lon="34.73900497891009" lat="30.57937765493989">
        <ele>757.2000122070312</ele>
        <time>2014-11-28T07:14:21.000Z</time>
      </trkpt>
      <trkpt lon="34.739054180681705" lat="30.579334488138556">
        <ele>756.2000122070312</ele>
        <time>2014-11-28T07:14:29.000Z</time>
      </trkpt>
      <trkpt lon="34.73910271190107" lat="30.5793166346848">
        <ele>755.7999877929688</ele>
        <time>2014-11-28T07:14:39.000Z</time>
      </trkpt>
      <trkpt lon="34.739146549254656" lat="30.579282101243734">
        <ele>755.0</ele>
        <time>2014-11-28T07:14:47.000Z</time>
      </trkpt>
      <trkpt lon="34.73915174603462" lat="30.579231390729547">
        <ele>754.0</ele>
        <time>2014-11-28T07:14:53.000Z</time>
      </trkpt>
      <trkpt lon="34.739154344424605" lat="30.579220410436392">
        <ele>753.7999877929688</ele>
        <time>2014-11-28T07:14:54.000Z</time>
      </trkpt>
      <trkpt lon="34.73915853537619" lat="30.57920867577195">
        <ele>753.4000244140625</ele>
        <time>2014-11-28T07:14:55.000Z</time>
      </trkpt>
      <trkpt lon="34.73913204856217" lat="30.579159976914525">
        <ele>752.4000244140625</ele>
        <time>2014-11-28T07:15:03.000Z</time>
      </trkpt>
      <trkpt lon="34.7390872053802" lat="30.57912452146411">
        <ele>751.5999755859375</ele>
        <time>2014-11-28T07:15:12.000Z</time>
      </trkpt>
      <trkpt lon="34.739047307521105" lat="30.57906685397029">
        <ele>750.4000244140625</ele>
        <time>2014-11-28T07:15:20.000Z</time>
      </trkpt>
      <trkpt lon="34.7390079125762" lat="30.57900675572455">
        <ele>749.0</ele>
        <time>2014-11-28T07:15:29.000Z</time>
      </trkpt>
      <trkpt lon="34.73898209631443" lat="30.57896333746612">
        <ele>748.0</ele>
        <time>2014-11-28T07:15:38.000Z</time>
      </trkpt>
      <trkpt lon="34.738939348608255" lat="30.57892804965377">
        <ele>747.2000122070312</ele>
        <time>2014-11-28T07:15:47.000Z</time>
      </trkpt>
      <trkpt lon="34.73889542743564" lat="30.57892134413123">
        <ele>747.0</ele>
        <time>2014-11-28T07:15:54.000Z</time>
      </trkpt>
      <trkpt lon="34.738845471292734" lat="30.57891447097063">
        <ele>746.7999877929688</ele>
        <time>2014-11-28T07:16:01.000Z</time>
      </trkpt>
      <trkpt lon="34.73879350349307" lat="30.578903323039412">
        <ele>746.4000244140625</ele>
        <time>2014-11-28T07:16:10.000Z</time>
      </trkpt>
      <trkpt lon="34.73873097449541" lat="30.578902987763286">
        <ele>746.2000122070312</ele>
        <time>2014-11-28T07:16:19.000Z</time>
      </trkpt>
      <trkpt lon="34.73869392648339" lat="30.5789368506521">
        <ele>747.0</ele>
        <time>2014-11-28T07:16:26.000Z</time>
      </trkpt>
      <trkpt lon="34.73865763284266" lat="30.578951351344585">
        <ele>746.7999877929688</ele>
        <time>2014-11-28T07:16:33.000Z</time>
      </trkpt>
      <trkpt lon="34.73861371167004" lat="30.578946573659778">
        <ele>746.2000122070312</ele>
        <time>2014-11-28T07:16:41.000Z</time>
      </trkpt>
      <trkpt lon="34.73857322707772" lat="30.578943891450763">
        <ele>745.7999877929688</ele>
        <time>2014-11-28T07:16:49.000Z</time>
      </trkpt>
      <trkpt lon="34.738534251227975" lat="30.57894766330719">
        <ele>745.4000244140625</ele>
        <time>2014-11-28T07:16:56.000Z</time>
      </trkpt>
      <trkpt lon="34.73846116103232" lat="30.57892318814993">
        <ele>744.2000122070312</ele>
        <time>2014-11-28T07:17:05.000Z</time>
      </trkpt>
      <trkpt lon="34.73843350075185" lat="30.578912124037743">
        <ele>743.5999755859375</ele>
        <time>2014-11-28T07:17:14.000Z</time>
      </trkpt>
      <trkpt lon="34.73842838779092" lat="30.57890365831554">
        <ele>743.4000244140625</ele>
        <time>2014-11-28T07:17:15.000Z</time>
      </trkpt>
      <trkpt lon="34.73834792152047" lat="30.578799974173307">
        <ele>740.0</ele>
        <time>2014-11-28T07:17:20.000Z</time>
      </trkpt>
      <trkpt lon="34.73828203976154" lat="30.578717328608036">
        <ele>737.0</ele>
        <time>2014-11-28T07:17:25.000Z</time>
      </trkpt>
      <trkpt lon="34.7382755856961" lat="30.57868329808116">
        <ele>736.0</ele>
        <time>2014-11-28T07:17:33.000Z</time>
      </trkpt>
      <trkpt lon="34.738208279013634" lat="30.578632755205035">
        <ele>734.0</ele>
        <time>2014-11-28T07:17:41.000Z</time>
      </trkpt>
      <trkpt lon="34.73817399702966" lat="30.578579613938928">
        <ele>732.2000122070312</ele>
        <time>2014-11-28T07:17:50.000Z</time>
      </trkpt>
      <trkpt lon="34.73814398981631" lat="30.57851524092257">
        <ele>730.2000122070312</ele>
        <time>2014-11-28T07:18:01.000Z</time>
      </trkpt>
      <trkpt lon="34.73813837394118" lat="30.5784584954381">
        <ele>728.5999755859375</ele>
        <time>2014-11-28T07:18:12.000Z</time>
      </trkpt>
      <trkpt lon="34.73814742639661" lat="30.578403929248452">
        <ele>727.2000122070312</ele>
        <time>2014-11-28T07:18:21.000Z</time>
      </trkpt>
      <trkpt lon="34.738174080848694" lat="30.57834869250655">
        <ele>726.2000122070312</ele>
        <time>2014-11-28T07:18:29.000Z</time>
      </trkpt>
      <trkpt lon="34.73816662095487" lat="30.578308627009392">
        <ele>725.0</ele>
        <time>2014-11-28T07:18:37.000Z</time>
      </trkpt>
      <trkpt lon="34.7380855679512" lat="30.57828549295664">
        <ele>723.4000244140625</ele>
        <time>2014-11-28T07:18:46.000Z</time>
      </trkpt>
      <trkpt lon="34.738048519939184" lat="30.578260011970997">
        <ele>722.4000244140625</ele>
        <time>2014-11-28T07:18:53.000Z</time>
      </trkpt>
      <trkpt lon="34.73804793320596" lat="30.57825917378068">
        <ele>722.4000244140625</ele>
        <time>2014-11-28T07:19:05.000Z</time>
      </trkpt>
      <trkpt lon="34.738033935427666" lat="30.578245678916574">
        <ele>721.7999877929688</ele>
        <time>2014-11-28T07:19:14.000Z</time>
      </trkpt>
      <trkpt lon="34.73802303895354" lat="30.578235117718577">
        <ele>721.4000244140625</ele>
        <time>2014-11-28T07:19:21.000Z</time>
      </trkpt>
      <trkpt lon="34.73798138089478" lat="30.578195890411735">
        <ele>720.0</ele>
        <time>2014-11-28T07:19:29.000Z</time>
      </trkpt>
      <trkpt lon="34.737910805270076" lat="30.57813704945147">
        <ele>717.5999755859375</ele>
        <time>2014-11-28T07:19:39.000Z</time>
      </trkpt>
      <trkpt lon="34.73789253272116" lat="30.57808918878436">
        <ele>716.2000122070312</ele>
        <time>2014-11-28T07:19:47.000Z</time>
      </trkpt>
      <trkpt lon="34.73786151967943" lat="30.57805976830423">
        <ele>715.2000122070312</ele>
        <time>2014-11-28T07:19:55.000Z</time>
      </trkpt>
      <trkpt lon="34.737825226038694" lat="30.578021463006735">
        <ele>714.0</ele>
        <time>2014-11-28T07:20:04.000Z</time>
      </trkpt>
      <trkpt lon="34.73779320716858" lat="30.57798257097602">
        <ele>713.2000122070312</ele>
        <time>2014-11-28T07:20:13.000Z</time>
      </trkpt>
      <trkpt lon="34.737751046195626" lat="30.57793965563178">
        <ele>712.2000122070312</ele>
        <time>2014-11-28T07:20:22.000Z</time>
      </trkpt>
      <trkpt lon="34.737718692049384" lat="30.57791073806584">
        <ele>711.5999755859375</ele>
        <time>2014-11-28T07:20:29.000Z</time>
      </trkpt>
      <trkpt lon="34.73767686635256" lat="30.577863799408078">
        <ele>710.5999755859375</ele>
        <time>2014-11-28T07:20:37.000Z</time>
      </trkpt>
      <trkpt lon="34.73761048167944" lat="30.577813675627112">
        <ele>709.4000244140625</ele>
        <time>2014-11-28T07:20:48.000Z</time>
      </trkpt>
      <trkpt lon="34.73752993158996" lat="30.577758103609085">
        <ele>708.2000122070312</ele>
        <time>2014-11-28T07:20:59.000Z</time>
      </trkpt>
      <trkpt lon="34.737552562728524" lat="30.57772507891059">
        <ele>707.5999755859375</ele>
        <time>2014-11-28T07:21:06.000Z</time>
      </trkpt>
      <trkpt lon="34.73752683028579" lat="30.577679481357336">
        <ele>706.7999877929688</ele>
        <time>2014-11-28T07:21:14.000Z</time>
      </trkpt>
      <trkpt lon="34.7374621219933" lat="30.577622735872865">
        <ele>705.4000244140625</ele>
        <time>2014-11-28T07:21:24.000Z</time>
      </trkpt>
      <trkpt lon="34.737422559410334" lat="30.577578144147992">
        <ele>704.5999755859375</ele>
        <time>2014-11-28T07:21:33.000Z</time>
      </trkpt>
      <trkpt lon="34.73737243562937" lat="30.577526092529297">
        <ele>703.4000244140625</ele>
        <time>2014-11-28T07:21:42.000Z</time>
      </trkpt>
      <trkpt lon="34.737354246899486" lat="30.577495330944657">
        <ele>702.7999877929688</ele>
        <time>2014-11-28T07:21:51.000Z</time>
      </trkpt>
      <trkpt lon="34.73730060271919" lat="30.577450236305594">
        <ele>701.7999877929688</ele>
        <time>2014-11-28T07:22:00.000Z</time>
      </trkpt>
      <trkpt lon="34.73728132434189" lat="30.57739525102079">
        <ele>700.7999877929688</ele>
        <time>2014-11-28T07:22:09.000Z</time>
      </trkpt>
      <trkpt lon="34.73729155026376" lat="30.577340852469206">
        <ele>700.0</ele>
        <time>2014-11-28T07:22:19.000Z</time>
      </trkpt>
      <trkpt lon="34.7372810728848" lat="30.577307995408773">
        <ele>699.4000244140625</ele>
        <time>2014-11-28T07:22:26.000Z</time>
      </trkpt>
      <trkpt lon="34.73724695853889" lat="30.577267929911613">
        <ele>698.5999755859375</ele>
        <time>2014-11-28T07:22:34.000Z</time>
      </trkpt>
      <trkpt lon="34.73717856220901" lat="30.57721395045519">
        <ele>697.4000244140625</ele>
        <time>2014-11-28T07:22:43.000Z</time>
      </trkpt>
      <trkpt lon="34.7371256724" lat="30.577181428670883">
        <ele>696.5999755859375</ele>
        <time>2014-11-28T07:22:51.000Z</time>
      </trkpt>
      <trkpt lon="34.737107399851084" lat="30.57718863710761">
        <ele>696.5999755859375</ele>
        <time>2014-11-28T07:23:06.000Z</time>
      </trkpt>
      <trkpt lon="34.737121649086475" lat="30.57719106785953">
        <ele>696.5999755859375</ele>
        <time>2014-11-28T07:23:23.000Z</time>
      </trkpt>
      <trkpt lon="34.73701452836394" lat="30.57713340036571">
        <ele>695.0</ele>
        <time>2014-11-28T07:23:29.000Z</time>
      </trkpt>
      <trkpt lon="34.73679844290018" lat="30.577042289078236">
        <ele>690.4000244140625</ele>
        <time>2014-11-28T07:23:36.000Z</time>
      </trkpt>
      <trkpt lon="34.73665997385979" lat="30.576914297416806">
        <ele>686.7999877929688</ele>
        <time>2014-11-28T07:23:43.000Z</time>
      </trkpt>
      <trkpt lon="34.73663868382573" lat="30.57684942148626">
        <ele>685.7999877929688</ele>
        <time>2014-11-28T07:23:47.000Z</time>
      </trkpt>
      <trkpt lon="34.736688220873475" lat="30.57681187056005">
        <ele>686.0</ele>
        <time>2014-11-28T07:23:55.000Z</time>
      </trkpt>
      <trkpt lon="34.73671236075461" lat="30.57677431963384">
        <ele>686.0</ele>
        <time>2014-11-28T07:24:02.000Z</time>
      </trkpt>
      <trkpt lon="34.736715126782656" lat="30.5767575558275">
        <ele>685.7999877929688</ele>
        <time>2014-11-28T07:24:16.000Z</time>
      </trkpt>
      <trkpt lon="34.73667380400002" lat="30.5767263751477">
        <ele>684.7999877929688</ele>
        <time>2014-11-28T07:24:24.000Z</time>
      </trkpt>
      <trkpt lon="34.73668076097965" lat="30.576681196689606">
        <ele>684.2000122070312</ele>
        <time>2014-11-28T07:24:32.000Z</time>
      </trkpt>
      <trkpt lon="34.7366351634264" lat="30.576672814786434">
        <ele>683.4000244140625</ele>
        <time>2014-11-28T07:24:40.000Z</time>
      </trkpt>
      <trkpt lon="34.73660549148917" lat="30.576657140627503">
        <ele>682.7999877929688</ele>
        <time>2014-11-28T07:24:48.000Z</time>
      </trkpt>
      <trkpt lon="34.73659375682473" lat="30.576618080958724">
        <ele>682.2000122070312</ele>
        <time>2014-11-28T07:24:57.000Z</time>
      </trkpt>
      <trkpt lon="34.73662946373224" lat="30.576549768447876">
        <ele>681.7999877929688</ele>
        <time>2014-11-28T07:25:06.000Z</time>
      </trkpt>
      <trkpt lon="34.73662946373224" lat="30.57651339098811">
        <ele>681.4000244140625</ele>
        <time>2014-11-28T07:25:14.000Z</time>
      </trkpt>
      <trkpt lon="34.736604653298855" lat="30.576452538371086">
        <ele>680.2000122070312</ele>
        <time>2014-11-28T07:25:24.000Z</time>
      </trkpt>
      <trkpt lon="34.73659618757665" lat="30.57643317617476">
        <ele>679.7999877929688</ele>
        <time>2014-11-28T07:25:32.000Z</time>
      </trkpt>
      <trkpt lon="34.73657950758934" lat="30.576394787058234">
        <ele>679.0</ele>
        <time>2014-11-28T07:25:40.000Z</time>
      </trkpt>
      <trkpt lon="34.73651538603008" lat="30.576355811208487">
        <ele>677.5999755859375</ele>
        <time>2014-11-28T07:25:49.000Z</time>
      </trkpt>
      <trkpt lon="34.73645537160337" lat="30.576329994946718">
        <ele>676.4000244140625</ele>
        <time>2014-11-28T07:25:57.000Z</time>
      </trkpt>
      <trkpt lon="34.73637297749519" lat="30.576308956369758">
        <ele>675.0</ele>
        <time>2014-11-28T07:26:06.000Z</time>
      </trkpt>
      <trkpt lon="34.73631229251623" lat="30.576305268332362">
        <ele>674.2000122070312</ele>
        <time>2014-11-28T07:26:14.000Z</time>
      </trkpt>
      <trkpt lon="34.73626962862909" lat="30.576313817873597">
        <ele>673.5999755859375</ele>
        <time>2014-11-28T07:26:22.000Z</time>
      </trkpt>
      <trkpt lon="34.73625638522208" lat="30.576313650235534">
        <ele>673.4000244140625</ele>
        <time>2014-11-28T07:26:23.000Z</time>
      </trkpt>
      <trkpt lon="34.73623358644545" lat="30.576315578073263">
        <ele>673.2000122070312</ele>
        <time>2014-11-28T07:26:24.000Z</time>
      </trkpt>
      <trkpt lon="34.73620944656432" lat="30.576318511739373">
        <ele>672.7999877929688</ele>
        <time>2014-11-28T07:26:25.000Z</time>
      </trkpt>
      <trkpt lon="34.73618329502642" lat="30.57632219977677">
        <ele>672.5999755859375</ele>
        <time>2014-11-28T07:26:26.000Z</time>
      </trkpt>
      <trkpt lon="34.73615538328886" lat="30.576328737661242">
        <ele>672.2000122070312</ele>
        <time>2014-11-28T07:26:27.000Z</time>
      </trkpt>
      <trkpt lon="34.73591926507652" lat="30.5764327570796">
        <ele>669.4000244140625</ele>
        <time>2014-11-28T07:26:35.000Z</time>
      </trkpt>
      <trkpt lon="34.73566671833396" lat="30.576579021289945">
        <ele>667.2000122070312</ele>
        <time>2014-11-28T07:26:42.000Z</time>
      </trkpt>
      <trkpt lon="34.73561625927687" lat="30.57658564299345">
        <ele>666.4000244140625</ele>
        <time>2014-11-28T07:26:43.000Z</time>
      </trkpt>
      <trkpt lon="34.7355642914772" lat="30.5765831284225">
        <ele>665.5999755859375</ele>
        <time>2014-11-28T07:26:44.000Z</time>
      </trkpt>
      <trkpt lon="34.73528333008289" lat="30.576506350189447">
        <ele>661.7999877929688</ele>
        <time>2014-11-28T07:26:49.000Z</time>
      </trkpt>
      <trkpt lon="34.735228680074215" lat="30.576478857547045">
        <ele>661.5999755859375</ele>
        <time>2014-11-28T07:26:50.000Z</time>
      </trkpt>
      <trkpt lon="34.735182747244835" lat="30.576443318277597">
        <ele>661.2000122070312</ele>
        <time>2014-11-28T07:26:51.000Z</time>
      </trkpt>
      <trkpt lon="34.73514636978507" lat="30.576400822028518">
        <ele>660.7999877929688</ele>
        <time>2014-11-28T07:26:52.000Z</time>
      </trkpt>
      <trkpt lon="34.735117284581065" lat="30.576348518952727">
        <ele>660.4000244140625</ele>
        <time>2014-11-28T07:26:53.000Z</time>
      </trkpt>
      <trkpt lon="34.73509884439409" lat="30.576292276382446">
        <ele>660.0</ele>
        <time>2014-11-28T07:26:54.000Z</time>
      </trkpt>
      <trkpt lon="34.73509079776704" lat="30.576237374916673">
        <ele>659.5999755859375</ele>
        <time>2014-11-28T07:26:55.000Z</time>
      </trkpt>
      <trkpt lon="34.7349860239774" lat="30.575870582833886">
        <ele>657.2000122070312</ele>
        <time>2014-11-28T07:27:02.000Z</time>
      </trkpt>
      <trkpt lon="34.73498024046421" lat="30.575824566185474">
        <ele>656.7999877929688</ele>
        <time>2014-11-28T07:27:03.000Z</time>
      </trkpt>
      <trkpt lon="34.73498250357807" lat="30.575781734660268">
        <ele>656.5999755859375</ele>
        <time>2014-11-28T07:27:04.000Z</time>
      </trkpt>
      <trkpt lon="34.734990214928985" lat="30.575742423534393">
        <ele>656.4000244140625</ele>
        <time>2014-11-28T07:27:05.000Z</time>
      </trkpt>
      <trkpt lon="34.734997088089585" lat="30.575701855123043">
        <ele>656.2000122070312</ele>
        <time>2014-11-28T07:27:06.000Z</time>
      </trkpt>
      <trkpt lon="34.73499407060444" lat="30.57566204108298">
        <ele>655.7999877929688</ele>
        <time>2014-11-28T07:27:07.000Z</time>
      </trkpt>
      <trkpt lon="34.73499147221446" lat="30.575621891766787">
        <ele>655.5999755859375</ele>
        <time>2014-11-28T07:27:08.000Z</time>
      </trkpt>
      <trkpt lon="34.73499725572765" lat="30.575582832098007">
        <ele>655.4000244140625</ele>
        <time>2014-11-28T07:27:09.000Z</time>
      </trkpt>
      <trkpt lon="34.73500991240144" lat="30.57554100640118">
        <ele>655.2000122070312</ele>
        <time>2014-11-28T07:27:10.000Z</time>
      </trkpt>
      <trkpt lon="34.73503405228257" lat="30.575507059693336">
        <ele>655.0</ele>
        <time>2014-11-28T07:27:11.000Z</time>
      </trkpt>
      <trkpt lon="34.73506623879075" lat="30.575483925640583">
        <ele>654.7999877929688</ele>
        <time>2014-11-28T07:27:12.000Z</time>
      </trkpt>
      <trkpt lon="34.735106052830815" lat="30.575469005852938">
        <ele>654.7999877929688</ele>
        <time>2014-11-28T07:27:13.000Z</time>
      </trkpt>
      <trkpt lon="34.73514863289893" lat="30.575457019731402">
        <ele>654.7999877929688</ele>
        <time>2014-11-28T07:27:14.000Z</time>
      </trkpt>
      <trkpt lon="34.73531459458172" lat="30.5753983464092">
        <ele>654.4000244140625</ele>
        <time>2014-11-28T07:27:18.000Z</time>
      </trkpt>
      <trkpt lon="34.735353821888566" lat="30.575366243720055">
        <ele>654.0</ele>
        <time>2014-11-28T07:27:19.000Z</time>
      </trkpt>
      <trkpt lon="34.73538885824382" lat="30.575326764956117">
        <ele>653.7999877929688</ele>
        <time>2014-11-28T07:27:20.000Z</time>
      </trkpt>
      <trkpt lon="34.7354141715914" lat="30.575288543477654">
        <ele>654.0</ele>
        <time>2014-11-28T07:27:21.000Z</time>
      </trkpt>
      <trkpt lon="34.73542825318873" lat="30.575254764407873">
        <ele>653.7999877929688</ele>
        <time>2014-11-28T07:27:22.000Z</time>
      </trkpt>
      <trkpt lon="34.73543906584382" lat="30.575226433575153">
        <ele>653.7999877929688</ele>
        <time>2014-11-28T07:27:23.000Z</time>
      </trkpt>
      <trkpt lon="34.73545415326953" lat="30.57520137168467">
        <ele>653.7999877929688</ele>
        <time>2014-11-28T07:27:24.000Z</time>
      </trkpt>
      <trkpt lon="34.7354781255126" lat="30.57517547160387">
        <ele>654.0</ele>
        <time>2014-11-28T07:27:25.000Z</time>
      </trkpt>
      <trkpt lon="34.73551039583981" lat="30.575157701969147">
        <ele>654.2000122070312</ele>
        <time>2014-11-28T07:27:26.000Z</time>
      </trkpt>
      <trkpt lon="34.735548701137304" lat="30.575145380571485">
        <ele>654.5999755859375</ele>
        <time>2014-11-28T07:27:27.000Z</time>
      </trkpt>
      <trkpt lon="34.73558709025383" lat="30.575138088315725">
        <ele>655.2000122070312</ele>
        <time>2014-11-28T07:27:28.000Z</time>
      </trkpt>
      <trkpt lon="34.735622461885214" lat="30.575131801888347">
        <ele>655.5999755859375</ele>
        <time>2014-11-28T07:27:29.000Z</time>
      </trkpt>
      <trkpt lon="34.735657246783376" lat="30.575122833251953">
        <ele>656.0</ele>
        <time>2014-11-28T07:27:30.000Z</time>
      </trkpt>
      <trkpt lon="34.73577132448554" lat="30.57504982687533">
        <ele>656.4000244140625</ele>
        <time>2014-11-28T07:27:35.000Z</time>
      </trkpt>
      <trkpt lon="34.73577811382711" lat="30.57504597119987">
        <ele>656.4000244140625</ele>
        <time>2014-11-28T07:27:41.000Z</time>
      </trkpt>
      <trkpt lon="34.73578657954931" lat="30.575043121352792">
        <ele>656.4000244140625</ele>
        <time>2014-11-28T07:27:49.000Z</time>
      </trkpt>
      <trkpt lon="34.735818011686206" lat="30.575045133009553">
        <ele>656.2000122070312</ele>
        <time>2014-11-28T07:27:56.000Z</time>
      </trkpt>
      <trkpt lon="34.735820442438126" lat="30.575038846582174">
        <ele>656.2000122070312</ele>
        <time>2014-11-28T07:28:09.000Z</time>
      </trkpt>
      <trkpt lon="34.73582647740841" lat="30.575046809390187">
        <ele>656.2000122070312</ele>
        <time>2014-11-28T07:28:25.000Z</time>
      </trkpt>
      <trkpt lon="34.735831590369344" lat="30.575050245970488">
        <ele>656.4000244140625</ele>
        <time>2014-11-28T07:28:44.000Z</time>
      </trkpt>
      <trkpt lon="34.735824801027775" lat="30.575044881552458">
        <ele>656.2000122070312</ele>
        <time>2014-11-28T07:28:56.000Z</time>
      </trkpt>
      <trkpt lon="34.735792530700564" lat="30.575046306475997">
        <ele>656.4000244140625</ele>
        <time>2014-11-28T07:29:05.000Z</time>
      </trkpt>
      <trkpt lon="34.73577031865716" lat="30.57504060678184">
        <ele>656.2000122070312</ele>
        <time>2014-11-28T07:29:18.000Z</time>
      </trkpt>
      <trkpt lon="34.73578255623579" lat="30.57503725402057">
        <ele>656.2000122070312</ele>
        <time>2014-11-28T07:29:30.000Z</time>
      </trkpt>
      <trkpt lon="34.73579831421375" lat="30.57503616437316">
        <ele>656.2000122070312</ele>
        <time>2014-11-28T07:29:45.000Z</time>
      </trkpt>
      <trkpt lon="34.7358063608408" lat="30.575039768591523">
        <ele>656.2000122070312</ele>
        <time>2014-11-28T07:29:56.000Z</time>
      </trkpt>
      <trkpt lon="34.73580007441342" lat="30.575043624266982">
        <ele>656.2000122070312</ele>
        <time>2014-11-28T07:30:15.000Z</time>
      </trkpt>
      <trkpt lon="34.73580309189856" lat="30.575035745278">
        <ele>656.0</ele>
        <time>2014-11-28T07:30:29.000Z</time>
      </trkpt>
      <trkpt lon="34.7358132340014" lat="30.575034404173493">
        <ele>656.0</ele>
        <time>2014-11-28T07:30:46.000Z</time>
      </trkpt>
      <trkpt lon="34.73579973913729" lat="30.57503708638251">
        <ele>656.2000122070312</ele>
        <time>2014-11-28T07:30:57.000Z</time>
      </trkpt>
      <trkpt lon="34.73580342717469" lat="30.57503272779286">
        <ele>656.0</ele>
        <time>2014-11-28T07:31:11.000Z</time>
      </trkpt>
      <trkpt lon="34.73581574857235" lat="30.57504152879119">
        <ele>656.2000122070312</ele>
        <time>2014-11-28T07:31:31.000Z</time>
      </trkpt>
      <trkpt lon="34.735816922038794" lat="30.575037756934762">
        <ele>656.2000122070312</ele>
        <time>2014-11-28T07:31:48.000Z</time>
      </trkpt>
      <trkpt lon="34.735803762450814" lat="30.57504152879119">
        <ele>656.2000122070312</ele>
        <time>2014-11-28T07:32:00.000Z</time>
      </trkpt>
      <trkpt lon="34.7357957996428" lat="30.575037421658635">
        <ele>656.2000122070312</ele>
        <time>2014-11-28T07:32:11.000Z</time>
      </trkpt>
      <trkpt lon="34.735794458538294" lat="30.575038343667984">
        <ele>656.2000122070312</ele>
        <time>2014-11-28T07:32:29.000Z</time>
      </trkpt>
      <trkpt lon="34.73579630255699" lat="30.575045803561807">
        <ele>656.4000244140625</ele>
        <time>2014-11-28T07:32:52.000Z</time>
      </trkpt>
      <trkpt lon="34.73578850738704" lat="30.575045133009553">
        <ele>656.4000244140625</ele>
        <time>2014-11-28T07:33:07.000Z</time>
      </trkpt>
      <trkpt lon="34.73577962256968" lat="30.575053514912724">
        <ele>656.5999755859375</ele>
        <time>2014-11-28T07:33:20.000Z</time>
      </trkpt>
      <trkpt lon="34.73573125898838" lat="30.575067345052958">
        <ele>656.5999755859375</ele>
        <time>2014-11-28T07:33:28.000Z</time>
      </trkpt>
      <trkpt lon="34.73572329618037" lat="30.57506742887199">
        <ele>656.4000244140625</ele>
        <time>2014-11-28T07:33:33.000Z</time>
      </trkpt>
      <trkpt lon="34.73572396673262" lat="30.575064411386847">
        <ele>656.4000244140625</ele>
        <time>2014-11-28T07:33:44.000Z</time>
      </trkpt>
      <trkpt lon="34.7357093822211" lat="30.5750582087785">
        <ele>656.2000122070312</ele>
        <time>2014-11-28T07:33:56.000Z</time>
      </trkpt>
      <trkpt lon="34.73575120791793" lat="30.575035410001874">
        <ele>656.2000122070312</ele>
        <time>2014-11-28T07:34:03.000Z</time>
      </trkpt>
      <trkpt lon="34.73581566475332" lat="30.57503515854478">
        <ele>656.0</ele>
        <time>2014-11-28T07:34:11.000Z</time>
      </trkpt>
      <trkpt lon="34.735894622281194" lat="30.57501965202391">
        <ele>655.5999755859375</ele>
        <time>2014-11-28T07:34:21.000Z</time>
      </trkpt>
      <trkpt lon="34.73593292757869" lat="30.57500389404595">
        <ele>655.0</ele>
        <time>2014-11-28T07:34:28.000Z</time>
      </trkpt>
      <trkpt lon="34.73595052957535" lat="30.574998278170824">
        <ele>654.7999877929688</ele>
        <time>2014-11-28T07:34:29.000Z</time>
      </trkpt>
      <trkpt lon="34.73597098141909" lat="30.57498981244862">
        <ele>654.5999755859375</ele>
        <time>2014-11-28T07:34:30.000Z</time>
      </trkpt>
      <trkpt lon="34.73599017597735" lat="30.5749805085361">
        <ele>654.4000244140625</ele>
        <time>2014-11-28T07:34:31.000Z</time>
      </trkpt>
      <trkpt lon="34.7360048443079" lat="30.57496969588101">
        <ele>654.2000122070312</ele>
        <time>2014-11-28T07:34:32.000Z</time>
      </trkpt>
      <trkpt lon="34.73602487705648" lat="30.574960140511394">
        <ele>653.7999877929688</ele>
        <time>2014-11-28T07:34:33.000Z</time>
      </trkpt>
      <trkpt lon="34.73621338605881" lat="30.57492569088936">
        <ele>652.5999755859375</ele>
        <time>2014-11-28T07:34:39.000Z</time>
      </trkpt>
      <trkpt lon="34.736325619742274" lat="30.575003223493695">
        <ele>654.2000122070312</ele>
        <time>2014-11-28T07:34:44.000Z</time>
      </trkpt>
      <trkpt lon="34.736342718824744" lat="30.575129119679332">
        <ele>657.0</ele>
        <time>2014-11-28T07:34:50.000Z</time>
      </trkpt>
      <trkpt lon="34.73637532442808" lat="30.575148481875658">
        <ele>657.2000122070312</ele>
        <time>2014-11-28T07:34:52.000Z</time>
      </trkpt>
      <trkpt lon="34.73639627918601" lat="30.575150661170483">
        <ele>657.2000122070312</ele>
        <time>2014-11-28T07:34:53.000Z</time>
      </trkpt>
      <trkpt lon="34.73642117343843" lat="30.575147224590182">
        <ele>657.2000122070312</ele>
        <time>2014-11-28T07:34:54.000Z</time>
      </trkpt>
      <trkpt lon="34.73644665442407" lat="30.57513884268701">
        <ele>657.0</ele>
        <time>2014-11-28T07:34:55.000Z</time>
      </trkpt>
      <trkpt lon="34.736472219228745" lat="30.57512761093676">
        <ele>656.5999755859375</ele>
        <time>2014-11-28T07:34:56.000Z</time>
      </trkpt>
      <trkpt lon="34.736689142882824" lat="30.575066842138767">
        <ele>654.7999877929688</ele>
        <time>2014-11-28T07:35:02.000Z</time>
      </trkpt>
      <trkpt lon="34.73673725500703" lat="30.5750582087785">
        <ele>654.5999755859375</ele>
        <time>2014-11-28T07:35:03.000Z</time>
      </trkpt>
      <trkpt lon="34.73701427690685" lat="30.57503272779286">
        <ele>653.5999755859375</ele>
        <time>2014-11-28T07:35:08.000Z</time>
      </trkpt>
      <trkpt lon="34.73707286641002" lat="30.575017975643277">
        <ele>653.2000122070312</ele>
        <time>2014-11-28T07:35:09.000Z</time>
      </trkpt>
      <trkpt lon="34.73713321611285" lat="30.574998278170824">
        <ele>652.5999755859375</ele>
        <time>2014-11-28T07:35:10.000Z</time>
      </trkpt>
      <trkpt lon="34.73718895576894" lat="30.574968606233597">
        <ele>651.7999877929688</ele>
        <time>2014-11-28T07:35:11.000Z</time>
      </trkpt>
      <trkpt lon="34.73723857663572" lat="30.574929798021913">
        <ele>651.0</ele>
        <time>2014-11-28T07:35:12.000Z</time>
      </trkpt>
      <trkpt lon="34.7372879460454" lat="30.574889816343784">
        <ele>650.0</ele>
        <time>2014-11-28T07:35:13.000Z</time>
      </trkpt>
      <trkpt lon="34.737343434244394" lat="30.574854193255305">
        <ele>649.0</ele>
        <time>2014-11-28T07:35:14.000Z</time>
      </trkpt>
      <trkpt lon="34.73740193992853" lat="30.574825275689363">
        <ele>648.2000122070312</ele>
        <time>2014-11-28T07:35:15.000Z</time>
      </trkpt>
      <trkpt lon="34.737462708726525" lat="30.574805159121752">
        <ele>647.7999877929688</ele>
        <time>2014-11-28T07:35:16.000Z</time>
      </trkpt>
      <trkpt lon="34.737519454211" lat="30.574790071696043">
        <ele>647.2000122070312</ele>
        <time>2014-11-28T07:35:17.000Z</time>
      </trkpt>
      <trkpt lon="34.73764920607209" lat="30.57472008280456">
        <ele>645.4000244140625</ele>
        <time>2014-11-28T07:35:21.000Z</time>
      </trkpt>
      <trkpt lon="34.73765892907977" lat="30.574590330943465">
        <ele>644.4000244140625</ele>
        <time>2014-11-28T07:35:25.000Z</time>
      </trkpt>
      <trkpt lon="34.73756345920265" lat="30.574560491368175">
        <ele>644.4000244140625</ele>
        <time>2014-11-28T07:35:30.000Z</time>
      </trkpt>
      <trkpt lon="34.73739783279598" lat="30.574511541053653">
        <ele>644.7999877929688</ele>
        <time>2014-11-28T07:35:35.000Z</time>
      </trkpt>
      <trkpt lon="34.73716154694557" lat="30.574343483895063">
        <ele>645.0</ele>
        <time>2014-11-28T07:35:42.000Z</time>
      </trkpt>
      <trkpt lon="34.73696507513523" lat="30.57422362267971">
        <ele>645.2000122070312</ele>
        <time>2014-11-28T07:35:49.000Z</time>
      </trkpt>
      <trkpt lon="34.736827947199345" lat="30.57416302151978">
        <ele>645.5999755859375</ele>
        <time>2014-11-28T07:35:57.000Z</time>
      </trkpt>
      <trkpt lon="34.73659744486213" lat="30.574091942980886">
        <ele>646.2000122070312</ele>
        <time>2014-11-28T07:36:06.000Z</time>
      </trkpt>
      <trkpt lon="34.736426286399364" lat="30.574039639905095">
        <ele>646.5999755859375</ele>
        <time>2014-11-28T07:36:14.000Z</time>
      </trkpt>
      <trkpt lon="34.73632603883743" lat="30.573998736217618">
        <ele>646.7999877929688</ele>
        <time>2014-11-28T07:36:19.000Z</time>
      </trkpt>
      <trkpt lon="34.73630961030722" lat="30.573990270495415">
        <ele>646.7999877929688</ele>
        <time>2014-11-28T07:36:20.000Z</time>
      </trkpt>
      <trkpt lon="34.73629184067249" lat="30.573980882763863">
        <ele>646.7999877929688</ele>
        <time>2014-11-28T07:36:21.000Z</time>
      </trkpt>
      <trkpt lon="34.736120933666825" lat="30.573888598009944">
        <ele>647.2000122070312</ele>
        <time>2014-11-28T07:36:29.000Z</time>
      </trkpt>
      <trkpt lon="34.73592362366617" lat="30.573793211951852">
        <ele>647.2000122070312</ele>
        <time>2014-11-28T07:36:38.000Z</time>
      </trkpt>
      <trkpt lon="34.73570108413696" lat="30.573713332414627">
        <ele>647.4000244140625</ele>
        <time>2014-11-28T07:36:46.000Z</time>
      </trkpt>
      <trkpt lon="34.735448621213436" lat="30.573602775111794">
        <ele>647.5999755859375</ele>
        <time>2014-11-28T07:36:53.000Z</time>
      </trkpt>
      <trkpt lon="34.73524418659508" lat="30.573525745421648">
        <ele>647.7999877929688</ele>
        <time>2014-11-28T07:36:59.000Z</time>
      </trkpt>
      <trkpt lon="34.73492114804685" lat="30.573399178683758">
        <ele>648.0</ele>
        <time>2014-11-28T07:37:06.000Z</time>
      </trkpt>
      <trkpt lon="34.73472576588392" lat="30.573370093479753">
        <ele>648.2000122070312</ele>
        <time>2014-11-28T07:37:12.000Z</time>
      </trkpt>
      <trkpt lon="34.734510434791446" lat="30.57334402576089">
        <ele>648.5999755859375</ele>
        <time>2014-11-28T07:37:18.000Z</time>
      </trkpt>
      <trkpt lon="34.73433877341449" lat="30.5733969155699">
        <ele>649.2000122070312</ele>
        <time>2014-11-28T07:37:25.000Z</time>
      </trkpt>
      <trkpt lon="34.73414800129831" lat="30.57343983091414">
        <ele>650.0</ele>
        <time>2014-11-28T07:37:33.000Z</time>
      </trkpt>
      <trkpt lon="34.733935352414846" lat="30.573509568348527">
        <ele>650.2000122070312</ele>
        <time>2014-11-28T07:37:41.000Z</time>
      </trkpt>
      <trkpt lon="34.73371239379048" lat="30.57353320531547">
        <ele>650.4000244140625</ele>
        <time>2014-11-28T07:37:49.000Z</time>
      </trkpt>
      <trkpt lon="34.733460769057274" lat="30.573567571118474">
        <ele>650.0</ele>
        <time>2014-11-28T07:37:58.000Z</time>
      </trkpt>
      <trkpt lon="34.73319095559418" lat="30.57360554113984">
        <ele>651.0</ele>
        <time>2014-11-28T07:38:07.000Z</time>
      </trkpt>
      <trkpt lon="34.732960034161806" lat="30.573530104011297">
        <ele>651.5999755859375</ele>
        <time>2014-11-28T07:38:14.000Z</time>
      </trkpt>
      <trkpt lon="34.732592990621924" lat="30.573552399873734">
        <ele>650.5999755859375</ele>
        <time>2014-11-28T07:38:24.000Z</time>
      </trkpt>
      <trkpt lon="34.73246717825532" lat="30.573580479249358">
        <ele>650.4000244140625</ele>
        <time>2014-11-28T07:38:27.000Z</time>
      </trkpt>
      <trkpt lon="34.732422418892384" lat="30.57359372265637">
        <ele>650.4000244140625</ele>
        <time>2014-11-28T07:38:28.000Z</time>
      </trkpt>
      <trkpt lon="34.732000306248665" lat="30.57364795356989">
        <ele>650.0</ele>
        <time>2014-11-28T07:38:37.000Z</time>
      </trkpt>
      <trkpt lon="34.73181976005435" lat="30.57357955724001">
        <ele>650.2000122070312</ele>
        <time>2014-11-28T07:38:42.000Z</time>
      </trkpt>
      <trkpt lon="34.731735438108444" lat="30.573483081534505">
        <ele>650.0</ele>
        <time>2014-11-28T07:38:45.000Z</time>
      </trkpt>
      <trkpt lon="34.73169168457389" lat="30.573457181453705">
        <ele>650.0</ele>
        <time>2014-11-28T07:38:46.000Z</time>
      </trkpt>
      <trkpt lon="34.73164918832481" lat="30.573445027694106">
        <ele>650.0</ele>
        <time>2014-11-28T07:38:47.000Z</time>
      </trkpt>
      <trkpt lon="34.73151247948408" lat="30.573395574465394">
        <ele>650.0</ele>
        <time>2014-11-28T07:38:51.000Z</time>
      </trkpt>
      <trkpt lon="34.73145766183734" lat="30.57337235659361">
        <ele>650.0</ele>
        <time>2014-11-28T07:38:52.000Z</time>
      </trkpt>
      <trkpt lon="34.73139127716422" lat="30.573350647464395">
        <ele>650.0</ele>
        <time>2014-11-28T07:38:53.000Z</time>
      </trkpt>
      <trkpt lon="34.73132665269077" lat="30.573324747383595">
        <ele>650.0</ele>
        <time>2014-11-28T07:38:54.000Z</time>
      </trkpt>
      <trkpt lon="34.73127116449177" lat="30.573297338560224">
        <ele>650.0</ele>
        <time>2014-11-28T07:38:55.000Z</time>
      </trkpt>
      <trkpt lon="34.731233697384596" lat="30.573267079889774">
        <ele>649.7999877929688</ele>
        <time>2014-11-28T07:38:56.000Z</time>
      </trkpt>
      <trkpt lon="34.73121148534119" lat="30.57323908433318">
        <ele>649.7999877929688</ele>
        <time>2014-11-28T07:38:57.000Z</time>
      </trkpt>
      <trkpt lon="34.7311990801245" lat="30.57321645319462">
        <ele>649.7999877929688</ele>
        <time>2014-11-28T07:38:58.000Z</time>
      </trkpt>
      <trkpt lon="34.73115381784737" lat="30.573128359392285">
        <ele>649.5999755859375</ele>
        <time>2014-11-28T07:39:03.000Z</time>
      </trkpt>
      <trkpt lon="34.73111517727375" lat="30.573023417964578">
        <ele>649.4000244140625</ele>
        <time>2014-11-28T07:39:09.000Z</time>
      </trkpt>
      <trkpt lon="34.731055246666074" lat="30.57298150844872">
        <ele>649.5999755859375</ele>
        <time>2014-11-28T07:39:13.000Z</time>
      </trkpt>
      <trkpt lon="34.73103990778327" lat="30.572978407144547">
        <ele>649.7999877929688</ele>
        <time>2014-11-28T07:39:14.000Z</time>
      </trkpt>
      <trkpt lon="34.7310262452811" lat="30.57298745959997">
        <ele>649.7999877929688</ele>
        <time>2014-11-28T07:39:20.000Z</time>
      </trkpt>
      <trkpt lon="34.73103588446975" lat="30.57298586703837">
        <ele>649.7999877929688</ele>
        <time>2014-11-28T07:39:33.000Z</time>
      </trkpt>
      <trkpt lon="34.73100227303803" lat="30.572969187051058">
        <ele>649.7999877929688</ele>
        <time>2014-11-28T07:39:37.000Z</time>
      </trkpt>
      <trkpt lon="34.73098995164037" lat="30.572964074090123">
        <ele>650.0</ele>
        <time>2014-11-28T07:39:38.000Z</time>
      </trkpt>
      <trkpt lon="34.73092281259596" lat="30.57294052094221">
        <ele>650.2000122070312</ele>
        <time>2014-11-28T07:39:42.000Z</time>
      </trkpt>
      <trkpt lon="34.7308983374387" lat="30.572939263656735">
        <ele>650.2000122070312</ele>
        <time>2014-11-28T07:39:43.000Z</time>
      </trkpt>
      <trkpt lon="34.73087118007243" lat="30.572932893410325">
        <ele>650.4000244140625</ele>
        <time>2014-11-28T07:39:44.000Z</time>
      </trkpt>
      <trkpt lon="34.73062961362302" lat="30.572876734659076">
        <ele>651.4000244140625</ele>
        <time>2014-11-28T07:39:50.000Z</time>
      </trkpt>
      <trkpt lon="34.73019601777196" lat="30.5728271137923">
        <ele>653.2000122070312</ele>
        <time>2014-11-28T07:39:58.000Z</time>
      </trkpt>
      <trkpt lon="34.729900723323226" lat="30.572846811264753">
        <ele>654.2000122070312</ele>
        <time>2014-11-28T07:40:05.000Z</time>
      </trkpt>
      <trkpt lon="34.7297241166234" lat="30.572864999994636">
        <ele>655.0</ele>
        <time>2014-11-28T07:40:12.000Z</time>
      </trkpt>
      <trkpt lon="34.72956460900605" lat="30.572855779901147">
        <ele>655.5999755859375</ele>
        <time>2014-11-28T07:40:19.000Z</time>
      </trkpt>
      <trkpt lon="34.72939722239971" lat="30.572819486260414">
        <ele>655.7999877929688</ele>
        <time>2014-11-28T07:40:26.000Z</time>
      </trkpt>
      <trkpt lon="34.729144759476185" lat="30.57272594422102">
        <ele>656.5999755859375</ele>
        <time>2014-11-28T07:40:33.000Z</time>
      </trkpt>
      <trkpt lon="34.728882825002074" lat="30.5726130399853">
        <ele>657.2000122070312</ele>
        <time>2014-11-28T07:40:39.000Z</time>
      </trkpt>
      <trkpt lon="34.72877947613597" lat="30.57254958897829">
        <ele>657.4000244140625</ele>
        <time>2014-11-28T07:40:45.000Z</time>
      </trkpt>
      <trkpt lon="34.72860312089324" lat="30.572492256760597">
        <ele>658.0</ele>
        <time>2014-11-28T07:40:52.000Z</time>
      </trkpt>
      <trkpt lon="34.72847764380276" lat="30.572362253442407">
        <ele>658.0</ele>
        <time>2014-11-28T07:40:59.000Z</time>
      </trkpt>
      <trkpt lon="34.728232976049185" lat="30.57220844551921">
        <ele>658.4000244140625</ele>
        <time>2014-11-28T07:41:07.000Z</time>
      </trkpt>
      <trkpt lon="34.72797380760312" lat="30.572102833539248">
        <ele>659.2000122070312</ele>
        <time>2014-11-28T07:41:14.000Z</time>
      </trkpt>
      <trkpt lon="34.72766694612801" lat="30.572008956223726">
        <ele>660.0</ele>
        <time>2014-11-28T07:41:22.000Z</time>
      </trkpt>
      <trkpt lon="34.72738875076175" lat="30.5719050206244">
        <ele>660.5999755859375</ele>
        <time>2014-11-28T07:41:31.000Z</time>
      </trkpt>
      <trkpt lon="34.72715271636844" lat="30.571829415857792">
        <ele>661.4000244140625</ele>
        <time>2014-11-28T07:41:38.000Z</time>
      </trkpt>
      <trkpt lon="34.72692070528865" lat="30.57167988270521">
        <ele>661.0</ele>
        <time>2014-11-28T07:41:46.000Z</time>
      </trkpt>
      <trkpt lon="34.72671710886061" lat="30.571443093940616">
        <ele>659.5999755859375</ele>
        <time>2014-11-28T07:41:55.000Z</time>
      </trkpt>
      <trkpt lon="34.72657981328666" lat="30.571280485019088">
        <ele>658.7999877929688</ele>
        <time>2014-11-28T07:42:00.000Z</time>
      </trkpt>
      <trkpt lon="34.72654351964593" lat="30.571251399815083">
        <ele>658.7999877929688</ele>
        <time>2014-11-28T07:42:01.000Z</time>
      </trkpt>
      <trkpt lon="34.72650655545294" lat="30.57122591882944">
        <ele>658.7999877929688</ele>
        <time>2014-11-28T07:42:02.000Z</time>
      </trkpt>
      <trkpt lon="34.72623959183693" lat="30.571030788123608">
        <ele>658.2000122070312</ele>
        <time>2014-11-28T07:42:10.000Z</time>
      </trkpt>
      <trkpt lon="34.725996097549796" lat="30.57078469544649">
        <ele>658.2000122070312</ele>
        <time>2014-11-28T07:42:18.000Z</time>
      </trkpt>
      <trkpt lon="34.7258629091084" lat="30.57065066881478">
        <ele>658.2000122070312</ele>
        <time>2014-11-28T07:42:23.000Z</time>
      </trkpt>
      <trkpt lon="34.72568856552243" lat="30.570544470101595">
        <ele>658.4000244140625</ele>
        <time>2014-11-28T07:42:27.000Z</time>
      </trkpt>
      <trkpt lon="34.725641291588545" lat="30.570518989115953">
        <ele>658.4000244140625</ele>
        <time>2014-11-28T07:42:28.000Z</time>
      </trkpt>
      <trkpt lon="34.72559837624431" lat="30.57048755697906">
        <ele>658.4000244140625</ele>
        <time>2014-11-28T07:42:29.000Z</time>
      </trkpt>
      <trkpt lon="34.725451776757836" lat="30.570363169535995">
        <ele>658.4000244140625</ele>
        <time>2014-11-28T07:42:33.000Z</time>
      </trkpt>
      <trkpt lon="34.72541908733547" lat="30.570330563932657">
        <ele>658.4000244140625</ele>
        <time>2014-11-28T07:42:34.000Z</time>
      </trkpt>
      <trkpt lon="34.725354043766856" lat="30.570264514535666">
        <ele>658.4000244140625</ele>
        <time>2014-11-28T07:42:36.000Z</time>
      </trkpt>
      <trkpt lon="34.72519629634917" lat="30.57004432193935">
        <ele>658.7999877929688</ele>
        <time>2014-11-28T07:42:41.000Z</time>
      </trkpt>
      <trkpt lon="34.724997729063034" lat="30.569841898977757">
        <ele>659.2000122070312</ele>
        <time>2014-11-28T07:42:47.000Z</time>
      </trkpt>
      <trkpt lon="34.72482129000127" lat="30.56971843354404">
        <ele>659.7999877929688</ele>
        <time>2014-11-28T07:42:52.000Z</time>
      </trkpt>
      <trkpt lon="34.72464124672115" lat="30.56954207830131">
        <ele>660.0</ele>
        <time>2014-11-28T07:42:58.000Z</time>
      </trkpt>
      <trkpt lon="34.72451317124069" lat="30.56932808831334">
        <ele>659.7999877929688</ele>
        <time>2014-11-28T07:43:05.000Z</time>
      </trkpt>
      <trkpt lon="34.724494479596615" lat="30.569119295105338">
        <ele>659.2000122070312</ele>
        <time>2014-11-28T07:43:12.000Z</time>
      </trkpt>
      <trkpt lon="34.72444594837725" lat="30.568826347589493">
        <ele>658.4000244140625</ele>
        <time>2014-11-28T07:43:19.000Z</time>
      </trkpt>
      <trkpt lon="34.72446338273585" lat="30.568653596565127">
        <ele>657.7999877929688</ele>
        <time>2014-11-28T07:43:23.000Z</time>
      </trkpt>
      <trkpt lon="34.72445282153785" lat="30.56847925297916">
        <ele>657.4000244140625</ele>
        <time>2014-11-28T07:43:27.000Z</time>
      </trkpt>
      <trkpt lon="34.7244590241462" lat="30.568435918539762">
        <ele>657.2000122070312</ele>
        <time>2014-11-28T07:43:28.000Z</time>
      </trkpt>
      <trkpt lon="34.724473021924496" lat="30.56839174591005">
        <ele>657.0</ele>
        <time>2014-11-28T07:43:29.000Z</time>
      </trkpt>
      <trkpt lon="34.72453043796122" lat="30.568207846954465">
        <ele>656.4000244140625</ele>
        <time>2014-11-28T07:43:33.000Z</time>
      </trkpt>
      <trkpt lon="34.72453027032316" lat="30.56816468015313">
        <ele>656.4000244140625</ele>
        <time>2014-11-28T07:43:34.000Z</time>
      </trkpt>
      <trkpt lon="34.72451828420162" lat="30.568124195560813">
        <ele>656.4000244140625</ele>
        <time>2014-11-28T07:43:35.000Z</time>
      </trkpt>
      <trkpt lon="34.72449875436723" lat="30.56808404624462">
        <ele>656.2000122070312</ele>
        <time>2014-11-28T07:43:36.000Z</time>
      </trkpt>
      <trkpt lon="34.72447528503835" lat="30.568041382357478">
        <ele>656.2000122070312</ele>
        <time>2014-11-28T07:43:37.000Z</time>
      </trkpt>
      <trkpt lon="34.72444552928209" lat="30.567994359880686">
        <ele>656.2000122070312</ele>
        <time>2014-11-28T07:43:38.000Z</time>
      </trkpt>
      <trkpt lon="34.72440856508911" lat="30.56794624775648">
        <ele>656.0</ele>
        <time>2014-11-28T07:43:39.000Z</time>
      </trkpt>
      <trkpt lon="34.7243638895452" lat="30.567898470908403">
        <ele>655.7999877929688</ele>
        <time>2014-11-28T07:43:40.000Z</time>
      </trkpt>
      <trkpt lon="34.72431443631649" lat="30.567851783707738">
        <ele>655.7999877929688</ele>
        <time>2014-11-28T07:43:41.000Z</time>
      </trkpt>
      <trkpt lon="34.72420237027109" lat="30.567759331315756">
        <ele>655.5999755859375</ele>
        <time>2014-11-28T07:43:43.000Z</time>
      </trkpt>
      <trkpt lon="34.72413497976959" lat="30.56771993637085">
        <ele>655.5999755859375</ele>
        <time>2014-11-28T07:43:44.000Z</time>
      </trkpt>
      <trkpt lon="34.723921325057745" lat="30.567630250006914">
        <ele>655.5999755859375</ele>
        <time>2014-11-28T07:43:47.000Z</time>
      </trkpt>
      <trkpt lon="34.7236957680434" lat="30.56757928803563">
        <ele>656.0</ele>
        <time>2014-11-28T07:43:50.000Z</time>
      </trkpt>
      <trkpt lon="34.72363198176026" lat="30.56755573488772">
        <ele>656.0</ele>
        <time>2014-11-28T07:43:51.000Z</time>
      </trkpt>
      <trkpt lon="34.72357523627579" lat="30.56752991862595">
        <ele>656.0</ele>
        <time>2014-11-28T07:43:52.000Z</time>
      </trkpt>
      <trkpt lon="34.72343400120735" lat="30.567453978583217">
        <ele>656.0</ele>
        <time>2014-11-28T07:43:56.000Z</time>
      </trkpt>
      <trkpt lon="34.72314549610019" lat="30.56731877848506">
        <ele>656.0</ele>
        <time>2014-11-28T07:44:05.000Z</time>
      </trkpt>
      <trkpt lon="34.7230807878077" lat="30.567264296114445">
        <ele>656.0</ele>
        <time>2014-11-28T07:44:07.000Z</time>
      </trkpt>
      <trkpt lon="34.72287551499903" lat="30.56698702275753">
        <ele>656.0</ele>
        <time>2014-11-28T07:44:15.000Z</time>
      </trkpt>
      <trkpt lon="34.722711984068155" lat="30.56673632003367">
        <ele>656.5999755859375</ele>
        <time>2014-11-28T07:44:23.000Z</time>
      </trkpt>
      <trkpt lon="34.72257485613227" lat="30.56650715880096">
        <ele>657.0</ele>
        <time>2014-11-28T07:44:29.000Z</time>
      </trkpt>
      <trkpt lon="34.72246731631458" lat="30.56635913439095">
        <ele>657.4000244140625</ele>
        <time>2014-11-28T07:44:32.000Z</time>
      </trkpt>
      <trkpt lon="34.72236438654363" lat="30.566254276782274">
        <ele>657.7999877929688</ele>
        <time>2014-11-28T07:44:37.000Z</time>
      </trkpt>
      <trkpt lon="34.722337145358324" lat="30.566254779696465">
        <ele>657.7999877929688</ele>
        <time>2014-11-28T07:44:38.000Z</time>
      </trkpt>
      <trkpt lon="34.72230680286884" lat="30.566266514360905">
        <ele>658.0</ele>
        <time>2014-11-28T07:44:39.000Z</time>
      </trkpt>
      <trkpt lon="34.722275203093886" lat="30.566282104700804">
        <ele>658.0</ele>
        <time>2014-11-28T07:44:40.000Z</time>
      </trkpt>
      <trkpt lon="34.722239915281534" lat="30.56630155071616">
        <ele>658.2000122070312</ele>
        <time>2014-11-28T07:44:41.000Z</time>
      </trkpt>
      <trkpt lon="34.72220412455499" lat="30.56631957180798">
        <ele>658.4000244140625</ele>
        <time>2014-11-28T07:44:42.000Z</time>
      </trkpt>
      <trkpt lon="34.722170010209084" lat="30.5663375928998">
        <ele>658.5999755859375</ele>
        <time>2014-11-28T07:44:43.000Z</time>
      </trkpt>
      <trkpt lon="34.72198502160609" lat="30.566371204331517">
        <ele>659.2000122070312</ele>
        <time>2014-11-28T07:44:49.000Z</time>
      </trkpt>
      <trkpt lon="34.721818808466196" lat="30.56631764397025">
        <ele>659.7999877929688</ele>
        <time>2014-11-28T07:44:56.000Z</time>
      </trkpt>
      <trkpt lon="34.72168511711061" lat="30.566200548782945">
        <ele>660.0</ele>
        <time>2014-11-28T07:45:03.000Z</time>
      </trkpt>
      <trkpt lon="34.72150281071663" lat="30.56608404032886">
        <ele>660.2000122070312</ele>
        <time>2014-11-28T07:45:11.000Z</time>
      </trkpt>
      <trkpt lon="34.72122637555003" lat="30.565897962078452">
        <ele>660.7999877929688</ele>
        <time>2014-11-28T07:45:21.000Z</time>
      </trkpt>
      <trkpt lon="34.72099570557475" lat="30.565653713420033">
        <ele>661.7999877929688</ele>
        <time>2014-11-28T07:45:30.000Z</time>
      </trkpt>
      <trkpt lon="34.720778027549386" lat="30.56545556522906">
        <ele>663.0</ele>
        <time>2014-11-28T07:45:38.000Z</time>
      </trkpt>
      <trkpt lon="34.72060418687761" lat="30.56521818973124">
        <ele>663.5999755859375</ele>
        <time>2014-11-28T07:45:46.000Z</time>
      </trkpt>
      <trkpt lon="34.72050838172436" lat="30.56494594551623">
        <ele>663.5999755859375</ele>
        <time>2014-11-28T07:45:54.000Z</time>
      </trkpt>
      <trkpt lon="34.72039363346994" lat="30.564667582511902">
        <ele>663.7999877929688</ele>
        <time>2014-11-28T07:46:00.000Z</time>
      </trkpt>
      <trkpt lon="34.72036010585725" lat="30.56462701410055">
        <ele>663.7999877929688</ele>
        <time>2014-11-28T07:46:01.000Z</time>
      </trkpt>
      <trkpt lon="34.72031928598881" lat="30.564586194232106">
        <ele>663.5999755859375</ele>
        <time>2014-11-28T07:46:02.000Z</time>
      </trkpt>
      <trkpt lon="34.72027243115008" lat="30.564548559486866">
        <ele>663.4000244140625</ele>
        <time>2014-11-28T07:46:03.000Z</time>
      </trkpt>
      <trkpt lon="34.72021970897913" lat="30.56450958363712">
        <ele>663.4000244140625</ele>
        <time>2014-11-28T07:46:04.000Z</time>
      </trkpt>
      <trkpt lon="34.72016363404691" lat="30.564474212005734">
        <ele>663.2000122070312</ele>
        <time>2014-11-28T07:46:05.000Z</time>
      </trkpt>
      <trkpt lon="34.71978527493775" lat="30.564205069094896">
        <ele>662.7999877929688</ele>
        <time>2014-11-28T07:46:13.000Z</time>
      </trkpt>
      <trkpt lon="34.71949299797416" lat="30.563960736617446">
        <ele>662.4000244140625</ele>
        <time>2014-11-28T07:46:19.000Z</time>
      </trkpt>
      <trkpt lon="34.71944874152541" lat="30.563920084387064">
        <ele>662.4000244140625</ele>
        <time>2014-11-28T07:46:20.000Z</time>
      </trkpt>
      <trkpt lon="34.719372130930424" lat="30.56383299641311">
        <ele>662.4000244140625</ele>
        <time>2014-11-28T07:46:22.000Z</time>
      </trkpt>
      <trkpt lon="34.71915294416249" lat="30.563551364466548">
        <ele>661.5999755859375</ele>
        <time>2014-11-28T07:46:28.000Z</time>
      </trkpt>
      <trkpt lon="34.71887298859656" lat="30.563361598178744">
        <ele>662.2000122070312</ele>
        <time>2014-11-28T07:46:35.000Z</time>
      </trkpt>
      <trkpt lon="34.718705015257" lat="30.5632948782295">
        <ele>663.0</ele>
        <time>2014-11-28T07:46:42.000Z</time>
      </trkpt>
      <trkpt lon="34.71861314959824" lat="30.56321281939745">
        <ele>662.0</ele>
        <time>2014-11-28T07:46:48.000Z</time>
      </trkpt>
      <trkpt lon="34.718593284487724" lat="30.563211478292942">
        <ele>662.0</ele>
        <time>2014-11-28T07:46:49.000Z</time>
      </trkpt>
      <trkpt lon="34.71857442520559" lat="30.56321231648326">
        <ele>662.0</ele>
        <time>2014-11-28T07:46:50.000Z</time>
      </trkpt>
      <trkpt lon="34.718557158485055" lat="30.56320594623685">
        <ele>662.0</ele>
        <time>2014-11-28T07:46:51.000Z</time>
      </trkpt>
      <trkpt lon="34.71854508854449" lat="30.56319278664887">
        <ele>661.7999877929688</ele>
        <time>2014-11-28T07:46:52.000Z</time>
      </trkpt>
      <trkpt lon="34.71852614544332" lat="30.563179459422827">
        <ele>661.5999755859375</ele>
        <time>2014-11-28T07:46:53.000Z</time>
      </trkpt>
      <trkpt lon="34.71850527450442" lat="30.563166132196784">
        <ele>661.4000244140625</ele>
        <time>2014-11-28T07:46:54.000Z</time>
      </trkpt>
      <trkpt lon="34.71849094145" lat="30.563148697838187">
        <ele>661.2000122070312</ele>
        <time>2014-11-28T07:46:55.000Z</time>
      </trkpt>
      <trkpt lon="34.71847778186202" lat="30.563132017850876">
        <ele>661.0</ele>
        <time>2014-11-28T07:46:56.000Z</time>
      </trkpt>
      <trkpt lon="34.71846059896052" lat="30.563116008415818">
        <ele>660.7999877929688</ele>
        <time>2014-11-28T07:46:57.000Z</time>
      </trkpt>
      <trkpt lon="34.718437464907765" lat="30.563100082799792">
        <ele>660.5999755859375</ele>
        <time>2014-11-28T07:46:58.000Z</time>
      </trkpt>
      <trkpt lon="34.718411061912775" lat="30.56308524683118">
        <ele>660.4000244140625</ele>
        <time>2014-11-28T07:46:59.000Z</time>
      </trkpt>
      <trkpt lon="34.71816438250244" lat="30.562941329553723">
        <ele>659.2000122070312</ele>
        <time>2014-11-28T07:47:06.000Z</time>
      </trkpt>
      <trkpt lon="34.71800780855119" lat="30.562747539952397">
        <ele>658.2000122070312</ele>
        <time>2014-11-28T07:47:12.000Z</time>
      </trkpt>
      <trkpt lon="34.71783866174519" lat="30.562505135312676">
        <ele>657.2000122070312</ele>
        <time>2014-11-28T07:47:18.000Z</time>
      </trkpt>
      <trkpt lon="34.71770245581865" lat="30.56227614171803">
        <ele>656.7999877929688</ele>
        <time>2014-11-28T07:47:24.000Z</time>
      </trkpt>
      <trkpt lon="34.71748678945005" lat="30.562028037384152">
        <ele>656.2000122070312</ele>
        <time>2014-11-28T07:47:31.000Z</time>
      </trkpt>
      <trkpt lon="34.71729878336191" lat="30.561789572238922">
        <ele>655.5999755859375</ele>
        <time>2014-11-28T07:47:39.000Z</time>
      </trkpt>
      <trkpt lon="34.71727003343403" lat="30.561755374073982">
        <ele>655.4000244140625</ele>
        <time>2014-11-28T07:47:40.000Z</time>
      </trkpt>
      <trkpt lon="34.71696300432086" lat="30.561520010232925">
        <ele>655.0</ele>
        <time>2014-11-28T07:47:47.000Z</time>
      </trkpt>
      <trkpt lon="34.71681942231953" lat="30.56139067746699">
        <ele>654.4000244140625</ele>
        <time>2014-11-28T07:47:53.000Z</time>
      </trkpt>
      <trkpt lon="34.71671925857663" lat="30.561292860656977">
        <ele>654.4000244140625</ele>
        <time>2014-11-28T07:47:59.000Z</time>
      </trkpt>
      <trkpt lon="34.71667525358498" lat="30.561227397993207">
        <ele>654.4000244140625</ele>
        <time>2014-11-28T07:48:07.000Z</time>
      </trkpt>
      <trkpt lon="34.71668405458331" lat="30.561247766017914">
        <ele>654.4000244140625</ele>
        <time>2014-11-28T07:48:28.000Z</time>
      </trkpt>
      <trkpt lon="34.7166692186147" lat="30.56125983595848">
        <ele>654.4000244140625</ele>
        <time>2014-11-28T07:48:47.000Z</time>
      </trkpt>
      <trkpt lon="34.716668548062444" lat="30.561263356357813">
        <ele>654.4000244140625</ele>
        <time>2014-11-28T07:49:02.000Z</time>
      </trkpt>
      <trkpt lon="34.71667667850852" lat="30.56126712821424">
        <ele>654.4000244140625</ele>
        <time>2014-11-28T07:49:26.000Z</time>
      </trkpt>
      <trkpt lon="34.716677432879806" lat="30.561272241175175">
        <ele>654.4000244140625</ele>
        <time>2014-11-28T07:49:49.000Z</time>
      </trkpt>
      <trkpt lon="34.71667097881436" lat="30.561266792938113">
        <ele>654.4000244140625</ele>
        <time>2014-11-28T07:50:03.000Z</time>
      </trkpt>
      <trkpt lon="34.71667374484241" lat="30.5612622667104">
        <ele>654.4000244140625</ele>
        <time>2014-11-28T07:50:12.000Z</time>
      </trkpt>
      <trkpt lon="34.71665664575994" lat="30.56125933304429">
        <ele>654.4000244140625</ele>
        <time>2014-11-28T07:50:35.000Z</time>
      </trkpt>
      <trkpt lon="34.716657400131226" lat="30.561260003596544">
        <ele>654.4000244140625</ele>
        <time>2014-11-28T07:50:52.000Z</time>
      </trkpt>
      <trkpt lon="34.71666217781603" lat="30.561264529824257">
        <ele>654.4000244140625</ele>
        <time>2014-11-28T07:51:08.000Z</time>
      </trkpt>
      <trkpt lon="34.71664977259934" lat="30.561259500682354">
        <ele>654.4000244140625</ele>
        <time>2014-11-28T07:51:25.000Z</time>
      </trkpt>
      <trkpt lon="34.71662789583206" lat="30.56123049929738">
        <ele>654.4000244140625</ele>
        <time>2014-11-28T07:51:32.000Z</time>
      </trkpt>
      <trkpt lon="34.716558158397675" lat="30.561125641688704">
        <ele>654.5999755859375</ele>
        <time>2014-11-28T07:51:38.000Z</time>
      </trkpt>
      <trkpt lon="34.716392029076815" lat="30.560907796025276">
        <ele>654.7999877929688</ele>
        <time>2014-11-28T07:51:45.000Z</time>
      </trkpt>
      <trkpt lon="34.71619882620871" lat="30.56069732643664">
        <ele>655.0</ele>
        <time>2014-11-28T07:51:53.000Z</time>
      </trkpt>
      <trkpt lon="34.71594619564712" lat="30.560639407485723">
        <ele>656.7999877929688</ele>
        <time>2014-11-28T07:51:59.000Z</time>
      </trkpt>
      <trkpt lon="34.7158039547503" lat="30.56051610969007">
        <ele>657.7999877929688</ele>
        <time>2014-11-28T07:52:04.000Z</time>
      </trkpt>
      <trkpt lon="34.71576992422342" lat="30.560486018657684">
        <ele>658.0</ele>
        <time>2014-11-28T07:52:05.000Z</time>
      </trkpt>
      <trkpt lon="34.71572424285114" lat="30.560467327013612">
        <ele>658.0</ele>
        <time>2014-11-28T07:52:06.000Z</time>
      </trkpt>
      <trkpt lon="34.71558912657201" lat="30.560413263738155">
        <ele>658.5999755859375</ele>
        <time>2014-11-28T07:52:09.000Z</time>
      </trkpt>
      <trkpt lon="34.715554593130946" lat="30.560385435819626">
        <ele>658.5999755859375</ele>
        <time>2014-11-28T07:52:10.000Z</time>
      </trkpt>
      <trkpt lon="34.715533051639795" lat="30.560355177149177">
        <ele>658.5999755859375</ele>
        <time>2014-11-28T07:52:11.000Z</time>
      </trkpt>
      <trkpt lon="34.71551913768053" lat="30.56032206863165">
        <ele>658.4000244140625</ele>
        <time>2014-11-28T07:52:12.000Z</time>
      </trkpt>
      <trkpt lon="34.7155119292438" lat="30.560283679515123">
        <ele>658.0</ele>
        <time>2014-11-28T07:52:13.000Z</time>
      </trkpt>
      <trkpt lon="34.71548083238304" lat="30.56020824238658">
        <ele>657.5999755859375</ele>
        <time>2014-11-28T07:52:15.000Z</time>
      </trkpt>
      <trkpt lon="34.71545015461743" lat="30.560169937089086">
        <ele>657.5999755859375</ele>
        <time>2014-11-28T07:52:16.000Z</time>
      </trkpt>
      <trkpt lon="34.71534630283713" lat="30.560069689527154">
        <ele>657.4000244140625</ele>
        <time>2014-11-28T07:52:19.000Z</time>
      </trkpt>
      <trkpt lon="34.71530280075967" lat="30.56004211306572">
        <ele>657.4000244140625</ele>
        <time>2014-11-28T07:52:20.000Z</time>
      </trkpt>
      <trkpt lon="34.71525368280709" lat="30.560021996498108">
        <ele>657.4000244140625</ele>
        <time>2014-11-28T07:52:21.000Z</time>
      </trkpt>
      <trkpt lon="34.714838191866875" lat="30.55986667983234">
        <ele>658.2000122070312</ele>
        <time>2014-11-28T07:52:29.000Z</time>
      </trkpt>
      <trkpt lon="34.714494952932" lat="30.559776490554214">
        <ele>659.7999877929688</ele>
        <time>2014-11-28T07:52:36.000Z</time>
      </trkpt>
      <trkpt lon="34.714140398427844" lat="30.55968143977225">
        <ele>660.4000244140625</ele>
        <time>2014-11-28T07:52:44.000Z</time>
      </trkpt>
      <trkpt lon="34.71387083642185" lat="30.55958177894354">
        <ele>660.7999877929688</ele>
        <time>2014-11-28T07:52:51.000Z</time>
      </trkpt>
      <trkpt lon="34.713658690452576" lat="30.55952318944037">
        <ele>661.0</ele>
        <time>2014-11-28T07:52:57.000Z</time>
      </trkpt>
      <trkpt lon="34.71329717896879" lat="30.559549340978265">
        <ele>661.7999877929688</ele>
        <time>2014-11-28T07:53:07.000Z</time>
      </trkpt>
      <trkpt lon="34.7129562869668" lat="30.55956719443202">
        <ele>662.4000244140625</ele>
        <time>2014-11-28T07:53:16.000Z</time>
      </trkpt>
      <trkpt lon="34.71266124397516" lat="30.55951447226107">
        <ele>661.7999877929688</ele>
        <time>2014-11-28T07:53:23.000Z</time>
      </trkpt>
      <trkpt lon="34.71245035529137" lat="30.55942646227777">
        <ele>660.2000122070312</ele>
        <time>2014-11-28T07:53:27.000Z</time>
      </trkpt>
      <trkpt lon="34.7123053483665" lat="30.559351611882448">
        <ele>659.0</ele>
        <time>2014-11-28T07:53:29.000Z</time>
      </trkpt>
      <trkpt lon="34.71222379244864" lat="30.55932428687811">
        <ele>658.4000244140625</ele>
        <time>2014-11-28T07:53:30.000Z</time>
      </trkpt>
      <trkpt lon="34.712015418335795" lat="30.559249939396977">
        <ele>656.7999877929688</ele>
        <time>2014-11-28T07:53:33.000Z</time>
      </trkpt>
      <trkpt lon="34.71196915023029" lat="30.559213645756245">
        <ele>656.4000244140625</ele>
        <time>2014-11-28T07:53:34.000Z</time>
      </trkpt>
      <trkpt lon="34.71193294040859" lat="30.55917140096426">
        <ele>655.7999877929688</ele>
        <time>2014-11-28T07:53:35.000Z</time>
      </trkpt>
      <trkpt lon="34.71190360374749" lat="30.55913175456226">
        <ele>655.4000244140625</ele>
        <time>2014-11-28T07:53:36.000Z</time>
      </trkpt>
      <trkpt lon="34.71187728457153" lat="30.559094287455082">
        <ele>655.0</ele>
        <time>2014-11-28T07:53:37.000Z</time>
      </trkpt>
      <trkpt lon="34.71185490489006" lat="30.559054808691144">
        <ele>654.5999755859375</ele>
        <time>2014-11-28T07:53:38.000Z</time>
      </trkpt>
      <trkpt lon="34.711844427511096" lat="30.55901365354657">
        <ele>654.4000244140625</ele>
        <time>2014-11-28T07:53:39.000Z</time>
      </trkpt>
      <trkpt lon="34.711834620684385" lat="30.55897501297295">
        <ele>654.0</ele>
        <time>2014-11-28T07:53:40.000Z</time>
      </trkpt>
      <trkpt lon="34.71181961707771" lat="30.5589362885803">
        <ele>653.5999755859375</ele>
        <time>2014-11-28T07:53:41.000Z</time>
      </trkpt>
      <trkpt lon="34.7117976564914" lat="30.558900497853756">
        <ele>653.2000122070312</ele>
        <time>2014-11-28T07:53:42.000Z</time>
      </trkpt>
      <trkpt lon="34.711771085858345" lat="30.558867808431387">
        <ele>653.0</ele>
        <time>2014-11-28T07:53:43.000Z</time>
      </trkpt>
      <trkpt lon="34.71173646859825" lat="30.55883570574224">
        <ele>652.5999755859375</ele>
        <time>2014-11-28T07:53:44.000Z</time>
      </trkpt>
      <trkpt lon="34.71169849857688" lat="30.558811146765947">
        <ele>652.4000244140625</ele>
        <time>2014-11-28T07:53:45.000Z</time>
      </trkpt>
      <trkpt lon="34.71165793016553" lat="30.558793377131224">
        <ele>652.2000122070312</ele>
        <time>2014-11-28T07:53:46.000Z</time>
      </trkpt>
      <trkpt lon="34.711612332612276" lat="30.55878390558064">
        <ele>652.0</ele>
        <time>2014-11-28T07:53:47.000Z</time>
      </trkpt>
      <trkpt lon="34.71156606450677" lat="30.558772003278136">
        <ele>651.7999877929688</ele>
        <time>2014-11-28T07:53:48.000Z</time>
      </trkpt>
      <trkpt lon="34.711519880220294" lat="30.55875750258565">
        <ele>651.5999755859375</ele>
        <time>2014-11-28T07:53:49.000Z</time>
      </trkpt>
      <trkpt lon="34.71147520467639" lat="30.558739565312862">
        <ele>651.4000244140625</ele>
        <time>2014-11-28T07:53:50.000Z</time>
      </trkpt>
      <trkpt lon="34.71143128350377" lat="30.55871886201203">
        <ele>651.2000122070312</ele>
        <time>2014-11-28T07:53:51.000Z</time>
      </trkpt>
      <trkpt lon="34.71139021217823" lat="30.558692794293165">
        <ele>651.0</ele>
        <time>2014-11-28T07:53:52.000Z</time>
      </trkpt>
      <trkpt lon="34.71135492436588" lat="30.55866220034659">
        <ele>651.0</ele>
        <time>2014-11-28T07:53:53.000Z</time>
      </trkpt>
      <trkpt lon="34.71132902428508" lat="30.558630097657442">
        <ele>650.7999877929688</ele>
        <time>2014-11-28T07:53:54.000Z</time>
      </trkpt>
      <trkpt lon="34.71130404621363" lat="30.55859581567347">
        <ele>650.7999877929688</ele>
        <time>2014-11-28T07:53:55.000Z</time>
      </trkpt>
      <trkpt lon="34.711280493065715" lat="30.558559941127896">
        <ele>650.7999877929688</ele>
        <time>2014-11-28T07:53:56.000Z</time>
      </trkpt>
      <trkpt lon="34.71120606176555" lat="30.558448461815715">
        <ele>650.4000244140625</ele>
        <time>2014-11-28T07:53:59.000Z</time>
      </trkpt>
      <trkpt lon="34.71106608398259" lat="30.558268586173654">
        <ele>651.4000244140625</ele>
        <time>2014-11-28T07:54:04.000Z</time>
      </trkpt>
      <trkpt lon="34.71103842370212" lat="30.55823707021773">
        <ele>651.5999755859375</ele>
        <time>2014-11-28T07:54:05.000Z</time>
      </trkpt>
      <trkpt lon="34.71101151779294" lat="30.558206140995026">
        <ele>651.5999755859375</ele>
        <time>2014-11-28T07:54:06.000Z</time>
      </trkpt>
      <trkpt lon="34.71066023223102" lat="30.55784085765481">
        <ele>653.4000244140625</ele>
        <time>2014-11-28T07:54:18.000Z</time>
      </trkpt>
      <trkpt lon="34.710330571979284" lat="30.557649414986372">
        <ele>654.5999755859375</ele>
        <time>2014-11-28T07:54:27.000Z</time>
      </trkpt>
      <trkpt lon="34.71014575101435" lat="30.557536343112588">
        <ele>655.0</ele>
        <time>2014-11-28T07:54:33.000Z</time>
      </trkpt>
      <trkpt lon="34.71006662584841" lat="30.557375913485885">
        <ele>655.0</ele>
        <time>2014-11-28T07:54:38.000Z</time>
      </trkpt>
      <trkpt lon="34.70984165556729" lat="30.557219171896577">
        <ele>655.4000244140625</ele>
        <time>2014-11-28T07:54:46.000Z</time>
      </trkpt>
      <trkpt lon="34.709705701097846" lat="30.55705656297505">
        <ele>655.5999755859375</ele>
        <time>2014-11-28T07:54:52.000Z</time>
      </trkpt>
      <trkpt lon="34.709503361955285" lat="30.556891690939665">
        <ele>656.0</ele>
        <time>2014-11-28T07:54:59.000Z</time>
      </trkpt>
      <trkpt lon="34.70932222902775" lat="30.556747522205114">
        <ele>656.5999755859375</ele>
        <time>2014-11-28T07:55:05.000Z</time>
      </trkpt>
      <trkpt lon="34.709056774154305" lat="30.55655633099377">
        <ele>657.2000122070312</ele>
        <time>2014-11-28T07:55:13.000Z</time>
      </trkpt>
      <trkpt lon="34.708849573507905" lat="30.556470835581422">
        <ele>657.5999755859375</ele>
        <time>2014-11-28T07:55:19.000Z</time>
      </trkpt>
      <trkpt lon="34.708638014271855" lat="30.556315267458558">
        <ele>658.4000244140625</ele>
        <time>2014-11-28T07:55:26.000Z</time>
      </trkpt>
      <trkpt lon="34.708514884114265" lat="30.55615114979446">
        <ele>659.4000244140625</ele>
        <time>2014-11-28T07:55:31.000Z</time>
      </trkpt>
      <trkpt lon="34.70847657881677" lat="30.556123489513993">
        <ele>659.5999755859375</ele>
        <time>2014-11-28T07:55:32.000Z</time>
      </trkpt>
      <trkpt lon="34.708148846402764" lat="30.555906230583787">
        <ele>661.5999755859375</ele>
        <time>2014-11-28T07:55:41.000Z</time>
      </trkpt>
      <trkpt lon="34.70800643786788" lat="30.555815203115344">
        <ele>662.4000244140625</ele>
        <time>2014-11-28T07:55:45.000Z</time>
      </trkpt>
      <trkpt lon="34.70773193053901" lat="30.555600291118026">
        <ele>663.5999755859375</ele>
        <time>2014-11-28T07:55:53.000Z</time>
      </trkpt>
      <trkpt lon="34.70760712400079" lat="30.555442040786147">
        <ele>664.0</ele>
        <time>2014-11-28T07:55:59.000Z</time>
      </trkpt>
      <trkpt lon="34.70745826140046" lat="30.555295860394835">
        <ele>663.7999877929688</ele>
        <time>2014-11-28T07:56:06.000Z</time>
      </trkpt>
      <trkpt lon="34.70733957365155" lat="30.5550991371274">
        <ele>663.5999755859375</ele>
        <time>2014-11-28T07:56:14.000Z</time>
      </trkpt>
      <trkpt lon="34.707180904224515" lat="30.55487919598818">
        <ele>663.2000122070312</ele>
        <time>2014-11-28T07:56:23.000Z</time>
      </trkpt>
      <trkpt lon="34.70694109797478" lat="30.554694877937436">
        <ele>663.2000122070312</ele>
        <time>2014-11-28T07:56:32.000Z</time>
      </trkpt>
      <trkpt lon="34.70671587623656" lat="30.554529754444957">
        <ele>664.2000122070312</ele>
        <time>2014-11-28T07:56:40.000Z</time>
      </trkpt>
      <trkpt lon="34.70640272833407" lat="30.554299922659993">
        <ele>665.4000244140625</ele>
        <time>2014-11-28T07:56:50.000Z</time>
      </trkpt>
      <trkpt lon="34.70620198175311" lat="30.554132452234626">
        <ele>666.4000244140625</ele>
        <time>2014-11-28T07:56:57.000Z</time>
      </trkpt>
      <trkpt lon="34.705960834398866" lat="30.553992809727788">
        <ele>667.0</ele>
        <time>2014-11-28T07:57:05.000Z</time>
      </trkpt>
      <trkpt lon="34.705805936828256" lat="30.55383648723364">
        <ele>667.4000244140625</ele>
        <time>2014-11-28T07:57:12.000Z</time>
      </trkpt>
      <trkpt lon="34.70563226379454" lat="30.553689301013947">
        <ele>667.5999755859375</ele>
        <time>2014-11-28T07:57:20.000Z</time>
      </trkpt>
      <trkpt lon="34.70563863404095" lat="30.55368695408106">
        <ele>667.5999755859375</ele>
        <time>2014-11-28T07:57:29.000Z</time>
      </trkpt>
      <trkpt lon="34.705619774758816" lat="30.553665244951844">
        <ele>667.5999755859375</ele>
        <time>2014-11-28T07:57:45.000Z</time>
      </trkpt>
      <trkpt lon="34.70548767596483" lat="30.553587460890412">
        <ele>667.7999877929688</ele>
        <time>2014-11-28T07:57:52.000Z</time>
      </trkpt>
      <trkpt lon="34.70534929074347" lat="30.553447986021638">
        <ele>668.2000122070312</ele>
        <time>2014-11-28T07:58:00.000Z</time>
      </trkpt>
      <trkpt lon="34.70517813228071" lat="30.55323206819594">
        <ele>669.2000122070312</ele>
        <time>2014-11-28T07:58:08.000Z</time>
      </trkpt>
      <trkpt lon="34.70484159886837" lat="30.552988406270742">
        <ele>671.2000122070312</ele>
        <time>2014-11-28T07:58:16.000Z</time>
      </trkpt>
      <trkpt lon="34.704362992197275" lat="30.552723286673427">
        <ele>673.2000122070312</ele>
        <time>2014-11-28T07:58:25.000Z</time>
      </trkpt>
      <trkpt lon="34.704116731882095" lat="30.552594708278775">
        <ele>674.0</ele>
        <time>2014-11-28T07:58:30.000Z</time>
      </trkpt>
      <trkpt lon="34.70378279685974" lat="30.552349872887135">
        <ele>674.7999877929688</ele>
        <time>2014-11-28T07:58:37.000Z</time>
      </trkpt>
      <trkpt lon="34.7035776078701" lat="30.552236968651414">
        <ele>675.5999755859375</ele>
        <time>2014-11-28T07:58:43.000Z</time>
      </trkpt>
      <trkpt lon="34.703373508527875" lat="30.552154574543238">
        <ele>676.5999755859375</ele>
        <time>2014-11-28T07:58:52.000Z</time>
      </trkpt>
      <trkpt lon="34.703213665634394" lat="30.55209254845977">
        <ele>677.5999755859375</ele>
        <time>2014-11-28T07:59:00.000Z</time>
      </trkpt>
      <trkpt lon="34.7031943872571" lat="30.55209212936461">
        <ele>677.7999877929688</ele>
        <time>2014-11-28T07:59:01.000Z</time>
      </trkpt>
      <trkpt lon="34.70317477360368" lat="30.552089447155595">
        <ele>677.7999877929688</ele>
        <time>2014-11-28T07:59:02.000Z</time>
      </trkpt>
      <trkpt lon="34.702960615977645" lat="30.552026331424713">
        <ele>679.0</ele>
        <time>2014-11-28T07:59:11.000Z</time>
      </trkpt>
      <trkpt lon="34.70277143642306" lat="30.551996240392327">
        <ele>679.7999877929688</ele>
        <time>2014-11-28T07:59:20.000Z</time>
      </trkpt>
      <trkpt lon="34.70259298570454" lat="30.551993809640408">
        <ele>680.0</ele>
        <time>2014-11-28T07:59:30.000Z</time>
      </trkpt>
      <trkpt lon="34.70244940370321" lat="30.55201157927513">
        <ele>680.0</ele>
        <time>2014-11-28T07:59:39.000Z</time>
      </trkpt>
      <trkpt lon="34.70229970291257" lat="30.552025074139237">
        <ele>680.0</ele>
        <time>2014-11-28T07:59:47.000Z</time>
      </trkpt>
      <trkpt lon="34.70205830410123" lat="30.552040161564946">
        <ele>679.7999877929688</ele>
        <time>2014-11-28T07:59:57.000Z</time>
      </trkpt>
      <trkpt lon="34.70175890251994" lat="30.55206388235092">
        <ele>680.0</ele>
        <time>2014-11-28T08:00:05.000Z</time>
      </trkpt>
      <trkpt lon="34.70133947208524" lat="30.552066396921873">
        <ele>680.4000244140625</ele>
        <time>2014-11-28T08:00:15.000Z</time>
      </trkpt>
      <trkpt lon="34.70113495364785" lat="30.552065474912524">
        <ele>680.5999755859375</ele>
        <time>2014-11-28T08:00:22.000Z</time>
      </trkpt>
      <trkpt lon="34.70087251625955" lat="30.552104702219367">
        <ele>680.5999755859375</ele>
        <time>2014-11-28T08:00:29.000Z</time>
      </trkpt>
      <trkpt lon="34.70060521736741" lat="30.552127584815025">
        <ele>680.7999877929688</ele>
        <time>2014-11-28T08:00:36.000Z</time>
      </trkpt>
      <trkpt lon="34.70037312246859" lat="30.552087854593992">
        <ele>681.2000122070312</ele>
        <time>2014-11-28T08:00:42.000Z</time>
      </trkpt>
      <trkpt lon="34.70008101314306" lat="30.552008897066116">
        <ele>682.0</ele>
        <time>2014-11-28T08:00:49.000Z</time>
      </trkpt>
      <trkpt lon="34.69967088662088" lat="30.55192843079567">
        <ele>683.5999755859375</ele>
        <time>2014-11-28T08:00:58.000Z</time>
      </trkpt>
      <trkpt lon="34.699337454512715" lat="30.551838241517544">
        <ele>684.7999877929688</ele>
        <time>2014-11-28T08:01:06.000Z</time>
      </trkpt>
      <trkpt lon="34.6991553157568" lat="30.551667837426066">
        <ele>685.4000244140625</ele>
        <time>2014-11-28T08:01:11.000Z</time>
      </trkpt>
      <trkpt lon="34.698894806206226" lat="30.551363993436098">
        <ele>686.2000122070312</ele>
        <time>2014-11-28T08:01:17.000Z</time>
      </trkpt>
      <trkpt lon="34.69885985367" lat="30.551306577399373">
        <ele>686.4000244140625</ele>
        <time>2014-11-28T08:01:18.000Z</time>
      </trkpt>
      <trkpt lon="34.698830265551805" lat="30.55125175975263">
        <ele>686.4000244140625</ele>
        <time>2014-11-28T08:01:19.000Z</time>
      </trkpt>
      <trkpt lon="34.69880755059421" lat="30.551196103915572">
        <ele>686.2000122070312</ele>
        <time>2014-11-28T08:01:20.000Z</time>
      </trkpt>
      <trkpt lon="34.698791122063994" lat="30.5511377658695">
        <ele>686.2000122070312</ele>
        <time>2014-11-28T08:01:21.000Z</time>
      </trkpt>
      <trkpt lon="34.698781901970506" lat="30.551074231043458">
        <ele>686.0</ele>
        <time>2014-11-28T08:01:22.000Z</time>
      </trkpt>
      <trkpt lon="34.6987803094089" lat="30.551006589084864">
        <ele>686.0</ele>
        <time>2014-11-28T08:01:23.000Z</time>
      </trkpt>
      <trkpt lon="34.69878299161792" lat="30.550847249105573">
        <ele>685.5999755859375</ele>
        <time>2014-11-28T08:01:26.000Z</time>
      </trkpt>
      <trkpt lon="34.69873211346567" lat="30.550690842792392">
        <ele>685.4000244140625</ele>
        <time>2014-11-28T08:01:31.000Z</time>
      </trkpt>
      <trkpt lon="34.698536563664675" lat="30.55050945840776">
        <ele>685.5999755859375</ele>
        <time>2014-11-28T08:01:39.000Z</time>
      </trkpt>
      <trkpt lon="34.698316622525454" lat="30.550344418734312">
        <ele>687.2000122070312</ele>
        <time>2014-11-28T08:01:47.000Z</time>
      </trkpt>
      <trkpt lon="34.698113361373544" lat="30.550253223627806">
        <ele>688.4000244140625</ele>
        <time>2014-11-28T08:01:55.000Z</time>
      </trkpt>
      <trkpt lon="34.69797338359058" lat="30.55020653642714">
        <ele>689.0</ele>
        <time>2014-11-28T08:02:01.000Z</time>
      </trkpt>
      <trkpt lon="34.697956116870046" lat="30.550200920552015">
        <ele>689.2000122070312</ele>
        <time>2014-11-28T08:02:02.000Z</time>
      </trkpt>
      <trkpt lon="34.697932144626975" lat="30.550194969400764">
        <ele>689.2000122070312</ele>
        <time>2014-11-28T08:02:03.000Z</time>
      </trkpt>
      <trkpt lon="34.69790540635586" lat="30.55019094608724">
        <ele>689.4000244140625</ele>
        <time>2014-11-28T08:02:04.000Z</time>
      </trkpt>
      <trkpt lon="34.697879841551185" lat="30.550187593325973">
        <ele>689.4000244140625</ele>
        <time>2014-11-28T08:02:05.000Z</time>
      </trkpt>
      <trkpt lon="34.6976338326931" lat="30.55014886893332">
        <ele>689.7999877929688</ele>
        <time>2014-11-28T08:02:15.000Z</time>
      </trkpt>
      <trkpt lon="34.69748488627374" lat="30.550132440403104">
        <ele>689.7999877929688</ele>
        <time>2014-11-28T08:02:22.000Z</time>
      </trkpt>
      <trkpt lon="34.69728606753051" lat="30.550082148984075">
        <ele>690.2000122070312</ele>
        <time>2014-11-28T08:02:31.000Z</time>
      </trkpt>
      <trkpt lon="34.69713259488344" lat="30.550021464005113">
        <ele>690.5999755859375</ele>
        <time>2014-11-28T08:02:39.000Z</time>
      </trkpt>
      <trkpt lon="34.69699362292886" lat="30.549931777641177">
        <ele>691.2000122070312</ele>
        <time>2014-11-28T08:02:47.000Z</time>
      </trkpt>
      <trkpt lon="34.696906534954906" lat="30.54979850538075">
        <ele>692.0</ele>
        <time>2014-11-28T08:02:55.000Z</time>
      </trkpt>
      <trkpt lon="34.69683042727411" lat="30.54964704439044">
        <ele>692.7999877929688</ele>
        <time>2014-11-28T08:03:03.000Z</time>
      </trkpt>
      <trkpt lon="34.69673043116927" lat="30.54946373216808">
        <ele>693.4000244140625</ele>
        <time>2014-11-28T08:03:11.000Z</time>
      </trkpt>
      <trkpt lon="34.69660537317395" lat="30.54920330643654">
        <ele>694.2000122070312</ele>
        <time>2014-11-28T08:03:19.000Z</time>
      </trkpt>
      <trkpt lon="34.69654041342437" lat="30.54893801920116">
        <ele>694.5999755859375</ele>
        <time>2014-11-28T08:03:26.000Z</time>
      </trkpt>
      <trkpt lon="34.69653102569282" lat="30.548888482153416">
        <ele>694.7999877929688</ele>
        <time>2014-11-28T08:03:27.000Z</time>
      </trkpt>
      <trkpt lon="34.69651585444808" lat="30.548835340887308">
        <ele>694.7999877929688</ele>
        <time>2014-11-28T08:03:28.000Z</time>
      </trkpt>
      <trkpt lon="34.6963507309556" lat="30.548398727551103">
        <ele>692.2000122070312</ele>
        <time>2014-11-28T08:03:36.000Z</time>
      </trkpt>
      <trkpt lon="34.69632575288415" lat="30.548315327614546">
        <ele>691.7999877929688</ele>
        <time>2014-11-28T08:03:38.000Z</time>
      </trkpt>
      <trkpt lon="34.69631988555193" lat="30.548268891870975">
        <ele>691.4000244140625</ele>
        <time>2014-11-28T08:03:39.000Z</time>
      </trkpt>
      <trkpt lon="34.69629415310919" lat="30.5480776168406">
        <ele>690.2000122070312</ele>
        <time>2014-11-28T08:03:45.000Z</time>
      </trkpt>
      <trkpt lon="34.69629054889083" lat="30.54806973785162">
        <ele>690.2000122070312</ele>
        <time>2014-11-28T08:03:52.000Z</time>
      </trkpt>
      <trkpt lon="34.69625232741237" lat="30.548010226339102">
        <ele>689.7999877929688</ele>
        <time>2014-11-28T08:04:01.000Z</time>
      </trkpt>
      <trkpt lon="34.69617806375027" lat="30.547892712056637">
        <ele>689.4000244140625</ele>
        <time>2014-11-28T08:04:05.000Z</time>
      </trkpt>
      <trkpt lon="34.696139339357615" lat="30.54786253720522">
        <ele>689.4000244140625</ele>
        <time>2014-11-28T08:04:06.000Z</time>
      </trkpt>
      <trkpt lon="34.695838848128915" lat="30.547649217769504">
        <ele>689.2000122070312</ele>
        <time>2014-11-28T08:04:12.000Z</time>
      </trkpt>
      <trkpt lon="34.69579861499369" lat="30.547608649358153">
        <ele>689.0</ele>
        <time>2014-11-28T08:04:13.000Z</time>
      </trkpt>
      <trkpt lon="34.69571990892291" lat="30.547523656859994">
        <ele>688.7999877929688</ele>
        <time>2014-11-28T08:04:15.000Z</time>
      </trkpt>
      <trkpt lon="34.69568520784378" lat="30.54749700240791">
        <ele>688.7999877929688</ele>
        <time>2014-11-28T08:04:16.000Z</time>
      </trkpt>
      <trkpt lon="34.69565243460238" lat="30.5474766343832">
        <ele>688.7999877929688</ele>
        <time>2014-11-28T08:04:17.000Z</time>
      </trkpt>
      <trkpt lon="34.69561689533293" lat="30.547465654090047">
        <ele>688.7999877929688</ele>
        <time>2014-11-28T08:04:18.000Z</time>
      </trkpt>
      <trkpt lon="34.69557657837868" lat="30.547464648261666">
        <ele>689.0</ele>
        <time>2014-11-28T08:04:19.000Z</time>
      </trkpt>
      <trkpt lon="34.695535926148295" lat="30.547470515593886">
        <ele>689.2000122070312</ele>
        <time>2014-11-28T08:04:20.000Z</time>
      </trkpt>
      <trkpt lon="34.69549795612693" lat="30.547475963830948">
        <ele>689.4000244140625</ele>
        <time>2014-11-28T08:04:21.000Z</time>
      </trkpt>
      <trkpt lon="34.69521766528487" lat="30.54746045731008">
        <ele>690.0</ele>
        <time>2014-11-28T08:04:28.000Z</time>
      </trkpt>
      <trkpt lon="34.69506846740842" lat="30.547375213354826">
        <ele>690.0</ele>
        <time>2014-11-28T08:04:34.000Z</time>
      </trkpt>
      <trkpt lon="34.69499923288822" lat="30.547244623303413">
        <ele>689.2000122070312</ele>
        <time>2014-11-28T08:04:40.000Z</time>
      </trkpt>
      <trkpt lon="34.69482991844416" lat="30.547149823978543">
        <ele>689.4000244140625</ele>
        <time>2014-11-28T08:04:47.000Z</time>
      </trkpt>
      <trkpt lon="34.69468147493899" lat="30.547144459560513">
        <ele>689.5999755859375</ele>
        <time>2014-11-28T08:04:55.000Z</time>
      </trkpt>
      <trkpt lon="34.69451584853232" lat="30.547125851735473">
        <ele>690.2000122070312</ele>
        <time>2014-11-28T08:05:03.000Z</time>
      </trkpt>
      <trkpt lon="34.69431367702782" lat="30.547054018825293">
        <ele>691.2000122070312</ele>
        <time>2014-11-28T08:05:12.000Z</time>
      </trkpt>
      <trkpt lon="34.694107649847865" lat="30.546946059912443">
        <ele>692.4000244140625</ele>
        <time>2014-11-28T08:05:17.000Z</time>
      </trkpt>
      <trkpt lon="34.69382794573903" lat="30.546829719096422">
        <ele>693.7999877929688</ele>
        <time>2014-11-28T08:05:23.000Z</time>
      </trkpt>
      <trkpt lon="34.693571627140045" lat="30.54671128280461">
        <ele>695.2000122070312</ele>
        <time>2014-11-28T08:05:30.000Z</time>
      </trkpt>
      <trkpt lon="34.69337004236877" lat="30.54664246737957">
        <ele>696.2000122070312</ele>
        <time>2014-11-28T08:05:36.000Z</time>
      </trkpt>
      <trkpt lon="34.6932839602232" lat="30.54658815264702">
        <ele>696.5999755859375</ele>
        <time>2014-11-28T08:05:42.000Z</time>
      </trkpt>
      <trkpt lon="34.69309628941119" lat="30.54648019373417">
        <ele>697.7999877929688</ele>
        <time>2014-11-28T08:05:51.000Z</time>
      </trkpt>
      <trkpt lon="34.69296402297914" lat="30.546300569549203">
        <ele>698.4000244140625</ele>
        <time>2014-11-28T08:06:01.000Z</time>
      </trkpt>
      <trkpt lon="34.69288917258382" lat="30.54607367143035">
        <ele>697.5999755859375</ele>
        <time>2014-11-28T08:06:12.000Z</time>
      </trkpt>
      <trkpt lon="34.69281122088432" lat="30.54584559984505">
        <ele>696.7999877929688</ele>
        <time>2014-11-28T08:06:19.000Z</time>
      </trkpt>
      <trkpt lon="34.69278775155544" lat="30.54570679552853">
        <ele>696.2000122070312</ele>
        <time>2014-11-28T08:06:23.000Z</time>
      </trkpt>
      <trkpt lon="34.69279730692506" lat="30.545660695061088">
        <ele>696.0</ele>
        <time>2014-11-28T08:06:24.000Z</time>
      </trkpt>
      <trkpt lon="34.69284483231604" lat="30.545439328998327">
        <ele>694.7999877929688</ele>
        <time>2014-11-28T08:06:29.000Z</time>
      </trkpt>
      <trkpt lon="34.69284877181053" lat="30.54539993405342">
        <ele>694.5999755859375</ele>
        <time>2014-11-28T08:06:30.000Z</time>
      </trkpt>
      <trkpt lon="34.69284047372639" lat="30.545358946546912">
        <ele>694.5999755859375</ele>
        <time>2014-11-28T08:06:31.000Z</time>
      </trkpt>
      <trkpt lon="34.6927588339895" lat="30.54521611891687">
        <ele>694.5999755859375</ele>
        <time>2014-11-28T08:06:35.000Z</time>
      </trkpt>
      <trkpt lon="34.69272639602423" lat="30.54519264958799">
        <ele>694.7999877929688</ele>
        <time>2014-11-28T08:06:36.000Z</time>
      </trkpt>
      <trkpt lon="34.69269932247698" lat="30.54516918025911">
        <ele>695.0</ele>
        <time>2014-11-28T08:06:37.000Z</time>
      </trkpt>
      <trkpt lon="34.69261416234076" lat="30.544958794489503">
        <ele>694.7999877929688</ele>
        <time>2014-11-28T08:06:44.000Z</time>
      </trkpt>
      <trkpt lon="34.69258231110871" lat="30.544783612713218">
        <ele>694.2000122070312</ele>
        <time>2014-11-28T08:06:49.000Z</time>
      </trkpt>
      <trkpt lon="34.692563116550446" lat="30.544746397063136">
        <ele>694.2000122070312</ele>
        <time>2014-11-28T08:06:50.000Z</time>
      </trkpt>
      <trkpt lon="34.69253746792674" lat="30.544706247746944">
        <ele>694.4000244140625</ele>
        <time>2014-11-28T08:06:51.000Z</time>
      </trkpt>
      <trkpt lon="34.69227067194879" lat="30.544382203370333">
        <ele>694.5999755859375</ele>
        <time>2014-11-28T08:07:00.000Z</time>
      </trkpt>
      <trkpt lon="34.69212491065264" lat="30.544142900034785">
        <ele>694.2000122070312</ele>
        <time>2014-11-28T08:07:07.000Z</time>
      </trkpt>
      <trkpt lon="34.6919836755842" lat="30.54395011626184">
        <ele>694.2000122070312</ele>
        <time>2014-11-28T08:07:14.000Z</time>
      </trkpt>
      <trkpt lon="34.691812600940466" lat="30.54370536468923">
        <ele>694.4000244140625</ele>
        <time>2014-11-28T08:07:22.000Z</time>
      </trkpt>
      <trkpt lon="34.691593665629625" lat="30.543410070240498">
        <ele>695.2000122070312</ele>
        <time>2014-11-28T08:07:31.000Z</time>
      </trkpt>
      <trkpt lon="34.69148151576519" lat="30.543232541531324">
        <ele>695.4000244140625</ele>
        <time>2014-11-28T08:07:39.000Z</time>
      </trkpt>
      <trkpt lon="34.69134178943932" lat="30.54300555959344">
        <ele>695.7999877929688</ele>
        <time>2014-11-28T08:07:48.000Z</time>
      </trkpt>
      <trkpt lon="34.69112193211913" lat="30.54278084076941">
        <ele>697.4000244140625</ele>
        <time>2014-11-28T08:07:57.000Z</time>
      </trkpt>
      <trkpt lon="34.690983295440674" lat="30.54247012361884">
        <ele>698.4000244140625</ele>
        <time>2014-11-28T08:08:07.000Z</time>
      </trkpt>
      <trkpt lon="34.690909115597606" lat="30.542135685682297">
        <ele>698.5999755859375</ele>
        <time>2014-11-28T08:08:15.000Z</time>
      </trkpt>
      <trkpt lon="34.69088304787874" lat="30.542057314887643">
        <ele>698.4000244140625</ele>
        <time>2014-11-28T08:08:17.000Z</time>
      </trkpt>
      <trkpt lon="34.69086150638759" lat="30.542016997933388">
        <ele>698.2000122070312</ele>
        <time>2014-11-28T08:08:18.000Z</time>
      </trkpt>
      <trkpt lon="34.69065262936056" lat="30.541734527796507">
        <ele>698.5999755859375</ele>
        <time>2014-11-28T08:08:26.000Z</time>
      </trkpt>
      <trkpt lon="34.690456576645374" lat="30.541500421240926">
        <ele>699.0</ele>
        <time>2014-11-28T08:08:34.000Z</time>
      </trkpt>
      <trkpt lon="34.69035121612251" lat="30.541343176737428">
        <ele>699.2000122070312</ele>
        <time>2014-11-28T08:08:40.000Z</time>
      </trkpt>
      <trkpt lon="34.69012104906142" lat="30.541156260296702">
        <ele>699.7999877929688</ele>
        <time>2014-11-28T08:08:50.000Z</time>
      </trkpt>
      <trkpt lon="34.68998618423939" lat="30.540985353291035">
        <ele>699.5999755859375</ele>
        <time>2014-11-28T08:08:57.000Z</time>
      </trkpt>
      <trkpt lon="34.68994343653321" lat="30.540837915614247">
        <ele>699.4000244140625</ele>
        <time>2014-11-28T08:09:04.000Z</time>
      </trkpt>
      <trkpt lon="34.68992466107011" lat="30.54069835692644">
        <ele>699.0</ele>
        <time>2014-11-28T08:09:13.000Z</time>
      </trkpt>
      <trkpt lon="34.68983128666878" lat="30.54056491702795">
        <ele>699.0</ele>
        <time>2014-11-28T08:09:22.000Z</time>
      </trkpt>
      <trkpt lon="34.68961788341403" lat="30.540452180430293">
        <ele>699.5999755859375</ele>
        <time>2014-11-28T08:09:32.000Z</time>
      </trkpt>
      <trkpt lon="34.68942233361304" lat="30.540358051657677">
        <ele>700.2000122070312</ele>
        <time>2014-11-28T08:09:41.000Z</time>
      </trkpt>
      <trkpt lon="34.68916584737599" lat="30.54028630256653">
        <ele>700.7999877929688</ele>
        <time>2014-11-28T08:09:48.000Z</time>
      </trkpt>
      <trkpt lon="34.68886694870889" lat="30.540254451334476">
        <ele>701.5999755859375</ele>
        <time>2014-11-28T08:09:57.000Z</time>
      </trkpt>
      <trkpt lon="34.68859864398837" lat="30.54018622264266">
        <ele>702.4000244140625</ele>
        <time>2014-11-28T08:10:05.000Z</time>
      </trkpt>
      <trkpt lon="34.688365291804075" lat="30.54011581465602">
        <ele>703.2000122070312</ele>
        <time>2014-11-28T08:10:13.000Z</time>
      </trkpt>
      <trkpt lon="34.68822673894465" lat="30.53998338058591">
        <ele>703.5999755859375</ele>
        <time>2014-11-28T08:10:19.000Z</time>
      </trkpt>
      <trkpt lon="34.688148368149996" lat="30.53975530900061">
        <ele>704.0</ele>
        <time>2014-11-28T08:10:26.000Z</time>
      </trkpt>
      <trkpt lon="34.687996320426464" lat="30.539513239637017">
        <ele>704.0</ele>
        <time>2014-11-28T08:10:32.000Z</time>
      </trkpt>
      <trkpt lon="34.68796396628022" lat="30.539478370919824">
        <ele>704.0</ele>
        <time>2014-11-28T08:10:33.000Z</time>
      </trkpt>
      <trkpt lon="34.68778258189559" lat="30.539314672350883">
        <ele>704.2000122070312</ele>
        <time>2014-11-28T08:10:38.000Z</time>
      </trkpt>
      <trkpt lon="34.68775810673833" lat="30.539275193586946">
        <ele>704.0</ele>
        <time>2014-11-28T08:10:39.000Z</time>
      </trkpt>
      <trkpt lon="34.687734888866544" lat="30.539234625175595">
        <ele>704.0</ele>
        <time>2014-11-28T08:10:40.000Z</time>
      </trkpt>
      <trkpt lon="34.68769549392164" lat="30.53915474563837">
        <ele>704.0</ele>
        <time>2014-11-28T08:10:42.000Z</time>
      </trkpt>
      <trkpt lon="34.68755149282515" lat="30.538882166147232">
        <ele>703.5999755859375</ele>
        <time>2014-11-28T08:10:49.000Z</time>
      </trkpt>
      <trkpt lon="34.68734513036907" lat="30.538756102323532">
        <ele>704.2000122070312</ele>
        <time>2014-11-28T08:10:55.000Z</time>
      </trkpt>
      <trkpt lon="34.68711278401315" lat="30.53859475068748">
        <ele>704.7999877929688</ele>
        <time>2014-11-28T08:11:03.000Z</time>
      </trkpt>
      <trkpt lon="34.686810448765755" lat="30.538376485928893">
        <ele>704.7999877929688</ele>
        <time>2014-11-28T08:11:14.000Z</time>
      </trkpt>
      <trkpt lon="34.686470814049244" lat="30.53813927806914">
        <ele>704.7999877929688</ele>
        <time>2014-11-28T08:11:25.000Z</time>
      </trkpt>
      <trkpt lon="34.6861776150763" lat="30.537960324436426">
        <ele>705.0</ele>
        <time>2014-11-28T08:11:35.000Z</time>
      </trkpt>
      <trkpt lon="34.68588676303625" lat="30.537782795727253">
        <ele>706.2000122070312</ele>
        <time>2014-11-28T08:11:45.000Z</time>
      </trkpt>
      <trkpt lon="34.685514606535435" lat="30.537542402744293">
        <ele>708.0</ele>
        <time>2014-11-28T08:11:57.000Z</time>
      </trkpt>
      <trkpt lon="34.6852798294276" lat="30.537345176562667">
        <ele>708.7999877929688</ele>
        <time>2014-11-28T08:12:05.000Z</time>
      </trkpt>
      <trkpt lon="34.68509551137686" lat="30.537274600937963">
        <ele>709.7999877929688</ele>
        <time>2014-11-28T08:12:10.000Z</time>
      </trkpt>
      <trkpt lon="34.68493030406535" lat="30.537228668108582">
        <ele>711.0</ele>
        <time>2014-11-28T08:12:16.000Z</time>
      </trkpt>
      <trkpt lon="34.68487557023764" lat="30.53713227622211">
        <ele>710.7999877929688</ele>
        <time>2014-11-28T08:12:22.000Z</time>
      </trkpt>
      <trkpt lon="34.68476492911577" lat="30.537021048367023">
        <ele>711.0</ele>
        <time>2014-11-28T08:12:27.000Z</time>
      </trkpt>
      <trkpt lon="34.68464657664299" lat="30.53695005364716">
        <ele>711.4000244140625</ele>
        <time>2014-11-28T08:12:33.000Z</time>
      </trkpt>
      <trkpt lon="34.68447608873248" lat="30.53684586659074">
        <ele>711.7999877929688</ele>
        <time>2014-11-28T08:12:41.000Z</time>
      </trkpt>
      <trkpt lon="34.684417583048344" lat="30.536771016195416">
        <ele>711.4000244140625</ele>
        <time>2014-11-28T08:12:48.000Z</time>
      </trkpt>
      <trkpt lon="34.684317419305444" lat="30.536705553531647">
        <ele>711.2000122070312</ele>
        <time>2014-11-28T08:12:55.000Z</time>
      </trkpt>
      <trkpt lon="34.68413888476789" lat="30.53657865151763">
        <ele>710.5999755859375</ele>
        <time>2014-11-28T08:13:04.000Z</time>
      </trkpt>
      <trkpt lon="34.68392925336957" lat="30.536389807239175">
        <ele>709.7999877929688</ele>
        <time>2014-11-28T08:13:14.000Z</time>
      </trkpt>
      <trkpt lon="34.6837620344013" lat="30.536185959354043">
        <ele>709.5999755859375</ele>
        <time>2014-11-28T08:13:23.000Z</time>
      </trkpt>
      <trkpt lon="34.683543434366584" lat="30.53593961521983">
        <ele>709.5999755859375</ele>
        <time>2014-11-28T08:13:34.000Z</time>
      </trkpt>
      <trkpt lon="34.68338292092085" lat="30.53571875207126">
        <ele>709.2000122070312</ele>
        <time>2014-11-28T08:13:44.000Z</time>
      </trkpt>
      <trkpt lon="34.68325057066977" lat="30.535468636080623">
        <ele>709.0</ele>
        <time>2014-11-28T08:13:54.000Z</time>
      </trkpt>
      <trkpt lon="34.68316842801869" lat="30.53516361862421">
        <ele>709.7999877929688</ele>
        <time>2014-11-28T08:14:05.000Z</time>
      </trkpt>
      <trkpt lon="34.683085698634386" lat="30.53491626866162">
        <ele>710.4000244140625</ele>
        <time>2014-11-28T08:14:14.000Z</time>
      </trkpt>
      <trkpt lon="34.68301503919065" lat="30.53470085375011">
        <ele>711.4000244140625</ele>
        <time>2014-11-28T08:14:23.000Z</time>
      </trkpt>
      <trkpt lon="34.68299542553723" lat="30.534492395818233">
        <ele>711.5999755859375</ele>
        <time>2014-11-28T08:14:31.000Z</time>
      </trkpt>
      <trkpt lon="34.6829607244581" lat="30.53419274277985">
        <ele>712.0</ele>
        <time>2014-11-28T08:14:39.000Z</time>
      </trkpt>
      <trkpt lon="34.68293306417763" lat="30.534001886844635">
        <ele>712.0</ele>
        <time>2014-11-28T08:14:43.000Z</time>
      </trkpt>
      <trkpt lon="34.68291135504842" lat="30.533959977328777">
        <ele>712.0</ele>
        <time>2014-11-28T08:14:44.000Z</time>
      </trkpt>
      <trkpt lon="34.68289811164141" lat="30.53392837755382">
        <ele>712.0</ele>
        <time>2014-11-28T08:14:45.000Z</time>
      </trkpt>
      <trkpt lon="34.68289635144174" lat="30.533905662596226">
        <ele>712.0</ele>
        <time>2014-11-28T08:14:46.000Z</time>
      </trkpt>
      <trkpt lon="34.68289978802204" lat="30.53388185799122">
        <ele>712.0</ele>
        <time>2014-11-28T08:14:47.000Z</time>
      </trkpt>
      <trkpt lon="34.68291202560067" lat="30.53386392071843">
        <ele>712.2000122070312</ele>
        <time>2014-11-28T08:14:48.000Z</time>
      </trkpt>
      <trkpt lon="34.68292233534157" lat="30.533843552693725">
        <ele>712.2000122070312</ele>
        <time>2014-11-28T08:14:49.000Z</time>
      </trkpt>
      <trkpt lon="34.68292937614024" lat="30.533820167183876">
        <ele>712.4000244140625</ele>
        <time>2014-11-28T08:14:50.000Z</time>
      </trkpt>
      <trkpt lon="34.68293633311987" lat="30.53379887714982">
        <ele>712.5999755859375</ele>
        <time>2014-11-28T08:14:51.000Z</time>
      </trkpt>
      <trkpt lon="34.682926861569285" lat="30.533656468614936">
        <ele>713.4000244140625</ele>
        <time>2014-11-28T08:14:58.000Z</time>
      </trkpt>
      <trkpt lon="34.682813957333565" lat="30.533464355394244">
        <ele>714.0</ele>
        <time>2014-11-28T08:15:09.000Z</time>
      </trkpt>
      <trkpt lon="34.68271320685744" lat="30.53323544561863">
        <ele>715.0</ele>
        <time>2014-11-28T08:15:18.000Z</time>
      </trkpt>
      <trkpt lon="34.68265243805945" lat="30.53301860578358">
        <ele>716.2000122070312</ele>
        <time>2014-11-28T08:15:28.000Z</time>
      </trkpt>
      <trkpt lon="34.682639949023724" lat="30.532854152843356">
        <ele>716.7999877929688</ele>
        <time>2014-11-28T08:15:36.000Z</time>
      </trkpt>
      <trkpt lon="34.682620922103524" lat="30.532653322443366">
        <ele>717.5999755859375</ele>
        <time>2014-11-28T08:15:46.000Z</time>
      </trkpt>
      <trkpt lon="34.68256685882807" lat="30.53246003575623">
        <ele>718.2000122070312</ele>
        <time>2014-11-28T08:15:55.000Z</time>
      </trkpt>
      <trkpt lon="34.682501312345266" lat="30.53229432553053">
        <ele>718.5999755859375</ele>
        <time>2014-11-28T08:16:03.000Z</time>
      </trkpt>
      <trkpt lon="34.68234901316464" lat="30.532068768516183">
        <ele>719.0</ele>
        <time>2014-11-28T08:16:13.000Z</time>
      </trkpt>
      <trkpt lon="34.68213686719537" lat="30.53192786872387">
        <ele>718.4000244140625</ele>
        <time>2014-11-28T08:16:20.000Z</time>
      </trkpt>
      <trkpt lon="34.68209596350789" lat="30.531900795176625">
        <ele>718.2000122070312</ele>
        <time>2014-11-28T08:16:21.000Z</time>
      </trkpt>
      <trkpt lon="34.68200736679137" lat="30.531822759658098">
        <ele>718.2000122070312</ele>
        <time>2014-11-28T08:16:23.000Z</time>
      </trkpt>
      <trkpt lon="34.68193452805281" lat="30.53174279630184">
        <ele>718.5999755859375</ele>
        <time>2014-11-28T08:16:25.000Z</time>
      </trkpt>
      <trkpt lon="34.68174492940307" lat="30.531568871811032">
        <ele>719.5999755859375</ele>
        <time>2014-11-28T08:16:31.000Z</time>
      </trkpt>
      <trkpt lon="34.681594809517264" lat="30.531342811882496">
        <ele>720.5999755859375</ele>
        <time>2014-11-28T08:16:39.000Z</time>
      </trkpt>
      <trkpt lon="34.68133371323347" lat="30.531212892383337">
        <ele>721.0</ele>
        <time>2014-11-28T08:16:46.000Z</time>
      </trkpt>
      <trkpt lon="34.68119231052697" lat="30.53104542195797">
        <ele>721.4000244140625</ele>
        <time>2014-11-28T08:16:52.000Z</time>
      </trkpt>
      <trkpt lon="34.68095099553466" lat="30.530852302908897">
        <ele>721.5999755859375</ele>
        <time>2014-11-28T08:17:00.000Z</time>
      </trkpt>
      <trkpt lon="34.680681601166725" lat="30.530579639598727">
        <ele>722.0</ele>
        <time>2014-11-28T08:17:10.000Z</time>
      </trkpt>
      <trkpt lon="34.68053340911865" lat="30.530315777286887">
        <ele>721.7999877929688</ele>
        <time>2014-11-28T08:17:19.000Z</time>
      </trkpt>
      <trkpt lon="34.68034364283085" lat="30.530024589970708">
        <ele>721.5999755859375</ele>
        <time>2014-11-28T08:17:29.000Z</time>
      </trkpt>
      <trkpt lon="34.680164689198136" lat="30.52979752421379">
        <ele>722.2000122070312</ele>
        <time>2014-11-28T08:17:37.000Z</time>
      </trkpt>
      <trkpt lon="34.680063938722014" lat="30.529587976634502">
        <ele>722.2000122070312</ele>
        <time>2014-11-28T08:17:44.000Z</time>
      </trkpt>
      <trkpt lon="34.67993762344122" lat="30.529392175376415">
        <ele>722.4000244140625</ele>
        <time>2014-11-28T08:17:50.000Z</time>
      </trkpt>
      <trkpt lon="34.679884649813175" lat="30.529242977499962">
        <ele>722.2000122070312</ele>
        <time>2014-11-28T08:17:55.000Z</time>
      </trkpt>
      <trkpt lon="34.67983637005091" lat="30.52915689535439">
        <ele>722.2000122070312</ele>
        <time>2014-11-28T08:18:00.000Z</time>
      </trkpt>
      <trkpt lon="34.67984785325825" lat="30.52913635969162">
        <ele>722.4000244140625</ele>
        <time>2014-11-28T08:18:07.000Z</time>
      </trkpt>
      <trkpt lon="34.6798072848469" lat="30.529095204547048">
        <ele>722.4000244140625</ele>
        <time>2014-11-28T08:18:14.000Z</time>
      </trkpt>
      <trkpt lon="34.67975431121886" lat="30.529035441577435">
        <ele>722.5999755859375</ele>
        <time>2014-11-28T08:18:24.000Z</time>
      </trkpt>
      <trkpt lon="34.67971282079816" lat="30.528988502919674">
        <ele>722.5999755859375</ele>
        <time>2014-11-28T08:18:33.000Z</time>
      </trkpt>
      <trkpt lon="34.67965221963823" lat="30.52893024869263">
        <ele>722.7999877929688</ele>
        <time>2014-11-28T08:18:43.000Z</time>
      </trkpt>
      <trkpt lon="34.6796207036823" lat="30.52887937054038">
        <ele>723.0</ele>
        <time>2014-11-28T08:18:52.000Z</time>
      </trkpt>
      <trkpt lon="34.67958424240351" lat="30.528817428275943">
        <ele>723.2000122070312</ele>
        <time>2014-11-28T08:19:01.000Z</time>
      </trkpt>
      <trkpt lon="34.67954233288765" lat="30.528750456869602">
        <ele>723.2000122070312</ele>
        <time>2014-11-28T08:19:10.000Z</time>
      </trkpt>
      <trkpt lon="34.67950033955276" lat="30.528703937307">
        <ele>723.4000244140625</ele>
        <time>2014-11-28T08:19:19.000Z</time>
      </trkpt>
      <trkpt lon="34.67949983663857" lat="30.528693879023194">
        <ele>723.4000244140625</ele>
        <time>2014-11-28T08:19:26.000Z</time>
      </trkpt>
      <trkpt lon="34.679426746442914" lat="30.528604947030544">
        <ele>723.5999755859375</ele>
        <time>2014-11-28T08:19:34.000Z</time>
      </trkpt>
      <trkpt lon="34.67933965846896" lat="30.528449462726712">
        <ele>724.2000122070312</ele>
        <time>2014-11-28T08:19:42.000Z</time>
      </trkpt>
      <trkpt lon="34.67921795323491" lat="30.528291715309024">
        <ele>724.5999755859375</ele>
        <time>2014-11-28T08:19:50.000Z</time>
      </trkpt>
      <trkpt lon="34.67907872982323" lat="30.52815333008766">
        <ele>725.2000122070312</ele>
        <time>2014-11-28T08:19:58.000Z</time>
      </trkpt>
      <trkpt lon="34.678939171135426" lat="30.527956606820226">
        <ele>725.7999877929688</ele>
        <time>2014-11-28T08:20:06.000Z</time>
      </trkpt>
      <trkpt lon="34.678729958832264" lat="30.527693582698703">
        <ele>727.0</ele>
        <time>2014-11-28T08:20:15.000Z</time>
      </trkpt>
      <trkpt lon="34.67848017811775" lat="30.527420416474342">
        <ele>728.5999755859375</ele>
        <time>2014-11-28T08:20:25.000Z</time>
      </trkpt>
      <trkpt lon="34.678332321345806" lat="30.527263674885035">
        <ele>729.5999755859375</ele>
        <time>2014-11-28T08:20:33.000Z</time>
      </trkpt>
      <trkpt lon="34.6782136335969" lat="30.52716862410307">
        <ele>730.2000122070312</ele>
        <time>2014-11-28T08:20:40.000Z</time>
      </trkpt>
      <trkpt lon="34.6780717279762" lat="30.52705194801092">
        <ele>730.5999755859375</ele>
        <time>2014-11-28T08:20:48.000Z</time>
      </trkpt>
      <trkpt lon="34.67792730778456" lat="30.526977432891726">
        <ele>731.0</ele>
        <time>2014-11-28T08:20:55.000Z</time>
      </trkpt>
      <trkpt lon="34.67781658284366" lat="30.526912892237306">
        <ele>731.4000244140625</ele>
        <time>2014-11-28T08:21:02.000Z</time>
      </trkpt>
      <trkpt lon="34.67765137553215" lat="30.526806358247995">
        <ele>732.0</ele>
        <time>2014-11-28T08:21:11.000Z</time>
      </trkpt>
      <trkpt lon="34.6775122359395" lat="30.526674762368202">
        <ele>732.4000244140625</ele>
        <time>2014-11-28T08:21:17.000Z</time>
      </trkpt>
      <trkpt lon="34.67731475830078" lat="30.526492288336158">
        <ele>733.2000122070312</ele>
        <time>2014-11-28T08:21:26.000Z</time>
      </trkpt>
      <trkpt lon="34.67710990458727" lat="30.5263829883188">
        <ele>733.7999877929688</ele>
        <time>2014-11-28T08:21:34.000Z</time>
      </trkpt>
      <trkpt lon="34.67688133008778" lat="30.526346107944846">
        <ele>734.4000244140625</ele>
        <time>2014-11-28T08:21:43.000Z</time>
      </trkpt>
      <trkpt lon="34.67671888880432" lat="30.526303024962544">
        <ele>735.0</ele>
        <time>2014-11-28T08:21:51.000Z</time>
      </trkpt>
      <trkpt lon="34.67652652412653" lat="30.52619623951614">
        <ele>736.0</ele>
        <time>2014-11-28T08:22:01.000Z</time>
      </trkpt>
      <trkpt lon="34.67633265070617" lat="30.526094483211637">
        <ele>737.2000122070312</ele>
        <time>2014-11-28T08:22:10.000Z</time>
      </trkpt>
      <trkpt lon="34.67605747282505" lat="30.526003036648035">
        <ele>738.4000244140625</ele>
        <time>2014-11-28T08:22:21.000Z</time>
      </trkpt>
      <trkpt lon="34.67587558552623" lat="30.525926342234015">
        <ele>739.2000122070312</ele>
        <time>2014-11-28T08:22:29.000Z</time>
      </trkpt>
      <trkpt lon="34.675722531974316" lat="30.525854509323835">
        <ele>740.0</ele>
        <time>2014-11-28T08:22:36.000Z</time>
      </trkpt>
      <trkpt lon="34.675534358248115" lat="30.525715705007315">
        <ele>741.4000244140625</ele>
        <time>2014-11-28T08:22:46.000Z</time>
      </trkpt>
      <trkpt lon="34.675376610830426" lat="30.52556600421667">
        <ele>742.7999877929688</ele>
        <time>2014-11-28T08:22:55.000Z</time>
      </trkpt>
      <trkpt lon="34.67519958503544" lat="30.52541839890182">
        <ele>742.7999877929688</ele>
        <time>2014-11-28T08:23:03.000Z</time>
      </trkpt>
      <trkpt lon="34.675152730196714" lat="30.52539451047778">
        <ele>742.7999877929688</ele>
        <time>2014-11-28T08:23:08.000Z</time>
      </trkpt>
      <trkpt lon="34.675126411020756" lat="30.525385374203324">
        <ele>742.7999877929688</ele>
        <time>2014-11-28T08:23:17.000Z</time>
      </trkpt>
      <trkpt lon="34.67511182650924" lat="30.52537883631885">
        <ele>742.7999877929688</ele>
        <time>2014-11-28T08:23:24.000Z</time>
      </trkpt>
      <trkpt lon="34.6751101501286" lat="30.52538068033755">
        <ele>742.7999877929688</ele>
        <time>2014-11-28T08:23:42.000Z</time>
      </trkpt>
      <trkpt lon="34.675114173442125" lat="30.52537581883371">
        <ele>742.7999877929688</ele>
        <time>2014-11-28T08:24:01.000Z</time>
      </trkpt>
      <trkpt lon="34.675109228119254" lat="30.52538805641234">
        <ele>742.7999877929688</ele>
        <time>2014-11-28T08:24:10.000Z</time>
      </trkpt>
      <trkpt lon="34.67511626891792" lat="30.52539048716426">
        <ele>742.7999877929688</ele>
        <time>2014-11-28T08:24:26.000Z</time>
      </trkpt>
      <trkpt lon="34.67510838992894" lat="30.525391241535544">
        <ele>742.7999877929688</ele>
        <time>2014-11-28T08:24:47.000Z</time>
      </trkpt>
      <trkpt lon="34.675113838166" lat="30.525389648973942">
        <ele>742.7999877929688</ele>
        <time>2014-11-28T08:25:06.000Z</time>
      </trkpt>
      <trkpt lon="34.67511299997568" lat="30.525396019220352">
        <ele>742.7999877929688</ele>
        <time>2014-11-28T08:25:24.000Z</time>
      </trkpt>
      <trkpt lon="34.67511065304279" lat="30.525391744449735">
        <ele>742.7999877929688</ele>
        <time>2014-11-28T08:25:40.000Z</time>
      </trkpt>
      <trkpt lon="34.6750998403877" lat="30.52539291791618">
        <ele>742.7999877929688</ele>
        <time>2014-11-28T08:25:58.000Z</time>
      </trkpt>
      <trkpt lon="34.675096990540624" lat="30.5253935046494">
        <ele>742.7999877929688</ele>
        <time>2014-11-28T08:26:12.000Z</time>
      </trkpt>
      <trkpt lon="34.67509891837835" lat="30.525381099432707">
        <ele>742.7999877929688</ele>
        <time>2014-11-28T08:26:30.000Z</time>
      </trkpt>
      <trkpt lon="34.67508542351425" lat="30.525375148281455">
        <ele>742.7999877929688</ele>
        <time>2014-11-28T08:26:49.000Z</time>
      </trkpt>
      <trkpt lon="34.675091626122594" lat="30.52538361400366">
        <ele>742.7999877929688</ele>
        <time>2014-11-28T08:27:05.000Z</time>
      </trkpt>
      <trkpt lon="34.67509673908353" lat="30.52538755349815">
        <ele>742.7999877929688</ele>
        <time>2014-11-28T08:27:19.000Z</time>
      </trkpt>
      <trkpt lon="34.67509129084647" lat="30.5253831949085">
        <ele>742.7999877929688</ele>
        <time>2014-11-28T08:27:38.000Z</time>
      </trkpt>
      <trkpt lon="34.675104450434446" lat="30.525387804955244">
        <ele>742.7999877929688</ele>
        <time>2014-11-28T08:27:53.000Z</time>
      </trkpt>
      <trkpt lon="34.67507134191692" lat="30.52538805641234">
        <ele>742.7999877929688</ele>
        <time>2014-11-28T08:28:11.000Z</time>
      </trkpt>
      <trkpt lon="34.67507134191692" lat="30.525370286777616">
        <ele>742.7999877929688</ele>
        <time>2014-11-28T08:28:28.000Z</time>
      </trkpt>
      <trkpt lon="34.67506312765181" lat="30.525380009785295">
        <ele>742.7999877929688</ele>
        <time>2014-11-28T08:28:48.000Z</time>
      </trkpt>
      <trkpt lon="34.675050135701895" lat="30.52538956515491">
        <ele>742.7999877929688</ele>
        <time>2014-11-28T08:29:09.000Z</time>
      </trkpt>
      <trkpt lon="34.67505566775799" lat="30.525395767763257">
        <ele>742.7999877929688</ele>
        <time>2014-11-28T08:29:26.000Z</time>
      </trkpt>
      <trkpt lon="34.675043849274516" lat="30.52539987489581">
        <ele>742.7999877929688</ele>
        <time>2014-11-28T08:29:45.000Z</time>
      </trkpt>
      <trkpt lon="34.675057008862495" lat="30.52540180273354">
        <ele>742.7999877929688</ele>
        <time>2014-11-28T08:30:03.000Z</time>
      </trkpt>
      <trkpt lon="34.67507544904947" lat="30.52540616132319">
        <ele>742.7999877929688</ele>
        <time>2014-11-28T08:30:16.000Z</time>
      </trkpt>
      <trkpt lon="34.67505223117769" lat="30.525429965928197">
        <ele>743.0</ele>
        <time>2014-11-28T08:30:23.000Z</time>
      </trkpt>
      <trkpt lon="34.67502792365849" lat="30.52544128149748">
        <ele>743.0</ele>
        <time>2014-11-28T08:30:30.000Z</time>
      </trkpt>
      <trkpt lon="34.675016943365335" lat="30.52544136531651">
        <ele>743.0</ele>
        <time>2014-11-28T08:30:32.000Z</time>
      </trkpt>
      <trkpt lon="34.674998838454485" lat="30.525447567924857">
        <ele>743.0</ele>
        <time>2014-11-28T08:30:34.000Z</time>
      </trkpt>
      <trkpt lon="34.67498115263879" lat="30.52545804530382">
        <ele>743.0</ele>
        <time>2014-11-28T08:30:35.000Z</time>
      </trkpt>
      <trkpt lon="34.67496430501342" lat="30.525471875444055">
        <ele>743.0</ele>
        <time>2014-11-28T08:30:36.000Z</time>
      </trkpt>
      <trkpt lon="34.67478912323713" lat="30.52563582547009">
        <ele>742.5999755859375</ele>
        <time>2014-11-28T08:30:47.000Z</time>
      </trkpt>
      <trkpt lon="34.67463950626552" lat="30.525856437161565">
        <ele>743.7999877929688</ele>
        <time>2014-11-28T08:30:58.000Z</time>
      </trkpt>
      <trkpt lon="34.67454085126519" lat="30.526053747162223">
        <ele>745.5999755859375</ele>
        <time>2014-11-28T08:31:08.000Z</time>
      </trkpt>
      <trkpt lon="34.674473628401756" lat="30.526138907298446">
        <ele>746.2000122070312</ele>
        <time>2014-11-28T08:31:14.000Z</time>
      </trkpt>
      <trkpt lon="34.67443532310426" lat="30.52625298500061">
        <ele>746.7999877929688</ele>
        <time>2014-11-28T08:31:20.000Z</time>
      </trkpt>
      <trkpt lon="34.67439793981612" lat="30.526384161785245">
        <ele>747.2000122070312</ele>
        <time>2014-11-28T08:31:27.000Z</time>
      </trkpt>
      <trkpt lon="34.674280509352684" lat="30.526524055749178">
        <ele>747.4000244140625</ele>
        <time>2014-11-28T08:31:33.000Z</time>
      </trkpt>
      <trkpt lon="34.67418897897005" lat="30.526613742113113">
        <ele>747.4000244140625</ele>
        <time>2014-11-28T08:31:36.000Z</time>
      </trkpt>
      <trkpt lon="34.674160815775394" lat="30.52665028721094">
        <ele>747.5999755859375</ele>
        <time>2014-11-28T08:31:37.000Z</time>
      </trkpt>
      <trkpt lon="34.67412636615336" lat="30.52668339572847">
        <ele>747.5999755859375</ele>
        <time>2014-11-28T08:31:38.000Z</time>
      </trkpt>
      <trkpt lon="34.674088563770056" lat="30.526714073494077">
        <ele>747.5999755859375</ele>
        <time>2014-11-28T08:31:39.000Z</time>
      </trkpt>
      <trkpt lon="34.67405394650996" lat="30.526744835078716">
        <ele>747.5999755859375</ele>
        <time>2014-11-28T08:31:40.000Z</time>
      </trkpt>
      <trkpt lon="34.67402670532465" lat="30.526779536157846">
        <ele>747.5999755859375</ele>
        <time>2014-11-28T08:31:41.000Z</time>
      </trkpt>
      <trkpt lon="34.67400466091931" lat="30.526814991608262">
        <ele>747.5999755859375</ele>
        <time>2014-11-28T08:31:42.000Z</time>
      </trkpt>
      <trkpt lon="34.673991333693266" lat="30.52684960886836">
        <ele>747.5999755859375</ele>
        <time>2014-11-28T08:31:43.000Z</time>
      </trkpt>
      <trkpt lon="34.67397917993367" lat="30.526882717385888">
        <ele>747.5999755859375</ele>
        <time>2014-11-28T08:31:44.000Z</time>
      </trkpt>
      <trkpt lon="34.67391639947891" lat="30.527079524472356">
        <ele>747.5999755859375</ele>
        <time>2014-11-28T08:31:51.000Z</time>
      </trkpt>
      <trkpt lon="34.67377591878176" lat="30.527276331558824">
        <ele>749.5999755859375</ele>
        <time>2014-11-28T08:31:59.000Z</time>
      </trkpt>
      <trkpt lon="34.67373711057007" lat="30.52732167765498">
        <ele>749.5999755859375</ele>
        <time>2014-11-28T08:32:03.000Z</time>
      </trkpt>
      <trkpt lon="34.67373191379011" lat="30.52732452750206">
        <ele>749.5999755859375</ele>
        <time>2014-11-28T08:32:11.000Z</time>
      </trkpt>
      <trkpt lon="34.673690255731344" lat="30.52735294215381">
        <ele>749.5999755859375</ele>
        <time>2014-11-28T08:32:17.000Z</time>
      </trkpt>
      <trkpt lon="34.673666283488274" lat="30.52740314975381">
        <ele>750.0</ele>
        <time>2014-11-28T08:32:23.000Z</time>
      </trkpt>
      <trkpt lon="34.673660919070244" lat="30.527415303513408">
        <ele>750.2000122070312</ele>
        <time>2014-11-28T08:32:24.000Z</time>
      </trkpt>
      <trkpt lon="34.67366024851799" lat="30.527431145310402">
        <ele>750.4000244140625</ele>
        <time>2014-11-28T08:32:25.000Z</time>
      </trkpt>
      <trkpt lon="34.67365748248994" lat="30.52744229324162">
        <ele>750.4000244140625</ele>
        <time>2014-11-28T08:32:26.000Z</time>
      </trkpt>
      <trkpt lon="34.67365044169128" lat="30.527508007362485">
        <ele>751.0</ele>
        <time>2014-11-28T08:32:33.000Z</time>
      </trkpt>
      <trkpt lon="34.67362990602851" lat="30.52753030322492">
        <ele>751.2000122070312</ele>
        <time>2014-11-28T08:32:39.000Z</time>
      </trkpt>
      <trkpt lon="34.673636108636856" lat="30.52754203788936">
        <ele>751.4000244140625</ele>
        <time>2014-11-28T08:32:46.000Z</time>
      </trkpt>
      <trkpt lon="34.67363032512367" lat="30.527557795867324">
        <ele>751.4000244140625</ele>
        <time>2014-11-28T08:32:53.000Z</time>
      </trkpt>
      <trkpt lon="34.673642897978425" lat="30.527583695948124">
        <ele>751.5999755859375</ele>
        <time>2014-11-28T08:33:01.000Z</time>
      </trkpt>
      <trkpt lon="34.67362655326724" lat="30.52761822938919">
        <ele>752.0</ele>
        <time>2014-11-28T08:33:09.000Z</time>
      </trkpt>
      <trkpt lon="34.673623871058226" lat="30.52766307257116">
        <ele>752.4000244140625</ele>
        <time>2014-11-28T08:33:18.000Z</time>
      </trkpt>
      <trkpt lon="34.673608196899295" lat="30.527703808620572">
        <ele>752.7999877929688</ele>
        <time>2014-11-28T08:33:26.000Z</time>
      </trkpt>
      <trkpt lon="34.673558827489614" lat="30.52771001122892">
        <ele>753.0</ele>
        <time>2014-11-28T08:33:33.000Z</time>
      </trkpt>
      <trkpt lon="34.67351951636374" lat="30.52772074006498">
        <ele>753.2000122070312</ele>
        <time>2014-11-28T08:33:37.000Z</time>
      </trkpt>
      <trkpt lon="34.673504596576095" lat="30.527724595740438">
        <ele>753.4000244140625</ele>
        <time>2014-11-28T08:33:38.000Z</time>
      </trkpt>
      <trkpt lon="34.673490431159735" lat="30.527731468901038">
        <ele>753.4000244140625</ele>
        <time>2014-11-28T08:33:39.000Z</time>
      </trkpt>
      <trkpt lon="34.67347760684788" lat="30.52774320356548">
        <ele>753.5999755859375</ele>
        <time>2014-11-28T08:33:40.000Z</time>
      </trkpt>
      <trkpt lon="34.67346922494471" lat="30.527757201343775">
        <ele>753.7999877929688</ele>
        <time>2014-11-28T08:33:41.000Z</time>
      </trkpt>
      <trkpt lon="34.67346536926925" lat="30.527770528569818">
        <ele>753.7999877929688</ele>
        <time>2014-11-28T08:33:42.000Z</time>
      </trkpt>
      <trkpt lon="34.673471907153726" lat="30.52778729237616">
        <ele>754.0</ele>
        <time>2014-11-28T08:33:47.000Z</time>
      </trkpt>
      <trkpt lon="34.673448437824845" lat="30.52779709920287">
        <ele>754.0</ele>
        <time>2014-11-28T08:33:53.000Z</time>
      </trkpt>
      <trkpt lon="34.67343058437109" lat="30.527818305417895">
        <ele>754.2000122070312</ele>
        <time>2014-11-28T08:33:59.000Z</time>
      </trkpt>
      <trkpt lon="34.67342421412468" lat="30.52784630097449">
        <ele>754.5999755859375</ele>
        <time>2014-11-28T08:34:05.000Z</time>
      </trkpt>
      <trkpt lon="34.67342362739146" lat="30.527875805273652">
        <ele>754.7999877929688</ele>
        <time>2014-11-28T08:34:11.000Z</time>
      </trkpt>
      <trkpt lon="34.673416167497635" lat="30.52792022936046">
        <ele>755.0</ele>
        <time>2014-11-28T08:34:20.000Z</time>
      </trkpt>
      <trkpt lon="34.67342371121049" lat="30.52793188020587">
        <ele>755.2000122070312</ele>
        <time>2014-11-28T08:34:21.000Z</time>
      </trkpt>
      <trkpt lon="34.67342999763787" lat="30.52794705145061">
        <ele>755.2000122070312</ele>
        <time>2014-11-28T08:34:22.000Z</time>
      </trkpt>
      <trkpt lon="34.67343209311366" lat="30.527964821085334">
        <ele>755.4000244140625</ele>
        <time>2014-11-28T08:34:23.000Z</time>
      </trkpt>
      <trkpt lon="34.67343016527593" lat="30.527980998158455">
        <ele>755.4000244140625</ele>
        <time>2014-11-28T08:34:24.000Z</time>
      </trkpt>
      <trkpt lon="34.67342337593436" lat="30.527996504679322">
        <ele>755.5999755859375</ele>
        <time>2014-11-28T08:34:25.000Z</time>
      </trkpt>
      <trkpt lon="34.67340820468962" lat="30.528009328991175">
        <ele>755.7999877929688</ele>
        <time>2014-11-28T08:34:26.000Z</time>
      </trkpt>
      <trkpt lon="34.673391692340374" lat="30.528025422245264">
        <ele>756.2000122070312</ele>
        <time>2014-11-28T08:34:27.000Z</time>
      </trkpt>
      <trkpt lon="34.6733764372766" lat="30.528044868260622">
        <ele>756.5999755859375</ele>
        <time>2014-11-28T08:34:28.000Z</time>
      </trkpt>
      <trkpt lon="34.673245679587126" lat="30.528171518817544">
        <ele>759.5999755859375</ele>
        <time>2014-11-28T08:34:34.000Z</time>
      </trkpt>
      <trkpt lon="34.673107881098986" lat="30.528213512152433">
        <ele>761.0</ele>
        <time>2014-11-28T08:34:39.000Z</time>
      </trkpt>
      <trkpt lon="34.673091201111674" lat="30.528235053643584">
        <ele>761.4000244140625</ele>
        <time>2014-11-28T08:34:44.000Z</time>
      </trkpt>
      <trkpt lon="34.67309782281518" lat="30.528255756944418">
        <ele>762.0</ele>
        <time>2014-11-28T08:34:46.000Z</time>
      </trkpt>
      <trkpt lon="34.6731208730489" lat="30.528302108868957">
        <ele>763.0</ele>
        <time>2014-11-28T08:34:52.000Z</time>
      </trkpt>
      <trkpt lon="34.673120621591806" lat="30.528325829654932">
        <ele>763.7999877929688</ele>
        <time>2014-11-28T08:34:58.000Z</time>
      </trkpt>
      <trkpt lon="34.673129841685295" lat="30.528372768312693">
        <ele>765.0</ele>
        <time>2014-11-28T08:35:06.000Z</time>
      </trkpt>
      <trkpt lon="34.673145515844226" lat="30.52840881049633">
        <ele>766.0</ele>
        <time>2014-11-28T08:35:13.000Z</time>
      </trkpt>
      <trkpt lon="34.67315607704222" lat="30.528458431363106">
        <ele>767.2000122070312</ele>
        <time>2014-11-28T08:35:21.000Z</time>
      </trkpt>
      <trkpt lon="34.67315758578479" lat="30.52847326733172">
        <ele>767.5999755859375</ele>
        <time>2014-11-28T08:35:28.000Z</time>
      </trkpt>
      <trkpt lon="34.67313755303621" lat="30.52846304140985">
        <ele>767.5999755859375</ele>
        <time>2014-11-28T08:35:34.000Z</time>
      </trkpt>
      <trkpt lon="34.67315104790032" lat="30.528485337272286">
        <ele>768.0</ele>
        <time>2014-11-28T08:35:40.000Z</time>
      </trkpt>
      <trkpt lon="34.67315590940416" lat="30.528491204604506">
        <ele>768.2000122070312</ele>
        <time>2014-11-28T08:35:48.000Z</time>
      </trkpt>
      <trkpt lon="34.67315272428095" lat="30.528509644791484">
        <ele>768.7999877929688</ele>
        <time>2014-11-28T08:36:09.000Z</time>
      </trkpt>
      <trkpt lon="34.67315808869898" lat="30.528519032523036">
        <ele>769.0</ele>
        <time>2014-11-28T08:36:33.000Z</time>
      </trkpt>
      <trkpt lon="34.67313780449331" lat="30.528529258444905">
        <ele>769.4000244140625</ele>
        <time>2014-11-28T08:36:53.000Z</time>
      </trkpt>
      <trkpt lon="34.67312925495207" lat="30.528525318950415">
        <ele>769.4000244140625</ele>
        <time>2014-11-28T08:37:15.000Z</time>
      </trkpt>
      <trkpt lon="34.67313545756042" lat="30.528522888198495">
        <ele>769.2000122070312</ele>
        <time>2014-11-28T08:37:38.000Z</time>
      </trkpt>
      <trkpt lon="34.67315557412803" lat="30.528517523780465">
        <ele>769.0</ele>
        <time>2014-11-28T08:38:00.000Z</time>
      </trkpt>
      <trkpt lon="34.67315859161317" lat="30.528517020866275">
        <ele>769.0</ele>
        <time>2014-11-28T08:38:17.000Z</time>
      </trkpt>
      <trkpt lon="34.673169404268265" lat="30.528509812429547">
        <ele>768.5999755859375</ele>
        <time>2014-11-28T08:38:40.000Z</time>
      </trkpt>
      <trkpt lon="34.67316093854606" lat="30.52849573083222">
        <ele>768.2000122070312</ele>
        <time>2014-11-28T08:39:02.000Z</time>
      </trkpt>
      <trkpt lon="34.673143085092306" lat="30.528515512123704">
        <ele>769.0</ele>
        <time>2014-11-28T08:39:27.000Z</time>
      </trkpt>
      <trkpt lon="34.67314803041518" lat="30.52852464839816">
        <ele>769.2000122070312</ele>
        <time>2014-11-28T08:39:51.000Z</time>
      </trkpt>
      <trkpt lon="34.673124980181456" lat="30.528504448011518">
        <ele>768.7999877929688</ele>
        <time>2014-11-28T08:40:11.000Z</time>
      </trkpt>
      <trkpt lon="34.673117604106665" lat="30.528522804379463">
        <ele>769.4000244140625</ele>
        <time>2014-11-28T08:40:39.000Z</time>
      </trkpt>
      <trkpt lon="34.67314811423421" lat="30.528525738045573">
        <ele>769.2000122070312</ele>
        <time>2014-11-28T08:41:00.000Z</time>
      </trkpt>
      <trkpt lon="34.6731364633888" lat="30.52853101864457">
        <ele>769.5999755859375</ele>
        <time>2014-11-28T08:41:23.000Z</time>
      </trkpt>
      <trkpt lon="34.673155238851905" lat="30.528526408597827">
        <ele>769.2000122070312</ele>
        <time>2014-11-28T08:41:44.000Z</time>
      </trkpt>
      <trkpt lon="34.67314124107361" lat="30.528524732217193">
        <ele>769.2000122070312</ele>
        <time>2014-11-28T08:42:09.000Z</time>
      </trkpt>
      <trkpt lon="34.673157669603825" lat="30.52851433865726">
        <ele>768.7999877929688</ele>
        <time>2014-11-28T08:42:37.000Z</time>
      </trkpt>
      <trkpt lon="34.6731433365494" lat="30.52850402891636">
        <ele>768.5999755859375</ele>
        <time>2014-11-28T08:43:05.000Z</time>
      </trkpt>
      <trkpt lon="34.67311433516443" lat="30.528510650619864">
        <ele>769.2000122070312</ele>
        <time>2014-11-28T08:43:35.000Z</time>
      </trkpt>
      <trkpt lon="34.67310938984156" lat="30.528516685590148">
        <ele>769.4000244140625</ele>
        <time>2014-11-28T08:43:57.000Z</time>
      </trkpt>
      <trkpt lon="34.673139061778784" lat="30.528509728610516">
        <ele>768.7999877929688</ele>
        <time>2014-11-28T08:44:24.000Z</time>
      </trkpt>
      <trkpt lon="34.67315113171935" lat="30.528503358364105">
        <ele>768.5999755859375</ele>
        <time>2014-11-28T08:44:53.000Z</time>
      </trkpt>
      <trkpt lon="34.67316043563187" lat="30.528504280373454">
        <ele>768.5999755859375</ele>
        <time>2014-11-28T08:45:18.000Z</time>
      </trkpt>
      <trkpt lon="34.67314803041518" lat="30.52850939333439">
        <ele>768.7999877929688</ele>
        <time>2014-11-28T08:45:50.000Z</time>
      </trkpt>
      <trkpt lon="34.673161609098315" lat="30.528509141877294">
        <ele>768.5999755859375</ele>
        <time>2014-11-28T08:46:21.000Z</time>
      </trkpt>
      <trkpt lon="34.673166470602155" lat="30.528515595942736">
        <ele>768.7999877929688</ele>
        <time>2014-11-28T08:46:51.000Z</time>
      </trkpt>
      <trkpt lon="34.67317124828696" lat="30.528505789116025">
        <ele>768.4000244140625</ele>
        <time>2014-11-28T08:47:23.000Z</time>
      </trkpt>
      <trkpt lon="34.67315934598446" lat="30.528488690033555">
        <ele>768.0</ele>
        <time>2014-11-28T08:47:47.000Z</time>
      </trkpt>
      <trkpt lon="34.67315834015608" lat="30.528498077765107">
        <ele>768.4000244140625</ele>
        <time>2014-11-28T08:48:12.000Z</time>
      </trkpt>
      <trkpt lon="34.67315557412803" lat="30.528486762195826">
        <ele>768.0</ele>
        <time>2014-11-28T08:48:20.000Z</time>
      </trkpt>
      <trkpt lon="34.6731208730489" lat="30.528448037803173">
        <ele>767.2000122070312</ele>
        <time>2014-11-28T08:48:30.000Z</time>
      </trkpt>
      <trkpt lon="34.67315171845257" lat="30.528413504362106">
        <ele>766.0</ele>
        <time>2014-11-28T08:48:38.000Z</time>
      </trkpt>
      <trkpt lon="34.67316881753504" lat="30.528369080275297">
        <ele>764.5999755859375</ele>
        <time>2014-11-28T08:48:43.000Z</time>
      </trkpt>
      <trkpt lon="34.67313160188496" lat="30.528305042535067">
        <ele>763.0</ele>
        <time>2014-11-28T08:48:52.000Z</time>
      </trkpt>
      <trkpt lon="34.673136631026864" lat="30.52826908417046">
        <ele>762.0</ele>
        <time>2014-11-28T08:49:00.000Z</time>
      </trkpt>
      <trkpt lon="34.67310955747962" lat="30.528215523809195">
        <ele>761.0</ele>
        <time>2014-11-28T08:49:07.000Z</time>
      </trkpt>
      <trkpt lon="34.67310762964189" lat="30.52819482050836">
        <ele>760.5999755859375</ele>
        <time>2014-11-28T08:49:15.000Z</time>
      </trkpt>
      <trkpt lon="34.6731433365494" lat="30.52819373086095">
        <ele>760.4000244140625</ele>
        <time>2014-11-28T08:49:23.000Z</time>
      </trkpt>
      <trkpt lon="34.67315305955708" lat="30.52819138392806">
        <ele>760.4000244140625</ele>
        <time>2014-11-28T08:49:24.000Z</time>
      </trkpt>
      <trkpt lon="34.67317074537277" lat="30.528184259310365">
        <ele>760.2000122070312</ele>
        <time>2014-11-28T08:49:25.000Z</time>
      </trkpt>
      <trkpt lon="34.673334108665586" lat="30.528123574331403">
        <ele>758.4000244140625</ele>
        <time>2014-11-28T08:49:32.000Z</time>
      </trkpt>
      <trkpt lon="34.67339579947293" lat="30.52805794402957">
        <ele>756.7999877929688</ele>
        <time>2014-11-28T08:49:36.000Z</time>
      </trkpt>
      <trkpt lon="34.67340225353837" lat="30.528040509670973">
        <ele>756.4000244140625</ele>
        <time>2014-11-28T08:49:37.000Z</time>
      </trkpt>
      <trkpt lon="34.67340954579413" lat="30.528021650388837">
        <ele>756.0</ele>
        <time>2014-11-28T08:49:38.000Z</time>
      </trkpt>
      <trkpt lon="34.673458747565746" lat="30.527947805821896">
        <ele>755.2000122070312</ele>
        <time>2014-11-28T08:49:43.000Z</time>
      </trkpt>
      <trkpt lon="34.67346193268895" lat="30.527928108349442">
        <ele>755.0</ele>
        <time>2014-11-28T08:49:44.000Z</time>
      </trkpt>
      <trkpt lon="34.673458160832524" lat="30.52790363319218">
        <ele>754.7999877929688</ele>
        <time>2014-11-28T08:49:45.000Z</time>
      </trkpt>
      <trkpt lon="34.673441061750054" lat="30.527863400056958">
        <ele>754.5999755859375</ele>
        <time>2014-11-28T08:49:47.000Z</time>
      </trkpt>
      <trkpt lon="34.67344097793102" lat="30.527847725898027">
        <ele>754.4000244140625</ele>
        <time>2014-11-28T08:49:48.000Z</time>
      </trkpt>
      <trkpt lon="34.6734438277781" lat="30.527830375358462">
        <ele>754.4000244140625</ele>
        <time>2014-11-28T08:49:49.000Z</time>
      </trkpt>
      <trkpt lon="34.67344759963453" lat="30.527814365923405">
        <ele>754.2000122070312</ele>
        <time>2014-11-28T08:49:50.000Z</time>
      </trkpt>
      <trkpt lon="34.67345371842384" lat="30.527802798897028">
        <ele>754.2000122070312</ele>
        <time>2014-11-28T08:49:51.000Z</time>
      </trkpt>
      <trkpt lon="34.67346386052668" lat="30.5277887172997">
        <ele>754.0</ele>
        <time>2014-11-28T08:49:52.000Z</time>
      </trkpt>
      <trkpt lon="34.67347014695406" lat="30.52777262404561">
        <ele>753.7999877929688</ele>
        <time>2014-11-28T08:49:53.000Z</time>
      </trkpt>
      <trkpt lon="34.6734768524766" lat="30.527754183858633">
        <ele>753.5999755859375</ele>
        <time>2014-11-28T08:49:54.000Z</time>
      </trkpt>
      <trkpt lon="34.67348204925656" lat="30.527732139453292">
        <ele>753.4000244140625</ele>
        <time>2014-11-28T08:49:55.000Z</time>
      </trkpt>
      <trkpt lon="34.673508536070585" lat="30.527698611840606">
        <ele>753.2000122070312</ele>
        <time>2014-11-28T08:49:57.000Z</time>
      </trkpt>
      <trkpt lon="34.67353066429496" lat="30.52769643254578">
        <ele>753.0</ele>
        <time>2014-11-28T08:49:58.000Z</time>
      </trkpt>
      <trkpt lon="34.673554552719" lat="30.527696181088686">
        <ele>753.0</ele>
        <time>2014-11-28T08:49:59.000Z</time>
      </trkpt>
      <trkpt lon="34.67357810586691" lat="30.527690900489688">
        <ele>752.7999877929688</ele>
        <time>2014-11-28T08:50:00.000Z</time>
      </trkpt>
      <trkpt lon="34.673598390072584" lat="30.52768017165363">
        <ele>752.5999755859375</ele>
        <time>2014-11-28T08:50:01.000Z</time>
      </trkpt>
      <trkpt lon="34.67361188493669" lat="30.527670281007886">
        <ele>752.4000244140625</ele>
        <time>2014-11-28T08:50:02.000Z</time>
      </trkpt>
      <trkpt lon="34.673623871058226" lat="30.527659384533763">
        <ele>752.4000244140625</ele>
        <time>2014-11-28T08:50:07.000Z</time>
      </trkpt>
      <trkpt lon="34.673638036474586" lat="30.52761387079954">
        <ele>752.0</ele>
        <time>2014-11-28T08:50:14.000Z</time>
      </trkpt>
      <trkpt lon="34.67365295626223" lat="30.527531895786524">
        <ele>751.2000122070312</ele>
        <time>2014-11-28T08:50:23.000Z</time>
      </trkpt>
      <trkpt lon="34.67363292351365" lat="30.52752527408302">
        <ele>751.2000122070312</ele>
        <time>2014-11-28T08:50:29.000Z</time>
      </trkpt>
      <trkpt lon="34.673623368144035" lat="30.52750096656382">
        <ele>751.0</ele>
        <time>2014-11-28T08:50:37.000Z</time>
      </trkpt>
      <trkpt lon="34.67361959628761" lat="30.527449334040284">
        <ele>750.5999755859375</ele>
        <time>2014-11-28T08:50:46.000Z</time>
      </trkpt>
      <trkpt lon="34.67361775226891" lat="30.527443131431937">
        <ele>750.5999755859375</ele>
        <time>2014-11-28T08:50:47.000Z</time>
      </trkpt>
      <trkpt lon="34.673617919906974" lat="30.527430223301053">
        <ele>750.4000244140625</ele>
        <time>2014-11-28T08:50:48.000Z</time>
      </trkpt>
      <trkpt lon="34.67365991324186" lat="30.52738370373845">
        <ele>750.0</ele>
        <time>2014-11-28T08:50:55.000Z</time>
      </trkpt>
      <trkpt lon="34.67368137091398" lat="30.527349840849638">
        <ele>749.5999755859375</ele>
        <time>2014-11-28T08:51:03.000Z</time>
      </trkpt>
      <trkpt lon="34.673722609877586" lat="30.527321007102728">
        <ele>749.5999755859375</ele>
        <time>2014-11-28T08:51:11.000Z</time>
      </trkpt>
      <trkpt lon="34.673748509958386" lat="30.527288988232613">
        <ele>749.4000244140625</ele>
        <time>2014-11-28T08:51:20.000Z</time>
      </trkpt>
      <trkpt lon="34.67375907115638" lat="30.52728890441358">
        <ele>749.5999755859375</ele>
        <time>2014-11-28T08:51:28.000Z</time>
      </trkpt>
      <trkpt lon="34.67376133427024" lat="30.527269123122096">
        <ele>749.4000244140625</ele>
        <time>2014-11-28T08:51:36.000Z</time>
      </trkpt>
      <trkpt lon="34.673765609040856" lat="30.527276415377855">
        <ele>749.5999755859375</ele>
        <time>2014-11-28T08:51:43.000Z</time>
      </trkpt>
      <trkpt lon="34.67378136701882" lat="30.52725805900991">
        <ele>749.5999755859375</ele>
        <time>2014-11-28T08:51:47.000Z</time>
      </trkpt>
      <trkpt lon="34.67378597706556" lat="30.52724934183061">
        <ele>749.4000244140625</ele>
        <time>2014-11-28T08:51:48.000Z</time>
      </trkpt>
      <trkpt lon="34.67379134148359" lat="30.527240708470345">
        <ele>749.2000122070312</ele>
        <time>2014-11-28T08:51:49.000Z</time>
      </trkpt>
      <trkpt lon="34.67379938811064" lat="30.52722293883562">
        <ele>748.7999877929688</ele>
        <time>2014-11-28T08:51:50.000Z</time>
      </trkpt>
      <trkpt lon="34.67381112277508" lat="30.5272067617625">
        <ele>748.4000244140625</ele>
        <time>2014-11-28T08:51:51.000Z</time>
      </trkpt>
      <trkpt lon="34.6738288924098" lat="30.527188908308744">
        <ele>748.0</ele>
        <time>2014-11-28T08:51:52.000Z</time>
      </trkpt>
      <trkpt lon="34.673843728378415" lat="30.52717105485499">
        <ele>747.5999755859375</ele>
        <time>2014-11-28T08:51:53.000Z</time>
      </trkpt>
      <trkpt lon="34.6738566365093" lat="30.527155129238963">
        <ele>747.5999755859375</ele>
        <time>2014-11-28T08:51:54.000Z</time>
      </trkpt>
      <trkpt lon="34.67387138865888" lat="30.527137024328113">
        <ele>747.5999755859375</ele>
        <time>2014-11-28T08:51:55.000Z</time>
      </trkpt>
      <trkpt lon="34.673885805532336" lat="30.527118416503072">
        <ele>747.5999755859375</ele>
        <time>2014-11-28T08:51:56.000Z</time>
      </trkpt>
      <trkpt lon="34.67399292625487" lat="30.526916664093733">
        <ele>747.5999755859375</ele>
        <time>2014-11-28T08:52:05.000Z</time>
      </trkpt>
      <trkpt lon="34.674139274284244" lat="30.526681132614613">
        <ele>747.5999755859375</ele>
        <time>2014-11-28T08:52:12.000Z</time>
      </trkpt>
      <trkpt lon="34.67427531257272" lat="30.526549788191915">
        <ele>747.4000244140625</ele>
        <time>2014-11-28T08:52:18.000Z</time>
      </trkpt>
      <trkpt lon="34.674395844340324" lat="30.52641852758825">
        <ele>747.2000122070312</ele>
        <time>2014-11-28T08:52:26.000Z</time>
      </trkpt>
      <trkpt lon="34.674450159072876" lat="30.526256756857038">
        <ele>746.7999877929688</ele>
        <time>2014-11-28T08:52:34.000Z</time>
      </trkpt>
      <trkpt lon="34.674502881243825" lat="30.52609716542065">
        <ele>745.7999877929688</ele>
        <time>2014-11-28T08:52:40.000Z</time>
      </trkpt>
      <trkpt lon="34.67461352236569" lat="30.52593883126974">
        <ele>744.4000244140625</ele>
        <time>2014-11-28T08:52:46.000Z</time>
      </trkpt>
      <trkpt lon="34.67471335083246" lat="30.525743700563908">
        <ele>742.7999877929688</ele>
        <time>2014-11-28T08:52:52.000Z</time>
      </trkpt>
      <trkpt lon="34.674930945038795" lat="30.525543373078108">
        <ele>743.0</ele>
        <time>2014-11-28T08:53:00.000Z</time>
      </trkpt>
      <trkpt lon="34.675114173442125" lat="30.525423428043723">
        <ele>743.0</ele>
        <time>2014-11-28T08:53:07.000Z</time>
      </trkpt>
      <trkpt lon="34.67516186647117" lat="30.525402557104826">
        <ele>742.7999877929688</ele>
        <time>2014-11-28T08:53:11.000Z</time>
      </trkpt>
      <trkpt lon="34.6751603577286" lat="30.525380596518517">
        <ele>742.7999877929688</ele>
        <time>2014-11-28T08:53:32.000Z</time>
      </trkpt>
      <trkpt lon="34.675151808187366" lat="30.525407334789634">
        <ele>742.7999877929688</ele>
        <time>2014-11-28T08:53:52.000Z</time>
      </trkpt>
      <trkpt lon="34.67515021562576" lat="30.525408256798983">
        <ele>742.7999877929688</ele>
        <time>2014-11-28T08:54:15.000Z</time>
      </trkpt>
      <trkpt lon="34.67515549622476" lat="30.525394594296813">
        <ele>742.7999877929688</ele>
        <time>2014-11-28T08:54:42.000Z</time>
      </trkpt>
      <trkpt lon="34.675175277516246" lat="30.52540121600032">
        <ele>742.7999877929688</ele>
        <time>2014-11-28T08:54:52.000Z</time>
      </trkpt>
      <trkpt lon="34.67518835328519" lat="30.525405826047063">
        <ele>742.7999877929688</ele>
        <time>2014-11-28T08:54:53.000Z</time>
      </trkpt>
      <trkpt lon="34.675203524529934" lat="30.525418985635042">
        <ele>742.7999877929688</ele>
        <time>2014-11-28T08:54:54.000Z</time>
      </trkpt>
      <trkpt lon="34.67521316371858" lat="30.52544279024005">
        <ele>743.0</ele>
        <time>2014-11-28T08:54:55.000Z</time>
      </trkpt>
      <trkpt lon="34.67522255145013" lat="30.525457793846726">
        <ele>743.0</ele>
        <time>2014-11-28T08:54:56.000Z</time>
      </trkpt>
      <trkpt lon="34.67523395083845" lat="30.5254764854908">
        <ele>743.0</ele>
        <time>2014-11-28T08:54:57.000Z</time>
      </trkpt>
      <trkpt lon="34.67525037936866" lat="30.525491992011666">
        <ele>743.0</ele>
        <time>2014-11-28T08:54:58.000Z</time>
      </trkpt>
      <trkpt lon="34.67526940628886" lat="30.52550590597093">
        <ele>743.0</ele>
        <time>2014-11-28T08:54:59.000Z</time>
      </trkpt>
      <trkpt lon="34.6754056122154" lat="30.52563431672752">
        <ele>742.4000244140625</ele>
        <time>2014-11-28T08:55:07.000Z</time>
      </trkpt>
      <trkpt lon="34.67556201852858" lat="30.525771277025342">
        <ele>741.2000122070312</ele>
        <time>2014-11-28T08:55:15.000Z</time>
      </trkpt>
      <trkpt lon="34.675761172547936" lat="30.525891054421663">
        <ele>739.7999877929688</ele>
        <time>2014-11-28T08:55:22.000Z</time>
      </trkpt>
      <trkpt lon="34.67592512257397" lat="30.52594369277358">
        <ele>739.0</ele>
        <time>2014-11-28T08:55:28.000Z</time>
      </trkpt>
      <trkpt lon="34.67618294991553" lat="30.526042012497783">
        <ele>737.7999877929688</ele>
        <time>2014-11-28T08:55:38.000Z</time>
      </trkpt>
      <trkpt lon="34.676445135846734" lat="30.526131950318813">
        <ele>736.5999755859375</ele>
        <time>2014-11-28T08:55:47.000Z</time>
      </trkpt>
      <trkpt lon="34.67661579139531" lat="30.52623236551881">
        <ele>735.5999755859375</ele>
        <time>2014-11-28T08:55:55.000Z</time>
      </trkpt>
      <trkpt lon="34.676634818315506" lat="30.52624024450779">
        <ele>735.5999755859375</ele>
        <time>2014-11-28T08:55:57.000Z</time>
      </trkpt>
      <trkpt lon="34.676651330664754" lat="30.52624812349677">
        <ele>735.4000244140625</ele>
        <time>2014-11-28T08:55:58.000Z</time>
      </trkpt>
      <trkpt lon="34.6766696870327" lat="30.52625784650445">
        <ele>735.4000244140625</ele>
        <time>2014-11-28T08:55:59.000Z</time>
      </trkpt>
      <trkpt lon="34.67669022269547" lat="30.526268742978573">
        <ele>735.2000122070312</ele>
        <time>2014-11-28T08:56:00.000Z</time>
      </trkpt>
      <trkpt lon="34.676710506901145" lat="30.52628031000495">
        <ele>735.2000122070312</ele>
        <time>2014-11-28T08:56:01.000Z</time>
      </trkpt>
      <trkpt lon="34.6767299529165" lat="30.526289278641343">
        <ele>735.0</ele>
        <time>2014-11-28T08:56:02.000Z</time>
      </trkpt>
      <trkpt lon="34.67683690600097" lat="30.526352897286415">
        <ele>734.4000244140625</ele>
        <time>2014-11-28T08:56:09.000Z</time>
      </trkpt>
      <trkpt lon="34.677081825211644" lat="30.526377204805613">
        <ele>733.7999877929688</ele>
        <time>2014-11-28T08:56:15.000Z</time>
      </trkpt>
      <trkpt lon="34.67718333005905" lat="30.526397237554193">
        <ele>733.5999755859375</ele>
        <time>2014-11-28T08:56:17.000Z</time>
      </trkpt>
      <trkpt lon="34.677283242344856" lat="30.526432525366545">
        <ele>733.2000122070312</ele>
        <time>2014-11-28T08:56:19.000Z</time>
      </trkpt>
      <trkpt lon="34.677327163517475" lat="30.52646404132247">
        <ele>733.2000122070312</ele>
        <time>2014-11-28T08:56:20.000Z</time>
      </trkpt>
      <trkpt lon="34.677580799907446" lat="30.52671667188406">
        <ele>732.2000122070312</ele>
        <time>2014-11-28T08:56:27.000Z</time>
      </trkpt>
      <trkpt lon="34.677727902308106" lat="30.526844412088394">
        <ele>731.7999877929688</ele>
        <time>2014-11-28T08:56:32.000Z</time>
      </trkpt>
      <trkpt lon="34.677919847890735" lat="30.52697760052979">
        <ele>731.0</ele>
        <time>2014-11-28T08:56:37.000Z</time>
      </trkpt>
      <trkpt lon="34.677976006641984" lat="30.527005596086383">
        <ele>731.0</ele>
        <time>2014-11-28T08:56:38.000Z</time>
      </trkpt>
      <trkpt lon="34.67808430083096" lat="30.527058904990554">
        <ele>730.5999755859375</ele>
        <time>2014-11-28T08:56:40.000Z</time>
      </trkpt>
      <trkpt lon="34.678125120699406" lat="30.52708455361426">
        <ele>730.4000244140625</ele>
        <time>2014-11-28T08:56:41.000Z</time>
      </trkpt>
      <trkpt lon="34.67816292308271" lat="30.527109866961837">
        <ele>730.4000244140625</ele>
        <time>2014-11-28T08:56:42.000Z</time>
      </trkpt>
      <trkpt lon="34.67836618423462" lat="30.52730843424797">
        <ele>729.2000122070312</ele>
        <time>2014-11-28T08:56:49.000Z</time>
      </trkpt>
      <trkpt lon="34.678473975509405" lat="30.527429888024926">
        <ele>728.5999755859375</ele>
        <time>2014-11-28T08:56:53.000Z</time>
      </trkpt>
      <trkpt lon="34.678668938577175" lat="30.52766013890505">
        <ele>727.4000244140625</ele>
        <time>2014-11-28T08:56:58.000Z</time>
      </trkpt>
      <trkpt lon="34.678948977962136" lat="30.52799290046096">
        <ele>725.7999877929688</ele>
        <time>2014-11-28T08:57:04.000Z</time>
      </trkpt>
      <trkpt lon="34.679069090634584" lat="30.528157353401184">
        <ele>725.2000122070312</ele>
        <time>2014-11-28T08:57:07.000Z</time>
      </trkpt>
      <trkpt lon="34.679352063685656" lat="30.528478799387813">
        <ele>724.0</ele>
        <time>2014-11-28T08:57:14.000Z</time>
      </trkpt>
      <trkpt lon="34.67938265763223" lat="30.528526240959764">
        <ele>724.0</ele>
        <time>2014-11-28T08:57:15.000Z</time>
      </trkpt>
      <trkpt lon="34.67940939590335" lat="30.528570748865604">
        <ele>723.7999877929688</ele>
        <time>2014-11-28T08:57:16.000Z</time>
      </trkpt>
      <trkpt lon="34.67960067093372" lat="30.5288490280509">
        <ele>723.0</ele>
        <time>2014-11-28T08:57:22.000Z</time>
      </trkpt>
      <trkpt lon="34.67975297011435" lat="30.529052708297968">
        <ele>722.4000244140625</ele>
        <time>2014-11-28T08:57:28.000Z</time>
      </trkpt>
      <trkpt lon="34.679870987311006" lat="30.5292203463614">
        <ele>722.2000122070312</ele>
        <time>2014-11-28T08:57:33.000Z</time>
      </trkpt>
      <trkpt lon="34.67993091791868" lat="30.52933140657842">
        <ele>722.2000122070312</ele>
        <time>2014-11-28T08:57:36.000Z</time>
      </trkpt>
      <trkpt lon="34.67994055710733" lat="30.529368286952376">
        <ele>722.4000244140625</ele>
        <time>2014-11-28T08:57:37.000Z</time>
      </trkpt>
      <trkpt lon="34.67994499951601" lat="30.529401563107967">
        <ele>722.4000244140625</ele>
        <time>2014-11-28T08:57:38.000Z</time>
      </trkpt>
      <trkpt lon="34.68000987544656" lat="30.529518239200115">
        <ele>722.4000244140625</ele>
        <time>2014-11-28T08:57:43.000Z</time>
      </trkpt>
      <trkpt lon="34.68009436503053" lat="30.529662240296602">
        <ele>722.2000122070312</ele>
        <time>2014-11-28T08:57:50.000Z</time>
      </trkpt>
      <trkpt lon="34.68016200698912" lat="30.529813952744007">
        <ele>722.2000122070312</ele>
        <time>2014-11-28T08:57:58.000Z</time>
      </trkpt>
      <trkpt lon="34.680319586768746" lat="30.530027355998755">
        <ele>721.5999755859375</ele>
        <time>2014-11-28T08:58:08.000Z</time>
      </trkpt>
      <trkpt lon="34.68048848211765" lat="30.530268754810095">
        <ele>721.7999877929688</ele>
        <time>2014-11-28T08:58:16.000Z</time>
      </trkpt>
      <trkpt lon="34.680659640580416" lat="30.530592799186707">
        <ele>721.7999877929688</ele>
        <time>2014-11-28T08:58:25.000Z</time>
      </trkpt>
      <trkpt lon="34.680689480155706" lat="30.53062716498971">
        <ele>721.7999877929688</ele>
        <time>2014-11-28T08:58:26.000Z</time>
      </trkpt>
      <trkpt lon="34.68082074075937" lat="30.530755324289203">
        <ele>721.5999755859375</ele>
        <time>2014-11-28T08:58:30.000Z</time>
      </trkpt>
      <trkpt lon="34.68112207017839" lat="30.531001752242446">
        <ele>721.4000244140625</ele>
        <time>2014-11-28T08:58:38.000Z</time>
      </trkpt>
      <trkpt lon="34.681206392124295" lat="30.531080961227417">
        <ele>721.2000122070312</ele>
        <time>2014-11-28T08:58:40.000Z</time>
      </trkpt>
      <trkpt lon="34.681359361857176" lat="30.531252706423402">
        <ele>721.0</ele>
        <time>2014-11-28T08:58:44.000Z</time>
      </trkpt>
      <trkpt lon="34.6814133413136" lat="30.53128246217966">
        <ele>720.7999877929688</ele>
        <time>2014-11-28T08:58:45.000Z</time>
      </trkpt>
      <trkpt lon="34.681525994092226" lat="30.531331161037087">
        <ele>720.5999755859375</ele>
        <time>2014-11-28T08:58:47.000Z</time>
      </trkpt>
      <trkpt lon="34.68157611787319" lat="30.53136602975428">
        <ele>720.4000244140625</ele>
        <time>2014-11-28T08:58:48.000Z</time>
      </trkpt>
      <trkpt lon="34.6816638763994" lat="30.531443394720554">
        <ele>720.0</ele>
        <time>2014-11-28T08:58:50.000Z</time>
      </trkpt>
      <trkpt lon="34.68169773928821" lat="30.531486477702856">
        <ele>719.7999877929688</ele>
        <time>2014-11-28T08:58:51.000Z</time>
      </trkpt>
      <trkpt lon="34.68172405846417" lat="30.53153157234192">
        <ele>719.5999755859375</ele>
        <time>2014-11-28T08:58:52.000Z</time>
      </trkpt>
      <trkpt lon="34.681750293821096" lat="30.53157649934292">
        <ele>719.4000244140625</ele>
        <time>2014-11-28T08:58:53.000Z</time>
      </trkpt>
      <trkpt lon="34.68178189359605" lat="30.53162100724876">
        <ele>719.2000122070312</ele>
        <time>2014-11-28T08:58:54.000Z</time>
      </trkpt>
      <trkpt lon="34.681822964921594" lat="30.53166308440268">
        <ele>719.0</ele>
        <time>2014-11-28T08:58:55.000Z</time>
      </trkpt>
      <trkpt lon="34.681869400665164" lat="30.531701389700174">
        <ele>718.7999877929688</ele>
        <time>2014-11-28T08:58:56.000Z</time>
      </trkpt>
      <trkpt lon="34.68191449530423" lat="30.531736174598336">
        <ele>718.7999877929688</ele>
        <time>2014-11-28T08:58:57.000Z</time>
      </trkpt>
      <trkpt lon="34.68195917084813" lat="30.531767355278134">
        <ele>718.5999755859375</ele>
        <time>2014-11-28T08:58:58.000Z</time>
      </trkpt>
      <trkpt lon="34.682000912725925" lat="30.531796859577298">
        <ele>718.4000244140625</ele>
        <time>2014-11-28T08:58:59.000Z</time>
      </trkpt>
      <trkpt lon="34.68203234486282" lat="30.53182535804808">
        <ele>718.2000122070312</ele>
        <time>2014-11-28T08:59:00.000Z</time>
      </trkpt>
      <trkpt lon="34.6820558141917" lat="30.531854862347245">
        <ele>718.2000122070312</ele>
        <time>2014-11-28T08:59:01.000Z</time>
      </trkpt>
      <trkpt lon="34.682162180542946" lat="30.531948069110513">
        <ele>718.4000244140625</ele>
        <time>2014-11-28T08:59:06.000Z</time>
      </trkpt>
      <trkpt lon="34.682346833869815" lat="30.53207396529615">
        <ele>718.7999877929688</ele>
        <time>2014-11-28T08:59:15.000Z</time>
      </trkpt>
      <trkpt lon="34.682477340102196" lat="30.532262809574604">
        <ele>718.7999877929688</ele>
        <time>2014-11-28T08:59:22.000Z</time>
      </trkpt>
      <trkpt lon="34.68258831650019" lat="30.532601606100798">
        <ele>717.5999755859375</ele>
        <time>2014-11-28T08:59:31.000Z</time>
      </trkpt>
      <trkpt lon="34.68262259848416" lat="30.53278600797057">
        <ele>717.0</ele>
        <time>2014-11-28T08:59:35.000Z</time>
      </trkpt>
      <trkpt lon="34.68264455907047" lat="30.53301709704101">
        <ele>716.2000122070312</ele>
        <time>2014-11-28T08:59:40.000Z</time>
      </trkpt>
      <trkpt lon="34.68275712803006" lat="30.533383302390575">
        <ele>714.4000244140625</ele>
        <time>2014-11-28T08:59:47.000Z</time>
      </trkpt>
      <trkpt lon="34.68280632980168" lat="30.53347491659224">
        <ele>714.0</ele>
        <time>2014-11-28T08:59:49.000Z</time>
      </trkpt>
      <trkpt lon="34.68295259401202" lat="30.533752273768187">
        <ele>713.0</ele>
        <time>2014-11-28T08:59:56.000Z</time>
      </trkpt>
      <trkpt lon="34.68295292928815" lat="30.533795189112425">
        <ele>712.5999755859375</ele>
        <time>2014-11-28T08:59:57.000Z</time>
      </trkpt>
      <trkpt lon="34.68291521072388" lat="30.533913290128112">
        <ele>712.0</ele>
        <time>2014-11-28T09:00:00.000Z</time>
      </trkpt>
      <trkpt lon="34.682901464402676" lat="30.533951176330447">
        <ele>712.0</ele>
        <time>2014-11-28T09:00:01.000Z</time>
      </trkpt>
      <trkpt lon="34.682910181581974" lat="30.534080006182194">
        <ele>711.7999877929688</ele>
        <time>2014-11-28T09:00:05.000Z</time>
      </trkpt>
      <trkpt lon="34.68292652629316" lat="30.534154940396547">
        <ele>711.7999877929688</ele>
        <time>2014-11-28T09:00:07.000Z</time>
      </trkpt>
      <trkpt lon="34.68296726234257" lat="30.534491976723075">
        <ele>711.5999755859375</ele>
        <time>2014-11-28T09:00:14.000Z</time>
      </trkpt>
      <trkpt lon="34.683036329224706" lat="30.534867821261287">
        <ele>710.5999755859375</ele>
        <time>2014-11-28T09:00:23.000Z</time>
      </trkpt>
      <trkpt lon="34.68314353376627" lat="30.535151129588485">
        <ele>709.7999877929688</ele>
        <time>2014-11-28T09:00:29.000Z</time>
      </trkpt>
      <trkpt lon="34.683154094964266" lat="30.535198906436563">
        <ele>709.7999877929688</ele>
        <time>2014-11-28T09:00:30.000Z</time>
      </trkpt>
      <trkpt lon="34.68328569084406" lat="30.53561758249998">
        <ele>709.2000122070312</ele>
        <time>2014-11-28T09:00:38.000Z</time>
      </trkpt>
      <trkpt lon="34.68331351876259" lat="30.535666197538376">
        <ele>709.2000122070312</ele>
        <time>2014-11-28T09:00:39.000Z</time>
      </trkpt>
      <trkpt lon="34.683633372187614" lat="30.53606852889061">
        <ele>709.5999755859375</ele>
        <time>2014-11-28T09:00:48.000Z</time>
      </trkpt>
      <trkpt lon="34.68399270437658" lat="30.536452503874898">
        <ele>710.2000122070312</ele>
        <time>2014-11-28T09:00:56.000Z</time>
      </trkpt>
      <trkpt lon="34.68438958749175" lat="30.536763975396752">
        <ele>711.4000244140625</ele>
        <time>2014-11-28T09:01:03.000Z</time>
      </trkpt>
      <trkpt lon="34.68461195938289" lat="30.536922058090568">
        <ele>711.5999755859375</ele>
        <time>2014-11-28T09:01:08.000Z</time>
      </trkpt>
      <trkpt lon="34.684699634090066" lat="30.536983078345656">
        <ele>711.2000122070312</ele>
        <time>2014-11-28T09:01:10.000Z</time>
      </trkpt>
      <trkpt lon="34.68474078923464" lat="30.53701492957771">
        <ele>711.0</ele>
        <time>2014-11-28T09:01:11.000Z</time>
      </trkpt>
      <trkpt lon="34.68477766960859" lat="30.53703999146819">
        <ele>711.0</ele>
        <time>2014-11-28T09:01:12.000Z</time>
      </trkpt>
      <trkpt lon="34.68487816862762" lat="30.537097491323948">
        <ele>710.5999755859375</ele>
        <time>2014-11-28T09:01:15.000Z</time>
      </trkpt>
      <trkpt lon="34.684894513338804" lat="30.537125067785382">
        <ele>710.5999755859375</ele>
        <time>2014-11-28T09:01:16.000Z</time>
      </trkpt>
      <trkpt lon="34.68490465544164" lat="30.537152644246817">
        <ele>710.7999877929688</ele>
        <time>2014-11-28T09:01:17.000Z</time>
      </trkpt>
      <trkpt lon="34.68493013642728" lat="30.53721492178738">
        <ele>710.7999877929688</ele>
        <time>2014-11-28T09:01:19.000Z</time>
      </trkpt>
      <trkpt lon="34.684952180832624" lat="30.53724518045783">
        <ele>710.7999877929688</ele>
        <time>2014-11-28T09:01:20.000Z</time>
      </trkpt>
      <trkpt lon="34.684980595484376" lat="30.5372657161206">
        <ele>710.7999877929688</ele>
        <time>2014-11-28T09:01:21.000Z</time>
      </trkpt>
      <trkpt lon="34.685012781992555" lat="30.53727929480374">
        <ele>710.5999755859375</ele>
        <time>2014-11-28T09:01:22.000Z</time>
      </trkpt>
      <trkpt lon="34.68504815362394" lat="30.53728616796434">
        <ele>710.4000244140625</ele>
        <time>2014-11-28T09:01:23.000Z</time>
      </trkpt>
      <trkpt lon="34.68508570455015" lat="30.53729061037302">
        <ele>710.0</ele>
        <time>2014-11-28T09:01:24.000Z</time>
      </trkpt>
      <trkpt lon="34.6851278655231" lat="30.537291867658496">
        <ele>709.5999755859375</ele>
        <time>2014-11-28T09:01:25.000Z</time>
      </trkpt>
      <trkpt lon="34.68521780334413" lat="30.537298154085875">
        <ele>709.0</ele>
        <time>2014-11-28T09:01:27.000Z</time>
      </trkpt>
      <trkpt lon="34.68526457436383" lat="30.537321120500565">
        <ele>708.7999877929688</ele>
        <time>2014-11-28T09:01:28.000Z</time>
      </trkpt>
      <trkpt lon="34.68530824407935" lat="30.537352887913585">
        <ele>708.5999755859375</ele>
        <time>2014-11-28T09:01:29.000Z</time>
      </trkpt>
      <trkpt lon="34.68562046997249" lat="30.53760233335197">
        <ele>707.4000244140625</ele>
        <time>2014-11-28T09:01:38.000Z</time>
      </trkpt>
      <trkpt lon="34.68609061092138" lat="30.537908859550953">
        <ele>705.4000244140625</ele>
        <time>2014-11-28T09:01:48.000Z</time>
      </trkpt>
      <trkpt lon="34.68654348514974" lat="30.53819451481104">
        <ele>704.7999877929688</ele>
        <time>2014-11-28T09:01:57.000Z</time>
      </trkpt>
      <trkpt lon="34.68699543736875" lat="30.53850866854191">
        <ele>704.7999877929688</ele>
        <time>2014-11-28T09:02:05.000Z</time>
      </trkpt>
      <trkpt lon="34.6875281073153" lat="30.538876298815012">
        <ele>703.7999877929688</ele>
        <time>2014-11-28T09:02:14.000Z</time>
      </trkpt>
      <trkpt lon="34.68758233822882" lat="30.538918375968933">
        <ele>703.5999755859375</ele>
        <time>2014-11-28T09:02:15.000Z</time>
      </trkpt>
      <trkpt lon="34.68762776814401" lat="30.538970679044724">
        <ele>703.5999755859375</ele>
        <time>2014-11-28T09:02:16.000Z</time>
      </trkpt>
      <trkpt lon="34.68765668570995" lat="30.539026502519846">
        <ele>703.5999755859375</ele>
        <time>2014-11-28T09:02:17.000Z</time>
      </trkpt>
      <trkpt lon="34.687679233029485" lat="30.5390858463943">
        <ele>703.7999877929688</ele>
        <time>2014-11-28T09:02:18.000Z</time>
      </trkpt>
      <trkpt lon="34.687753580510616" lat="30.539281480014324">
        <ele>704.2000122070312</ele>
        <time>2014-11-28T09:02:22.000Z</time>
      </trkpt>
      <trkpt lon="34.687812086194754" lat="30.539365969598293">
        <ele>704.2000122070312</ele>
        <time>2014-11-28T09:02:24.000Z</time>
      </trkpt>
      <trkpt lon="34.6878513135016" lat="30.539408214390278">
        <ele>704.2000122070312</ele>
        <time>2014-11-28T09:02:25.000Z</time>
      </trkpt>
      <trkpt lon="34.68789339065552" lat="30.539443166926503">
        <ele>704.0</ele>
        <time>2014-11-28T09:02:26.000Z</time>
      </trkpt>
      <trkpt lon="34.68801274895668" lat="30.539540145546198">
        <ele>704.0</ele>
        <time>2014-11-28T09:02:29.000Z</time>
      </trkpt>
      <trkpt lon="34.688042337074876" lat="30.539579456672072">
        <ele>704.0</ele>
        <time>2014-11-28T09:02:30.000Z</time>
      </trkpt>
      <trkpt lon="34.68820217996836" lat="30.539896711707115">
        <ele>703.7999877929688</ele>
        <time>2014-11-28T09:02:38.000Z</time>
      </trkpt>
      <trkpt lon="34.68832237645984" lat="30.540096033364534">
        <ele>703.4000244140625</ele>
        <time>2014-11-28T09:02:45.000Z</time>
      </trkpt>
      <trkpt lon="34.68853418715298" lat="30.54017147049308">
        <ele>702.5999755859375</ele>
        <time>2014-11-28T09:02:51.000Z</time>
      </trkpt>
      <trkpt lon="34.688824117183685" lat="30.540238358080387">
        <ele>701.5999755859375</ele>
        <time>2014-11-28T09:02:57.000Z</time>
      </trkpt>
      <trkpt lon="34.68931680545211" lat="30.54029761813581">
        <ele>700.5999755859375</ele>
        <time>2014-11-28T09:03:06.000Z</time>
      </trkpt>
      <trkpt lon="34.689363492652774" lat="30.540309939533472">
        <ele>700.4000244140625</ele>
        <time>2014-11-28T09:03:07.000Z</time>
      </trkpt>
      <trkpt lon="34.68940791673958" lat="30.54032150655985">
        <ele>700.2000122070312</ele>
        <time>2014-11-28T09:03:08.000Z</time>
      </trkpt>
      <trkpt lon="34.68944018706679" lat="30.540331983938813">
        <ele>700.2000122070312</ele>
        <time>2014-11-28T09:03:09.000Z</time>
      </trkpt>
      <trkpt lon="34.68947178684175" lat="30.540350005030632">
        <ele>700.2000122070312</ele>
        <time>2014-11-28T09:03:10.000Z</time>
      </trkpt>
      <trkpt lon="34.689504727721214" lat="30.54036450572312">
        <ele>700.0</ele>
        <time>2014-11-28T09:03:11.000Z</time>
      </trkpt>
      <trkpt lon="34.68971846625209" lat="30.540480595082045">
        <ele>699.4000244140625</ele>
        <time>2014-11-28T09:03:17.000Z</time>
      </trkpt>
      <trkpt lon="34.68981578014791" lat="30.540536334738135">
        <ele>699.0</ele>
        <time>2014-11-28T09:03:19.000Z</time>
      </trkpt>
      <trkpt lon="34.68985978513956" lat="30.540575059130788">
        <ele>699.0</ele>
        <time>2014-11-28T09:03:20.000Z</time>
      </trkpt>
      <trkpt lon="34.68989750370383" lat="30.540616884827614">
        <ele>699.0</ele>
        <time>2014-11-28T09:03:21.000Z</time>
      </trkpt>
      <trkpt lon="34.68992667272687" lat="30.54065577685833">
        <ele>699.0</ele>
        <time>2014-11-28T09:03:22.000Z</time>
      </trkpt>
      <trkpt lon="34.689949890598655" lat="30.540696177631617">
        <ele>699.0</ele>
        <time>2014-11-28T09:03:23.000Z</time>
      </trkpt>
      <trkpt lon="34.68996489420533" lat="30.54074127227068">
        <ele>699.0</ele>
        <time>2014-11-28T09:03:24.000Z</time>
      </trkpt>
      <trkpt lon="34.68997302465141" lat="30.540790557861328">
        <ele>699.0</ele>
        <time>2014-11-28T09:03:25.000Z</time>
      </trkpt>
      <trkpt lon="34.68997369520366" lat="30.5408438667655">
        <ele>699.2000122070312</ele>
        <time>2014-11-28T09:03:26.000Z</time>
      </trkpt>
      <trkpt lon="34.68997755087912" lat="30.540953753516078">
        <ele>699.4000244140625</ele>
        <time>2014-11-28T09:03:28.000Z</time>
      </trkpt>
      <trkpt lon="34.68999641016126" lat="30.541002117097378">
        <ele>699.5999755859375</ele>
        <time>2014-11-28T09:03:29.000Z</time>
      </trkpt>
      <trkpt lon="34.69012800604105" lat="30.54117235355079">
        <ele>699.7999877929688</ele>
        <time>2014-11-28T09:03:34.000Z</time>
      </trkpt>
      <trkpt lon="34.69030788168311" lat="30.541327251121402">
        <ele>699.4000244140625</ele>
        <time>2014-11-28T09:03:41.000Z</time>
      </trkpt>
      <trkpt lon="34.69046177342534" lat="30.541538475081325">
        <ele>699.2000122070312</ele>
        <time>2014-11-28T09:03:48.000Z</time>
      </trkpt>
      <trkpt lon="34.69061558134854" lat="30.54170787334442">
        <ele>698.7999877929688</ele>
        <time>2014-11-28T09:03:55.000Z</time>
      </trkpt>
      <trkpt lon="34.69081926159561" lat="30.542006269097328">
        <ele>698.5999755859375</ele>
        <time>2014-11-28T09:04:03.000Z</time>
      </trkpt>
      <trkpt lon="34.690873157233" lat="30.542101319879293">
        <ele>698.5999755859375</ele>
        <time>2014-11-28T09:04:05.000Z</time>
      </trkpt>
      <trkpt lon="34.69091707840562" lat="30.542250433936715">
        <ele>698.7999877929688</ele>
        <time>2014-11-28T09:04:08.000Z</time>
      </trkpt>
      <trkpt lon="34.69099435955286" lat="30.542583111673594">
        <ele>698.4000244140625</ele>
        <time>2014-11-28T09:04:15.000Z</time>
      </trkpt>
      <trkpt lon="34.69105211086571" lat="30.54270406253636">
        <ele>698.0</ele>
        <time>2014-11-28T09:04:18.000Z</time>
      </trkpt>
      <trkpt lon="34.69107641838491" lat="30.542746391147375">
        <ele>697.7999877929688</ele>
        <time>2014-11-28T09:04:19.000Z</time>
      </trkpt>
      <trkpt lon="34.69113182276487" lat="30.542839178815484">
        <ele>697.4000244140625</ele>
        <time>2014-11-28T09:04:21.000Z</time>
      </trkpt>
      <trkpt lon="34.69116644002497" lat="30.54288192652166">
        <ele>697.2000122070312</ele>
        <time>2014-11-28T09:04:22.000Z</time>
      </trkpt>
      <trkpt lon="34.69120684079826" lat="30.54292257875204">
        <ele>696.7999877929688</ele>
        <time>2014-11-28T09:04:23.000Z</time>
      </trkpt>
      <trkpt lon="34.69125025905669" lat="30.542957447469234">
        <ele>696.5999755859375</ele>
        <time>2014-11-28T09:04:24.000Z</time>
      </trkpt>
      <trkpt lon="34.69129686243832" lat="30.542993238195777">
        <ele>696.2000122070312</ele>
        <time>2014-11-28T09:04:25.000Z</time>
      </trkpt>
      <trkpt lon="34.69134262762964" lat="30.54303104057908">
        <ele>695.7999877929688</ele>
        <time>2014-11-28T09:04:26.000Z</time>
      </trkpt>
      <trkpt lon="34.691383028402925" lat="30.54307202808559">
        <ele>695.5999755859375</ele>
        <time>2014-11-28T09:04:27.000Z</time>
      </trkpt>
      <trkpt lon="34.691411862149835" lat="30.543114440515637">
        <ele>695.5999755859375</ele>
        <time>2014-11-28T09:04:28.000Z</time>
      </trkpt>
      <trkpt lon="34.691457292065024" lat="30.543204797431827">
        <ele>695.5999755859375</ele>
        <time>2014-11-28T09:04:30.000Z</time>
      </trkpt>
      <trkpt lon="34.69163507223129" lat="30.543499840423465">
        <ele>695.2000122070312</ele>
        <time>2014-11-28T09:04:36.000Z</time>
      </trkpt>
      <trkpt lon="34.69187865033746" lat="30.543826818466187">
        <ele>694.2000122070312</ele>
        <time>2014-11-28T09:04:44.000Z</time>
      </trkpt>
      <trkpt lon="34.69212465919554" lat="30.544141894206405">
        <ele>694.2000122070312</ele>
        <time>2014-11-28T09:04:53.000Z</time>
      </trkpt>
      <trkpt lon="34.69228911213577" lat="30.544458478689194">
        <ele>695.0</ele>
        <time>2014-11-28T09:05:01.000Z</time>
      </trkpt>
      <trkpt lon="34.69241878017783" lat="30.544611448422074">
        <ele>694.7999877929688</ele>
        <time>2014-11-28T09:05:05.000Z</time>
      </trkpt>
      <trkpt lon="34.69244954176247" lat="30.544644808396697">
        <ele>694.7999877929688</ele>
        <time>2014-11-28T09:05:06.000Z</time>
      </trkpt>
      <trkpt lon="34.69256252981722" lat="30.544802471995354">
        <ele>694.5999755859375</ele>
        <time>2014-11-28T09:05:10.000Z</time>
      </trkpt>
      <trkpt lon="34.69257979653776" lat="30.54484622552991">
        <ele>694.5999755859375</ele>
        <time>2014-11-28T09:05:11.000Z</time>
      </trkpt>
      <trkpt lon="34.692636374384165" lat="30.545136909931898">
        <ele>695.4000244140625</ele>
        <time>2014-11-28T09:05:18.000Z</time>
      </trkpt>
      <trkpt lon="34.69276327639818" lat="30.54526993073523">
        <ele>694.7999877929688</ele>
        <time>2014-11-28T09:05:23.000Z</time>
      </trkpt>
      <trkpt lon="34.692798061296344" lat="30.545291556045413">
        <ele>694.5999755859375</ele>
        <time>2014-11-28T09:05:24.000Z</time>
      </trkpt>
      <trkpt lon="34.692813735455275" lat="30.54531242698431">
        <ele>694.5999755859375</ele>
        <time>2014-11-28T09:05:25.000Z</time>
      </trkpt>
      <trkpt lon="34.69281700439751" lat="30.54533338174224">
        <ele>694.5999755859375</ele>
        <time>2014-11-28T09:05:26.000Z</time>
      </trkpt>
      <trkpt lon="34.69281884841621" lat="30.545355593785644">
        <ele>694.7999877929688</ele>
        <time>2014-11-28T09:05:27.000Z</time>
      </trkpt>
      <trkpt lon="34.69281876459718" lat="30.545379566028714">
        <ele>694.7999877929688</ele>
        <time>2014-11-28T09:05:28.000Z</time>
      </trkpt>
      <trkpt lon="34.692822620272636" lat="30.545401526615024">
        <ele>695.0</ele>
        <time>2014-11-28T09:05:29.000Z</time>
      </trkpt>
      <trkpt lon="34.69282873906195" lat="30.54542231373489">
        <ele>695.0</ele>
        <time>2014-11-28T09:05:30.000Z</time>
      </trkpt>
      <trkpt lon="34.692828906700015" lat="30.545443184673786">
        <ele>695.0</ele>
        <time>2014-11-28T09:05:31.000Z</time>
      </trkpt>
      <trkpt lon="34.692813232541084" lat="30.54558995179832">
        <ele>695.5999755859375</ele>
        <time>2014-11-28T09:05:39.000Z</time>
      </trkpt>
      <trkpt lon="34.69277869910002" lat="30.545751554891467">
        <ele>696.4000244140625</ele>
        <time>2014-11-28T09:05:47.000Z</time>
      </trkpt>
      <trkpt lon="34.69277065247297" lat="30.545762702822685">
        <ele>696.5999755859375</ele>
        <time>2014-11-28T09:05:48.000Z</time>
      </trkpt>
      <trkpt lon="34.692755145952106" lat="30.545781645923853">
        <ele>696.7999877929688</ele>
        <time>2014-11-28T09:05:54.000Z</time>
      </trkpt>
      <trkpt lon="34.692769730463624" lat="30.5458240583539">
        <ele>696.7999877929688</ele>
        <time>2014-11-28T09:06:07.000Z</time>
      </trkpt>
      <trkpt lon="34.6927916072309" lat="30.54589044302702">
        <ele>697.2000122070312</ele>
        <time>2014-11-28T09:06:16.000Z</time>
      </trkpt>
      <trkpt lon="34.692802503705025" lat="30.545890694484115">
        <ele>697.0</ele>
        <time>2014-11-28T09:06:24.000Z</time>
      </trkpt>
      <trkpt lon="34.69280292280018" lat="30.545890359207988">
        <ele>697.0</ele>
        <time>2014-11-28T09:06:42.000Z</time>
      </trkpt>
      <trkpt lon="34.6928246319294" lat="30.54593201726675">
        <ele>697.2000122070312</ele>
        <time>2014-11-28T09:06:57.000Z</time>
      </trkpt>
      <trkpt lon="34.69284189864993" lat="30.546014914289117">
        <ele>697.5999755859375</ele>
        <time>2014-11-28T09:07:07.000Z</time>
      </trkpt>
      <trkpt lon="34.69286469742656" lat="30.54606889374554">
        <ele>697.5999755859375</ele>
        <time>2014-11-28T09:07:15.000Z</time>
      </trkpt>
      <trkpt lon="34.692898811772466" lat="30.54613569751382">
        <ele>697.7999877929688</ele>
        <time>2014-11-28T09:07:25.000Z</time>
      </trkpt>
      <trkpt lon="34.69290141016245" lat="30.546142989769578">
        <ele>697.7999877929688</ele>
        <time>2014-11-28T09:07:28.000Z</time>
      </trkpt>
      <trkpt lon="34.69290384091437" lat="30.546156400814652">
        <ele>698.0</ele>
        <time>2014-11-28T09:07:29.000Z</time>
      </trkpt>
      <trkpt lon="34.692910965532064" lat="30.546167800202966">
        <ele>698.0</ele>
        <time>2014-11-28T09:07:30.000Z</time>
      </trkpt>
      <trkpt lon="34.692915827035904" lat="30.54618456400931">
        <ele>698.0</ele>
        <time>2014-11-28T09:07:31.000Z</time>
      </trkpt>
      <trkpt lon="34.69292060472071" lat="30.5462040938437">
        <ele>698.0</ele>
        <time>2014-11-28T09:07:32.000Z</time>
      </trkpt>
      <trkpt lon="34.6929263882339" lat="30.54622563533485">
        <ele>698.2000122070312</ele>
        <time>2014-11-28T09:07:33.000Z</time>
      </trkpt>
      <trkpt lon="34.693016577512026" lat="30.546403247863054">
        <ele>698.2000122070312</ele>
        <time>2014-11-28T09:07:38.000Z</time>
      </trkpt>
      <trkpt lon="34.69305555336177" lat="30.546449599787593">
        <ele>698.0</ele>
        <time>2014-11-28T09:07:39.000Z</time>
      </trkpt>
      <trkpt lon="34.693105006590486" lat="30.546497041359544">
        <ele>697.5999755859375</ele>
        <time>2014-11-28T09:07:40.000Z</time>
      </trkpt>
      <trkpt lon="34.693166026845574" lat="30.546539705246687">
        <ele>697.4000244140625</ele>
        <time>2014-11-28T09:07:41.000Z</time>
      </trkpt>
      <trkpt lon="34.69323366880417" lat="30.546576166525483">
        <ele>697.0</ele>
        <time>2014-11-28T09:07:42.000Z</time>
      </trkpt>
      <trkpt lon="34.69330441206694" lat="30.54661019705236">
        <ele>696.5999755859375</ele>
        <time>2014-11-28T09:07:43.000Z</time>
      </trkpt>
      <trkpt lon="34.69381663016975" lat="30.546827875077724">
        <ele>693.7999877929688</ele>
        <time>2014-11-28T09:07:50.000Z</time>
      </trkpt>
      <trkpt lon="34.6942353900522" lat="30.54700850509107">
        <ele>691.5999755859375</ele>
        <time>2014-11-28T09:07:56.000Z</time>
      </trkpt>
      <trkpt lon="34.694459522143006" lat="30.547119984403253">
        <ele>690.4000244140625</ele>
        <time>2014-11-28T09:08:01.000Z</time>
      </trkpt>
      <trkpt lon="34.694752637296915" lat="30.547157870605588">
        <ele>689.4000244140625</ele>
        <time>2014-11-28T09:08:07.000Z</time>
      </trkpt>
      <trkpt lon="34.69481499865651" lat="30.547164073213935">
        <ele>689.4000244140625</ele>
        <time>2014-11-28T09:08:08.000Z</time>
      </trkpt>
      <trkpt lon="34.694879204034805" lat="30.547177148982882">
        <ele>689.2000122070312</ele>
        <time>2014-11-28T09:08:09.000Z</time>
      </trkpt>
      <trkpt lon="34.694942152127624" lat="30.547201288864017">
        <ele>689.2000122070312</ele>
        <time>2014-11-28T09:08:10.000Z</time>
      </trkpt>
      <trkpt lon="34.69499998725951" lat="30.54723716340959">
        <ele>689.2000122070312</ele>
        <time>2014-11-28T09:08:11.000Z</time>
      </trkpt>
      <trkpt lon="34.69504717737436" lat="30.547280414029956">
        <ele>689.4000244140625</ele>
        <time>2014-11-28T09:08:12.000Z</time>
      </trkpt>
      <trkpt lon="34.695078022778034" lat="30.547326765954494">
        <ele>689.5999755859375</ele>
        <time>2014-11-28T09:08:13.000Z</time>
      </trkpt>
      <trkpt lon="34.69510174356401" lat="30.547369429841638">
        <ele>689.7999877929688</ele>
        <time>2014-11-28T09:08:14.000Z</time>
      </trkpt>
      <trkpt lon="34.695131834596395" lat="30.54740664549172">
        <ele>690.0</ele>
        <time>2014-11-28T09:08:15.000Z</time>
      </trkpt>
      <trkpt lon="34.69517131336033" lat="30.547435143962502">
        <ele>690.0</ele>
        <time>2014-11-28T09:08:16.000Z</time>
      </trkpt>
      <trkpt lon="34.69522378407419" lat="30.54745894856751">
        <ele>690.0</ele>
        <time>2014-11-28T09:08:17.000Z</time>
      </trkpt>
      <trkpt lon="34.69528363086283" lat="30.547479819506407">
        <ele>690.0</ele>
        <time>2014-11-28T09:08:18.000Z</time>
      </trkpt>
      <trkpt lon="34.69534942880273" lat="30.54749314673245">
        <ele>690.0</ele>
        <time>2014-11-28T09:08:19.000Z</time>
      </trkpt>
      <trkpt lon="34.69541204161942" lat="30.54750001989305">
        <ele>689.7999877929688</ele>
        <time>2014-11-28T09:08:20.000Z</time>
      </trkpt>
      <trkpt lon="34.69546836800873" lat="30.547501696273685">
        <ele>689.5999755859375</ele>
        <time>2014-11-28T09:08:21.000Z</time>
      </trkpt>
      <trkpt lon="34.695523269474506" lat="30.547496834769845">
        <ele>689.4000244140625</ele>
        <time>2014-11-28T09:08:22.000Z</time>
      </trkpt>
      <trkpt lon="34.69557724893093" lat="30.54748820140958">
        <ele>689.2000122070312</ele>
        <time>2014-11-28T09:08:23.000Z</time>
      </trkpt>
      <trkpt lon="34.695691242814064" lat="30.547475293278694">
        <ele>688.5999755859375</ele>
        <time>2014-11-28T09:08:25.000Z</time>
      </trkpt>
      <trkpt lon="34.69573901966214" lat="30.547487111762166">
        <ele>688.5999755859375</ele>
        <time>2014-11-28T09:08:26.000Z</time>
      </trkpt>
      <trkpt lon="34.695777241140604" lat="30.547511084005237">
        <ele>688.5999755859375</ele>
        <time>2014-11-28T09:08:27.000Z</time>
      </trkpt>
      <trkpt lon="34.69580506905913" lat="30.547544276341796">
        <ele>688.5999755859375</ele>
        <time>2014-11-28T09:08:28.000Z</time>
      </trkpt>
      <trkpt lon="34.6958327293396" lat="30.54758157581091">
        <ele>688.7999877929688</ele>
        <time>2014-11-28T09:08:29.000Z</time>
      </trkpt>
      <trkpt lon="34.695920906960964" lat="30.547721050679684">
        <ele>689.2000122070312</ele>
        <time>2014-11-28T09:08:34.000Z</time>
      </trkpt>
      <trkpt lon="34.69609273597598" lat="30.54783563129604">
        <ele>689.4000244140625</ele>
        <time>2014-11-28T09:08:41.000Z</time>
      </trkpt>
      <trkpt lon="34.69623891636729" lat="30.547949373722076">
        <ele>689.5999755859375</ele>
        <time>2014-11-28T09:08:48.000Z</time>
      </trkpt>
      <trkpt lon="34.69627923332155" lat="30.548065127804875">
        <ele>690.2000122070312</ele>
        <time>2014-11-28T09:08:55.000Z</time>
      </trkpt>
      <trkpt lon="34.696303037926555" lat="30.54821625351906">
        <ele>691.2000122070312</ele>
        <time>2014-11-28T09:09:02.000Z</time>
      </trkpt>
      <trkpt lon="34.696331368759274" lat="30.548386741429567">
        <ele>692.2000122070312</ele>
        <time>2014-11-28T09:09:09.000Z</time>
      </trkpt>
      <trkpt lon="34.69637964852154" lat="30.54855454713106">
        <ele>693.2000122070312</ele>
        <time>2014-11-28T09:09:19.000Z</time>
      </trkpt>
      <trkpt lon="34.6964318677783" lat="30.548687232658267">
        <ele>694.0</ele>
        <time>2014-11-28T09:09:28.000Z</time>
      </trkpt>
      <trkpt lon="34.69648702070117" lat="30.548806842416525">
        <ele>694.7999877929688</ele>
        <time>2014-11-28T09:09:36.000Z</time>
      </trkpt>
      <trkpt lon="34.69654016196728" lat="30.548950927332044">
        <ele>694.5999755859375</ele>
        <time>2014-11-28T09:09:45.000Z</time>
      </trkpt>
      <trkpt lon="34.696561032906175" lat="30.549078667536378">
        <ele>694.4000244140625</ele>
        <time>2014-11-28T09:09:52.000Z</time>
      </trkpt>
      <trkpt lon="34.69659850001335" lat="30.549231385812163">
        <ele>694.0</ele>
        <time>2014-11-28T09:10:00.000Z</time>
      </trkpt>
      <trkpt lon="34.69666345976293" lat="30.549393072724342">
        <ele>693.5999755859375</ele>
        <time>2014-11-28T09:10:07.000Z</time>
      </trkpt>
      <trkpt lon="34.69678550027311" lat="30.549596082419157">
        <ele>693.0</ele>
        <time>2014-11-28T09:10:17.000Z</time>
      </trkpt>
      <trkpt lon="34.69688231125474" lat="30.54977067746222">
        <ele>692.2000122070312</ele>
        <time>2014-11-28T09:10:24.000Z</time>
      </trkpt>
      <trkpt lon="34.6970294136554" lat="30.549970334395766">
        <ele>691.0</ele>
        <time>2014-11-28T09:10:31.000Z</time>
      </trkpt>
      <trkpt lon="34.697070736438036" lat="30.549996569752693">
        <ele>690.7999877929688</ele>
        <time>2014-11-28T09:10:32.000Z</time>
      </trkpt>
      <trkpt lon="34.69712161459029" lat="30.550020709633827">
        <ele>690.5999755859375</ele>
        <time>2014-11-28T09:10:33.000Z</time>
      </trkpt>
      <trkpt lon="34.69737617298961" lat="30.550118358805776">
        <ele>690.0</ele>
        <time>2014-11-28T09:10:37.000Z</time>
      </trkpt>
      <trkpt lon="34.69744515605271" lat="30.550133613869548">
        <ele>689.7999877929688</ele>
        <time>2014-11-28T09:10:38.000Z</time>
      </trkpt>
      <trkpt lon="34.697514809668064" lat="30.55014308542013">
        <ele>689.7999877929688</ele>
        <time>2014-11-28T09:10:39.000Z</time>
      </trkpt>
      <trkpt lon="34.69758505001664" lat="30.550148114562035">
        <ele>689.7999877929688</ele>
        <time>2014-11-28T09:10:40.000Z</time>
      </trkpt>
      <trkpt lon="34.69765772111714" lat="30.550150964409113">
        <ele>689.7999877929688</ele>
        <time>2014-11-28T09:10:41.000Z</time>
      </trkpt>
      <trkpt lon="34.69781178049743" lat="30.550159765407443">
        <ele>689.5999755859375</ele>
        <time>2014-11-28T09:10:43.000Z</time>
      </trkpt>
      <trkpt lon="34.698098776862025" lat="30.550230089575052">
        <ele>688.4000244140625</ele>
        <time>2014-11-28T09:10:47.000Z</time>
      </trkpt>
      <trkpt lon="34.69815962947905" lat="30.550259593874216">
        <ele>688.2000122070312</ele>
        <time>2014-11-28T09:10:48.000Z</time>
      </trkpt>
      <trkpt lon="34.698417792096734" lat="30.550406696274877">
        <ele>686.5999755859375</ele>
        <time>2014-11-28T09:10:53.000Z</time>
      </trkpt>
      <trkpt lon="34.698506807908416" lat="30.550476349890232">
        <ele>685.7999877929688</ele>
        <time>2014-11-28T09:10:55.000Z</time>
      </trkpt>
      <trkpt lon="34.69854846596718" lat="30.550516080111265">
        <ele>685.5999755859375</ele>
        <time>2014-11-28T09:10:56.000Z</time>
      </trkpt>
      <trkpt lon="34.69862071797252" lat="30.550593696534634">
        <ele>685.4000244140625</ele>
        <time>2014-11-28T09:10:58.000Z</time>
      </trkpt>
      <trkpt lon="34.69865784980357" lat="30.55062571540475">
        <ele>685.4000244140625</ele>
        <time>2014-11-28T09:10:59.000Z</time>
      </trkpt>
      <trkpt lon="34.6987443510443" lat="30.550720766186714">
        <ele>685.4000244140625</ele>
        <time>2014-11-28T09:11:02.000Z</time>
      </trkpt>
      <trkpt lon="34.69876027666032" lat="30.55076058022678">
        <ele>685.4000244140625</ele>
        <time>2014-11-28T09:11:03.000Z</time>
      </trkpt>
      <trkpt lon="34.69877469353378" lat="30.550804501399398">
        <ele>685.4000244140625</ele>
        <time>2014-11-28T09:11:04.000Z</time>
      </trkpt>
      <trkpt lon="34.69878952950239" lat="30.55085144005716">
        <ele>685.4000244140625</ele>
        <time>2014-11-28T09:11:05.000Z</time>
      </trkpt>
      <trkpt lon="34.69879531301558" lat="30.55090818554163">
        <ele>685.5999755859375</ele>
        <time>2014-11-28T09:11:06.000Z</time>
      </trkpt>
      <trkpt lon="34.6987890265882" lat="30.5509736482054">
        <ele>685.7999877929688</ele>
        <time>2014-11-28T09:11:07.000Z</time>
      </trkpt>
      <trkpt lon="34.69878022558987" lat="30.551115972921252">
        <ele>686.2000122070312</ele>
        <time>2014-11-28T09:11:09.000Z</time>
      </trkpt>
      <trkpt lon="34.698790116235614" lat="30.55118185468018">
        <ele>686.2000122070312</ele>
        <time>2014-11-28T09:11:10.000Z</time>
      </trkpt>
      <trkpt lon="34.698806293308735" lat="30.551239689812064">
        <ele>686.4000244140625</ele>
        <time>2014-11-28T09:11:11.000Z</time>
      </trkpt>
      <trkpt lon="34.698829762637615" lat="30.551292411983013">
        <ele>686.4000244140625</ele>
        <time>2014-11-28T09:11:12.000Z</time>
      </trkpt>
      <trkpt lon="34.69885675236583" lat="30.55134203284979">
        <ele>686.4000244140625</ele>
        <time>2014-11-28T09:11:13.000Z</time>
      </trkpt>
      <trkpt lon="34.69905179925263" lat="30.551566500216722">
        <ele>685.7999877929688</ele>
        <time>2014-11-28T09:11:19.000Z</time>
      </trkpt>
      <trkpt lon="34.69920812174678" lat="30.55171536281705">
        <ele>685.2000122070312</ele>
        <time>2014-11-28T09:11:25.000Z</time>
      </trkpt>
      <trkpt lon="34.69935145229101" lat="30.551834469661117">
        <ele>684.5999755859375</ele>
        <time>2014-11-28T09:11:33.000Z</time>
      </trkpt>
      <trkpt lon="34.69953132793307" lat="30.55190152488649">
        <ele>684.0</ele>
        <time>2014-11-28T09:11:39.000Z</time>
      </trkpt>
      <trkpt lon="34.69992167316377" lat="30.551969585940242">
        <ele>682.5999755859375</ele>
        <time>2014-11-28T09:11:47.000Z</time>
      </trkpt>
      <trkpt lon="34.70045803114772" lat="30.552075868472457">
        <ele>681.2000122070312</ele>
        <time>2014-11-28T09:11:58.000Z</time>
      </trkpt>
      <trkpt lon="34.7006662376225" lat="30.552114257588983">
        <ele>680.7999877929688</ele>
        <time>2014-11-28T09:12:02.000Z</time>
      </trkpt>
      <trkpt lon="34.70071912743151" lat="30.552117694169283">
        <ele>680.7999877929688</ele>
        <time>2014-11-28T09:12:03.000Z</time>
      </trkpt>
      <trkpt lon="34.700772101059556" lat="30.552116185426712">
        <ele>680.5999755859375</ele>
        <time>2014-11-28T09:12:04.000Z</time>
      </trkpt>
      <trkpt lon="34.700870253145695" lat="30.55210185237229">
        <ele>680.5999755859375</ele>
        <time>2014-11-28T09:12:06.000Z</time>
      </trkpt>
      <trkpt lon="34.70105331391096" lat="30.552060613408685">
        <ele>680.4000244140625</ele>
        <time>2014-11-28T09:12:10.000Z</time>
      </trkpt>
      <trkpt lon="34.70110360532999" lat="30.55205600336194">
        <ele>680.4000244140625</ele>
        <time>2014-11-28T09:12:11.000Z</time>
      </trkpt>
      <trkpt lon="34.701547008007765" lat="30.552061200141907">
        <ele>680.2000122070312</ele>
        <time>2014-11-28T09:12:20.000Z</time>
      </trkpt>
      <trkpt lon="34.701997535303235" lat="30.55203840136528">
        <ele>679.7999877929688</ele>
        <time>2014-11-28T09:12:29.000Z</time>
      </trkpt>
      <trkpt lon="34.70248779281974" lat="30.551992217078805">
        <ele>680.0</ele>
        <time>2014-11-28T09:12:39.000Z</time>
      </trkpt>
      <trkpt lon="34.702943935990334" lat="30.55200126953423">
        <ele>679.2000122070312</ele>
        <time>2014-11-28T09:12:46.000Z</time>
      </trkpt>
      <trkpt lon="34.703334951773286" lat="30.55210042744875">
        <ele>677.0</ele>
        <time>2014-11-28T09:12:52.000Z</time>
      </trkpt>
      <trkpt lon="34.70339295454323" lat="30.552124064415693">
        <ele>676.5999755859375</ele>
        <time>2014-11-28T09:12:53.000Z</time>
      </trkpt>
      <trkpt lon="34.70343913882971" lat="30.552153903990984">
        <ele>676.4000244140625</ele>
        <time>2014-11-28T09:12:54.000Z</time>
      </trkpt>
      <trkpt lon="34.703482473269105" lat="30.552182737737894">
        <ele>676.0</ele>
        <time>2014-11-28T09:12:55.000Z</time>
      </trkpt>
      <trkpt lon="34.703531339764595" lat="30.55220847018063">
        <ele>675.7999877929688</ele>
        <time>2014-11-28T09:12:56.000Z</time>
      </trkpt>
      <trkpt lon="34.703587498515844" lat="30.552231688052416">
        <ele>675.5999755859375</ele>
        <time>2014-11-28T09:12:57.000Z</time>
      </trkpt>
      <trkpt lon="34.70395755954087" lat="30.552450204268098">
        <ele>674.4000244140625</ele>
        <time>2014-11-28T09:13:04.000Z</time>
      </trkpt>
      <trkpt lon="34.704319993034005" lat="30.552699146792293">
        <ele>673.4000244140625</ele>
        <time>2014-11-28T09:13:10.000Z</time>
      </trkpt>
      <trkpt lon="34.70474923029542" lat="30.55291648954153">
        <ele>671.5999755859375</ele>
        <time>2014-11-28T09:13:16.000Z</time>
      </trkpt>
      <trkpt lon="34.70525776036084" lat="30.553292836993933">
        <ele>668.5999755859375</ele>
        <time>2014-11-28T09:13:23.000Z</time>
      </trkpt>
      <trkpt lon="34.705476025119424" lat="30.553562818095088">
        <ele>667.7999877929688</ele>
        <time>2014-11-28T09:13:27.000Z</time>
      </trkpt>
      <trkpt lon="34.705541068688035" lat="30.55361621081829">
        <ele>667.7999877929688</ele>
        <time>2014-11-28T09:13:28.000Z</time>
      </trkpt>
      <trkpt lon="34.70575321465731" lat="30.553766582161188">
        <ele>667.5999755859375</ele>
        <time>2014-11-28T09:13:31.000Z</time>
      </trkpt>
      <trkpt lon="34.70590811222792" lat="30.55392458103597">
        <ele>667.2000122070312</ele>
        <time>2014-11-28T09:13:34.000Z</time>
      </trkpt>
      <trkpt lon="34.70595530234277" lat="30.5539679992944">
        <ele>667.0</ele>
        <time>2014-11-28T09:13:35.000Z</time>
      </trkpt>
      <trkpt lon="34.7060024086386" lat="30.554004544392228">
        <ele>666.7999877929688</ele>
        <time>2014-11-28T09:13:36.000Z</time>
      </trkpt>
      <trkpt lon="34.70614473335445" lat="30.554087022319436">
        <ele>666.4000244140625</ele>
        <time>2014-11-28T09:13:41.000Z</time>
      </trkpt>
      <trkpt lon="34.70615747384727" lat="30.554080568253994">
        <ele>666.4000244140625</ele>
        <time>2014-11-28T09:13:46.000Z</time>
      </trkpt>
      <trkpt lon="34.70617063343525" lat="30.554089788347483">
        <ele>666.4000244140625</ele>
        <time>2014-11-28T09:13:52.000Z</time>
      </trkpt>
      <trkpt lon="34.706183122470975" lat="30.554101020097733">
        <ele>666.4000244140625</ele>
        <time>2014-11-28T09:13:53.000Z</time>
      </trkpt>
      <trkpt lon="34.706196784973145" lat="30.554109988734126">
        <ele>666.4000244140625</ele>
        <time>2014-11-28T09:13:54.000Z</time>
      </trkpt>
      <trkpt lon="34.70621413551271" lat="30.554119376465678">
        <ele>666.4000244140625</ele>
        <time>2014-11-28T09:13:55.000Z</time>
      </trkpt>
      <trkpt lon="34.70623433589935" lat="30.554132033139467">
        <ele>666.2000122070312</ele>
        <time>2014-11-28T09:13:56.000Z</time>
      </trkpt>
      <trkpt lon="34.706253949552774" lat="30.554147623479366">
        <ele>666.2000122070312</ele>
        <time>2014-11-28T09:13:57.000Z</time>
      </trkpt>
      <trkpt lon="34.70627465285361" lat="30.55416639894247">
        <ele>666.0</ele>
        <time>2014-11-28T09:13:58.000Z</time>
      </trkpt>
      <trkpt lon="34.706509597599506" lat="30.554356332868338">
        <ele>665.0</ele>
        <time>2014-11-28T09:14:06.000Z</time>
      </trkpt>
      <trkpt lon="34.70681528560817" lat="30.554583566263318">
        <ele>663.7999877929688</ele>
        <time>2014-11-28T09:14:14.000Z</time>
      </trkpt>
      <trkpt lon="34.706857111305" lat="30.554612400010228">
        <ele>663.5999755859375</ele>
        <time>2014-11-28T09:14:15.000Z</time>
      </trkpt>
      <trkpt lon="34.70715969800949" lat="30.55483720265329">
        <ele>663.2000122070312</ele>
        <time>2014-11-28T09:14:23.000Z</time>
      </trkpt>
      <trkpt lon="34.70725500024855" lat="30.55494088679552">
        <ele>663.4000244140625</ele>
        <time>2014-11-28T09:14:26.000Z</time>
      </trkpt>
      <trkpt lon="34.70745733939111" lat="30.555261578410864">
        <ele>663.7999877929688</ele>
        <time>2014-11-28T09:14:35.000Z</time>
      </trkpt>
      <trkpt lon="34.7076082136482" lat="30.555429719388485">
        <ele>664.0</ele>
        <time>2014-11-28T09:14:42.000Z</time>
      </trkpt>
      <trkpt lon="34.70772153697908" lat="30.555602721869946">
        <ele>663.5999755859375</ele>
        <time>2014-11-28T09:14:48.000Z</time>
      </trkpt>
      <trkpt lon="34.7077514603734" lat="30.555627532303333">
        <ele>663.5999755859375</ele>
        <time>2014-11-28T09:14:49.000Z</time>
      </trkpt>
      <trkpt lon="34.707928569987416" lat="30.5557622294873">
        <ele>662.7999877929688</ele>
        <time>2014-11-28T09:14:54.000Z</time>
      </trkpt>
      <trkpt lon="34.708228055387735" lat="30.55596356280148">
        <ele>661.0</ele>
        <time>2014-11-28T09:15:02.000Z</time>
      </trkpt>
      <trkpt lon="34.70849510282278" lat="30.556150479242206">
        <ele>659.4000244140625</ele>
        <time>2014-11-28T09:15:10.000Z</time>
      </trkpt>
      <trkpt lon="34.70864413306117" lat="30.55629774928093">
        <ele>658.4000244140625</ele>
        <time>2014-11-28T09:15:16.000Z</time>
      </trkpt>
      <trkpt lon="34.70879693515599" lat="30.556449042633176">
        <ele>657.7999877929688</ele>
        <time>2014-11-28T09:15:22.000Z</time>
      </trkpt>
      <trkpt lon="34.70888159237802" lat="30.556487683206797">
        <ele>657.5999755859375</ele>
        <time>2014-11-28T09:15:24.000Z</time>
      </trkpt>
      <trkpt lon="34.709037244319916" lat="30.556545853614807">
        <ele>657.2000122070312</ele>
        <time>2014-11-28T09:15:27.000Z</time>
      </trkpt>
      <trkpt lon="34.709087032824755" lat="30.55657234042883">
        <ele>657.0</ele>
        <time>2014-11-28T09:15:28.000Z</time>
      </trkpt>
      <trkpt lon="34.709135480225086" lat="30.55660419166088">
        <ele>657.0</ele>
        <time>2014-11-28T09:15:29.000Z</time>
      </trkpt>
      <trkpt lon="34.70950512215495" lat="30.556862438097596">
        <ele>656.0</ele>
        <time>2014-11-28T09:15:37.000Z</time>
      </trkpt>
      <trkpt lon="34.70953596755862" lat="30.556895546615124">
        <ele>656.0</ele>
        <time>2014-11-28T09:15:38.000Z</time>
      </trkpt>
      <trkpt lon="34.7097238060087" lat="30.557095538824797">
        <ele>655.5999755859375</ele>
        <time>2014-11-28T09:15:45.000Z</time>
      </trkpt>
      <trkpt lon="34.709755070507526" lat="30.5571211874485">
        <ele>655.4000244140625</ele>
        <time>2014-11-28T09:15:46.000Z</time>
      </trkpt>
      <trkpt lon="34.70978055149317" lat="30.557146752253175">
        <ele>655.4000244140625</ele>
        <time>2014-11-28T09:15:47.000Z</time>
      </trkpt>
      <trkpt lon="34.709798991680145" lat="30.557172233238816">
        <ele>655.4000244140625</ele>
        <time>2014-11-28T09:15:48.000Z</time>
      </trkpt>
      <trkpt lon="34.70981718041003" lat="30.557199558243155">
        <ele>655.4000244140625</ele>
        <time>2014-11-28T09:15:49.000Z</time>
      </trkpt>
      <trkpt lon="34.70984023064375" lat="30.55722621269524">
        <ele>655.4000244140625</ele>
        <time>2014-11-28T09:15:50.000Z</time>
      </trkpt>
      <trkpt lon="34.709870321676135" lat="30.557252867147326">
        <ele>655.2000122070312</ele>
        <time>2014-11-28T09:15:51.000Z</time>
      </trkpt>
      <trkpt lon="34.70990586094558" lat="30.557276336476207">
        <ele>655.2000122070312</ele>
        <time>2014-11-28T09:15:52.000Z</time>
      </trkpt>
      <trkpt lon="34.709946010261774" lat="30.557296788319945">
        <ele>655.2000122070312</ele>
        <time>2014-11-28T09:15:53.000Z</time>
      </trkpt>
      <trkpt lon="34.70998775213957" lat="30.55731656961143">
        <ele>655.0</ele>
        <time>2014-11-28T09:15:54.000Z</time>
      </trkpt>
      <trkpt lon="34.710066290572286" lat="30.55736736394465">
        <ele>655.0</ele>
        <time>2014-11-28T09:15:56.000Z</time>
      </trkpt>
      <trkpt lon="34.71009713597596" lat="30.557395610958338">
        <ele>655.0</ele>
        <time>2014-11-28T09:15:57.000Z</time>
      </trkpt>
      <trkpt lon="34.7101189289242" lat="30.557427797466516">
        <ele>655.0</ele>
        <time>2014-11-28T09:15:58.000Z</time>
      </trkpt>
      <trkpt lon="34.71013938076794" lat="30.557467862963676">
        <ele>654.7999877929688</ele>
        <time>2014-11-28T09:15:59.000Z</time>
      </trkpt>
      <trkpt lon="34.71015639603138" lat="30.557508347555995">
        <ele>655.0</ele>
        <time>2014-11-28T09:16:00.000Z</time>
      </trkpt>
      <trkpt lon="34.71028262749314" lat="30.557642206549644">
        <ele>654.7999877929688</ele>
        <time>2014-11-28T09:16:05.000Z</time>
      </trkpt>
      <trkpt lon="34.71046510152519" lat="30.5576981138438">
        <ele>654.2000122070312</ele>
        <time>2014-11-28T09:16:09.000Z</time>
      </trkpt>
      <trkpt lon="34.710510363802314" lat="30.55772116407752">
        <ele>654.0</ele>
        <time>2014-11-28T09:16:10.000Z</time>
      </trkpt>
      <trkpt lon="34.710551016032696" lat="30.557746309787035">
        <ele>653.7999877929688</ele>
        <time>2014-11-28T09:16:11.000Z</time>
      </trkpt>
      <trkpt lon="34.710589069873095" lat="30.557773718610406">
        <ele>653.5999755859375</ele>
        <time>2014-11-28T09:16:12.000Z</time>
      </trkpt>
      <trkpt lon="34.71062586642802" lat="30.557803893461823">
        <ele>653.5999755859375</ele>
        <time>2014-11-28T09:16:13.000Z</time>
      </trkpt>
      <trkpt lon="34.7106612380594" lat="30.557837588712573">
        <ele>653.4000244140625</ele>
        <time>2014-11-28T09:16:14.000Z</time>
      </trkpt>
      <trkpt lon="34.71098989248276" lat="30.558172361925244">
        <ele>651.7999877929688</ele>
        <time>2014-11-28T09:16:23.000Z</time>
      </trkpt>
      <trkpt lon="34.71129574812949" lat="30.558572597801685">
        <ele>650.7999877929688</ele>
        <time>2014-11-28T09:16:32.000Z</time>
      </trkpt>
      <trkpt lon="34.71138937398791" lat="30.558700589463115">
        <ele>651.0</ele>
        <time>2014-11-28T09:16:35.000Z</time>
      </trkpt>
      <trkpt lon="34.711430529132485" lat="30.558734284713864">
        <ele>651.2000122070312</ele>
        <time>2014-11-28T09:16:36.000Z</time>
      </trkpt>
      <trkpt lon="34.711479311808944" lat="30.558763621374965">
        <ele>651.4000244140625</ele>
        <time>2014-11-28T09:16:37.000Z</time>
      </trkpt>
      <trkpt lon="34.71153027378023" lat="30.558786503970623">
        <ele>651.5999755859375</ele>
        <time>2014-11-28T09:16:38.000Z</time>
      </trkpt>
      <trkpt lon="34.71158525906503" lat="30.558802345767617">
        <ele>651.7999877929688</ele>
        <time>2014-11-28T09:16:39.000Z</time>
      </trkpt>
      <trkpt lon="34.711640663444996" lat="30.558818941935897">
        <ele>652.2000122070312</ele>
        <time>2014-11-28T09:16:40.000Z</time>
      </trkpt>
      <trkpt lon="34.711691960692406" lat="30.5588361248374">
        <ele>652.4000244140625</ele>
        <time>2014-11-28T09:16:41.000Z</time>
      </trkpt>
      <trkpt lon="34.711738312616944" lat="30.558858420699835">
        <ele>652.5999755859375</ele>
        <time>2014-11-28T09:16:42.000Z</time>
      </trkpt>
      <trkpt lon="34.71177586354315" lat="30.558882979676127">
        <ele>653.0</ele>
        <time>2014-11-28T09:16:43.000Z</time>
      </trkpt>
      <trkpt lon="34.711804278194904" lat="30.558913657441735">
        <ele>653.4000244140625</ele>
        <time>2014-11-28T09:16:44.000Z</time>
      </trkpt>
      <trkpt lon="34.7118288371712" lat="30.558947436511517">
        <ele>653.7999877929688</ele>
        <time>2014-11-28T09:16:45.000Z</time>
      </trkpt>
      <trkpt lon="34.711844846606255" lat="30.558983897790313">
        <ele>654.0</ele>
        <time>2014-11-28T09:16:46.000Z</time>
      </trkpt>
      <trkpt lon="34.71185591071844" lat="30.55902278982103">
        <ele>654.4000244140625</ele>
        <time>2014-11-28T09:16:47.000Z</time>
      </trkpt>
      <trkpt lon="34.711866388097405" lat="30.559062603861094">
        <ele>654.7999877929688</ele>
        <time>2014-11-28T09:16:48.000Z</time>
      </trkpt>
      <trkpt lon="34.71188474446535" lat="30.55909906513989">
        <ele>655.2000122070312</ele>
        <time>2014-11-28T09:16:49.000Z</time>
      </trkpt>
      <trkpt lon="34.71190511249006" lat="30.55913183838129">
        <ele>655.4000244140625</ele>
        <time>2014-11-28T09:16:50.000Z</time>
      </trkpt>
      <trkpt lon="34.711927492171526" lat="30.559161845594645">
        <ele>655.7999877929688</ele>
        <time>2014-11-28T09:16:51.000Z</time>
      </trkpt>
      <trkpt lon="34.712074007838964" lat="30.559289334341884">
        <ele>657.4000244140625</ele>
        <time>2014-11-28T09:16:57.000Z</time>
      </trkpt>
      <trkpt lon="34.71233535557985" lat="30.5593678727746">
        <ele>659.2000122070312</ele>
        <time>2014-11-28T09:17:05.000Z</time>
      </trkpt>
      <trkpt lon="34.71252906136215" lat="30.559466276317835">
        <ele>660.7999877929688</ele>
        <time>2014-11-28T09:17:12.000Z</time>
      </trkpt>
      <trkpt lon="34.712700890377164" lat="30.55952754803002">
        <ele>662.2000122070312</ele>
        <time>2014-11-28T09:17:19.000Z</time>
      </trkpt>
      <trkpt lon="34.71284891478717" lat="30.559553699567914">
        <ele>662.4000244140625</ele>
        <time>2014-11-28T09:17:27.000Z</time>
      </trkpt>
      <trkpt lon="34.71306223422289" lat="30.55958286859095">
        <ele>662.5999755859375</ele>
        <time>2014-11-28T09:17:34.000Z</time>
      </trkpt>
      <trkpt lon="34.71335342153907" lat="30.559569792822003">
        <ele>662.0</ele>
        <time>2014-11-28T09:17:42.000Z</time>
      </trkpt>
      <trkpt lon="34.71375860273838" lat="30.559550849720836">
        <ele>661.0</ele>
        <time>2014-11-28T09:17:49.000Z</time>
      </trkpt>
      <trkpt lon="34.71382096409798" lat="30.559561159461737">
        <ele>660.7999877929688</ele>
        <time>2014-11-28T09:17:50.000Z</time>
      </trkpt>
      <trkpt lon="34.713880056515336" lat="30.55957599543035">
        <ele>660.5999755859375</ele>
        <time>2014-11-28T09:17:51.000Z</time>
      </trkpt>
      <trkpt lon="34.7139354608953" lat="30.55959946475923">
        <ele>660.5999755859375</ele>
        <time>2014-11-28T09:17:52.000Z</time>
      </trkpt>
      <trkpt lon="34.713983573019505" lat="30.55962729267776">
        <ele>660.5999755859375</ele>
        <time>2014-11-28T09:17:53.000Z</time>
      </trkpt>
      <trkpt lon="34.714031433686614" lat="30.559649672359228">
        <ele>660.5999755859375</ele>
        <time>2014-11-28T09:17:54.000Z</time>
      </trkpt>
      <trkpt lon="34.714082311838865" lat="30.55966584943235">
        <ele>660.5999755859375</ele>
        <time>2014-11-28T09:17:55.000Z</time>
      </trkpt>
      <trkpt lon="34.71449721604586" lat="30.559783447533846">
        <ele>659.7999877929688</ele>
        <time>2014-11-28T09:18:03.000Z</time>
      </trkpt>
      <trkpt lon="34.71489795483649" lat="30.55989157408476">
        <ele>658.0</ele>
        <time>2014-11-28T09:18:11.000Z</time>
      </trkpt>
      <trkpt lon="34.71533046104014" lat="30.56006859987974">
        <ele>657.4000244140625</ele>
        <time>2014-11-28T09:18:19.000Z</time>
      </trkpt>
      <trkpt lon="34.715373795479536" lat="30.560093661770225">
        <ele>657.4000244140625</ele>
        <time>2014-11-28T09:18:20.000Z</time>
      </trkpt>
      <trkpt lon="34.71540807746351" lat="30.56012023240328">
        <ele>657.4000244140625</ele>
        <time>2014-11-28T09:18:21.000Z</time>
      </trkpt>
      <trkpt lon="34.71543934196234" lat="30.560147892683744">
        <ele>657.4000244140625</ele>
        <time>2014-11-28T09:18:22.000Z</time>
      </trkpt>
      <trkpt lon="34.71546105109155" lat="30.56017940863967">
        <ele>657.5999755859375</ele>
        <time>2014-11-28T09:18:23.000Z</time>
      </trkpt>
      <trkpt lon="34.71548083238304" lat="30.56021125987172">
        <ele>657.5999755859375</ele>
        <time>2014-11-28T09:18:24.000Z</time>
      </trkpt>
      <trkpt lon="34.715501787140965" lat="30.56024059653282">
        <ele>657.7999877929688</ele>
        <time>2014-11-28T09:18:25.000Z</time>
      </trkpt>
      <trkpt lon="34.715519892051816" lat="30.56026884354651">
        <ele>657.7999877929688</ele>
        <time>2014-11-28T09:18:26.000Z</time>
      </trkpt>
      <trkpt lon="34.71560622565448" lat="30.56042768061161">
        <ele>658.5999755859375</ele>
        <time>2014-11-28T09:18:32.000Z</time>
      </trkpt>
      <trkpt lon="34.71581577323377" lat="30.560515858232975">
        <ele>657.7999877929688</ele>
        <time>2014-11-28T09:18:38.000Z</time>
      </trkpt>
      <trkpt lon="34.715980142354965" lat="30.560660865157843">
        <ele>656.5999755859375</ele>
        <time>2014-11-28T09:18:45.000Z</time>
      </trkpt>
      <trkpt lon="34.71601375378668" lat="30.560668744146824">
        <ele>656.4000244140625</ele>
        <time>2014-11-28T09:18:46.000Z</time>
      </trkpt>
      <trkpt lon="34.71604879014194" lat="30.560673689469695">
        <ele>656.2000122070312</ele>
        <time>2014-11-28T09:18:47.000Z</time>
      </trkpt>
      <trkpt lon="34.71625045873225" lat="30.560728842392564">
        <ele>655.0</ele>
        <time>2014-11-28T09:18:54.000Z</time>
      </trkpt>
      <trkpt lon="34.716399908065796" lat="30.560922045260668">
        <ele>654.7999877929688</ele>
        <time>2014-11-28T09:19:03.000Z</time>
      </trkpt>
      <trkpt lon="34.71654751338065" lat="30.561114074662328">
        <ele>654.5999755859375</ele>
        <time>2014-11-28T09:19:09.000Z</time>
      </trkpt>
      <trkpt lon="34.71669134683907" lat="30.56128322146833">
        <ele>654.4000244140625</ele>
        <time>2014-11-28T09:19:15.000Z</time>
      </trkpt>
      <trkpt lon="34.71690307371318" lat="30.56148547679186">
        <ele>654.7999877929688</ele>
        <time>2014-11-28T09:19:21.000Z</time>
      </trkpt>
      <trkpt lon="34.717194344848394" lat="30.561706088483334">
        <ele>655.4000244140625</ele>
        <time>2014-11-28T09:19:26.000Z</time>
      </trkpt>
      <trkpt lon="34.71734723076224" lat="30.561864590272307">
        <ele>655.7999877929688</ele>
        <time>2014-11-28T09:19:31.000Z</time>
      </trkpt>
      <trkpt lon="34.71754068508744" lat="30.562097607180476">
        <ele>656.4000244140625</ele>
        <time>2014-11-28T09:19:40.000Z</time>
      </trkpt>
      <trkpt lon="34.71769164316356" lat="30.562285277992487">
        <ele>656.7999877929688</ele>
        <time>2014-11-28T09:19:45.000Z</time>
      </trkpt>
      <trkpt lon="34.717819383367896" lat="30.56248535402119">
        <ele>657.2000122070312</ele>
        <time>2014-11-28T09:19:52.000Z</time>
      </trkpt>
      <trkpt lon="34.71795433200896" lat="30.562683753669262">
        <ele>658.0</ele>
        <time>2014-11-28T09:19:59.000Z</time>
      </trkpt>
      <trkpt lon="34.718048963695765" lat="30.56282641366124">
        <ele>658.5999755859375</ele>
        <time>2014-11-28T09:20:05.000Z</time>
      </trkpt>
      <trkpt lon="34.71823202446103" lat="30.562996482476592">
        <ele>659.4000244140625</ele>
        <time>2014-11-28T09:20:14.000Z</time>
      </trkpt>
      <trkpt lon="34.71845875494182" lat="30.563127659261227">
        <ele>661.0</ele>
        <time>2014-11-28T09:20:23.000Z</time>
      </trkpt>
      <trkpt lon="34.718720354139805" lat="30.563283059746027">
        <ele>662.7999877929688</ele>
        <time>2014-11-28T09:20:34.000Z</time>
      </trkpt>
      <trkpt lon="34.71902193501592" lat="30.563449691981077">
        <ele>661.5999755859375</ele>
        <time>2014-11-28T09:20:42.000Z</time>
      </trkpt>
      <trkpt lon="34.71925998106599" lat="30.563646415248513">
        <ele>661.5999755859375</ele>
        <time>2014-11-28T09:20:49.000Z</time>
      </trkpt>
      <trkpt lon="34.719418566673994" lat="30.563881527632475">
        <ele>662.4000244140625</ele>
        <time>2014-11-28T09:20:58.000Z</time>
      </trkpt>
      <trkpt lon="34.7195634059608" lat="30.563999628648162">
        <ele>662.2000122070312</ele>
        <time>2014-11-28T09:21:06.000Z</time>
      </trkpt>
      <trkpt lon="34.71970145590603" lat="30.564108844846487">
        <ele>662.4000244140625</ele>
        <time>2014-11-28T09:21:14.000Z</time>
      </trkpt>
      <trkpt lon="34.71982701681554" lat="30.56422828696668">
        <ele>662.7999877929688</ele>
        <time>2014-11-28T09:21:23.000Z</time>
      </trkpt>
      <trkpt lon="34.71994084306061" lat="30.564323673024774">
        <ele>663.0</ele>
        <time>2014-11-28T09:21:31.000Z</time>
      </trkpt>
      <trkpt lon="34.72013656049967" lat="30.56445543654263">
        <ele>663.2000122070312</ele>
        <time>2014-11-28T09:21:41.000Z</time>
      </trkpt>
      <trkpt lon="34.72032381221652" lat="30.56458443403244">
        <ele>663.5999755859375</ele>
        <time>2014-11-28T09:21:49.000Z</time>
      </trkpt>
      <trkpt lon="34.72045817412436" lat="30.56476171128452">
        <ele>663.5999755859375</ele>
        <time>2014-11-28T09:21:58.000Z</time>
      </trkpt>
      <trkpt lon="34.72051936201751" lat="30.564934965223074">
        <ele>663.5999755859375</ele>
        <time>2014-11-28T09:22:06.000Z</time>
      </trkpt>
      <trkpt lon="34.720611395314336" lat="30.56523285806179">
        <ele>663.5999755859375</ele>
        <time>2014-11-28T09:22:17.000Z</time>
      </trkpt>
      <trkpt lon="34.72080300562084" lat="30.565478364005685">
        <ele>662.7999877929688</ele>
        <time>2014-11-28T09:22:26.000Z</time>
      </trkpt>
      <trkpt lon="34.72108866088092" lat="30.56574733927846">
        <ele>661.4000244140625</ele>
        <time>2014-11-28T09:22:37.000Z</time>
      </trkpt>
      <trkpt lon="34.72125596366823" lat="30.565912127494812">
        <ele>660.7999877929688</ele>
        <time>2014-11-28T09:22:44.000Z</time>
      </trkpt>
      <trkpt lon="34.72149794921279" lat="30.56606400758028">
        <ele>660.2000122070312</ele>
        <time>2014-11-28T09:22:51.000Z</time>
      </trkpt>
      <trkpt lon="34.721798691898584" lat="30.56625855155289">
        <ele>659.5999755859375</ele>
        <time>2014-11-28T09:23:00.000Z</time>
      </trkpt>
      <trkpt lon="34.722850704565644" lat="30.56697520427406">
        <ele>656.0</ele>
        <time>2014-11-28T09:25:18.000Z</time>
      </trkpt>
      <trkpt lon="34.722863445058465" lat="30.566998841241002">
        <ele>656.0</ele>
        <time>2014-11-28T09:25:19.000Z</time>
      </trkpt>
      <trkpt lon="34.72287543118" lat="30.567021975293756">
        <ele>656.0</ele>
        <time>2014-11-28T09:25:20.000Z</time>
      </trkpt>
      <trkpt lon="34.72288750112057" lat="30.567036559805274">
        <ele>656.0</ele>
        <time>2014-11-28T09:25:21.000Z</time>
      </trkpt>
      <trkpt lon="34.72289990633726" lat="30.56705533526838">
        <ele>656.0</ele>
        <time>2014-11-28T09:25:22.000Z</time>
      </trkpt>
      <trkpt lon="34.722911808639765" lat="30.567072182893753">
        <ele>656.0</ele>
        <time>2014-11-28T09:25:23.000Z</time>
      </trkpt>
      <trkpt lon="34.722921615466475" lat="30.567089533433318">
        <ele>655.7999877929688</ele>
        <time>2014-11-28T09:25:24.000Z</time>
      </trkpt>
      <trkpt lon="34.72293167375028" lat="30.56710713542998">
        <ele>655.7999877929688</ele>
        <time>2014-11-28T09:25:25.000Z</time>
      </trkpt>
      <trkpt lon="34.72294424660504" lat="30.567125575616956">
        <ele>655.7999877929688</ele>
        <time>2014-11-28T09:25:26.000Z</time>
      </trkpt>
      <trkpt lon="34.72296126186848" lat="30.567149044945836">
        <ele>655.7999877929688</ele>
        <time>2014-11-28T09:25:27.000Z</time>
      </trkpt>
      <trkpt lon="34.72297836095095" lat="30.567171340808272">
        <ele>655.7999877929688</ele>
        <time>2014-11-28T09:25:28.000Z</time>
      </trkpt>
      <trkpt lon="34.72320467233658" lat="30.567374182865024">
        <ele>656.2000122070312</ele>
        <time>2014-11-28T09:25:36.000Z</time>
      </trkpt>
      <trkpt lon="34.72350968979299" lat="30.567509047687054">
        <ele>656.0</ele>
        <time>2014-11-28T09:25:44.000Z</time>
      </trkpt>
      <trkpt lon="34.72360046580434" lat="30.567547772079706">
        <ele>656.0</ele>
        <time>2014-11-28T09:25:46.000Z</time>
      </trkpt>
      <trkpt lon="34.72369090653956" lat="30.567589346319437">
        <ele>656.0</ele>
        <time>2014-11-28T09:25:48.000Z</time>
      </trkpt>
      <trkpt lon="34.72373474389315" lat="30.567604769021273">
        <ele>656.0</ele>
        <time>2014-11-28T09:25:49.000Z</time>
      </trkpt>
      <trkpt lon="34.723829040303826" lat="30.567629244178534">
        <ele>655.7999877929688</ele>
        <time>2014-11-28T09:25:51.000Z</time>
      </trkpt>
      <trkpt lon="34.724092399701476" lat="30.567705519497395">
        <ele>655.5999755859375</ele>
        <time>2014-11-28T09:25:58.000Z</time>
      </trkpt>
      <trkpt lon="34.72425417043269" lat="30.567802665755153">
        <ele>655.5999755859375</ele>
        <time>2014-11-28T09:26:06.000Z</time>
      </trkpt>
      <trkpt lon="34.72439733333886" lat="30.567943900823593">
        <ele>656.0</ele>
        <time>2014-11-28T09:26:15.000Z</time>
      </trkpt>
      <trkpt lon="34.72447847016156" lat="30.568077340722084">
        <ele>656.2000122070312</ele>
        <time>2014-11-28T09:26:23.000Z</time>
      </trkpt>
      <trkpt lon="34.72451434470713" lat="30.568194016814232">
        <ele>656.4000244140625</ele>
        <time>2014-11-28T09:26:31.000Z</time>
      </trkpt>
      <trkpt lon="34.724488109350204" lat="30.5683839507401">
        <ele>657.0</ele>
        <time>2014-11-28T09:26:38.000Z</time>
      </trkpt>
      <trkpt lon="34.72444720566273" lat="30.568568687886">
        <ele>657.5999755859375</ele>
        <time>2014-11-28T09:26:45.000Z</time>
      </trkpt>
      <trkpt lon="34.72444552928209" lat="30.568769853562117">
        <ele>658.0</ele>
        <time>2014-11-28T09:26:53.000Z</time>
      </trkpt>
      <trkpt lon="34.72445919178426" lat="30.569030279293656">
        <ele>659.0</ele>
        <time>2014-11-28T09:27:02.000Z</time>
      </trkpt>
      <trkpt lon="34.72450269386172" lat="30.569219291210175">
        <ele>659.5999755859375</ele>
        <time>2014-11-28T09:27:10.000Z</time>
      </trkpt>
      <trkpt lon="34.72456497140229" lat="30.569451386108994">
        <ele>660.0</ele>
        <time>2014-11-28T09:27:18.000Z</time>
      </trkpt>
      <trkpt lon="34.72476555034518" lat="30.569673338904977">
        <ele>659.7999877929688</ele>
        <time>2014-11-28T09:27:26.000Z</time>
      </trkpt>
      <trkpt lon="34.724978785961866" lat="30.56983427144587">
        <ele>659.2000122070312</ele>
        <time>2014-11-28T09:27:34.000Z</time>
      </trkpt>
      <trkpt lon="34.725016839802265" lat="30.569858998060226">
        <ele>659.2000122070312</ele>
        <time>2014-11-28T09:27:35.000Z</time>
      </trkpt>
      <trkpt lon="34.72505422309041" lat="30.569889592006803">
        <ele>659.0</ele>
        <time>2014-11-28T09:27:36.000Z</time>
      </trkpt>
      <trkpt lon="34.72508389502764" lat="30.56992177851498">
        <ele>659.0</ele>
        <time>2014-11-28T09:27:37.000Z</time>
      </trkpt>
      <trkpt lon="34.725248012691736" lat="30.57013467885554">
        <ele>658.5999755859375</ele>
        <time>2014-11-28T09:27:44.000Z</time>
      </trkpt>
      <trkpt lon="34.72538698464632" lat="30.570316314697266">
        <ele>658.4000244140625</ele>
        <time>2014-11-28T09:27:51.000Z</time>
      </trkpt>
      <trkpt lon="34.72551606595516" lat="30.57045537047088">
        <ele>658.5999755859375</ele>
        <time>2014-11-28T09:27:58.000Z</time>
      </trkpt>
      <trkpt lon="34.72577632404864" lat="30.570629127323627">
        <ele>658.4000244140625</ele>
        <time>2014-11-28T09:28:07.000Z</time>
      </trkpt>
      <trkpt lon="34.72602476365864" lat="30.570831634104252">
        <ele>658.2000122070312</ele>
        <time>2014-11-28T09:28:16.000Z</time>
      </trkpt>
      <trkpt lon="34.726276975125074" lat="30.571082588285208">
        <ele>658.4000244140625</ele>
        <time>2014-11-28T09:28:25.000Z</time>
      </trkpt>
      <trkpt lon="34.72651292569935" lat="30.57125709950924">
        <ele>658.7999877929688</ele>
        <time>2014-11-28T09:28:34.000Z</time>
      </trkpt>
      <trkpt lon="34.72670529037714" lat="30.571433622390032">
        <ele>659.5999755859375</ele>
        <time>2014-11-28T09:28:42.000Z</time>
      </trkpt>
      <trkpt lon="34.72687686793506" lat="30.571642834693193">
        <ele>660.7999877929688</ele>
        <time>2014-11-28T09:28:51.000Z</time>
      </trkpt>
      <trkpt lon="34.727085158228874" lat="30.571787925437093">
        <ele>661.4000244140625</ele>
        <time>2014-11-28T09:28:59.000Z</time>
      </trkpt>
      <trkpt lon="34.72741808742285" lat="30.571900326758623">
        <ele>660.5999755859375</ele>
        <time>2014-11-28T09:29:08.000Z</time>
      </trkpt>
      <trkpt lon="34.727658815681934" lat="30.572009794414043">
        <ele>660.0</ele>
        <time>2014-11-28T09:29:14.000Z</time>
      </trkpt>
      <trkpt lon="34.72770256921649" lat="30.572024881839752">
        <ele>659.7999877929688</ele>
        <time>2014-11-28T09:29:15.000Z</time>
      </trkpt>
      <trkpt lon="34.728061482310295" lat="30.57213577441871">
        <ele>659.0</ele>
        <time>2014-11-28T09:29:22.000Z</time>
      </trkpt>
      <trkpt lon="34.728275556117296" lat="30.572236021980643">
        <ele>658.4000244140625</ele>
        <time>2014-11-28T09:29:28.000Z</time>
      </trkpt>
      <trkpt lon="34.72851946949959" lat="30.57237021625042">
        <ele>657.7999877929688</ele>
        <time>2014-11-28T09:29:36.000Z</time>
      </trkpt>
      <trkpt lon="34.728721138089895" lat="30.572527293115854">
        <ele>657.5999755859375</ele>
        <time>2014-11-28T09:29:43.000Z</time>
      </trkpt>
      <trkpt lon="34.728947868570685" lat="30.572628546506166">
        <ele>657.0</ele>
        <time>2014-11-28T09:29:49.000Z</time>
      </trkpt>
      <trkpt lon="34.72924626432359" lat="30.572754526510835">
        <ele>656.2000122070312</ele>
        <time>2014-11-28T09:29:54.000Z</time>
      </trkpt>
      <trkpt lon="34.72945472225547" lat="30.572832142934203">
        <ele>655.7999877929688</ele>
        <time>2014-11-28T09:29:59.000Z</time>
      </trkpt>
      <trkpt lon="34.72958950325847" lat="30.57285343296826">
        <ele>655.4000244140625</ele>
        <time>2014-11-28T09:30:02.000Z</time>
      </trkpt>
      <trkpt lon="34.729636358097196" lat="30.57286038994789">
        <ele>655.2000122070312</ele>
        <time>2014-11-28T09:30:03.000Z</time>
      </trkpt>
      <trkpt lon="34.72968480549753" lat="30.57286768220365">
        <ele>655.2000122070312</ele>
        <time>2014-11-28T09:30:04.000Z</time>
      </trkpt>
      <trkpt lon="34.73005888983607" lat="30.57283876463771">
        <ele>653.7999877929688</ele>
        <time>2014-11-28T09:30:12.000Z</time>
      </trkpt>
      <trkpt lon="34.73022242076695" lat="30.572827365249395">
        <ele>653.0</ele>
        <time>2014-11-28T09:30:15.000Z</time>
      </trkpt>
      <trkpt lon="34.73049273714423" lat="30.572863072156906">
        <ele>652.0</ele>
        <time>2014-11-28T09:30:20.000Z</time>
      </trkpt>
      <trkpt lon="34.73059331998229" lat="30.572873381897807">
        <ele>651.5999755859375</ele>
        <time>2014-11-28T09:30:22.000Z</time>
      </trkpt>
      <trkpt lon="34.73089967854321" lat="30.572938760742545">
        <ele>650.2000122070312</ele>
        <time>2014-11-28T09:30:30.000Z</time>
      </trkpt>
      <trkpt lon="34.731155410408974" lat="30.573019981384277">
        <ele>649.2000122070312</ele>
        <time>2014-11-28T09:30:38.000Z</time>
      </trkpt>
      <trkpt lon="34.73117904737592" lat="30.573040433228016">
        <ele>649.2000122070312</ele>
        <time>2014-11-28T09:30:39.000Z</time>
      </trkpt>
      <trkpt lon="34.73119530826807" lat="30.573062812909484">
        <ele>649.2000122070312</ele>
        <time>2014-11-28T09:30:40.000Z</time>
      </trkpt>
      <trkpt lon="34.73120100796223" lat="30.573090305551887">
        <ele>649.4000244140625</ele>
        <time>2014-11-28T09:30:41.000Z</time>
      </trkpt>
      <trkpt lon="34.73120058886707" lat="30.5731207318604">
        <ele>649.4000244140625</ele>
        <time>2014-11-28T09:30:42.000Z</time>
      </trkpt>
      <trkpt lon="34.73127988167107" lat="30.573305804282427">
        <ele>650.0</ele>
        <time>2014-11-28T09:30:48.000Z</time>
      </trkpt>
      <trkpt lon="34.731456907466054" lat="30.573382079601288">
        <ele>650.0</ele>
        <time>2014-11-28T09:30:53.000Z</time>
      </trkpt>
      <trkpt lon="34.73157207481563" lat="30.573425078764558">
        <ele>650.0</ele>
        <time>2014-11-28T09:30:58.000Z</time>
      </trkpt>
      <trkpt lon="34.73163401708007" lat="30.57345491833985">
        <ele>650.0</ele>
        <time>2014-11-28T09:31:02.000Z</time>
      </trkpt>
      <trkpt lon="34.731652373448014" lat="30.573459276929498">
        <ele>650.0</ele>
        <time>2014-11-28T09:31:03.000Z</time>
      </trkpt>
      <trkpt lon="34.731674920767546" lat="30.573462545871735">
        <ele>650.0</ele>
        <time>2014-11-28T09:31:04.000Z</time>
      </trkpt>
      <trkpt lon="34.73170534707606" lat="30.573468832299113">
        <ele>650.0</ele>
        <time>2014-11-28T09:31:05.000Z</time>
      </trkpt>
      <trkpt lon="34.731740299612284" lat="30.573481488972902">
        <ele>649.7999877929688</ele>
        <time>2014-11-28T09:31:06.000Z</time>
      </trkpt>
      <trkpt lon="34.73176754079759" lat="30.573497163131833">
        <ele>649.7999877929688</ele>
        <time>2014-11-28T09:31:07.000Z</time>
      </trkpt>
      <trkpt lon="34.731781873852015" lat="30.57350965216756">
        <ele>650.0</ele>
        <time>2014-11-28T09:31:08.000Z</time>
      </trkpt>
      <trkpt lon="34.73179193213582" lat="30.573518704622984">
        <ele>650.0</ele>
        <time>2014-11-28T09:31:09.000Z</time>
      </trkpt>
      <trkpt lon="34.73177583888173" lat="30.57353069074452">
        <ele>650.0</ele>
        <time>2014-11-28T09:31:16.000Z</time>
      </trkpt>
      <trkpt lon="34.73176276311278" lat="30.573510993272066">
        <ele>650.0</ele>
        <time>2014-11-28T09:31:37.000Z</time>
      </trkpt>
      <trkpt lon="34.73178505897522" lat="30.57353756390512">
        <ele>650.0</ele>
        <time>2014-11-28T09:31:56.000Z</time>
      </trkpt>
      <trkpt lon="34.731779946014285" lat="30.57353027164936">
        <ele>650.0</ele>
        <time>2014-11-28T09:32:17.000Z</time>
      </trkpt>
      <trkpt lon="34.73177139647305" lat="30.573531445115805">
        <ele>650.0</ele>
        <time>2014-11-28T09:32:31.000Z</time>
      </trkpt>
      <trkpt lon="34.731773072853684" lat="30.5735316965729">
        <ele>650.0</ele>
        <time>2014-11-28T09:32:46.000Z</time>
      </trkpt>
      <trkpt lon="34.73177441395819" lat="30.573538821190596">
        <ele>650.2000122070312</ele>
        <time>2014-11-28T09:33:03.000Z</time>
      </trkpt>
      <trkpt lon="34.73177768290043" lat="30.57355172932148">
        <ele>650.2000122070312</ele>
        <time>2014-11-28T09:33:12.000Z</time>
      </trkpt>
      <trkpt lon="34.731787825003266" lat="30.573553992435336">
        <ele>650.2000122070312</ele>
        <time>2014-11-28T09:33:24.000Z</time>
      </trkpt>
      <trkpt lon="34.73183979280293" lat="30.57359422557056">
        <ele>650.2000122070312</ele>
        <time>2014-11-28T09:33:33.000Z</time>
      </trkpt>
      <trkpt lon="34.73192520439625" lat="30.57364166714251">
        <ele>650.2000122070312</ele>
        <time>2014-11-28T09:33:43.000Z</time>
      </trkpt>
      <trkpt lon="34.731950014829636" lat="30.57364015839994">
        <ele>650.0</ele>
        <time>2014-11-28T09:33:56.000Z</time>
      </trkpt>
      <trkpt lon="34.73201782442629" lat="30.573667399585247">
        <ele>650.0</ele>
        <time>2014-11-28T09:34:04.000Z</time>
      </trkpt>
      <trkpt lon="34.73205738700926" lat="30.57366857305169">
        <ele>650.0</ele>
        <time>2014-11-28T09:34:09.000Z</time>
      </trkpt>
      <trkpt lon="34.732159143313766" lat="30.573677122592926">
        <ele>650.2000122070312</ele>
        <time>2014-11-28T09:34:16.000Z</time>
      </trkpt>
      <trkpt lon="34.73229995928705" lat="30.573646361008286">
        <ele>650.4000244140625</ele>
        <time>2014-11-28T09:34:24.000Z</time>
      </trkpt>
      <trkpt lon="34.73245644941926" lat="30.573610067367554">
        <ele>650.5999755859375</ele>
        <time>2014-11-28T09:34:32.000Z</time>
      </trkpt>
      <trkpt lon="34.73269885405898" lat="30.573557429015636">
        <ele>651.2000122070312</ele>
        <time>2014-11-28T09:34:42.000Z</time>
      </trkpt>
      <trkpt lon="34.73296791315079" lat="30.573548628017306">
        <ele>651.5999755859375</ele>
        <time>2014-11-28T09:34:51.000Z</time>
      </trkpt>
      <trkpt lon="34.73324007354677" lat="30.573605792596936">
        <ele>650.7999877929688</ele>
        <time>2014-11-28T09:34:58.000Z</time>
      </trkpt>
      <trkpt lon="34.733455991372466" lat="30.573578216135502">
        <ele>650.0</ele>
        <time>2014-11-28T09:35:03.000Z</time>
      </trkpt>
      <trkpt lon="34.733856478706" lat="30.573535468429327">
        <ele>650.2000122070312</ele>
        <time>2014-11-28T09:35:13.000Z</time>
      </trkpt>
      <trkpt lon="34.73408698104322" lat="30.573483500629663">
        <ele>650.0</ele>
        <time>2014-11-28T09:35:18.000Z</time>
      </trkpt>
      <trkpt lon="34.73413056693971" lat="30.573468916118145">
        <ele>650.0</ele>
        <time>2014-11-28T09:35:19.000Z</time>
      </trkpt>
      <trkpt lon="34.73449610173702" lat="30.573365399613976">
        <ele>648.5999755859375</ele>
        <time>2014-11-28T09:35:28.000Z</time>
      </trkpt>
      <trkpt lon="34.73473381251097" lat="30.573377553373575">
        <ele>648.2000122070312</ele>
        <time>2014-11-28T09:35:34.000Z</time>
      </trkpt>
      <trkpt lon="34.734997507184744" lat="30.573415691033006">
        <ele>648.0</ele>
        <time>2014-11-28T09:35:41.000Z</time>
      </trkpt>
      <trkpt lon="34.735188195481896" lat="30.573492888361216">
        <ele>647.7999877929688</ele>
        <time>2014-11-28T09:35:47.000Z</time>
      </trkpt>
      <trkpt lon="34.735298501327634" lat="30.573537731543183">
        <ele>647.7999877929688</ele>
        <time>2014-11-28T09:35:54.000Z</time>
      </trkpt>
      <trkpt lon="34.73546689376235" lat="30.573604200035334">
        <ele>647.5999755859375</ele>
        <time>2014-11-28T09:36:03.000Z</time>
      </trkpt>
      <trkpt lon="34.73569613881409" lat="30.573675697669387">
        <ele>647.4000244140625</ele>
        <time>2014-11-28T09:36:10.000Z</time>
      </trkpt>
      <trkpt lon="34.73588464781642" lat="30.57377460412681">
        <ele>647.4000244140625</ele>
        <time>2014-11-28T09:36:17.000Z</time>
      </trkpt>
      <trkpt lon="34.73619536496699" lat="30.573901254683733">
        <ele>647.0</ele>
        <time>2014-11-28T09:36:26.000Z</time>
      </trkpt>
      <trkpt lon="34.73654480651021" lat="30.57404617778957">
        <ele>646.2000122070312</ele>
        <time>2014-11-28T09:36:34.000Z</time>
      </trkpt>
      <trkpt lon="34.73684370517731" lat="30.574142318218946">
        <ele>645.4000244140625</ele>
        <time>2014-11-28T09:36:42.000Z</time>
      </trkpt>
      <trkpt lon="34.737080158665776" lat="30.574268801137805">
        <ele>645.0</ele>
        <time>2014-11-28T09:36:49.000Z</time>
      </trkpt>
      <trkpt lon="34.73740445449948" lat="30.574476420879364">
        <ele>644.5999755859375</ele>
        <time>2014-11-28T09:36:55.000Z</time>
      </trkpt>
      <trkpt lon="34.73744636401534" lat="30.57450894266367">
        <ele>644.5999755859375</ele>
        <time>2014-11-28T09:36:56.000Z</time>
      </trkpt>
      <trkpt lon="34.73759723827243" lat="30.574602149426937">
        <ele>644.4000244140625</ele>
        <time>2014-11-28T09:37:01.000Z</time>
      </trkpt>
      <trkpt lon="34.73762607201934" lat="30.574602484703064">
        <ele>644.4000244140625</ele>
        <time>2014-11-28T09:37:07.000Z</time>
      </trkpt>
      <trkpt lon="34.73761978559196" lat="30.5746091902256">
        <ele>644.4000244140625</ele>
        <time>2014-11-28T09:37:19.000Z</time>
      </trkpt>
      <trkpt lon="34.737614169716835" lat="30.574599215760827">
        <ele>644.4000244140625</ele>
        <time>2014-11-28T09:37:39.000Z</time>
      </trkpt>
      <trkpt lon="34.7376177739352" lat="30.574601562693715">
        <ele>644.4000244140625</ele>
        <time>2014-11-28T09:37:58.000Z</time>
      </trkpt>
      <trkpt lon="34.73762171342969" lat="30.574608938768506">
        <ele>644.4000244140625</ele>
        <time>2014-11-28T09:38:15.000Z</time>
      </trkpt>
      <trkpt lon="34.737621042877436" lat="30.574610698968172">
        <ele>644.4000244140625</ele>
        <time>2014-11-28T09:38:35.000Z</time>
      </trkpt>
      <trkpt lon="34.73761743865907" lat="30.574597120285034">
        <ele>644.4000244140625</ele>
        <time>2014-11-28T09:39:01.000Z</time>
      </trkpt>
      <trkpt lon="34.73763294517994" lat="30.574603490531445">
        <ele>644.4000244140625</ele>
        <time>2014-11-28T09:39:18.000Z</time>
      </trkpt>
      <trkpt lon="34.73762062378228" lat="30.574600053951144">
        <ele>644.4000244140625</ele>
        <time>2014-11-28T09:39:35.000Z</time>
      </trkpt>
      <trkpt lon="34.73763009533286" lat="30.57461405172944">
        <ele>644.4000244140625</ele>
        <time>2014-11-28T09:39:57.000Z</time>
      </trkpt>
      <trkpt lon="34.737634705379605" lat="30.574613632634282">
        <ele>644.4000244140625</ele>
        <time>2014-11-28T09:40:10.000Z</time>
      </trkpt>
      <trkpt lon="34.73762908950448" lat="30.574607849121094">
        <ele>644.4000244140625</ele>
        <time>2014-11-28T09:40:24.000Z</time>
      </trkpt>
      <trkpt lon="34.73763017915189" lat="30.574610196053982">
        <ele>644.4000244140625</ele>
        <time>2014-11-28T09:40:43.000Z</time>
      </trkpt>
      <trkpt lon="34.73762858659029" lat="30.57460030540824">
        <ele>644.4000244140625</ele>
        <time>2014-11-28T09:41:01.000Z</time>
      </trkpt>
      <trkpt lon="34.737635627388954" lat="30.5746057536453">
        <ele>644.4000244140625</ele>
        <time>2014-11-28T09:41:15.000Z</time>
      </trkpt>
      <trkpt lon="34.737648954615" lat="30.574605586007237">
        <ele>644.4000244140625</ele>
        <time>2014-11-28T09:41:38.000Z</time>
      </trkpt>
      <trkpt lon="34.73763721995056" lat="30.57460424490273">
        <ele>644.4000244140625</ele>
        <time>2014-11-28T09:41:59.000Z</time>
      </trkpt>
      <trkpt lon="34.73762850277126" lat="30.574593348428607">
        <ele>644.4000244140625</ele>
        <time>2014-11-28T09:42:20.000Z</time>
      </trkpt>
      <trkpt lon="34.737624395638704" lat="30.5745954439044">
        <ele>644.4000244140625</ele>
        <time>2014-11-28T09:42:40.000Z</time>
      </trkpt>
      <trkpt lon="34.73762766458094" lat="30.57460960932076">
        <ele>644.4000244140625</ele>
        <time>2014-11-28T09:42:59.000Z</time>
      </trkpt>
      <trkpt lon="34.73762607201934" lat="30.57460131123662">
        <ele>644.4000244140625</ele>
        <time>2014-11-28T09:43:16.000Z</time>
      </trkpt>
      <trkpt lon="34.7376315202564" lat="30.57460080832243">
        <ele>644.4000244140625</ele>
        <time>2014-11-28T09:43:38.000Z</time>
      </trkpt>
      <trkpt lon="34.73763210698962" lat="30.57458622381091">
        <ele>644.4000244140625</ele>
        <time>2014-11-28T09:43:59.000Z</time>
      </trkpt>
      <trkpt lon="34.73762238398194" lat="30.574582871049643">
        <ele>644.4000244140625</ele>
        <time>2014-11-28T09:44:12.000Z</time>
      </trkpt>
      <trkpt lon="34.737630765885115" lat="30.57459686882794">
        <ele>644.4000244140625</ele>
        <time>2014-11-28T09:44:30.000Z</time>
      </trkpt>
      <trkpt lon="34.73762892186642" lat="30.574597539380193">
        <ele>644.4000244140625</ele>
        <time>2014-11-28T09:44:53.000Z</time>
      </trkpt>
      <trkpt lon="34.737643674016" lat="30.57460860349238">
        <ele>644.4000244140625</ele>
        <time>2014-11-28T09:45:11.000Z</time>
      </trkpt>
      <trkpt lon="34.73763721995056" lat="30.574606088921428">
        <ele>644.4000244140625</ele>
        <time>2014-11-28T09:45:34.000Z</time>
      </trkpt>
      <trkpt lon="34.73765725269914" lat="30.57464280165732">
        <ele>644.4000244140625</ele>
        <time>2014-11-28T09:45:50.000Z</time>
      </trkpt>
      <trkpt lon="34.73778096958995" lat="30.574646992608905">
        <ele>644.2000122070312</ele>
        <time>2014-11-28T09:45:56.000Z</time>
      </trkpt>
      <trkpt lon="34.7379959654063" lat="30.574625115841627">
        <ele>643.5999755859375</ele>
        <time>2014-11-28T09:46:04.000Z</time>
      </trkpt>
      <trkpt lon="34.73819000646472" lat="30.574566777795553">
        <ele>643.0</ele>
        <time>2014-11-28T09:46:11.000Z</time>
      </trkpt>
      <trkpt lon="34.738355884328485" lat="30.57446443475783">
        <ele>642.4000244140625</ele>
        <time>2014-11-28T09:46:18.000Z</time>
      </trkpt>
      <trkpt lon="34.73844942636788" lat="30.574330994859338">
        <ele>641.4000244140625</ele>
        <time>2014-11-28T09:46:26.000Z</time>
      </trkpt>
      <trkpt lon="34.73854959011078" lat="30.574205853044987">
        <ele>639.7999877929688</ele>
        <time>2014-11-28T09:46:33.000Z</time>
      </trkpt>
      <trkpt lon="34.73863139748573" lat="30.574013404548168">
        <ele>637.7999877929688</ele>
        <time>2014-11-28T09:46:42.000Z</time>
      </trkpt>
      <trkpt lon="34.73882828839123" lat="30.573921035975218">
        <ele>637.0</ele>
        <time>2014-11-28T09:46:48.000Z</time>
      </trkpt>
      <trkpt lon="34.73899927921593" lat="30.57373688556254">
        <ele>636.5999755859375</ele>
        <time>2014-11-28T09:46:54.000Z</time>
      </trkpt>
      <trkpt lon="34.73902425728738" lat="30.573700089007616">
        <ele>636.7999877929688</ele>
        <time>2014-11-28T09:46:55.000Z</time>
      </trkpt>
      <trkpt lon="34.73911318928003" lat="30.573448380455375">
        <ele>637.4000244140625</ele>
        <time>2014-11-28T09:47:02.000Z</time>
      </trkpt>
      <trkpt lon="34.73910748958588" lat="30.573416026309133">
        <ele>637.5999755859375</ele>
        <time>2014-11-28T09:47:03.000Z</time>
      </trkpt>
      <trkpt lon="34.73911704495549" lat="30.57338610291481">
        <ele>637.4000244140625</ele>
        <time>2014-11-28T09:47:04.000Z</time>
      </trkpt>
      <trkpt lon="34.73914286121726" lat="30.57336011901498">
        <ele>637.0</ele>
        <time>2014-11-28T09:47:05.000Z</time>
      </trkpt>
      <trkpt lon="34.73918091505766" lat="30.57334838435054">
        <ele>636.7999877929688</ele>
        <time>2014-11-28T09:47:06.000Z</time>
      </trkpt>
      <trkpt lon="34.73922391422093" lat="30.573346959427">
        <ele>636.5999755859375</ele>
        <time>2014-11-28T09:47:07.000Z</time>
      </trkpt>
      <trkpt lon="34.739269092679024" lat="30.573351150378585">
        <ele>636.2000122070312</ele>
        <time>2014-11-28T09:47:08.000Z</time>
      </trkpt>
      <trkpt lon="34.73931628279388" lat="30.57335869409144">
        <ele>636.0</ele>
        <time>2014-11-28T09:47:09.000Z</time>
      </trkpt>
      <trkpt lon="34.739550640806556" lat="30.57336363941431">
        <ele>634.7999877929688</ele>
        <time>2014-11-28T09:47:14.000Z</time>
      </trkpt>
      <trkpt lon="34.739594561979175" lat="30.573347713798285">
        <ele>634.7999877929688</ele>
        <time>2014-11-28T09:47:15.000Z</time>
      </trkpt>
      <trkpt lon="34.73963278345764" lat="30.573326088488102">
        <ele>634.7999877929688</ele>
        <time>2014-11-28T09:47:16.000Z</time>
      </trkpt>
      <trkpt lon="34.739666394889355" lat="30.573301194235682">
        <ele>634.5999755859375</ele>
        <time>2014-11-28T09:47:17.000Z</time>
      </trkpt>
      <trkpt lon="34.73969707265496" lat="30.573275797069073">
        <ele>634.5999755859375</ele>
        <time>2014-11-28T09:47:18.000Z</time>
      </trkpt>
      <trkpt lon="34.740008460357785" lat="30.573043953627348">
        <ele>633.2000122070312</ele>
        <time>2014-11-28T09:47:28.000Z</time>
      </trkpt>
      <trkpt lon="34.74011373706162" lat="30.57287254370749">
        <ele>632.5999755859375</ele>
        <time>2014-11-28T09:47:34.000Z</time>
      </trkpt>
      <trkpt lon="34.740266874432564" lat="30.572712616994977">
        <ele>631.4000244140625</ele>
        <time>2014-11-28T09:47:41.000Z</time>
      </trkpt>
      <trkpt lon="34.7404065169394" lat="30.57259158231318">
        <ele>630.0</ele>
        <time>2014-11-28T09:47:49.000Z</time>
      </trkpt>
      <trkpt lon="34.74055646918714" lat="30.572374910116196">
        <ele>628.5999755859375</ele>
        <time>2014-11-28T09:47:57.000Z</time>
      </trkpt>
      <trkpt lon="34.740625116974115" lat="30.57227390818298">
        <ele>628.0</ele>
        <time>2014-11-28T09:48:00.000Z</time>
      </trkpt>
      <trkpt lon="34.74066006951034" lat="30.57224121876061">
        <ele>627.7999877929688</ele>
        <time>2014-11-28T09:48:01.000Z</time>
      </trkpt>
      <trkpt lon="34.74070155993104" lat="30.572211798280478">
        <ele>627.5999755859375</ele>
        <time>2014-11-28T09:48:02.000Z</time>
      </trkpt>
      <trkpt lon="34.74074883386493" lat="30.572183718904853">
        <ele>627.4000244140625</ele>
        <time>2014-11-28T09:48:03.000Z</time>
      </trkpt>
      <trkpt lon="34.74080474115908" lat="30.572157902643085">
        <ele>627.4000244140625</ele>
        <time>2014-11-28T09:48:04.000Z</time>
      </trkpt>
      <trkpt lon="34.740866431966424" lat="30.57213426567614">
        <ele>627.4000244140625</ele>
        <time>2014-11-28T09:48:05.000Z</time>
      </trkpt>
      <trkpt lon="34.74093072116375" lat="30.572110880166292">
        <ele>627.5999755859375</ele>
        <time>2014-11-28T09:48:06.000Z</time>
      </trkpt>
      <trkpt lon="34.74098931066692" lat="30.572084980085492">
        <ele>627.5999755859375</ele>
        <time>2014-11-28T09:48:07.000Z</time>
      </trkpt>
      <trkpt lon="34.74104127846658" lat="30.57205564342439">
        <ele>627.5999755859375</ele>
        <time>2014-11-28T09:48:08.000Z</time>
      </trkpt>
      <trkpt lon="34.741082014515996" lat="30.572022031992674">
        <ele>627.4000244140625</ele>
        <time>2014-11-28T09:48:09.000Z</time>
      </trkpt>
      <trkpt lon="34.74111210554838" lat="30.571984983980656">
        <ele>627.0</ele>
        <time>2014-11-28T09:48:10.000Z</time>
      </trkpt>
      <trkpt lon="34.741136245429516" lat="30.571947684511542">
        <ele>626.7999877929688</ele>
        <time>2014-11-28T09:48:11.000Z</time>
      </trkpt>
      <trkpt lon="34.74114999175072" lat="30.57190560735762">
        <ele>626.4000244140625</ele>
        <time>2014-11-28T09:48:12.000Z</time>
      </trkpt>
      <trkpt lon="34.74116189405322" lat="30.571860931813717">
        <ele>626.2000122070312</ele>
        <time>2014-11-28T09:48:13.000Z</time>
      </trkpt>
      <trkpt lon="34.741254514083266" lat="30.571660017594695">
        <ele>624.7999877929688</ele>
        <time>2014-11-28T09:48:19.000Z</time>
      </trkpt>
      <trkpt lon="34.74147520959377" lat="30.57133136317134">
        <ele>622.4000244140625</ele>
        <time>2014-11-28T09:48:28.000Z</time>
      </trkpt>
      <trkpt lon="34.74152097478509" lat="30.571257434785366">
        <ele>622.0</ele>
        <time>2014-11-28T09:48:30.000Z</time>
      </trkpt>
      <trkpt lon="34.74153966642916" lat="30.57122047059238">
        <ele>622.0</ele>
        <time>2014-11-28T09:48:31.000Z</time>
      </trkpt>
      <trkpt lon="34.741715267300606" lat="30.570913441479206">
        <ele>620.7999877929688</ele>
        <time>2014-11-28T09:48:40.000Z</time>
      </trkpt>
      <trkpt lon="34.741803696379066" lat="30.570721831172705">
        <ele>620.5999755859375</ele>
        <time>2014-11-28T09:48:46.000Z</time>
      </trkpt>
      <trkpt lon="34.74197099916637" lat="30.570519911125302">
        <ele>620.0</ele>
        <time>2014-11-28T09:48:53.000Z</time>
      </trkpt>
      <trkpt lon="34.74207711406052" lat="30.570336934179068">
        <ele>619.7999877929688</ele>
        <time>2014-11-28T09:48:59.000Z</time>
      </trkpt>
      <trkpt lon="34.742214661091566" lat="30.570114562287927">
        <ele>619.4000244140625</ele>
        <time>2014-11-28T09:49:06.000Z</time>
      </trkpt>
      <trkpt lon="34.742394955828786" lat="30.569821866229177">
        <ele>618.4000244140625</ele>
        <time>2014-11-28T09:49:15.000Z</time>
      </trkpt>
      <trkpt lon="34.74251942709088" lat="30.569605864584446">
        <ele>617.7999877929688</ele>
        <time>2014-11-28T09:49:22.000Z</time>
      </trkpt>
      <trkpt lon="34.74274364300072" lat="30.56944828480482">
        <ele>617.0</ele>
        <time>2014-11-28T09:49:28.000Z</time>
      </trkpt>
      <trkpt lon="34.74319123663008" lat="30.56918282993138">
        <ele>615.7999877929688</ele>
        <time>2014-11-28T09:49:36.000Z</time>
      </trkpt>
      <trkpt lon="34.743302296847105" lat="30.569128096103668">
        <ele>615.4000244140625</ele>
        <time>2014-11-28T09:49:38.000Z</time>
      </trkpt>
      <trkpt lon="34.74358552135527" lat="30.569015108048916">
        <ele>614.2000122070312</ele>
        <time>2014-11-28T09:49:44.000Z</time>
      </trkpt>
      <trkpt lon="34.743857346475124" lat="30.56892986409366">
        <ele>613.7999877929688</ele>
        <time>2014-11-28T09:49:51.000Z</time>
      </trkpt>
      <trkpt lon="34.74404510110617" lat="30.56886339560151">
        <ele>613.2000122070312</ele>
        <time>2014-11-28T09:49:57.000Z</time>
      </trkpt>
      <trkpt lon="34.74432949908078" lat="30.568779408931732">
        <ele>613.0</ele>
        <time>2014-11-28T09:50:04.000Z</time>
      </trkpt>
      <trkpt lon="34.7447201795876" lat="30.568574219942093">
        <ele>612.4000244140625</ele>
        <time>2014-11-28T09:50:12.000Z</time>
      </trkpt>
      <trkpt lon="34.74480785429478" lat="30.56852183304727">
        <ele>612.2000122070312</ele>
        <time>2014-11-28T09:50:14.000Z</time>
      </trkpt>
      <trkpt lon="34.74514866247773" lat="30.568383364006877">
        <ele>611.2000122070312</ele>
        <time>2014-11-28T09:50:22.000Z</time>
      </trkpt>
      <trkpt lon="34.74539928138256" lat="30.56820172816515">
        <ele>609.7999877929688</ele>
        <time>2014-11-28T09:50:31.000Z</time>
      </trkpt>
      <trkpt lon="34.74558586254716" lat="30.56799997575581">
        <ele>609.0</ele>
        <time>2014-11-28T09:50:38.000Z</time>
      </trkpt>
      <trkpt lon="34.7458132635802" lat="30.567718762904406">
        <ele>610.0</ele>
        <time>2014-11-28T09:50:48.000Z</time>
      </trkpt>
      <trkpt lon="34.74597293883562" lat="30.567588340491056">
        <ele>609.5999755859375</ele>
        <time>2014-11-28T09:50:55.000Z</time>
      </trkpt>
      <trkpt lon="34.74607318639755" lat="30.567435370758176">
        <ele>609.0</ele>
        <time>2014-11-28T09:51:00.000Z</time>
      </trkpt>
      <trkpt lon="34.746102606877685" lat="30.567394802346826">
        <ele>608.7999877929688</ele>
        <time>2014-11-28T09:51:01.000Z</time>
      </trkpt>
      <trkpt lon="34.746142253279686" lat="30.567357083782554">
        <ele>608.5999755859375</ele>
        <time>2014-11-28T09:51:02.000Z</time>
      </trkpt>
      <trkpt lon="34.74618977867067" lat="30.567325484007597">
        <ele>608.2000122070312</ele>
        <time>2014-11-28T09:51:03.000Z</time>
      </trkpt>
      <trkpt lon="34.74623738788068" lat="30.567298578098416">
        <ele>608.2000122070312</ele>
        <time>2014-11-28T09:51:04.000Z</time>
      </trkpt>
      <trkpt lon="34.746280470862985" lat="30.567277874797583">
        <ele>608.2000122070312</ele>
        <time>2014-11-28T09:51:05.000Z</time>
      </trkpt>
      <trkpt lon="34.74632020108402" lat="30.567260524258018">
        <ele>608.2000122070312</ele>
        <time>2014-11-28T09:51:06.000Z</time>
      </trkpt>
      <trkpt lon="34.74657844752073" lat="30.567220207303762">
        <ele>608.2000122070312</ele>
        <time>2014-11-28T09:51:12.000Z</time>
      </trkpt>
      <trkpt lon="34.74671406671405" lat="30.567208724096417">
        <ele>608.0</ele>
        <time>2014-11-28T09:51:18.000Z</time>
      </trkpt>
      <trkpt lon="34.74695513024926" lat="30.567171592265368">
        <ele>608.0</ele>
        <time>2014-11-28T09:51:27.000Z</time>
      </trkpt>
      <trkpt lon="34.747293423861265" lat="30.567156337201595">
        <ele>608.5999755859375</ele>
        <time>2014-11-28T09:51:36.000Z</time>
      </trkpt>
      <trkpt lon="34.74757698364556" lat="30.56714091449976">
        <ele>609.2000122070312</ele>
        <time>2014-11-28T09:51:45.000Z</time>
      </trkpt>
      <trkpt lon="34.74781746044755" lat="30.567113338038325">
        <ele>609.5999755859375</ele>
        <time>2014-11-28T09:51:53.000Z</time>
      </trkpt>
      <trkpt lon="34.74807168357074" lat="30.56708810850978">
        <ele>609.4000244140625</ele>
        <time>2014-11-28T09:52:01.000Z</time>
      </trkpt>
      <trkpt lon="34.74832355976105" lat="30.567054077982903">
        <ele>609.2000122070312</ele>
        <time>2014-11-28T09:52:08.000Z</time>
      </trkpt>
      <trkpt lon="34.74878255277872" lat="30.566975539550185">
        <ele>608.2000122070312</ele>
        <time>2014-11-28T09:52:17.000Z</time>
      </trkpt>
      <trkpt lon="34.749328047037125" lat="30.566907059401274">
        <ele>605.2000122070312</ele>
        <time>2014-11-28T09:52:26.000Z</time>
      </trkpt>
      <trkpt lon="34.74943323992193" lat="30.566889876499772">
        <ele>604.7999877929688</ele>
        <time>2014-11-28T09:52:28.000Z</time>
      </trkpt>
      <trkpt lon="34.749526027590036" lat="30.56687856093049">
        <ele>604.5999755859375</ele>
        <time>2014-11-28T09:52:30.000Z</time>
      </trkpt>
      <trkpt lon="34.749576151371" lat="30.566874369978905">
        <ele>604.4000244140625</ele>
        <time>2014-11-28T09:52:31.000Z</time>
      </trkpt>
      <trkpt lon="34.749627113342285" lat="30.56687948293984">
        <ele>604.4000244140625</ele>
        <time>2014-11-28T09:52:32.000Z</time>
      </trkpt>
      <trkpt lon="34.749882677569985" lat="30.566907981410623">
        <ele>603.7999877929688</ele>
        <time>2014-11-28T09:52:37.000Z</time>
      </trkpt>
      <trkpt lon="34.750313088297844" lat="30.56688484735787">
        <ele>603.2000122070312</ele>
        <time>2014-11-28T09:52:45.000Z</time>
      </trkpt>
      <trkpt lon="34.75042331032455" lat="30.566878728568554">
        <ele>603.2000122070312</ele>
        <time>2014-11-28T09:52:47.000Z</time>
      </trkpt>
      <trkpt lon="34.750477289780974" lat="30.566880656406283">
        <ele>603.2000122070312</ele>
        <time>2014-11-28T09:52:48.000Z</time>
      </trkpt>
      <trkpt lon="34.750628331676126" lat="30.566880153492093">
        <ele>603.2000122070312</ele>
        <time>2014-11-28T09:52:51.000Z</time>
      </trkpt>
      <trkpt lon="34.75099713541567" lat="30.56687705218792">
        <ele>603.0</ele>
        <time>2014-11-28T09:52:59.000Z</time>
      </trkpt>
      <trkpt lon="34.7513428889215" lat="30.566940335556865">
        <ele>602.5999755859375</ele>
        <time>2014-11-28T09:53:04.000Z</time>
      </trkpt>
      <trkpt lon="34.751416398212314" lat="30.566960787400603">
        <ele>602.7999877929688</ele>
        <time>2014-11-28T09:53:05.000Z</time>
      </trkpt>
      <trkpt lon="34.751611361280084" lat="30.567031698301435">
        <ele>602.7999877929688</ele>
        <time>2014-11-28T09:53:08.000Z</time>
      </trkpt>
      <trkpt lon="34.75167330354452" lat="30.567046282812953">
        <ele>602.7999877929688</ele>
        <time>2014-11-28T09:53:09.000Z</time>
      </trkpt>
      <trkpt lon="34.75197806954384" lat="30.56709204800427">
        <ele>602.5999755859375</ele>
        <time>2014-11-28T09:53:15.000Z</time>
      </trkpt>
      <trkpt lon="34.75215056911111" lat="30.567112416028976">
        <ele>602.4000244140625</ele>
        <time>2014-11-28T09:53:21.000Z</time>
      </trkpt>
      <trkpt lon="34.75245835259557" lat="30.56713806465268">
        <ele>602.2000122070312</ele>
        <time>2014-11-28T09:53:27.000Z</time>
      </trkpt>
      <trkpt lon="34.752943497151136" lat="30.567180141806602">
        <ele>601.7999877929688</ele>
        <time>2014-11-28T09:53:35.000Z</time>
      </trkpt>
      <trkpt lon="34.753491170704365" lat="30.567228756844997">
        <ele>599.7999877929688</ele>
        <time>2014-11-28T09:53:44.000Z</time>
      </trkpt>
      <trkpt lon="34.75397380068898" lat="30.56718533858657">
        <ele>598.5999755859375</ele>
        <time>2014-11-28T09:53:51.000Z</time>
      </trkpt>
      <trkpt lon="34.75456045009196" lat="30.567039912566543">
        <ele>597.2000122070312</ele>
        <time>2014-11-28T09:53:59.000Z</time>
      </trkpt>
      <trkpt lon="34.754685843363404" lat="30.56698744185269">
        <ele>596.2000122070312</ele>
        <time>2014-11-28T09:54:01.000Z</time>
      </trkpt>
      <trkpt lon="34.75474267266691" lat="30.566954417154193">
        <ele>595.7999877929688</ele>
        <time>2014-11-28T09:54:02.000Z</time>
      </trkpt>
      <trkpt lon="34.75479614920914" lat="30.56691904552281">
        <ele>595.2000122070312</ele>
        <time>2014-11-28T09:54:03.000Z</time>
      </trkpt>
      <trkpt lon="34.75493889302015" lat="30.56680480018258">
        <ele>593.7999877929688</ele>
        <time>2014-11-28T09:54:06.000Z</time>
      </trkpt>
      <trkpt lon="34.755011312663555" lat="30.566726848483086">
        <ele>593.4000244140625</ele>
        <time>2014-11-28T09:54:08.000Z</time>
      </trkpt>
      <trkpt lon="34.75503939203918" lat="30.566686699166894">
        <ele>593.4000244140625</ele>
        <time>2014-11-28T09:54:09.000Z</time>
      </trkpt>
      <trkpt lon="34.75505699403584" lat="30.56664638221264">
        <ele>593.4000244140625</ele>
        <time>2014-11-28T09:54:10.000Z</time>
      </trkpt>
      <trkpt lon="34.755070488899946" lat="30.566608998924494">
        <ele>593.4000244140625</ele>
        <time>2014-11-28T09:54:11.000Z</time>
      </trkpt>
      <trkpt lon="34.755082223564386" lat="30.566573878750205">
        <ele>593.4000244140625</ele>
        <time>2014-11-28T09:54:12.000Z</time>
      </trkpt>
      <trkpt lon="34.755090018734336" lat="30.566538842394948">
        <ele>593.4000244140625</ele>
        <time>2014-11-28T09:54:13.000Z</time>
      </trkpt>
      <trkpt lon="34.75516000762582" lat="30.566242709755898">
        <ele>593.2000122070312</ele>
        <time>2014-11-28T09:54:20.000Z</time>
      </trkpt>
      <trkpt lon="34.75521298125386" lat="30.566066605970263">
        <ele>593.0</ele>
        <time>2014-11-28T09:54:26.000Z</time>
      </trkpt>
      <trkpt lon="34.75526746362448" lat="30.56601128540933">
        <ele>592.7999877929688</ele>
        <time>2014-11-28T09:54:28.000Z</time>
      </trkpt>
      <trkpt lon="34.75538447499275" lat="30.56591841392219">
        <ele>592.4000244140625</ele>
        <time>2014-11-28T09:54:31.000Z</time>
      </trkpt>
      <trkpt lon="34.75542831234634" lat="30.565896537154913">
        <ele>592.4000244140625</ele>
        <time>2014-11-28T09:54:32.000Z</time>
      </trkpt>
      <trkpt lon="34.75547902286053" lat="30.56588128209114">
        <ele>592.4000244140625</ele>
        <time>2014-11-28T09:54:33.000Z</time>
      </trkpt>
      <trkpt lon="34.755530236288905" lat="30.565878599882126">
        <ele>592.4000244140625</ele>
        <time>2014-11-28T09:54:34.000Z</time>
      </trkpt>
      <trkpt lon="34.75557985715568" lat="30.56588706560433">
        <ele>592.4000244140625</ele>
        <time>2014-11-28T09:54:35.000Z</time>
      </trkpt>
      <trkpt lon="34.7556253708899" lat="30.565898464992642">
        <ele>592.4000244140625</ele>
        <time>2014-11-28T09:54:36.000Z</time>
      </trkpt>
      <trkpt lon="34.75591463036835" lat="30.56598966009915">
        <ele>592.4000244140625</ele>
        <time>2014-11-28T09:54:43.000Z</time>
      </trkpt>
      <trkpt lon="34.75594270974398" lat="30.56601715274155">
        <ele>592.4000244140625</ele>
        <time>2014-11-28T09:54:44.000Z</time>
      </trkpt>
      <trkpt lon="34.75599266588688" lat="30.56607775390148">
        <ele>592.5999755859375</ele>
        <time>2014-11-28T09:54:46.000Z</time>
      </trkpt>
      <trkpt lon="34.7560328990221" lat="30.566098373383284">
        <ele>592.4000244140625</ele>
        <time>2014-11-28T09:54:47.000Z</time>
      </trkpt>
      <trkpt lon="34.75608251988888" lat="30.566105917096138">
        <ele>592.4000244140625</ele>
        <time>2014-11-28T09:54:48.000Z</time>
      </trkpt>
      <trkpt lon="34.7561364993453" lat="30.566106839105487">
        <ele>592.2000122070312</ele>
        <time>2014-11-28T09:54:49.000Z</time>
      </trkpt>
      <trkpt lon="34.75618913769722" lat="30.566113460808992">
        <ele>592.0</ele>
        <time>2014-11-28T09:54:50.000Z</time>
      </trkpt>
      <trkpt lon="34.756239177659154" lat="30.566122764721513">
        <ele>591.7999877929688</ele>
        <time>2014-11-28T09:54:51.000Z</time>
      </trkpt>
      <trkpt lon="34.75659918040037" lat="30.566235668957233">
        <ele>591.0</ele>
        <time>2014-11-28T09:54:59.000Z</time>
      </trkpt>
      <trkpt lon="34.7568844165653" lat="30.566286714747548">
        <ele>590.2000122070312</ele>
        <time>2014-11-28T09:55:06.000Z</time>
      </trkpt>
      <trkpt lon="34.7572538908571" lat="30.566321248188615">
        <ele>589.0</ele>
        <time>2014-11-28T09:55:14.000Z</time>
      </trkpt>
      <trkpt lon="34.757709950208664" lat="30.566404815763235">
        <ele>587.0</ele>
        <time>2014-11-28T09:55:22.000Z</time>
      </trkpt>
      <trkpt lon="34.757765773683786" lat="30.56642501614988">
        <ele>586.7999877929688</ele>
        <time>2014-11-28T09:55:23.000Z</time>
      </trkpt>
      <trkpt lon="34.75811303593218" lat="30.566552840173244">
        <ele>585.4000244140625</ele>
        <time>2014-11-28T09:55:29.000Z</time>
      </trkpt>
      <trkpt lon="34.7581762354821" lat="30.56655258871615">
        <ele>585.5999755859375</ele>
        <time>2014-11-28T09:55:30.000Z</time>
      </trkpt>
      <trkpt lon="34.75822954438627" lat="30.566537166014314">
        <ele>585.5999755859375</ele>
        <time>2014-11-28T09:55:31.000Z</time>
      </trkpt>
      <trkpt lon="34.75827304646373" lat="30.566510260105133">
        <ele>585.5999755859375</ele>
        <time>2014-11-28T09:55:32.000Z</time>
      </trkpt>
      <trkpt lon="34.75830674171448" lat="30.566475642845035">
        <ele>585.5999755859375</ele>
        <time>2014-11-28T09:55:33.000Z</time>
      </trkpt>
      <trkpt lon="34.75833079777658" lat="30.566434571519494">
        <ele>585.7999877929688</ele>
        <time>2014-11-28T09:55:34.000Z</time>
      </trkpt>
      <trkpt lon="34.758351081982255" lat="30.56639324873686">
        <ele>585.7999877929688</ele>
        <time>2014-11-28T09:55:35.000Z</time>
      </trkpt>
      <trkpt lon="34.75838108919561" lat="30.566358463838696">
        <ele>586.0</ele>
        <time>2014-11-28T09:55:36.000Z</time>
      </trkpt>
      <trkpt lon="34.75842517800629" lat="30.56634002365172">
        <ele>586.0</ele>
        <time>2014-11-28T09:55:37.000Z</time>
      </trkpt>
      <trkpt lon="34.75847404450178" lat="30.56633315049112">
        <ele>586.0</ele>
        <time>2014-11-28T09:55:38.000Z</time>
      </trkpt>
      <trkpt lon="34.75852098315954" lat="30.566332060843706">
        <ele>586.0</ele>
        <time>2014-11-28T09:55:39.000Z</time>
      </trkpt>
      <trkpt lon="34.758561719208956" lat="30.566341867670417">
        <ele>586.0</ele>
        <time>2014-11-28T09:55:40.000Z</time>
      </trkpt>
      <trkpt lon="34.758597342297435" lat="30.56636156514287">
        <ele>586.0</ele>
        <time>2014-11-28T09:55:41.000Z</time>
      </trkpt>
      <trkpt lon="34.75863237865269" lat="30.566389141604304">
        <ele>585.7999877929688</ele>
        <time>2014-11-28T09:55:42.000Z</time>
      </trkpt>
      <trkpt lon="34.75878920406103" lat="30.56652811355889">
        <ele>585.7999877929688</ele>
        <time>2014-11-28T09:55:48.000Z</time>
      </trkpt>
      <trkpt lon="34.75897679105401" lat="30.566673204302788">
        <ele>585.7999877929688</ele>
        <time>2014-11-28T09:55:55.000Z</time>
      </trkpt>
      <trkpt lon="34.759127078577876" lat="30.56680329144001">
        <ele>586.0</ele>
        <time>2014-11-28T09:56:02.000Z</time>
      </trkpt>
      <trkpt lon="34.75940351374447" lat="30.566924158483744">
        <ele>586.4000244140625</ele>
        <time>2014-11-28T09:56:11.000Z</time>
      </trkpt>
      <trkpt lon="34.759531086310744" lat="30.56696699000895">
        <ele>586.7999877929688</ele>
        <time>2014-11-28T09:56:14.000Z</time>
      </trkpt>
      <trkpt lon="34.7596734110266" lat="30.567003535106778">
        <ele>587.0</ele>
        <time>2014-11-28T09:56:17.000Z</time>
      </trkpt>
      <trkpt lon="34.76010214537382" lat="30.56709850206971">
        <ele>588.2000122070312</ele>
        <time>2014-11-28T09:56:26.000Z</time>
      </trkpt>
      <trkpt lon="34.760583685711026" lat="30.567122222855687">
        <ele>589.2000122070312</ele>
        <time>2014-11-28T09:56:34.000Z</time>
      </trkpt>
      <trkpt lon="34.76102155633271" lat="30.567102525383234">
        <ele>589.2000122070312</ele>
        <time>2014-11-28T09:56:42.000Z</time>
      </trkpt>
      <trkpt lon="34.76135591045022" lat="30.567097077146173">
        <ele>589.4000244140625</ele>
        <time>2014-11-28T09:56:49.000Z</time>
      </trkpt>
      <trkpt lon="34.76173544302583" lat="30.56703580543399">
        <ele>590.0</ele>
        <time>2014-11-28T09:56:57.000Z</time>
      </trkpt>
      <trkpt lon="34.76209854707122" lat="30.567036475986242">
        <ele>590.4000244140625</ele>
        <time>2014-11-28T09:57:05.000Z</time>
      </trkpt>
      <trkpt lon="34.7622945997864" lat="30.567041002213955">
        <ele>590.4000244140625</ele>
        <time>2014-11-28T09:57:09.000Z</time>
      </trkpt>
      <trkpt lon="34.7624880541116" lat="30.56702708825469">
        <ele>590.4000244140625</ele>
        <time>2014-11-28T09:57:13.000Z</time>
      </trkpt>
      <trkpt lon="34.76253633387387" lat="30.567014096304774">
        <ele>590.4000244140625</ele>
        <time>2014-11-28T09:57:14.000Z</time>
      </trkpt>
      <trkpt lon="34.76258285343647" lat="30.56699523702264">
        <ele>590.4000244140625</ele>
        <time>2014-11-28T09:57:15.000Z</time>
      </trkpt>
      <trkpt lon="34.76262887008488" lat="30.5669679120183">
        <ele>590.5999755859375</ele>
        <time>2014-11-28T09:57:16.000Z</time>
      </trkpt>
      <trkpt lon="34.76267564110458" lat="30.566938407719135">
        <ele>590.4000244140625</ele>
        <time>2014-11-28T09:57:17.000Z</time>
      </trkpt>
      <trkpt lon="34.76301854476333" lat="30.566761968657374">
        <ele>589.4000244140625</ele>
        <time>2014-11-28T09:57:23.000Z</time>
      </trkpt>
      <trkpt lon="34.76307487115264" lat="30.566738583147526">
        <ele>589.2000122070312</ele>
        <time>2014-11-28T09:57:24.000Z</time>
      </trkpt>
      <trkpt lon="34.76352648809552" lat="30.566556695848703">
        <ele>588.7999877929688</ele>
        <time>2014-11-28T09:57:31.000Z</time>
      </trkpt>
      <trkpt lon="34.763672668486834" lat="30.566493747755885">
        <ele>588.5999755859375</ele>
        <time>2014-11-28T09:57:35.000Z</time>
      </trkpt>
      <trkpt lon="34.76382848806679" lat="30.566547391936183">
        <ele>588.4000244140625</ele>
        <time>2014-11-28T09:57:40.000Z</time>
      </trkpt>
      <trkpt lon="34.764075921848416" lat="30.56674956344068">
        <ele>587.5999755859375</ele>
        <time>2014-11-28T09:57:48.000Z</time>
      </trkpt>
      <trkpt lon="34.764327965676785" lat="30.56696648709476">
        <ele>586.7999877929688</ele>
        <time>2014-11-28T09:57:56.000Z</time>
      </trkpt>
      <trkpt lon="34.76446006447077" lat="30.567083582282066">
        <ele>586.4000244140625</ele>
        <time>2014-11-28T09:58:00.000Z</time>
      </trkpt>
      <trkpt lon="34.764498453587294" lat="30.56711015291512">
        <ele>586.2000122070312</ele>
        <time>2014-11-28T09:58:01.000Z</time>
      </trkpt>
      <trkpt lon="34.76453818380833" lat="30.567133706063032">
        <ele>586.2000122070312</ele>
        <time>2014-11-28T09:58:02.000Z</time>
      </trkpt>
      <trkpt lon="34.76488100364804" lat="30.56725289672613">
        <ele>586.4000244140625</ele>
        <time>2014-11-28T09:58:10.000Z</time>
      </trkpt>
      <trkpt lon="34.76530630141497" lat="30.56728013791144">
        <ele>587.0</ele>
        <time>2014-11-28T09:58:19.000Z</time>
      </trkpt>
      <trkpt lon="34.76564166136086" lat="30.567243257537484">
        <ele>586.5999755859375</ele>
        <time>2014-11-28T09:58:25.000Z</time>
      </trkpt>
      <trkpt lon="34.76569681428373" lat="30.567246694117785">
        <ele>586.5999755859375</ele>
        <time>2014-11-28T09:58:26.000Z</time>
      </trkpt>
      <trkpt lon="34.765746435150504" lat="30.567255076020956">
        <ele>586.4000244140625</ele>
        <time>2014-11-28T09:58:27.000Z</time>
      </trkpt>
      <trkpt lon="34.76579169742763" lat="30.567266643047333">
        <ele>586.4000244140625</ele>
        <time>2014-11-28T09:58:28.000Z</time>
      </trkpt>
      <trkpt lon="34.7658346965909" lat="30.567280305549502">
        <ele>586.4000244140625</ele>
        <time>2014-11-28T09:58:29.000Z</time>
      </trkpt>
      <trkpt lon="34.76606729440391" lat="30.567339481785893">
        <ele>586.0</ele>
        <time>2014-11-28T09:58:35.000Z</time>
      </trkpt>
      <trkpt lon="34.76640433073044" lat="30.567379547283053">
        <ele>586.0</ele>
        <time>2014-11-28T09:58:42.000Z</time>
      </trkpt>
      <trkpt lon="34.76676953025162" lat="30.567429503425956">
        <ele>586.7999877929688</ele>
        <time>2014-11-28T09:58:50.000Z</time>
      </trkpt>
      <trkpt lon="34.76707614026964" lat="30.56750552728772">
        <ele>587.2000122070312</ele>
        <time>2014-11-28T09:58:57.000Z</time>
      </trkpt>
      <trkpt lon="34.767346791923046" lat="30.567592196166515">
        <ele>587.0</ele>
        <time>2014-11-28T09:59:03.000Z</time>
      </trkpt>
      <trkpt lon="34.76745936088264" lat="30.567627819254994">
        <ele>587.0</ele>
        <time>2014-11-28T09:59:05.000Z</time>
      </trkpt>
      <trkpt lon="34.767507053911686" lat="30.567650701850653">
        <ele>586.7999877929688</ele>
        <time>2014-11-28T09:59:06.000Z</time>
      </trkpt>
      <trkpt lon="34.767549047246575" lat="30.56767542846501">
        <ele>586.7999877929688</ele>
        <time>2014-11-28T09:59:07.000Z</time>
      </trkpt>
      <trkpt lon="34.76758894510567" lat="30.567700657993555">
        <ele>586.7999877929688</ele>
        <time>2014-11-28T09:59:08.000Z</time>
      </trkpt>
      <trkpt lon="34.76763035170734" lat="30.567723540589213">
        <ele>586.5999755859375</ele>
        <time>2014-11-28T09:59:09.000Z</time>
      </trkpt>
      <trkpt lon="34.767788937315345" lat="30.567802246659994">
        <ele>586.4000244140625</ele>
        <time>2014-11-28T09:59:14.000Z</time>
      </trkpt>
      <trkpt lon="34.76790024898946" lat="30.56785438209772">
        <ele>586.2000122070312</ele>
        <time>2014-11-28T09:59:17.000Z</time>
      </trkpt>
      <trkpt lon="34.7681936994195" lat="30.56799025274813">
        <ele>586.4000244140625</ele>
        <time>2014-11-28T09:59:24.000Z</time>
      </trkpt>
      <trkpt lon="34.76850223727524" lat="30.568084716796875">
        <ele>586.5999755859375</ele>
        <time>2014-11-28T09:59:31.000Z</time>
      </trkpt>
      <trkpt lon="34.768726117908955" lat="30.568175241351128">
        <ele>586.5999755859375</ele>
        <time>2014-11-28T09:59:39.000Z</time>
      </trkpt>
      <trkpt lon="34.768985621631145" lat="30.56826534681022">
        <ele>587.4000244140625</ele>
        <time>2014-11-28T09:59:48.000Z</time>
      </trkpt>
      <trkpt lon="34.76916172541678" lat="30.56830390356481">
        <ele>587.7999877929688</ele>
        <time>2014-11-28T09:59:52.000Z</time>
      </trkpt>
      <trkpt lon="34.76925442926586" lat="30.568318907171488">
        <ele>588.0</ele>
        <time>2014-11-28T09:59:54.000Z</time>
      </trkpt>
      <trkpt lon="34.76953991688788" lat="30.568408258259296">
        <ele>588.5999755859375</ele>
        <time>2014-11-28T10:00:01.000Z</time>
      </trkpt>
      <trkpt lon="34.76993721909821" lat="30.568538261577487">
        <ele>587.7999877929688</ele>
        <time>2014-11-28T10:00:10.000Z</time>
      </trkpt>
      <trkpt lon="34.770328402519226" lat="30.568696008995175">
        <ele>587.4000244140625</ele>
        <time>2014-11-28T10:00:19.000Z</time>
      </trkpt>
      <trkpt lon="34.77058262564242" lat="30.568814696744084">
        <ele>586.4000244140625</ele>
        <time>2014-11-28T10:00:25.000Z</time>
      </trkpt>
      <trkpt lon="34.77095344103873" lat="30.569026842713356">
        <ele>584.7999877929688</ele>
        <time>2014-11-28T10:00:34.000Z</time>
      </trkpt>
      <trkpt lon="34.77100524120033" lat="30.569051234051585">
        <ele>584.4000244140625</ele>
        <time>2014-11-28T10:00:35.000Z</time>
      </trkpt>
      <trkpt lon="34.77106508798897" lat="30.569072859361768">
        <ele>584.2000122070312</ele>
        <time>2014-11-28T10:00:36.000Z</time>
      </trkpt>
      <trkpt lon="34.77113055065274" lat="30.569083420559764">
        <ele>584.0</ele>
        <time>2014-11-28T10:00:37.000Z</time>
      </trkpt>
      <trkpt lon="34.771197689697146" lat="30.56907738558948">
        <ele>583.7999877929688</ele>
        <time>2014-11-28T10:00:38.000Z</time>
      </trkpt>
      <trkpt lon="34.77126491256058" lat="30.56906020268798">
        <ele>584.0</ele>
        <time>2014-11-28T10:00:39.000Z</time>
      </trkpt>
      <trkpt lon="34.771330039948225" lat="30.569046288728714">
        <ele>584.2000122070312</ele>
        <time>2014-11-28T10:00:40.000Z</time>
      </trkpt>
      <trkpt lon="34.77160446345806" lat="30.569010665640235">
        <ele>585.0</ele>
        <time>2014-11-28T10:00:45.000Z</time>
      </trkpt>
      <trkpt lon="34.77182046510279" lat="30.56907780468464">
        <ele>585.4000244140625</ele>
        <time>2014-11-28T10:00:51.000Z</time>
      </trkpt>
      <trkpt lon="34.77201375178993" lat="30.569163132458925">
        <ele>586.0</ele>
        <time>2014-11-28T10:00:58.000Z</time>
      </trkpt>
      <trkpt lon="34.772194968536496" lat="30.569281401112676">
        <ele>586.2000122070312</ele>
        <time>2014-11-28T10:01:06.000Z</time>
      </trkpt>
      <trkpt lon="34.772445587441325" lat="30.56938324123621">
        <ele>586.4000244140625</ele>
        <time>2014-11-28T10:01:14.000Z</time>
      </trkpt>
      <trkpt lon="34.77282369509339" lat="30.569477370008826">
        <ele>587.0</ele>
        <time>2014-11-28T10:01:23.000Z</time>
      </trkpt>
      <trkpt lon="34.773260643705726" lat="30.569533947855234">
        <ele>587.0</ele>
        <time>2014-11-28T10:01:32.000Z</time>
      </trkpt>
      <trkpt lon="34.77377747185528" lat="30.56961483322084">
        <ele>587.0</ele>
        <time>2014-11-28T10:01:42.000Z</time>
      </trkpt>
      <trkpt lon="34.77382684126496" lat="30.569624053314328">
        <ele>586.7999877929688</ele>
        <time>2014-11-28T10:01:43.000Z</time>
      </trkpt>
      <trkpt lon="34.77433034218848" lat="30.569727905094624">
        <ele>586.2000122070312</ele>
        <time>2014-11-28T10:01:53.000Z</time>
      </trkpt>
      <trkpt lon="34.77463133633137" lat="30.569793116301298">
        <ele>585.5999755859375</ele>
        <time>2014-11-28T10:01:58.000Z</time>
      </trkpt>
      <trkpt lon="34.77519761770964" lat="30.56986494921148">
        <ele>584.5999755859375</ele>
        <time>2014-11-28T10:02:07.000Z</time>
      </trkpt>
      <trkpt lon="34.77570338174701" lat="30.569846676662564">
        <ele>584.4000244140625</ele>
        <time>2014-11-28T10:02:15.000Z</time>
      </trkpt>
      <trkpt lon="34.77623856626451" lat="30.569836869835854">
        <ele>585.0</ele>
        <time>2014-11-28T10:02:23.000Z</time>
      </trkpt>
      <trkpt lon="34.77672387845814" lat="30.569804180413485">
        <ele>584.4000244140625</ele>
        <time>2014-11-28T10:02:30.000Z</time>
      </trkpt>
      <trkpt lon="34.77678783237934" lat="30.569785572588444">
        <ele>584.4000244140625</ele>
        <time>2014-11-28T10:02:31.000Z</time>
      </trkpt>
      <trkpt lon="34.77685094811022" lat="30.569768892601132">
        <ele>584.2000122070312</ele>
        <time>2014-11-28T10:02:32.000Z</time>
      </trkpt>
      <trkpt lon="34.77691532112658" lat="30.569756738841534">
        <ele>584.2000122070312</ele>
        <time>2014-11-28T10:02:33.000Z</time>
      </trkpt>
      <trkpt lon="34.77698220871389" lat="30.56975170969963">
        <ele>584.0</ele>
        <time>2014-11-28T10:02:34.000Z</time>
      </trkpt>
      <trkpt lon="34.7770506888628" lat="30.569752464070916">
        <ele>583.7999877929688</ele>
        <time>2014-11-28T10:02:35.000Z</time>
      </trkpt>
      <trkpt lon="34.77712159976363" lat="30.569757157936692">
        <ele>583.5999755859375</ele>
        <time>2014-11-28T10:02:36.000Z</time>
      </trkpt>
      <trkpt lon="34.77759433910251" lat="30.569797223433852">
        <ele>582.7999877929688</ele>
        <time>2014-11-28T10:02:43.000Z</time>
      </trkpt>
      <trkpt lon="34.777963645756245" lat="30.56986796669662">
        <ele>582.2000122070312</ele>
        <time>2014-11-28T10:02:48.000Z</time>
      </trkpt>
      <trkpt lon="34.77801661938429" lat="30.56989386677742">
        <ele>582.2000122070312</ele>
        <time>2014-11-28T10:02:49.000Z</time>
      </trkpt>
      <trkpt lon="34.77806171402335" lat="30.569922784343362">
        <ele>582.0</ele>
        <time>2014-11-28T10:02:50.000Z</time>
      </trkpt>
      <trkpt lon="34.778150813654065" lat="30.569975338876247">
        <ele>581.7999877929688</ele>
        <time>2014-11-28T10:02:52.000Z</time>
      </trkpt>
      <trkpt lon="34.77820026688278" lat="30.569992186501622">
        <ele>581.7999877929688</ele>
        <time>2014-11-28T10:02:53.000Z</time>
      </trkpt>
      <trkpt lon="34.77868742309511" lat="30.57008924894035">
        <ele>582.0</ele>
        <time>2014-11-28T10:03:01.000Z</time>
      </trkpt>
      <trkpt lon="34.779291255399585" lat="30.570186898112297">
        <ele>582.0</ele>
        <time>2014-11-28T10:03:10.000Z</time>
      </trkpt>
      <trkpt lon="34.77947758510709" lat="30.570243559777737">
        <ele>581.4000244140625</ele>
        <time>2014-11-28T10:03:13.000Z</time>
      </trkpt>
      <trkpt lon="34.77995501831174" lat="30.570452101528645">
        <ele>581.0</ele>
        <time>2014-11-28T10:03:21.000Z</time>
      </trkpt>
      <trkpt lon="34.78034460917115" lat="30.57066198438406">
        <ele>580.5999755859375</ele>
        <time>2014-11-28T10:03:30.000Z</time>
      </trkpt>
      <trkpt lon="34.780570920556784" lat="30.57080372236669">
        <ele>580.2000122070312</ele>
        <time>2014-11-28T10:03:36.000Z</time>
      </trkpt>
      <trkpt lon="34.78096319362521" lat="30.571010252460837">
        <ele>579.7999877929688</ele>
        <time>2014-11-28T10:03:46.000Z</time>
      </trkpt>
      <trkpt lon="34.78110250085592" lat="30.5711002741009">
        <ele>579.5999755859375</ele>
        <time>2014-11-28T10:03:50.000Z</time>
      </trkpt>
      <trkpt lon="34.78113108314574" lat="30.571138244122267">
        <ele>579.4000244140625</ele>
        <time>2014-11-28T10:03:51.000Z</time>
      </trkpt>
      <trkpt lon="34.781162263825536" lat="30.571175208315253">
        <ele>579.4000244140625</ele>
        <time>2014-11-28T10:03:52.000Z</time>
      </trkpt>
      <trkpt lon="34.78120191022754" lat="30.571204461157322">
        <ele>579.4000244140625</ele>
        <time>2014-11-28T10:03:53.000Z</time>
      </trkpt>
      <trkpt lon="34.781245412305" lat="30.57122482918203">
        <ele>579.2000122070312</ele>
        <time>2014-11-28T10:03:54.000Z</time>
      </trkpt>
      <trkpt lon="34.781291764229536" lat="30.571237234398723">
        <ele>579.0</ele>
        <time>2014-11-28T10:03:55.000Z</time>
      </trkpt>
      <trkpt lon="34.78133979253471" lat="30.571243353188038">
        <ele>579.0</ele>
        <time>2014-11-28T10:03:56.000Z</time>
      </trkpt>
      <trkpt lon="34.781386982649565" lat="30.571245532482862">
        <ele>578.7999877929688</ele>
        <time>2014-11-28T10:03:57.000Z</time>
      </trkpt>
      <trkpt lon="34.781431909650564" lat="30.57124402374029">
        <ele>578.7999877929688</ele>
        <time>2014-11-28T10:03:58.000Z</time>
      </trkpt>
      <trkpt lon="34.781523859128356" lat="30.5712263379246">
        <ele>578.5999755859375</ele>
        <time>2014-11-28T10:04:00.000Z</time>
      </trkpt>
      <trkpt lon="34.78156602010131" lat="30.571207394823432">
        <ele>578.4000244140625</ele>
        <time>2014-11-28T10:04:01.000Z</time>
      </trkpt>
      <trkpt lon="34.7816804330796" lat="30.57113740593195">
        <ele>578.4000244140625</ele>
        <time>2014-11-28T10:04:06.000Z</time>
      </trkpt>
      <trkpt lon="34.78169954381883" lat="30.571141010150313">
        <ele>578.4000244140625</ele>
        <time>2014-11-28T10:04:08.000Z</time>
      </trkpt>
      <trkpt lon="34.781717313453555" lat="30.571144362911582">
        <ele>578.2000122070312</ele>
        <time>2014-11-28T10:04:09.000Z</time>
      </trkpt>
      <trkpt lon="34.781738268211484" lat="30.571151403710246">
        <ele>578.2000122070312</ele>
        <time>2014-11-28T10:04:10.000Z</time>
      </trkpt>
      <trkpt lon="34.78176064789295" lat="30.57115752249956">
        <ele>578.2000122070312</ele>
        <time>2014-11-28T10:04:11.000Z</time>
      </trkpt>
      <trkpt lon="34.781785206869245" lat="30.57116137817502">
        <ele>578.0</ele>
        <time>2014-11-28T10:04:12.000Z</time>
      </trkpt>
      <trkpt lon="34.7820240072906" lat="30.5712073110044">
        <ele>577.5999755859375</ele>
        <time>2014-11-28T10:04:18.000Z</time>
      </trkpt>
      <trkpt lon="34.78238007053733" lat="30.571332788094878">
        <ele>577.0</ele>
        <time>2014-11-28T10:04:27.000Z</time>
      </trkpt>
      <trkpt lon="34.782647201791406" lat="30.57152288965881">
        <ele>576.5999755859375</ele>
        <time>2014-11-28T10:04:35.000Z</time>
      </trkpt>
      <trkpt lon="34.782803524285555" lat="30.57165347971022">
        <ele>576.2000122070312</ele>
        <time>2014-11-28T10:04:39.000Z</time>
      </trkpt>
      <trkpt lon="34.78283596225083" lat="30.571692120283842">
        <ele>576.2000122070312</ele>
        <time>2014-11-28T10:04:40.000Z</time>
      </trkpt>
      <trkpt lon="34.783151373267174" lat="30.571988001465797">
        <ele>575.4000244140625</ele>
        <time>2014-11-28T10:04:49.000Z</time>
      </trkpt>
      <trkpt lon="34.783393274992704" lat="30.57214943692088">
        <ele>575.0</ele>
        <time>2014-11-28T10:04:57.000Z</time>
      </trkpt>
      <trkpt lon="34.78356443345547" lat="30.572256976738572">
        <ele>574.7999877929688</ele>
        <time>2014-11-28T10:05:03.000Z</time>
      </trkpt>
      <trkpt lon="34.783732406795025" lat="30.572324031963944">
        <ele>574.5999755859375</ele>
        <time>2014-11-28T10:05:09.000Z</time>
      </trkpt>
      <trkpt lon="34.78399442508817" lat="30.572360325604677">
        <ele>575.2000122070312</ele>
        <time>2014-11-28T10:05:17.000Z</time>
      </trkpt>
      <trkpt lon="34.78424043394625" lat="30.572474403306842">
        <ele>575.4000244140625</ele>
        <time>2014-11-28T10:05:24.000Z</time>
      </trkpt>
      <trkpt lon="34.78457855992019" lat="30.57257113046944">
        <ele>576.2000122070312</ele>
        <time>2014-11-28T10:05:32.000Z</time>
      </trkpt>
      <trkpt lon="34.78487938642502" lat="30.572674479335546">
        <ele>576.0</ele>
        <time>2014-11-28T10:05:40.000Z</time>
      </trkpt>
      <trkpt lon="34.78511751629412" lat="30.57282216846943">
        <ele>575.5999755859375</ele>
        <time>2014-11-28T10:05:48.000Z</time>
      </trkpt>
      <trkpt lon="34.78536712937057" lat="30.572952423244715">
        <ele>575.4000244140625</ele>
        <time>2014-11-28T10:05:56.000Z</time>
      </trkpt>
      <trkpt lon="34.78560844436288" lat="30.573067339137197">
        <ele>575.4000244140625</ele>
        <time>2014-11-28T10:06:04.000Z</time>
      </trkpt>
      <trkpt lon="34.78591714985669" lat="30.573159037157893">
        <ele>576.2000122070312</ele>
        <time>2014-11-28T10:06:12.000Z</time>
      </trkpt>
      <trkpt lon="34.7859872225672" lat="30.573209580034018">
        <ele>576.2000122070312</ele>
        <time>2014-11-28T10:06:14.000Z</time>
      </trkpt>
      <trkpt lon="34.78600951842964" lat="30.57324486784637">
        <ele>576.2000122070312</ele>
        <time>2014-11-28T10:06:15.000Z</time>
      </trkpt>
      <trkpt lon="34.78618017397821" lat="30.573522560298443">
        <ele>576.4000244140625</ele>
        <time>2014-11-28T10:06:23.000Z</time>
      </trkpt>
      <trkpt lon="34.78649374097586" lat="30.573708806186914">
        <ele>576.7999877929688</ele>
        <time>2014-11-28T10:06:32.000Z</time>
      </trkpt>
      <trkpt lon="34.7867676615715" lat="30.57378868572414">
        <ele>577.4000244140625</ele>
        <time>2014-11-28T10:06:40.000Z</time>
      </trkpt>
      <trkpt lon="34.78700486943126" lat="30.57385657913983">
        <ele>577.7999877929688</ele>
        <time>2014-11-28T10:06:49.000Z</time>
      </trkpt>
      <trkpt lon="34.787218356505036" lat="30.573995551094413">
        <ele>576.5999755859375</ele>
        <time>2014-11-28T10:06:57.000Z</time>
      </trkpt>
      <trkpt lon="34.787458665668964" lat="30.57423485442996">
        <ele>574.5999755859375</ele>
        <time>2014-11-28T10:07:05.000Z</time>
      </trkpt>
      <trkpt lon="34.787682546302676" lat="30.574331330135465">
        <ele>573.4000244140625</ele>
        <time>2014-11-28T10:07:11.000Z</time>
      </trkpt>
      <trkpt lon="34.78791397064924" lat="30.574279529973865">
        <ele>573.0</ele>
        <time>2014-11-28T10:07:17.000Z</time>
      </trkpt>
      <trkpt lon="34.78828369639814" lat="30.574161680415273">
        <ele>574.0</ele>
        <time>2014-11-28T10:07:25.000Z</time>
      </trkpt>
      <trkpt lon="34.7883168887347" lat="30.574167547747493">
        <ele>574.0</ele>
        <time>2014-11-28T10:07:26.000Z</time>
      </trkpt>
      <trkpt lon="34.78833801113069" lat="30.574184143915772">
        <ele>574.0</ele>
        <time>2014-11-28T10:07:27.000Z</time>
      </trkpt>
      <trkpt lon="34.78833993896842" lat="30.574210127815604">
        <ele>573.7999877929688</ele>
        <time>2014-11-28T10:07:28.000Z</time>
      </trkpt>
      <trkpt lon="34.78833465836942" lat="30.574240889400244">
        <ele>574.0</ele>
        <time>2014-11-28T10:07:29.000Z</time>
      </trkpt>
      <trkpt lon="34.78833214379847" lat="30.57427005842328">
        <ele>574.0</ele>
        <time>2014-11-28T10:07:30.000Z</time>
      </trkpt>
      <trkpt lon="34.78839475661516" lat="30.574463680386543">
        <ele>573.2000122070312</ele>
        <time>2014-11-28T10:07:37.000Z</time>
      </trkpt>
      <trkpt lon="34.788442282006145" lat="30.574709605425596">
        <ele>572.4000244140625</ele>
        <time>2014-11-28T10:07:46.000Z</time>
      </trkpt>
      <trkpt lon="34.78851227089763" lat="30.57490666396916">
        <ele>573.4000244140625</ele>
        <time>2014-11-28T10:07:55.000Z</time>
      </trkpt>
      <trkpt lon="34.78855627588928" lat="30.574993500486016">
        <ele>573.7999877929688</ele>
        <time>2014-11-28T10:08:03.000Z</time>
      </trkpt>
      <trkpt lon="34.78855946101248" lat="30.575000792741776">
        <ele>573.7999877929688</ele>
        <time>2014-11-28T10:08:11.000Z</time>
      </trkpt>
      <trkpt lon="34.788579326123" lat="30.57500833645463">
        <ele>573.7999877929688</ele>
        <time>2014-11-28T10:08:22.000Z</time>
      </trkpt>
      <trkpt lon="34.788577649742365" lat="30.575017305091023">
        <ele>573.7999877929688</ele>
        <time>2014-11-28T10:08:39.000Z</time>
      </trkpt>
      <trkpt lon="34.78857890702784" lat="30.575028201565146">
        <ele>574.0</ele>
        <time>2014-11-28T10:08:57.000Z</time>
      </trkpt>
      <trkpt lon="34.78857924230397" lat="30.574999283999205">
        <ele>573.7999877929688</ele>
        <time>2014-11-28T10:09:21.000Z</time>
      </trkpt>
      <trkpt lon="34.788571279495955" lat="30.57500498369336">
        <ele>573.7999877929688</ele>
        <time>2014-11-28T10:09:41.000Z</time>
      </trkpt>
      <trkpt lon="34.78856574743986" lat="30.5750098451972">
        <ele>573.7999877929688</ele>
        <time>2014-11-28T10:10:03.000Z</time>
      </trkpt>
      <trkpt lon="34.78856918402016" lat="30.575003558769822">
        <ele>573.7999877929688</ele>
        <time>2014-11-28T10:10:16.000Z</time>
      </trkpt>
      <trkpt lon="34.78857656009495" lat="30.574987130239606">
        <ele>573.7999877929688</ele>
        <time>2014-11-28T10:10:32.000Z</time>
      </trkpt>
      <trkpt lon="34.78858385235071" lat="30.574992410838604">
        <ele>573.7999877929688</ele>
        <time>2014-11-28T10:10:48.000Z</time>
      </trkpt>
      <trkpt lon="34.788592318072915" lat="30.575007079169154">
        <ele>573.7999877929688</ele>
        <time>2014-11-28T10:11:11.000Z</time>
      </trkpt>
      <trkpt lon="34.788583517074585" lat="30.57501998730004">
        <ele>574.0</ele>
        <time>2014-11-28T10:11:34.000Z</time>
      </trkpt>
      <trkpt lon="34.78857597336173" lat="30.57501411996782">
        <ele>573.7999877929688</ele>
        <time>2014-11-28T10:11:55.000Z</time>
      </trkpt>
      <trkpt lon="34.78856759145856" lat="30.57500632479787">
        <ele>573.7999877929688</ele>
        <time>2014-11-28T10:12:16.000Z</time>
      </trkpt>
      <trkpt lon="34.788573207333684" lat="30.575006660073996">
        <ele>573.7999877929688</ele>
        <time>2014-11-28T10:12:31.000Z</time>
      </trkpt>
      <trkpt lon="34.788569351658225" lat="30.574999703094363">
        <ele>573.7999877929688</ele>
        <time>2014-11-28T10:12:50.000Z</time>
      </trkpt>
      <trkpt lon="34.78856574743986" lat="30.57501026429236">
        <ele>573.7999877929688</ele>
        <time>2014-11-28T10:13:05.000Z</time>
      </trkpt>
      <trkpt lon="34.788568848744035" lat="30.57500498369336">
        <ele>573.7999877929688</ele>
        <time>2014-11-28T10:13:25.000Z</time>
      </trkpt>
      <trkpt lon="34.788569351658225" lat="30.575004648417234">
        <ele>573.7999877929688</ele>
        <time>2014-11-28T10:13:45.000Z</time>
      </trkpt>
      <trkpt lon="34.78857287205756" lat="30.575010934844613">
        <ele>573.7999877929688</ele>
        <time>2014-11-28T10:14:01.000Z</time>
      </trkpt>
      <trkpt lon="34.78856767527759" lat="30.57501613162458">
        <ele>573.7999877929688</ele>
        <time>2014-11-28T10:14:17.000Z</time>
      </trkpt>
      <trkpt lon="34.78859055787325" lat="30.575054101645947">
        <ele>574.0</ele>
        <time>2014-11-28T10:14:23.000Z</time>
      </trkpt>
      <trkpt lon="34.78865065611899" lat="30.575204640626907">
        <ele>574.7999877929688</ele>
        <time>2014-11-28T10:14:29.000Z</time>
      </trkpt>
      <trkpt lon="34.78868401609361" lat="30.575363226234913">
        <ele>575.4000244140625</ele>
        <time>2014-11-28T10:14:37.000Z</time>
      </trkpt>
      <trkpt lon="34.78868870995939" lat="30.575386779382825">
        <ele>575.4000244140625</ele>
        <time>2014-11-28T10:14:39.000Z</time>
      </trkpt>
      <trkpt lon="34.78868778795004" lat="30.575398430228233">
        <ele>575.5999755859375</ele>
        <time>2014-11-28T10:14:40.000Z</time>
      </trkpt>
      <trkpt lon="34.78868921287358" lat="30.575409745797515">
        <ele>575.5999755859375</ele>
        <time>2014-11-28T10:14:41.000Z</time>
      </trkpt>
      <trkpt lon="34.78869365528226" lat="30.57542072609067">
        <ele>575.5999755859375</ele>
        <time>2014-11-28T10:14:42.000Z</time>
      </trkpt>
      <trkpt lon="34.78869809769094" lat="30.5754329636693">
        <ele>575.5999755859375</ele>
        <time>2014-11-28T10:14:43.000Z</time>
      </trkpt>
      <trkpt lon="34.78870530612767" lat="30.57544620707631">
        <ele>575.7999877929688</ele>
        <time>2014-11-28T10:14:44.000Z</time>
      </trkpt>
      <trkpt lon="34.78871813043952" lat="30.57546271942556">
        <ele>575.7999877929688</ele>
        <time>2014-11-28T10:14:45.000Z</time>
      </trkpt>
      <trkpt lon="34.788730116561055" lat="30.57548224925995">
        <ele>576.0</ele>
        <time>2014-11-28T10:14:46.000Z</time>
      </trkpt>
      <trkpt lon="34.78874210268259" lat="30.57550429366529">
        <ele>576.0</ele>
        <time>2014-11-28T10:14:47.000Z</time>
      </trkpt>
      <trkpt lon="34.78875576518476" lat="30.57552633807063">
        <ele>576.2000122070312</ele>
        <time>2014-11-28T10:14:48.000Z</time>
      </trkpt>
      <trkpt lon="34.78878694586456" lat="30.57565290480852">
        <ele>576.0</ele>
        <time>2014-11-28T10:14:56.000Z</time>
      </trkpt>
      <trkpt lon="34.788782838732004" lat="30.57578030973673">
        <ele>576.0</ele>
        <time>2014-11-28T10:15:04.000Z</time>
      </trkpt>
      <trkpt lon="34.78876255452633" lat="30.575964460149407">
        <ele>576.0</ele>
        <time>2014-11-28T10:15:13.000Z</time>
      </trkpt>
      <trkpt lon="34.78877194225788" lat="30.57624265551567">
        <ele>576.0</ele>
        <time>2014-11-28T10:15:22.000Z</time>
      </trkpt>
      <trkpt lon="34.788790717720985" lat="30.576440384611487">
        <ele>575.5999755859375</ele>
        <time>2014-11-28T10:15:28.000Z</time>
      </trkpt>
      <trkpt lon="34.78890370577574" lat="30.576868783682585">
        <ele>574.2000122070312</ele>
        <time>2014-11-28T10:15:39.000Z</time>
      </trkpt>
      <trkpt lon="34.7889884468168" lat="30.57734688743949">
        <ele>572.5999755859375</ele>
        <time>2014-11-28T10:15:51.000Z</time>
      </trkpt>
      <trkpt lon="34.78902440518141" lat="30.577665902674198">
        <ele>572.0</ele>
        <time>2014-11-28T10:15:59.000Z</time>
      </trkpt>
      <trkpt lon="34.78901292197406" lat="30.577954407781363">
        <ele>571.7999877929688</ele>
        <time>2014-11-28T10:16:05.000Z</time>
      </trkpt>
      <trkpt lon="34.789019878953695" lat="30.578009644523263">
        <ele>571.5999755859375</ele>
        <time>2014-11-28T10:16:06.000Z</time>
      </trkpt>
      <trkpt lon="34.78904401883483" lat="30.57811793871224">
        <ele>571.4000244140625</ele>
        <time>2014-11-28T10:16:08.000Z</time>
      </trkpt>
      <trkpt lon="34.78906354866922" lat="30.578170409426093">
        <ele>571.4000244140625</ele>
        <time>2014-11-28T10:16:09.000Z</time>
      </trkpt>
      <trkpt lon="34.789086850360036" lat="30.57822153903544">
        <ele>571.4000244140625</ele>
        <time>2014-11-28T10:16:10.000Z</time>
      </trkpt>
      <trkpt lon="34.789115097373724" lat="30.578272501006722">
        <ele>571.2000122070312</ele>
        <time>2014-11-28T10:16:11.000Z</time>
      </trkpt>
      <trkpt lon="34.789148373529315" lat="30.578323462978005">
        <ele>571.2000122070312</ele>
        <time>2014-11-28T10:16:12.000Z</time>
      </trkpt>
      <trkpt lon="34.789183493703604" lat="30.578374257311225">
        <ele>571.0</ele>
        <time>2014-11-28T10:16:13.000Z</time>
      </trkpt>
      <trkpt lon="34.789268570020795" lat="30.578546840697527">
        <ele>570.5999755859375</ele>
        <time>2014-11-28T10:16:16.000Z</time>
      </trkpt>
      <trkpt lon="34.78940678760409" lat="30.578867783769965">
        <ele>569.7999877929688</ele>
        <time>2014-11-28T10:16:22.000Z</time>
      </trkpt>
      <trkpt lon="34.78942656889558" lat="30.57891631498933">
        <ele>569.5999755859375</ele>
        <time>2014-11-28T10:16:23.000Z</time>
      </trkpt>
      <trkpt lon="34.78944140486419" lat="30.578964175656438">
        <ele>569.4000244140625</ele>
        <time>2014-11-28T10:16:24.000Z</time>
      </trkpt>
      <trkpt lon="34.78947300463915" lat="30.5790594778955">
        <ele>568.7999877929688</ele>
        <time>2014-11-28T10:16:26.000Z</time>
      </trkpt>
      <trkpt lon="34.78953804820776" lat="30.579191660508513">
        <ele>568.4000244140625</ele>
        <time>2014-11-28T10:16:29.000Z</time>
      </trkpt>
      <trkpt lon="34.78956185281277" lat="30.57923449203372">
        <ele>568.2000122070312</ele>
        <time>2014-11-28T10:16:30.000Z</time>
      </trkpt>
      <trkpt lon="34.789574006572366" lat="30.579277742654085">
        <ele>568.0</ele>
        <time>2014-11-28T10:16:31.000Z</time>
      </trkpt>
      <trkpt lon="34.789607198908925" lat="30.579409589990973">
        <ele>567.4000244140625</ele>
        <time>2014-11-28T10:16:34.000Z</time>
      </trkpt>
      <trkpt lon="34.78965665213764" lat="30.579500030726194">
        <ele>567.0</ele>
        <time>2014-11-28T10:16:36.000Z</time>
      </trkpt>
      <trkpt lon="34.78969914838672" lat="30.579549316316843">
        <ele>566.7999877929688</ele>
        <time>2014-11-28T10:16:37.000Z</time>
      </trkpt>
      <trkpt lon="34.78984281420708" lat="30.579696837812662">
        <ele>566.2000122070312</ele>
        <time>2014-11-28T10:16:40.000Z</time>
      </trkpt>
      <trkpt lon="34.78989344090223" lat="30.579737909138203">
        <ele>566.2000122070312</ele>
        <time>2014-11-28T10:16:41.000Z</time>
      </trkpt>
      <trkpt lon="34.78994524106383" lat="30.579771269112825">
        <ele>566.0</ele>
        <time>2014-11-28T10:16:42.000Z</time>
      </trkpt>
      <trkpt lon="34.790135342627764" lat="30.579882580786943">
        <ele>565.7999877929688</ele>
        <time>2014-11-28T10:16:47.000Z</time>
      </trkpt>
      <trkpt lon="34.79035352356732" lat="30.580008812248707">
        <ele>565.4000244140625</ele>
        <time>2014-11-28T10:16:54.000Z</time>
      </trkpt>
      <trkpt lon="34.790574638172984" lat="30.580112831667066">
        <ele>565.7999877929688</ele>
        <time>2014-11-28T10:17:02.000Z</time>
      </trkpt>
      <trkpt lon="34.79077806696296" lat="30.580175360664725">
        <ele>566.5999755859375</ele>
        <time>2014-11-28T10:17:10.000Z</time>
      </trkpt>
      <trkpt lon="34.79104829952121" lat="30.580257000401616">
        <ele>567.4000244140625</ele>
        <time>2014-11-28T10:17:19.000Z</time>
      </trkpt>
      <trkpt lon="34.79141131974757" lat="30.580325312912464">
        <ele>568.2000122070312</ele>
        <time>2014-11-28T10:17:28.000Z</time>
      </trkpt>
      <trkpt lon="34.791802167892456" lat="30.580395720899105">
        <ele>568.7999877929688</ele>
        <time>2014-11-28T10:17:35.000Z</time>
      </trkpt>
      <trkpt lon="34.791853968054056" lat="30.580413909628987">
        <ele>568.7999877929688</ele>
        <time>2014-11-28T10:17:36.000Z</time>
      </trkpt>
      <trkpt lon="34.79190886951983" lat="30.580425057560205">
        <ele>569.0</ele>
        <time>2014-11-28T10:17:37.000Z</time>
      </trkpt>
      <trkpt lon="34.79196896776557" lat="30.58042773976922">
        <ele>569.0</ele>
        <time>2014-11-28T10:17:38.000Z</time>
      </trkpt>
      <trkpt lon="34.79203392751515" lat="30.580429080873728">
        <ele>568.7999877929688</ele>
        <time>2014-11-28T10:17:39.000Z</time>
      </trkpt>
      <trkpt lon="34.79246241040528" lat="30.580438720062375">
        <ele>566.4000244140625</ele>
        <time>2014-11-28T10:17:44.000Z</time>
      </trkpt>
      <trkpt lon="34.792885361239314" lat="30.580454729497433">
        <ele>564.0</ele>
        <time>2014-11-28T10:17:49.000Z</time>
      </trkpt>
      <trkpt lon="34.792956272140145" lat="30.580440061166883">
        <ele>563.5999755859375</ele>
        <time>2014-11-28T10:17:50.000Z</time>
      </trkpt>
      <trkpt lon="34.793343180790544" lat="30.580339645966887">
        <ele>561.5999755859375</ele>
        <time>2014-11-28T10:17:56.000Z</time>
      </trkpt>
      <trkpt lon="34.79339632205665" lat="30.580332269892097">
        <ele>561.4000244140625</ele>
        <time>2014-11-28T10:17:57.000Z</time>
      </trkpt>
      <trkpt lon="34.79363679885864" lat="30.580303771421313">
        <ele>560.2000122070312</ele>
        <time>2014-11-28T10:18:01.000Z</time>
      </trkpt>
      <trkpt lon="34.79370360262692" lat="30.58028264902532">
        <ele>559.7999877929688</ele>
        <time>2014-11-28T10:18:02.000Z</time>
      </trkpt>
      <trkpt lon="34.79376805946231" lat="30.580258341506124">
        <ele>559.5999755859375</ele>
        <time>2014-11-28T10:18:03.000Z</time>
      </trkpt>
      <trkpt lon="34.79424121789634" lat="30.580158764496446">
        <ele>557.7999877929688</ele>
        <time>2014-11-28T10:18:10.000Z</time>
      </trkpt>
      <trkpt lon="34.794312631711364" lat="30.58015557937324">
        <ele>557.5999755859375</ele>
        <time>2014-11-28T10:18:11.000Z</time>
      </trkpt>
      <trkpt lon="34.79437507688999" lat="30.580147029832006">
        <ele>557.4000244140625</ele>
        <time>2014-11-28T10:18:12.000Z</time>
      </trkpt>
      <trkpt lon="34.7945854626596" lat="30.580104114487767">
        <ele>557.0</ele>
        <time>2014-11-28T10:18:16.000Z</time>
      </trkpt>
      <trkpt lon="34.794687889516354" lat="30.580078298226">
        <ele>556.5999755859375</ele>
        <time>2014-11-28T10:18:18.000Z</time>
      </trkpt>
      <trkpt lon="34.795067086815834" lat="30.580005291849375">
        <ele>555.5999755859375</ele>
        <time>2014-11-28T10:18:25.000Z</time>
      </trkpt>
      <trkpt lon="34.79512257501483" lat="30.57999095879495">
        <ele>555.4000244140625</ele>
        <time>2014-11-28T10:18:26.000Z</time>
      </trkpt>
      <trkpt lon="34.79527294635773" lat="30.5799469538033">
        <ele>554.7999877929688</ele>
        <time>2014-11-28T10:18:29.000Z</time>
      </trkpt>
      <trkpt lon="34.79532005265355" lat="30.57993764989078">
        <ele>554.5999755859375</ele>
        <time>2014-11-28T10:18:30.000Z</time>
      </trkpt>
      <trkpt lon="34.795749792829156" lat="30.579854249954224">
        <ele>554.5999755859375</ele>
        <time>2014-11-28T10:18:38.000Z</time>
      </trkpt>
      <trkpt lon="34.79601206257939" lat="30.579782836139202">
        <ele>555.4000244140625</ele>
        <time>2014-11-28T10:18:45.000Z</time>
      </trkpt>
      <trkpt lon="34.79626444168389" lat="30.579729359596968">
        <ele>556.0</ele>
        <time>2014-11-28T10:18:53.000Z</time>
      </trkpt>
      <trkpt lon="34.79645672254264" lat="30.579699520021677">
        <ele>557.0</ele>
        <time>2014-11-28T10:19:01.000Z</time>
      </trkpt>
      <trkpt lon="34.796752939000726" lat="30.57968552224338">
        <ele>558.5999755859375</ele>
        <time>2014-11-28T10:19:11.000Z</time>
      </trkpt>
      <trkpt lon="34.79694991372526" lat="30.579696334898472">
        <ele>559.4000244140625</ele>
        <time>2014-11-28T10:19:19.000Z</time>
      </trkpt>
      <trkpt lon="34.7971167974174" lat="30.579667082056403">
        <ele>560.2000122070312</ele>
        <time>2014-11-28T10:19:26.000Z</time>
      </trkpt>
      <trkpt lon="34.7972721979022" lat="30.579665740951896">
        <ele>560.5999755859375</ele>
        <time>2014-11-28T10:19:33.000Z</time>
      </trkpt>
      <trkpt lon="34.79752667248249" lat="30.579709159210324">
        <ele>561.0</ele>
        <time>2014-11-28T10:19:42.000Z</time>
      </trkpt>
      <trkpt lon="34.79781777597964" lat="30.579751068726182">
        <ele>561.4000244140625</ele>
        <time>2014-11-28T10:19:51.000Z</time>
      </trkpt>
      <trkpt lon="34.798168390989304" lat="30.57979540899396">
        <ele>561.0</ele>
        <time>2014-11-28T10:20:01.000Z</time>
      </trkpt>
      <trkpt lon="34.798510959371924" lat="30.57981099933386">
        <ele>560.2000122070312</ele>
        <time>2014-11-28T10:20:09.000Z</time>
      </trkpt>
      <trkpt lon="34.79889962822199" lat="30.579794654622674">
        <ele>559.5999755859375</ele>
        <time>2014-11-28T10:20:18.000Z</time>
      </trkpt>
      <trkpt lon="34.79931495152414" lat="30.579683678224683">
        <ele>560.7999877929688</ele>
        <time>2014-11-28T10:20:28.000Z</time>
      </trkpt>
      <trkpt lon="34.79955433867872" lat="30.579626094549894">
        <ele>561.2000122070312</ele>
        <time>2014-11-28T10:20:35.000Z</time>
      </trkpt>
      <trkpt lon="34.799793139100075" lat="30.579693485051394">
        <ele>561.5999755859375</ele>
        <time>2014-11-28T10:20:42.000Z</time>
      </trkpt>
      <trkpt lon="34.80006219819188" lat="30.579930525273085">
        <ele>561.0</ele>
        <time>2014-11-28T10:20:51.000Z</time>
      </trkpt>
      <trkpt lon="34.80044525116682" lat="30.58022640645504">
        <ele>560.5999755859375</ele>
        <time>2014-11-28T10:21:02.000Z</time>
      </trkpt>
      <trkpt lon="34.800483137369156" lat="30.58025222271681">
        <ele>560.4000244140625</ele>
        <time>2014-11-28T10:21:03.000Z</time>
      </trkpt>
      <trkpt lon="34.80064029805362" lat="30.580352721735835">
        <ele>560.4000244140625</ele>
        <time>2014-11-28T10:21:07.000Z</time>
      </trkpt>
      <trkpt lon="34.80098085477948" lat="30.580617673695087">
        <ele>560.4000244140625</ele>
        <time>2014-11-28T10:21:16.000Z</time>
      </trkpt>
      <trkpt lon="34.80109317228198" lat="30.58070383965969">
        <ele>560.4000244140625</ele>
        <time>2014-11-28T10:21:19.000Z</time>
      </trkpt>
      <trkpt lon="34.801164250820875" lat="30.580760752782226">
        <ele>560.5999755859375</ele>
        <time>2014-11-28T10:21:21.000Z</time>
      </trkpt>
      <trkpt lon="34.80120071209967" lat="30.58078690432012">
        <ele>560.5999755859375</ele>
        <time>2014-11-28T10:21:22.000Z</time>
      </trkpt>
      <trkpt lon="34.801270700991154" lat="30.580840883776546">
        <ele>560.4000244140625</ele>
        <time>2014-11-28T10:21:24.000Z</time>
      </trkpt>
      <trkpt lon="34.80166180059314" lat="30.581118995323777">
        <ele>559.2000122070312</ele>
        <time>2014-11-28T10:21:34.000Z</time>
      </trkpt>
      <trkpt lon="34.80169742368162" lat="30.58114699088037">
        <ele>559.0</ele>
        <time>2014-11-28T10:21:35.000Z</time>
      </trkpt>
      <trkpt lon="34.80172893963754" lat="30.581179512664676">
        <ele>559.0</ele>
        <time>2014-11-28T10:21:36.000Z</time>
      </trkpt>
      <trkpt lon="34.801755007356405" lat="30.581216644495726">
        <ele>558.7999877929688</ele>
        <time>2014-11-28T10:21:37.000Z</time>
      </trkpt>
      <trkpt lon="34.80178208090365" lat="30.581254279240966">
        <ele>558.7999877929688</ele>
        <time>2014-11-28T10:21:38.000Z</time>
      </trkpt>
      <trkpt lon="34.801814183592796" lat="30.581288980320096">
        <ele>558.5999755859375</ele>
        <time>2014-11-28T10:21:39.000Z</time>
      </trkpt>
      <trkpt lon="34.80185148306191" lat="30.58131798170507">
        <ele>558.5999755859375</ele>
        <time>2014-11-28T10:21:40.000Z</time>
      </trkpt>
      <trkpt lon="34.801890794187784" lat="30.581344971433282">
        <ele>558.4000244140625</ele>
        <time>2014-11-28T10:21:41.000Z</time>
      </trkpt>
      <trkpt lon="34.80193169787526" lat="30.58137271553278">
        <ele>558.2000122070312</ele>
        <time>2014-11-28T10:21:42.000Z</time>
      </trkpt>
      <trkpt lon="34.80197327211499" lat="30.58139903470874">
        <ele>558.2000122070312</ele>
        <time>2014-11-28T10:21:43.000Z</time>
      </trkpt>
      <trkpt lon="34.80201618745923" lat="30.581423677504063">
        <ele>558.0</ele>
        <time>2014-11-28T10:21:44.000Z</time>
      </trkpt>
      <trkpt lon="34.802418602630496" lat="30.581634985283017">
        <ele>557.4000244140625</ele>
        <time>2014-11-28T10:21:53.000Z</time>
      </trkpt>
      <trkpt lon="34.802456237375736" lat="30.581656945869327">
        <ele>557.4000244140625</ele>
        <time>2014-11-28T10:21:54.000Z</time>
      </trkpt>
      <trkpt lon="34.802492279559374" lat="30.581683181226254">
        <ele>557.4000244140625</ele>
        <time>2014-11-28T10:21:55.000Z</time>
      </trkpt>
      <trkpt lon="34.80252589099109" lat="30.581713523715734">
        <ele>557.2000122070312</ele>
        <time>2014-11-28T10:21:56.000Z</time>
      </trkpt>
      <trkpt lon="34.802584731951356" lat="30.581785440444946">
        <ele>557.2000122070312</ele>
        <time>2014-11-28T10:21:58.000Z</time>
      </trkpt>
      <trkpt lon="34.802664779126644" lat="30.581898260861635">
        <ele>557.2000122070312</ele>
        <time>2014-11-28T10:22:01.000Z</time>
      </trkpt>
      <trkpt lon="34.8027103766799" lat="30.581972440704703">
        <ele>557.2000122070312</ele>
        <time>2014-11-28T10:22:03.000Z</time>
      </trkpt>
      <trkpt lon="34.80276762507856" lat="30.582037987187505">
        <ele>557.2000122070312</ele>
        <time>2014-11-28T10:22:05.000Z</time>
      </trkpt>
      <trkpt lon="34.802797716110945" lat="30.582069670781493">
        <ele>557.0</ele>
        <time>2014-11-28T10:22:06.000Z</time>
      </trkpt>
      <trkpt lon="34.80298957787454" lat="30.582451382651925">
        <ele>555.7999877929688</ele>
        <time>2014-11-28T10:22:16.000Z</time>
      </trkpt>
      <trkpt lon="34.8030106164515" lat="30.58248834684491">
        <ele>555.7999877929688</ele>
        <time>2014-11-28T10:22:17.000Z</time>
      </trkpt>
      <trkpt lon="34.803034756332636" lat="30.58252547867596">
        <ele>555.5999755859375</ele>
        <time>2014-11-28T10:22:18.000Z</time>
      </trkpt>
      <trkpt lon="34.803271209821105" lat="30.58290987275541">
        <ele>554.0</ele>
        <time>2014-11-28T10:22:28.000Z</time>
      </trkpt>
      <trkpt lon="34.803608413785696" lat="30.58340390212834">
        <ele>551.7999877929688</ele>
        <time>2014-11-28T10:22:40.000Z</time>
      </trkpt>
      <trkpt lon="34.80377923697233" lat="30.583628453314304">
        <ele>550.7999877929688</ele>
        <time>2014-11-28T10:22:45.000Z</time>
      </trkpt>
      <trkpt lon="34.803812596946955" lat="30.583668434992433">
        <ele>550.5999755859375</ele>
        <time>2014-11-28T10:22:46.000Z</time>
      </trkpt>
      <trkpt lon="34.80415499769151" lat="30.58399717323482">
        <ele>549.2000122070312</ele>
        <time>2014-11-28T10:22:55.000Z</time>
      </trkpt>
      <trkpt lon="34.804449286311865" lat="30.58431627228856">
        <ele>548.5999755859375</ele>
        <time>2014-11-28T10:23:04.000Z</time>
      </trkpt>
      <trkpt lon="34.80472412891686" lat="30.584574602544308">
        <ele>548.0</ele>
        <time>2014-11-28T10:23:14.000Z</time>
      </trkpt>
      <trkpt lon="34.80476067401469" lat="30.584602681919932">
        <ele>547.7999877929688</ele>
        <time>2014-11-28T10:23:15.000Z</time>
      </trkpt>
      <trkpt lon="34.80517608113587" lat="30.584811558946967">
        <ele>546.5999755859375</ele>
        <time>2014-11-28T10:23:23.000Z</time>
      </trkpt>
      <trkpt lon="34.80552954599261" lat="30.584946926683187">
        <ele>545.4000244140625</ele>
        <time>2014-11-28T10:23:30.000Z</time>
      </trkpt>
      <trkpt lon="34.80576147325337" lat="30.584954721853137">
        <ele>544.2000122070312</ele>
        <time>2014-11-28T10:23:36.000Z</time>
      </trkpt>
      <trkpt lon="34.80601837858558" lat="30.584945837035775">
        <ele>542.4000244140625</ele>
        <time>2014-11-28T10:23:43.000Z</time>
      </trkpt>
      <trkpt lon="34.80615148320794" lat="30.585101572796702">
        <ele>541.4000244140625</ele>
        <time>2014-11-28T10:23:49.000Z</time>
      </trkpt>
      <trkpt lon="34.8061603680253" lat="30.5851430632174">
        <ele>541.4000244140625</ele>
        <time>2014-11-28T10:23:50.000Z</time>
      </trkpt>
      <trkpt lon="34.806159948930144" lat="30.585228642448783">
        <ele>541.4000244140625</ele>
        <time>2014-11-28T10:23:52.000Z</time>
      </trkpt>
      <trkpt lon="34.806157015264034" lat="30.58527197688818">
        <ele>541.4000244140625</ele>
        <time>2014-11-28T10:23:53.000Z</time>
      </trkpt>
      <trkpt lon="34.806167827919126" lat="30.585313718765974">
        <ele>541.4000244140625</ele>
        <time>2014-11-28T10:23:54.000Z</time>
      </trkpt>
      <trkpt lon="34.80619205161929" lat="30.585354706272483">
        <ele>541.2000122070312</ele>
        <time>2014-11-28T10:23:55.000Z</time>
      </trkpt>
      <trkpt lon="34.806225998327136" lat="30.585394268855453">
        <ele>541.0</ele>
        <time>2014-11-28T10:23:56.000Z</time>
      </trkpt>
      <trkpt lon="34.806260112673044" lat="30.58543123304844">
        <ele>540.7999877929688</ele>
        <time>2014-11-28T10:23:57.000Z</time>
      </trkpt>
      <trkpt lon="34.806290874257684" lat="30.585469622164965">
        <ele>540.7999877929688</ele>
        <time>2014-11-28T10:23:58.000Z</time>
      </trkpt>
      <trkpt lon="34.80631350539625" lat="30.58551035821438">
        <ele>540.7999877929688</ele>
        <time>2014-11-28T10:23:59.000Z</time>
      </trkpt>
      <trkpt lon="34.8063279222697" lat="30.585551848635077">
        <ele>540.5999755859375</ele>
        <time>2014-11-28T10:24:00.000Z</time>
      </trkpt>
      <trkpt lon="34.80633722618222" lat="30.585591662675142">
        <ele>540.4000244140625</ele>
        <time>2014-11-28T10:24:01.000Z</time>
      </trkpt>
      <trkpt lon="34.80632934719324" lat="30.585818560793996">
        <ele>539.7999877929688</ele>
        <time>2014-11-28T10:24:07.000Z</time>
      </trkpt>
      <trkpt lon="34.80632339604199" lat="30.585981085896492">
        <ele>539.4000244140625</ele>
        <time>2014-11-28T10:24:12.000Z</time>
      </trkpt>
      <trkpt lon="34.80633890256286" lat="30.586005225777626">
        <ele>539.4000244140625</ele>
        <time>2014-11-28T10:24:13.000Z</time>
      </trkpt>
      <trkpt lon="34.80635918676853" lat="30.586027605459094">
        <ele>539.2000122070312</ele>
        <time>2014-11-28T10:24:14.000Z</time>
      </trkpt>
      <trkpt lon="34.80638734996319" lat="30.58604202233255">
        <ele>539.2000122070312</ele>
        <time>2014-11-28T10:24:15.000Z</time>
      </trkpt>
      <trkpt lon="34.80642565526068" lat="30.58604889549315">
        <ele>539.0</ele>
        <time>2014-11-28T10:24:16.000Z</time>
      </trkpt>
      <trkpt lon="34.806468822062016" lat="30.58605384081602">
        <ele>538.7999877929688</ele>
        <time>2014-11-28T10:24:17.000Z</time>
      </trkpt>
      <trkpt lon="34.80677836574614" lat="30.586110837757587">
        <ele>537.5999755859375</ele>
        <time>2014-11-28T10:24:24.000Z</time>
      </trkpt>
      <trkpt lon="34.80698053725064" lat="30.58623941615224">
        <ele>536.5999755859375</ele>
        <time>2014-11-28T10:24:30.000Z</time>
      </trkpt>
      <trkpt lon="34.80715756304562" lat="30.586431110277772">
        <ele>535.7999877929688</ele>
        <time>2014-11-28T10:24:37.000Z</time>
      </trkpt>
      <trkpt lon="34.80739787220955" lat="30.586535800248384">
        <ele>536.0</ele>
        <time>2014-11-28T10:24:43.000Z</time>
      </trkpt>
      <trkpt lon="34.807444140315056" lat="30.586547031998634">
        <ele>536.0</ele>
        <time>2014-11-28T10:24:44.000Z</time>
      </trkpt>
      <trkpt lon="34.807637175545096" lat="30.586582152172923">
        <ele>536.2000122070312</ele>
        <time>2014-11-28T10:24:49.000Z</time>
      </trkpt>
      <trkpt lon="34.80765628628433" lat="30.586572429165244">
        <ele>536.4000244140625</ele>
        <time>2014-11-28T10:24:50.000Z</time>
      </trkpt>
      <trkpt lon="34.80767196044326" lat="30.586557341739535">
        <ele>536.4000244140625</ele>
        <time>2014-11-28T10:24:51.000Z</time>
      </trkpt>
      <trkpt lon="34.80781897902489" lat="30.58645399287343">
        <ele>537.4000244140625</ele>
        <time>2014-11-28T10:25:00.000Z</time>
      </trkpt>
      <trkpt lon="34.80795392766595" lat="30.586441503837705">
        <ele>537.5999755859375</ele>
        <time>2014-11-28T10:25:07.000Z</time>
      </trkpt>
      <trkpt lon="34.80804822407663" lat="30.58651400730014">
        <ele>537.4000244140625</ele>
        <time>2014-11-28T10:25:15.000Z</time>
      </trkpt>
      <trkpt lon="34.808134557679296" lat="30.586611572653055">
        <ele>537.0</ele>
        <time>2014-11-28T10:25:23.000Z</time>
      </trkpt>
      <trkpt lon="34.80791687965393" lat="30.586440414190292">
        <ele>537.5999755859375</ele>
        <time>2014-11-28T10:26:38.000Z</time>
      </trkpt>
      <trkpt lon="34.808649038895965" lat="30.586863700300455">
        <ele>538.0</ele>
        <time>2014-11-28T10:26:53.000Z</time>
      </trkpt>
      <trkpt lon="34.80867996811867" lat="30.586859760805964">
        <ele>538.2000122070312</ele>
        <time>2014-11-28T10:27:10.000Z</time>
      </trkpt>
      <trkpt lon="34.808681728318334" lat="30.586863197386265">
        <ele>538.2000122070312</ele>
        <time>2014-11-28T10:27:26.000Z</time>
      </trkpt>
      <trkpt lon="34.8087300080806" lat="30.586882643401623">
        <ele>538.2000122070312</ele>
        <time>2014-11-28T10:27:30.000Z</time>
      </trkpt>
      <trkpt lon="34.8089633602649" lat="30.586908208206296">
        <ele>537.5999755859375</ele>
        <time>2014-11-28T10:27:39.000Z</time>
      </trkpt>
      <trkpt lon="34.80925044044852" lat="30.586980041116476">
        <ele>536.5999755859375</ele>
        <time>2014-11-28T10:27:48.000Z</time>
      </trkpt>
      <trkpt lon="34.809468537569046" lat="30.587110295891762">
        <ele>534.7999877929688</ele>
        <time>2014-11-28T10:27:56.000Z</time>
      </trkpt>
      <trkpt lon="34.809707421809435" lat="30.587235102429986">
        <ele>534.2000122070312</ele>
        <time>2014-11-28T10:28:03.000Z</time>
      </trkpt>
      <trkpt lon="34.809923339635134" lat="30.587322860956192">
        <ele>534.2000122070312</ele>
        <time>2014-11-28T10:28:11.000Z</time>
      </trkpt>
      <trkpt lon="34.810158452019095" lat="30.58737549930811">
        <ele>534.4000244140625</ele>
        <time>2014-11-28T10:28:18.000Z</time>
      </trkpt>
      <trkpt lon="34.810415022075176" lat="30.58741506189108">
        <ele>534.5999755859375</ele>
        <time>2014-11-28T10:28:25.000Z</time>
      </trkpt>
      <trkpt lon="34.810657761991024" lat="30.587444733828306">
        <ele>534.4000244140625</ele>
        <time>2014-11-28T10:28:33.000Z</time>
      </trkpt>
      <trkpt lon="34.810961773619056" lat="30.587525283917785">
        <ele>534.2000122070312</ele>
        <time>2014-11-28T10:28:43.000Z</time>
      </trkpt>
      <trkpt lon="34.811170902103186" lat="30.587618071585894">
        <ele>534.0</ele>
        <time>2014-11-28T10:28:50.000Z</time>
      </trkpt>
      <trkpt lon="34.81142856180668" lat="30.58768873102963">
        <ele>533.5999755859375</ele>
        <time>2014-11-28T10:28:59.000Z</time>
      </trkpt>
      <trkpt lon="34.81161832809448" lat="30.587785206735134">
        <ele>533.0</ele>
        <time>2014-11-28T10:29:06.000Z</time>
      </trkpt>
      <trkpt lon="34.81177808716893" lat="30.58786215260625">
        <ele>532.5999755859375</ele>
        <time>2014-11-28T10:29:11.000Z</time>
      </trkpt>
      <trkpt lon="34.81206860393286" lat="30.587967596948147">
        <ele>532.0</ele>
        <time>2014-11-28T10:29:16.000Z</time>
      </trkpt>
      <trkpt lon="34.81233598664403" lat="30.588113022968173">
        <ele>532.2000122070312</ele>
        <time>2014-11-28T10:29:21.000Z</time>
      </trkpt>
      <trkpt lon="34.81238971464336" lat="30.588131798431277">
        <ele>532.2000122070312</ele>
        <time>2014-11-28T10:29:22.000Z</time>
      </trkpt>
      <trkpt lon="34.81244193390012" lat="30.588145712390542">
        <ele>532.4000244140625</ele>
        <time>2014-11-28T10:29:23.000Z</time>
      </trkpt>
      <trkpt lon="34.81249247677624" lat="30.58815384283662">
        <ele>532.4000244140625</ele>
        <time>2014-11-28T10:29:24.000Z</time>
      </trkpt>
      <trkpt lon="34.81253790669143" lat="30.588165493682027">
        <ele>532.4000244140625</ele>
        <time>2014-11-28T10:29:25.000Z</time>
      </trkpt>
      <trkpt lon="34.81257688254118" lat="30.588183514773846">
        <ele>532.4000244140625</ele>
        <time>2014-11-28T10:29:26.000Z</time>
      </trkpt>
      <trkpt lon="34.812865387648344" lat="30.588337322697043">
        <ele>532.5999755859375</ele>
        <time>2014-11-28T10:29:35.000Z</time>
      </trkpt>
      <trkpt lon="34.81309815309942" lat="30.588357523083687">
        <ele>532.4000244140625</ele>
        <time>2014-11-28T10:29:41.000Z</time>
      </trkpt>
      <trkpt lon="34.81346561573446" lat="30.58840362355113">
        <ele>532.0</ele>
        <time>2014-11-28T10:29:50.000Z</time>
      </trkpt>
      <trkpt lon="34.81360542587936" lat="30.588435726240277">
        <ele>532.0</ele>
        <time>2014-11-28T10:29:53.000Z</time>
      </trkpt>
      <trkpt lon="34.813653035089374" lat="30.588444024324417">
        <ele>532.0</ele>
        <time>2014-11-28T10:29:54.000Z</time>
      </trkpt>
      <trkpt lon="34.814178328961134" lat="30.58848903514445">
        <ele>530.7999877929688</ele>
        <time>2014-11-28T10:30:05.000Z</time>
      </trkpt>
      <trkpt lon="34.81461946852505" lat="30.588505379855633">
        <ele>529.5999755859375</ele>
        <time>2014-11-28T10:30:14.000Z</time>
      </trkpt>
      <trkpt lon="34.81505021452904" lat="30.588539829477668">
        <ele>528.5999755859375</ele>
        <time>2014-11-28T10:30:23.000Z</time>
      </trkpt>
      <trkpt lon="34.81534894555807" lat="30.588617529720068">
        <ele>527.5999755859375</ele>
        <time>2014-11-28T10:30:30.000Z</time>
      </trkpt>
      <trkpt lon="34.81580123305321" lat="30.58865323662758">
        <ele>528.0</ele>
        <time>2014-11-28T10:30:39.000Z</time>
      </trkpt>
      <trkpt lon="34.816320491954684" lat="30.58868894353509">
        <ele>528.2000122070312</ele>
        <time>2014-11-28T10:30:49.000Z</time>
      </trkpt>
      <trkpt lon="34.816704634577036" lat="30.588695649057627">
        <ele>527.7999877929688</ele>
        <time>2014-11-28T10:30:56.000Z</time>
      </trkpt>
      <trkpt lon="34.81720075942576" lat="30.588601268827915">
        <ele>528.4000244140625</ele>
        <time>2014-11-28T10:31:05.000Z</time>
      </trkpt>
      <trkpt lon="34.817614909261465" lat="30.588614847511053">
        <ele>528.7999877929688</ele>
        <time>2014-11-28T10:31:12.000Z</time>
      </trkpt>
      <trkpt lon="34.81804112903774" lat="30.58873789384961">
        <ele>528.7999877929688</ele>
        <time>2014-11-28T10:31:19.000Z</time>
      </trkpt>
      <trkpt lon="34.81824547983706" lat="30.588787849992514">
        <ele>528.7999877929688</ele>
        <time>2014-11-28T10:31:25.000Z</time>
      </trkpt>
      <trkpt lon="34.818558879196644" lat="30.588924642652273">
        <ele>528.7999877929688</ele>
        <time>2014-11-28T10:31:35.000Z</time>
      </trkpt>
      <trkpt lon="34.8186872061342" lat="30.58897728100419">
        <ele>529.0</ele>
        <time>2014-11-28T10:31:38.000Z</time>
      </trkpt>
      <trkpt lon="34.81913630850613" lat="30.58917911723256">
        <ele>528.2000122070312</ele>
        <time>2014-11-28T10:31:48.000Z</time>
      </trkpt>
      <trkpt lon="34.81952078640461" lat="30.589366368949413">
        <ele>527.7999877929688</ele>
        <time>2014-11-28T10:31:56.000Z</time>
      </trkpt>
      <trkpt lon="34.81957593932748" lat="30.589376594871283">
        <ele>527.7999877929688</ele>
        <time>2014-11-28T10:31:57.000Z</time>
      </trkpt>
      <trkpt lon="34.81962983496487" lat="30.58938288129866">
        <ele>527.7999877929688</ele>
        <time>2014-11-28T10:31:58.000Z</time>
      </trkpt>
      <trkpt lon="34.81973234564066" lat="30.589391766116023">
        <ele>528.0</ele>
        <time>2014-11-28T10:32:00.000Z</time>
      </trkpt>
      <trkpt lon="34.81982714496553" lat="30.589404087513685">
        <ele>528.0</ele>
        <time>2014-11-28T10:32:02.000Z</time>
      </trkpt>
      <trkpt lon="34.82005245052278" lat="30.58941942639649">
        <ele>528.2000122070312</ele>
        <time>2014-11-28T10:32:07.000Z</time>
      </trkpt>
      <trkpt lon="34.82042812742293" lat="30.58949964120984">
        <ele>528.5999755859375</ele>
        <time>2014-11-28T10:32:15.000Z</time>
      </trkpt>
      <trkpt lon="34.82070506550372" lat="30.589591674506664">
        <ele>527.2000122070312</ele>
        <time>2014-11-28T10:32:21.000Z</time>
      </trkpt>
      <trkpt lon="34.820750746876" lat="30.589615730568767">
        <ele>527.0</ele>
        <time>2014-11-28T10:32:22.000Z</time>
      </trkpt>
      <trkpt lon="34.82080112211406" lat="30.58963350020349">
        <ele>526.5999755859375</ele>
        <time>2014-11-28T10:32:23.000Z</time>
      </trkpt>
      <trkpt lon="34.82085468247533" lat="30.589646408334374">
        <ele>526.4000244140625</ele>
        <time>2014-11-28T10:32:24.000Z</time>
      </trkpt>
      <trkpt lon="34.820907739922404" lat="30.589653281494975">
        <ele>526.2000122070312</ele>
        <time>2014-11-28T10:32:25.000Z</time>
      </trkpt>
      <trkpt lon="34.82095937244594" lat="30.589656550437212">
        <ele>526.0</ele>
        <time>2014-11-28T10:32:26.000Z</time>
      </trkpt>
      <trkpt lon="34.82131694443524" lat="30.589700806885958">
        <ele>525.0</ele>
        <time>2014-11-28T10:32:33.000Z</time>
      </trkpt>
      <trkpt lon="34.821664122864604" lat="30.589755289256573">
        <ele>524.5999755859375</ele>
        <time>2014-11-28T10:32:40.000Z</time>
      </trkpt>
      <trkpt lon="34.82219469733536" lat="30.58981480076909">
        <ele>524.5999755859375</ele>
        <time>2014-11-28T10:32:49.000Z</time>
      </trkpt>
      <trkpt lon="34.8224432207644" lat="30.589863834902644">
        <ele>524.0</ele>
        <time>2014-11-28T10:32:53.000Z</time>
      </trkpt>
      <trkpt lon="34.82287388294935" lat="30.5899144615978">
        <ele>523.0</ele>
        <time>2014-11-28T10:33:00.000Z</time>
      </trkpt>
      <trkpt lon="34.82304370030761" lat="30.589926447719336">
        <ele>522.7999877929688</ele>
        <time>2014-11-28T10:33:03.000Z</time>
      </trkpt>
      <trkpt lon="34.823095835745335" lat="30.58993441052735">
        <ele>522.7999877929688</ele>
        <time>2014-11-28T10:33:04.000Z</time>
      </trkpt>
      <trkpt lon="34.823145624250174" lat="30.58994371443987">
        <ele>522.5999755859375</ele>
        <time>2014-11-28T10:33:05.000Z</time>
      </trkpt>
      <trkpt lon="34.82350017875433" lat="30.589990569278598">
        <ele>522.5999755859375</ele>
        <time>2014-11-28T10:33:12.000Z</time>
      </trkpt>
      <trkpt lon="34.82385942712426" lat="30.590012362226844">
        <ele>522.0</ele>
        <time>2014-11-28T10:33:19.000Z</time>
      </trkpt>
      <trkpt lon="34.82431557029486" lat="30.5900267791003">
        <ele>520.5999755859375</ele>
        <time>2014-11-28T10:33:28.000Z</time>
      </trkpt>
      <trkpt lon="34.82452377676964" lat="30.59002577327192">
        <ele>520.4000244140625</ele>
        <time>2014-11-28T10:33:32.000Z</time>
      </trkpt>
      <trkpt lon="34.8245791811496" lat="30.590031137689948">
        <ele>520.4000244140625</ele>
        <time>2014-11-28T10:33:33.000Z</time>
      </trkpt>
      <trkpt lon="34.82486676424742" lat="30.59005368500948">
        <ele>520.5999755859375</ele>
        <time>2014-11-28T10:33:38.000Z</time>
      </trkpt>
      <trkpt lon="34.824919402599335" lat="30.590051086619496">
        <ele>520.5999755859375</ele>
        <time>2014-11-28T10:33:39.000Z</time>
      </trkpt>
      <trkpt lon="34.825022583827376" lat="30.59003373607993">
        <ele>521.0</ele>
        <time>2014-11-28T10:33:41.000Z</time>
      </trkpt>
      <trkpt lon="34.82517027296126" lat="30.589986881241202">
        <ele>521.5999755859375</ele>
        <time>2014-11-28T10:33:44.000Z</time>
      </trkpt>
      <trkpt lon="34.82521628960967" lat="30.589963160455227">
        <ele>522.0</ele>
        <time>2014-11-28T10:33:45.000Z</time>
      </trkpt>
      <trkpt lon="34.82533992268145" lat="30.589877581223845">
        <ele>522.7999877929688</ele>
        <time>2014-11-28T10:33:48.000Z</time>
      </trkpt>
      <trkpt lon="34.82537269592285" lat="30.589840784668922">
        <ele>523.0</ele>
        <time>2014-11-28T10:33:49.000Z</time>
      </trkpt>
      <trkpt lon="34.825545866042376" lat="30.589685468003154">
        <ele>524.2000122070312</ele>
        <time>2014-11-28T10:33:55.000Z</time>
      </trkpt>
      <trkpt lon="34.82559632509947" lat="30.589677337557077">
        <ele>524.2000122070312</ele>
        <time>2014-11-28T10:33:57.000Z</time>
      </trkpt>
      <trkpt lon="34.825621554628015" lat="30.589681025594473">
        <ele>524.2000122070312</ele>
        <time>2014-11-28T10:33:58.000Z</time>
      </trkpt>
      <trkpt lon="34.825670421123505" lat="30.589670883491635">
        <ele>524.4000244140625</ele>
        <time>2014-11-28T10:34:00.000Z</time>
      </trkpt>
      <trkpt lon="34.82569112442434" lat="30.589657304808497">
        <ele>524.5999755859375</ele>
        <time>2014-11-28T10:34:01.000Z</time>
      </trkpt>
      <trkpt lon="34.82580453157425" lat="30.589624950662255">
        <ele>525.0</ele>
        <time>2014-11-28T10:34:07.000Z</time>
      </trkpt>
      <trkpt lon="34.825822468847036" lat="30.58962721377611">
        <ele>525.0</ele>
        <time>2014-11-28T10:34:08.000Z</time>
      </trkpt>
      <trkpt lon="34.82584409415722" lat="30.589631404727697">
        <ele>525.0</ele>
        <time>2014-11-28T10:34:09.000Z</time>
      </trkpt>
      <trkpt lon="34.82586949132383" lat="30.589633751660585">
        <ele>525.0</ele>
        <time>2014-11-28T10:34:10.000Z</time>
      </trkpt>
      <trkpt lon="34.825898157432675" lat="30.58963400311768">
        <ele>525.0</ele>
        <time>2014-11-28T10:34:11.000Z</time>
      </trkpt>
      <trkpt lon="34.82617207802832" lat="30.5896554607898">
        <ele>525.2000122070312</ele>
        <time>2014-11-28T10:34:18.000Z</time>
      </trkpt>
      <trkpt lon="34.826566614210606" lat="30.589704494923353">
        <ele>524.4000244140625</ele>
        <time>2014-11-28T10:34:26.000Z</time>
      </trkpt>
      <trkpt lon="34.826860316097736" lat="30.58977616019547">
        <ele>523.5999755859375</ele>
        <time>2014-11-28T10:34:32.000Z</time>
      </trkpt>
      <trkpt lon="34.82734018005431" lat="30.589910270646214">
        <ele>522.2000122070312</ele>
        <time>2014-11-28T10:34:41.000Z</time>
      </trkpt>
      <trkpt lon="34.82787628658116" lat="30.590011943131685">
        <ele>520.4000244140625</ele>
        <time>2014-11-28T10:34:50.000Z</time>
      </trkpt>
      <trkpt lon="34.82806454412639" lat="30.590086709707975">
        <ele>520.2000122070312</ele>
        <time>2014-11-28T10:34:54.000Z</time>
      </trkpt>
      <trkpt lon="34.828105280175805" lat="30.59011193923652">
        <ele>520.2000122070312</ele>
        <time>2014-11-28T10:34:55.000Z</time>
      </trkpt>
      <trkpt lon="34.8281383048743" lat="30.590140772983432">
        <ele>520.0</ele>
        <time>2014-11-28T10:34:56.000Z</time>
      </trkpt>
      <trkpt lon="34.8281678929925" lat="30.59017295949161">
        <ele>520.0</ele>
        <time>2014-11-28T10:34:57.000Z</time>
      </trkpt>
      <trkpt lon="34.828200498595834" lat="30.590207995846868">
        <ele>519.7999877929688</ele>
        <time>2014-11-28T10:34:58.000Z</time>
      </trkpt>
      <trkpt lon="34.828399401158094" lat="30.59050614014268">
        <ele>518.5999755859375</ele>
        <time>2014-11-28T10:35:05.000Z</time>
      </trkpt>
      <trkpt lon="34.828429240733385" lat="30.590547127649188">
        <ele>518.5999755859375</ele>
        <time>2014-11-28T10:35:06.000Z</time>
      </trkpt>
      <trkpt lon="34.8284628521651" lat="30.590580739080906">
        <ele>518.5999755859375</ele>
        <time>2014-11-28T10:35:07.000Z</time>
      </trkpt>
      <trkpt lon="34.828501492738724" lat="30.59060144238174">
        <ele>518.5999755859375</ele>
        <time>2014-11-28T10:35:08.000Z</time>
      </trkpt>
      <trkpt lon="34.82854717411101" lat="30.590610075742006">
        <ele>518.5999755859375</ele>
        <time>2014-11-28T10:35:09.000Z</time>
      </trkpt>
      <trkpt lon="34.82859008945525" lat="30.590616865083575">
        <ele>518.7999877929688</ele>
        <time>2014-11-28T10:35:10.000Z</time>
      </trkpt>
      <trkpt lon="34.82863241806626" lat="30.590620217844844">
        <ele>518.7999877929688</ele>
        <time>2014-11-28T10:35:11.000Z</time>
      </trkpt>
      <trkpt lon="34.828674076125026" lat="30.59061661362648">
        <ele>518.7999877929688</ele>
        <time>2014-11-28T10:35:12.000Z</time>
      </trkpt>
      <trkpt lon="34.828911451622844" lat="30.59060730971396">
        <ele>519.0</ele>
        <time>2014-11-28T10:35:17.000Z</time>
      </trkpt>
      <trkpt lon="34.82896450906992" lat="30.590608399361372">
        <ele>519.0</ele>
        <time>2014-11-28T10:35:18.000Z</time>
      </trkpt>
      <trkpt lon="34.829126447439194" lat="30.59061175212264">
        <ele>519.4000244140625</ele>
        <time>2014-11-28T10:35:21.000Z</time>
      </trkpt>
      <trkpt lon="34.82956222258508" lat="30.590598257258534">
        <ele>520.4000244140625</ele>
        <time>2014-11-28T10:35:30.000Z</time>
      </trkpt>
      <trkpt lon="34.82980001717806" lat="30.590739157050848">
        <ele>519.0</ele>
        <time>2014-11-28T10:35:37.000Z</time>
      </trkpt>
      <trkpt lon="34.82993002049625" lat="30.590877374634147">
        <ele>518.0</ele>
        <time>2014-11-28T10:35:42.000Z</time>
      </trkpt>
      <trkpt lon="34.82992951758206" lat="30.590901179239154">
        <ele>517.7999877929688</ele>
        <time>2014-11-28T10:35:43.000Z</time>
      </trkpt>
      <trkpt lon="34.829930355772376" lat="30.59092246927321">
        <ele>517.5999755859375</ele>
        <time>2014-11-28T10:35:44.000Z</time>
      </trkpt>
      <trkpt lon="34.829972349107265" lat="30.591086000204086">
        <ele>516.5999755859375</ele>
        <time>2014-11-28T10:35:50.000Z</time>
      </trkpt>
      <trkpt lon="34.83009170740843" lat="30.5911457631737">
        <ele>516.0</ele>
        <time>2014-11-28T10:35:54.000Z</time>
      </trkpt>
      <trkpt lon="34.83031751587987" lat="30.591277945786715">
        <ele>514.5999755859375</ele>
        <time>2014-11-28T10:36:01.000Z</time>
      </trkpt>
      <trkpt lon="34.83049303293228" lat="30.591343576088548">
        <ele>514.0</ele>
        <time>2014-11-28T10:36:06.000Z</time>
      </trkpt>
      <trkpt lon="34.83069319278002" lat="30.59141063131392">
        <ele>514.0</ele>
        <time>2014-11-28T10:36:12.000Z</time>
      </trkpt>
      <trkpt lon="34.83095797710121" lat="30.591425383463502">
        <ele>514.0</ele>
        <time>2014-11-28T10:36:19.000Z</time>
      </trkpt>
      <trkpt lon="34.83111111447215" lat="30.591445500031114">
        <ele>514.0</ele>
        <time>2014-11-28T10:36:24.000Z</time>
      </trkpt>
      <trkpt lon="34.831196861341596" lat="30.591403087601066">
        <ele>514.0</ele>
        <time>2014-11-28T10:36:30.000Z</time>
      </trkpt>
      <trkpt lon="34.83120599761605" lat="30.59140719473362">
        <ele>514.0</ele>
        <time>2014-11-28T10:36:31.000Z</time>
      </trkpt>
      <trkpt lon="34.83121857047081" lat="30.59141406789422">
        <ele>514.0</ele>
        <time>2014-11-28T10:36:32.000Z</time>
      </trkpt>
      <trkpt lon="34.8312312271446" lat="30.591416582465172">
        <ele>514.0</ele>
        <time>2014-11-28T10:36:33.000Z</time>
      </trkpt>
      <trkpt lon="34.83124933205545" lat="30.59141498990357">
        <ele>514.0</ele>
        <time>2014-11-28T10:36:34.000Z</time>
      </trkpt>
      <trkpt lon="34.83127229847014" lat="30.59141406789422">
        <ele>514.2000122070312</ele>
        <time>2014-11-28T10:36:35.000Z</time>
      </trkpt>
      <trkpt lon="34.831298450008035" lat="30.591413816437125">
        <ele>514.2000122070312</ele>
        <time>2014-11-28T10:36:36.000Z</time>
      </trkpt>
      <trkpt lon="34.831470530480146" lat="30.591404596343637">
        <ele>514.5999755859375</ele>
        <time>2014-11-28T10:36:42.000Z</time>
      </trkpt>
      <trkpt lon="34.83160422183573" lat="30.59140568599105">
        <ele>515.0</ele>
        <time>2014-11-28T10:36:48.000Z</time>
      </trkpt>
      <trkpt lon="34.83184302225709" lat="30.591451786458492">
        <ele>515.4000244140625</ele>
        <time>2014-11-28T10:36:56.000Z</time>
      </trkpt>
      <trkpt lon="34.83188987709582" lat="30.59145220555365">
        <ele>515.5999755859375</ele>
        <time>2014-11-28T10:37:00.000Z</time>
      </trkpt>
      <trkpt lon="34.83193279244006" lat="30.591463521122932">
        <ele>515.7999877929688</ele>
        <time>2014-11-28T10:37:07.000Z</time>
      </trkpt>
      <trkpt lon="34.831967828795314" lat="30.591451367363334">
        <ele>515.7999877929688</ele>
        <time>2014-11-28T10:37:15.000Z</time>
      </trkpt>
      <trkpt lon="34.83199356123805" lat="30.59145807288587">
        <ele>515.7999877929688</ele>
        <time>2014-11-28T10:37:21.000Z</time>
      </trkpt>
      <trkpt lon="34.832145189866424" lat="30.591471064835787">
        <ele>515.7999877929688</ele>
        <time>2014-11-28T10:37:28.000Z</time>
      </trkpt>
      <trkpt lon="34.83247007243335" lat="30.591528648510575">
        <ele>515.0</ele>
        <time>2014-11-28T10:37:38.000Z</time>
      </trkpt>
      <trkpt lon="34.8327973857522" lat="30.591609701514244">
        <ele>514.0</ele>
        <time>2014-11-28T10:37:48.000Z</time>
      </trkpt>
      <trkpt lon="34.833134254440665" lat="30.591711373999715">
        <ele>513.7999877929688</ele>
        <time>2014-11-28T10:37:58.000Z</time>
      </trkpt>
      <trkpt lon="34.83344094827771" lat="30.59184263460338">
        <ele>514.2000122070312</ele>
        <time>2014-11-28T10:38:08.000Z</time>
      </trkpt>
      <trkpt lon="34.833579836413264" lat="30.59185529127717">
        <ele>514.4000244140625</ele>
        <time>2014-11-28T10:38:14.000Z</time>
      </trkpt>
      <trkpt lon="34.83359559439123" lat="30.591850010678172">
        <ele>514.4000244140625</ele>
        <time>2014-11-28T10:38:24.000Z</time>
      </trkpt>
      <trkpt lon="34.83359584584832" lat="30.591871133074164">
        <ele>514.4000244140625</ele>
        <time>2014-11-28T10:38:45.000Z</time>
      </trkpt>
      <trkpt lon="34.83357824385166" lat="30.591867109760642">
        <ele>514.4000244140625</ele>
        <time>2014-11-28T10:38:58.000Z</time>
      </trkpt>
      <trkpt lon="34.83357170596719" lat="30.59186610393226">
        <ele>514.4000244140625</ele>
        <time>2014-11-28T10:39:25.000Z</time>
      </trkpt>
      <trkpt lon="34.83358846977353" lat="30.59187037870288">
        <ele>514.4000244140625</ele>
        <time>2014-11-28T10:39:40.000Z</time>
      </trkpt>
      <trkpt lon="34.833642449229956" lat="30.591861829161644">
        <ele>514.5999755859375</ele>
        <time>2014-11-28T10:39:50.000Z</time>
      </trkpt>
      <trkpt lon="34.83365912921727" lat="30.591865349560976">
        <ele>514.5999755859375</ele>
        <time>2014-11-28T10:40:13.000Z</time>
      </trkpt>
      <trkpt lon="34.833660554140806" lat="30.5918606556952">
        <ele>514.5999755859375</ele>
        <time>2014-11-28T10:40:37.000Z</time>
      </trkpt>
      <trkpt lon="34.8336573690176" lat="30.59186015278101">
        <ele>514.5999755859375</ele>
        <time>2014-11-28T10:40:58.000Z</time>
      </trkpt>
      <trkpt lon="34.833680586889386" lat="30.591858895495534">
        <ele>514.5999755859375</ele>
        <time>2014-11-28T10:41:22.000Z</time>
      </trkpt>
      <trkpt lon="34.833694752305746" lat="30.591853195801377">
        <ele>514.5999755859375</ele>
        <time>2014-11-28T10:41:42.000Z</time>
      </trkpt>
      <trkpt lon="34.83371453359723" lat="30.591850765049458">
        <ele>514.5999755859375</ele>
        <time>2014-11-28T10:42:03.000Z</time>
      </trkpt>
      <trkpt lon="34.83367773704231" lat="30.591857135295868">
        <ele>514.5999755859375</ele>
        <time>2014-11-28T10:42:18.000Z</time>
      </trkpt>
      <trkpt lon="34.83362903818488" lat="30.59183567762375">
        <ele>514.4000244140625</ele>
        <time>2014-11-28T10:42:31.000Z</time>
      </trkpt>
      <trkpt lon="34.83363482169807" lat="30.59182545170188">
        <ele>514.4000244140625</ele>
        <time>2014-11-28T10:42:47.000Z</time>
      </trkpt>
      <trkpt lon="34.83363255858421" lat="30.59182310476899">
        <ele>514.4000244140625</ele>
        <time>2014-11-28T10:43:02.000Z</time>
      </trkpt>
      <trkpt lon="34.833643455058336" lat="30.591830648481846">
        <ele>514.4000244140625</ele>
        <time>2014-11-28T10:43:24.000Z</time>
      </trkpt>
      <trkpt lon="34.83364110812545" lat="30.591828636825085">
        <ele>514.4000244140625</ele>
        <time>2014-11-28T10:43:43.000Z</time>
      </trkpt>
      <trkpt lon="34.83363155275583" lat="30.59183089993894">
        <ele>514.4000244140625</ele>
        <time>2014-11-28T10:44:07.000Z</time>
      </trkpt>
      <trkpt lon="34.83362317085266" lat="30.59183919802308">
        <ele>514.4000244140625</ele>
        <time>2014-11-28T10:44:29.000Z</time>
      </trkpt>
      <trkpt lon="34.83362400904298" lat="30.59182159602642">
        <ele>514.4000244140625</ele>
        <time>2014-11-28T10:44:49.000Z</time>
      </trkpt>
      <trkpt lon="34.8336211591959" lat="30.591812375932932">
        <ele>514.4000244140625</ele>
        <time>2014-11-28T10:45:11.000Z</time>
      </trkpt>
      <trkpt lon="34.83361495658755" lat="30.59180550277233">
        <ele>514.4000244140625</ele>
        <time>2014-11-28T10:45:30.000Z</time>
      </trkpt>
      <trkpt lon="34.833670277148485" lat="30.591824278235435">
        <ele>514.5999755859375</ele>
        <time>2014-11-28T10:45:36.000Z</time>
      </trkpt>
      <trkpt lon="34.83367681503296" lat="30.591825619339943">
        <ele>514.5999755859375</ele>
        <time>2014-11-28T10:45:47.000Z</time>
      </trkpt>
      <trkpt lon="34.83369047753513" lat="30.59183768928051">
        <ele>514.5999755859375</ele>
        <time>2014-11-28T10:46:04.000Z</time>
      </trkpt>
      <trkpt lon="34.833712354302406" lat="30.591845652088523">
        <ele>514.5999755859375</ele>
        <time>2014-11-28T10:46:27.000Z</time>
      </trkpt>
      <trkpt lon="34.83371042646468" lat="30.591840287670493">
        <ele>514.5999755859375</ele>
        <time>2014-11-28T10:46:51.000Z</time>
      </trkpt>
      <trkpt lon="34.83372190967202" lat="30.591837940737605">
        <ele>514.5999755859375</ele>
        <time>2014-11-28T10:47:16.000Z</time>
      </trkpt>
      <trkpt lon="34.833716209977865" lat="30.591832660138607">
        <ele>514.5999755859375</ele>
        <time>2014-11-28T10:47:40.000Z</time>
      </trkpt>
      <trkpt lon="34.83370673842728" lat="30.591829726472497">
        <ele>514.5999755859375</ele>
        <time>2014-11-28T10:48:01.000Z</time>
      </trkpt>
      <trkpt lon="34.83370439149439" lat="30.591832073405385">
        <ele>514.5999755859375</ele>
        <time>2014-11-28T10:48:25.000Z</time>
      </trkpt>
      <trkpt lon="34.8336885496974" lat="30.59181220829487">
        <ele>514.5999755859375</ele>
        <time>2014-11-28T10:48:44.000Z</time>
      </trkpt>
      <trkpt lon="34.83366524800658" lat="30.59179862961173">
        <ele>514.4000244140625</ele>
        <time>2014-11-28T10:48:53.000Z</time>
      </trkpt>
      <trkpt lon="34.83365284278989" lat="30.591792594641447">
        <ele>514.4000244140625</ele>
        <time>2014-11-28T10:49:00.000Z</time>
      </trkpt>
      <trkpt lon="34.83365032821894" lat="30.591776501387358">
        <ele>514.4000244140625</ele>
        <time>2014-11-28T10:49:03.000Z</time>
      </trkpt>
      <trkpt lon="34.8336489032954" lat="30.59176635928452">
        <ele>514.4000244140625</ele>
        <time>2014-11-28T10:49:04.000Z</time>
      </trkpt>
      <trkpt lon="34.833658542484045" lat="30.591725455597043">
        <ele>514.4000244140625</ele>
        <time>2014-11-28T10:49:07.000Z</time>
      </trkpt>
      <trkpt lon="34.833729788661" lat="30.591710535809398">
        <ele>514.4000244140625</ele>
        <time>2014-11-28T10:49:11.000Z</time>
      </trkpt>
      <trkpt lon="34.83397722244263" lat="30.591681953519583">
        <ele>514.0</ele>
        <time>2014-11-28T10:49:20.000Z</time>
      </trkpt>
      <trkpt lon="34.83417486771941" lat="30.59158849529922">
        <ele>513.7999877929688</ele>
        <time>2014-11-28T10:49:27.000Z</time>
      </trkpt>
      <trkpt lon="34.83437519520521" lat="30.591526553034782">
        <ele>513.4000244140625</ele>
        <time>2014-11-28T10:49:33.000Z</time>
      </trkpt>
      <trkpt lon="34.834585413336754" lat="30.591580281034112">
        <ele>513.2000122070312</ele>
        <time>2014-11-28T10:49:39.000Z</time>
      </trkpt>
      <trkpt lon="34.83479177579284" lat="30.591604337096214">
        <ele>513.0</ele>
        <time>2014-11-28T10:49:46.000Z</time>
      </trkpt>
      <trkpt lon="34.834994953125715" lat="30.591556057333946">
        <ele>513.5999755859375</ele>
        <time>2014-11-28T10:49:55.000Z</time>
      </trkpt>
      <trkpt lon="34.835130739957094" lat="30.591492857784033">
        <ele>514.0</ele>
        <time>2014-11-28T10:50:03.000Z</time>
      </trkpt>
      <trkpt lon="34.83528890646994" lat="30.59142387472093">
        <ele>514.5999755859375</ele>
        <time>2014-11-28T10:50:11.000Z</time>
      </trkpt>
      <trkpt lon="34.83549174852669" lat="30.59128942899406">
        <ele>515.7999877929688</ele>
        <time>2014-11-28T10:50:22.000Z</time>
      </trkpt>
      <trkpt lon="34.83565402217209" lat="30.5911716632545">
        <ele>517.0</ele>
        <time>2014-11-28T10:50:32.000Z</time>
      </trkpt>
      <trkpt lon="34.835694171488285" lat="30.591124054044485">
        <ele>517.4000244140625</ele>
        <time>2014-11-28T10:50:39.000Z</time>
      </trkpt>
      <trkpt lon="34.83567874878645" lat="30.591096226125956">
        <ele>517.4000244140625</ele>
        <time>2014-11-28T10:51:02.000Z</time>
      </trkpt>
      <trkpt lon="34.83569358475506" lat="30.591094885021448">
        <ele>517.4000244140625</ele>
        <time>2014-11-28T10:51:24.000Z</time>
      </trkpt>
      <trkpt lon="34.835700960829854" lat="30.59109346009791">
        <ele>517.4000244140625</ele>
        <time>2014-11-28T10:51:53.000Z</time>
      </trkpt>
      <trkpt lon="34.83571185730398" lat="30.591100752353668">
        <ele>517.5999755859375</ele>
        <time>2014-11-28T10:52:22.000Z</time>
      </trkpt>
      <trkpt lon="34.83570607379079" lat="30.591083401814103">
        <ele>517.5999755859375</ele>
        <time>2014-11-28T10:52:47.000Z</time>
      </trkpt>
      <trkpt lon="34.83576365746558" lat="30.591052724048495">
        <ele>518.0</ele>
        <time>2014-11-28T10:52:59.000Z</time>
      </trkpt>
      <trkpt lon="34.83581570908427" lat="30.591026404872537">
        <ele>518.4000244140625</ele>
        <time>2014-11-28T10:53:02.000Z</time>
      </trkpt>
      <trkpt lon="34.83600321225822" lat="30.590953649953008">
        <ele>519.0</ele>
        <time>2014-11-28T10:53:09.000Z</time>
      </trkpt>
      <trkpt lon="34.83621862716973" lat="30.59082766994834">
        <ele>519.4000244140625</ele>
        <time>2014-11-28T10:53:18.000Z</time>
      </trkpt>
      <trkpt lon="34.83635298907757" lat="30.590720549225807">
        <ele>519.4000244140625</ele>
        <time>2014-11-28T10:53:24.000Z</time>
      </trkpt>
      <trkpt lon="34.836494056507945" lat="30.590558778494596">
        <ele>520.0</ele>
        <time>2014-11-28T10:53:33.000Z</time>
      </trkpt>
      <trkpt lon="34.836636716499925" lat="30.590382842347026">
        <ele>521.0</ele>
        <time>2014-11-28T10:53:42.000Z</time>
      </trkpt>
      <trkpt lon="34.836782393977046" lat="30.590215707197785">
        <ele>522.2000122070312</ele>
        <time>2014-11-28T10:53:49.000Z</time>
      </trkpt>
      <trkpt lon="34.83695019967854" lat="30.590111017227173">
        <ele>523.7999877929688</ele>
        <time>2014-11-28T10:53:55.000Z</time>
      </trkpt>
      <trkpt lon="34.83708397485316" lat="30.59005368500948">
        <ele>524.7999877929688</ele>
        <time>2014-11-28T10:54:01.000Z</time>
      </trkpt>
      <trkpt lon="34.837240716442466" lat="30.589973470196128">
        <ele>525.0</ele>
        <time>2014-11-28T10:54:07.000Z</time>
      </trkpt>
      <trkpt lon="34.837450766935945" lat="30.589840533211827">
        <ele>525.2000122070312</ele>
        <time>2014-11-28T10:54:15.000Z</time>
      </trkpt>
      <trkpt lon="34.83754590153694" lat="30.589650264009833">
        <ele>526.2000122070312</ele>
        <time>2014-11-28T10:54:20.000Z</time>
      </trkpt>
      <trkpt lon="34.83755998313427" lat="30.589604414999485">
        <ele>526.5999755859375</ele>
        <time>2014-11-28T10:54:21.000Z</time>
      </trkpt>
      <trkpt lon="34.83768898062408" lat="30.58933057822287">
        <ele>528.4000244140625</ele>
        <time>2014-11-28T10:54:26.000Z</time>
      </trkpt>
      <trkpt lon="34.837719071656466" lat="30.589277436956763">
        <ele>528.4000244140625</ele>
        <time>2014-11-28T10:54:27.000Z</time>
      </trkpt>
      <trkpt lon="34.83775637112558" lat="30.589235778898">
        <ele>528.4000244140625</ele>
        <time>2014-11-28T10:54:28.000Z</time>
      </trkpt>
      <trkpt lon="34.83780037611723" lat="30.589204598218203">
        <ele>528.4000244140625</ele>
        <time>2014-11-28T10:54:29.000Z</time>
      </trkpt>
      <trkpt lon="34.83784530311823" lat="30.58918540365994">
        <ele>528.2000122070312</ele>
        <time>2014-11-28T10:54:30.000Z</time>
      </trkpt>
      <trkpt lon="34.8378864582628" lat="30.589174507185817">
        <ele>528.0</ele>
        <time>2014-11-28T10:54:31.000Z</time>
      </trkpt>
      <trkpt lon="34.8380487319082" lat="30.58911398984492">
        <ele>528.7999877929688</ele>
        <time>2014-11-28T10:54:37.000Z</time>
      </trkpt>
      <trkpt lon="34.838145123794675" lat="30.588987171649933">
        <ele>529.4000244140625</ele>
        <time>2014-11-28T10:54:45.000Z</time>
      </trkpt>
      <trkpt lon="34.83820295892656" lat="30.588865717872977">
        <ele>529.5999755859375</ele>
        <time>2014-11-28T10:54:52.000Z</time>
      </trkpt>
      <trkpt lon="34.838283425197005" lat="30.588745269924402">
        <ele>530.5999755859375</ele>
        <time>2014-11-28T10:54:59.000Z</time>
      </trkpt>
      <trkpt lon="34.838425079360604" lat="30.588550893589854">
        <ele>532.5999755859375</ele>
        <time>2014-11-28T10:55:09.000Z</time>
      </trkpt>
      <trkpt lon="34.83858081512153" lat="30.588467996567488">
        <ele>531.7999877929688</ele>
        <time>2014-11-28T10:55:18.000Z</time>
      </trkpt>
      <trkpt lon="34.83871953561902" lat="30.58838895522058">
        <ele>531.2000122070312</ele>
        <time>2014-11-28T10:55:25.000Z</time>
      </trkpt>
      <trkpt lon="34.83885205350816" lat="30.588325671851635">
        <ele>532.2000122070312</ele>
        <time>2014-11-28T10:55:33.000Z</time>
      </trkpt>
      <trkpt lon="34.839016338810325" lat="30.588268004357815">
        <ele>533.4000244140625</ele>
        <time>2014-11-28T10:55:42.000Z</time>
      </trkpt>
      <trkpt lon="34.83903285115957" lat="30.588262137025595">
        <ele>533.4000244140625</ele>
        <time>2014-11-28T10:55:43.000Z</time>
      </trkpt>
      <trkpt lon="34.839049112051725" lat="30.58825358748436">
        <ele>533.4000244140625</ele>
        <time>2014-11-28T10:55:44.000Z</time>
      </trkpt>
      <trkpt lon="34.83906629495323" lat="30.588244702666998">
        <ele>533.4000244140625</ele>
        <time>2014-11-28T10:55:45.000Z</time>
      </trkpt>
      <trkpt lon="34.83908565714955" lat="30.588240763172507">
        <ele>533.4000244140625</ele>
        <time>2014-11-28T10:55:46.000Z</time>
      </trkpt>
      <trkpt lon="34.8391835577786" lat="30.588228860870004">
        <ele>533.5999755859375</ele>
        <time>2014-11-28T10:55:51.000Z</time>
      </trkpt>
      <trkpt lon="34.83937785029411" lat="30.58810070157051">
        <ele>533.7999877929688</ele>
        <time>2014-11-28T10:56:01.000Z</time>
      </trkpt>
      <trkpt lon="34.83959184028208" lat="30.587983019649982">
        <ele>534.2000122070312</ele>
        <time>2014-11-28T10:56:10.000Z</time>
      </trkpt>
      <trkpt lon="34.83980826102197" lat="30.587878078222275">
        <ele>535.2000122070312</ele>
        <time>2014-11-28T10:56:18.000Z</time>
      </trkpt>
      <trkpt lon="34.840096766129136" lat="30.587678086012602">
        <ele>536.5999755859375</ele>
        <time>2014-11-28T10:56:27.000Z</time>
      </trkpt>
      <trkpt lon="34.840274546295404" lat="30.58756023645401">
        <ele>535.0</ele>
        <time>2014-11-28T10:56:31.000Z</time>
      </trkpt>
      <trkpt lon="34.84033724293113" lat="30.58753584511578">
        <ele>534.5999755859375</ele>
        <time>2014-11-28T10:56:32.000Z</time>
      </trkpt>
      <trkpt lon="34.84049423597753" lat="30.58748639188707">
        <ele>534.0</ele>
        <time>2014-11-28T10:56:34.000Z</time>
      </trkpt>
      <trkpt lon="34.84064703807235" lat="30.587432412430644">
        <ele>533.5999755859375</ele>
        <time>2014-11-28T10:56:36.000Z</time>
      </trkpt>
      <trkpt lon="34.84071602113545" lat="30.587421599775553">
        <ele>533.4000244140625</ele>
        <time>2014-11-28T10:56:37.000Z</time>
      </trkpt>
      <trkpt lon="34.84086069278419" lat="30.58742201887071">
        <ele>533.4000244140625</ele>
        <time>2014-11-28T10:56:40.000Z</time>
      </trkpt>
      <trkpt lon="34.8409518878907" lat="30.587414223700762">
        <ele>533.2000122070312</ele>
        <time>2014-11-28T10:56:42.000Z</time>
      </trkpt>
      <trkpt lon="34.8409984074533" lat="30.58740282431245">
        <ele>533.0</ele>
        <time>2014-11-28T10:56:43.000Z</time>
      </trkpt>
      <trkpt lon="34.841048112139106" lat="30.587387988343835">
        <ele>533.0</ele>
        <time>2014-11-28T10:56:44.000Z</time>
      </trkpt>
      <trkpt lon="34.84146318398416" lat="30.58719621039927">
        <ele>531.7999877929688</ele>
        <time>2014-11-28T10:56:52.000Z</time>
      </trkpt>
      <trkpt lon="34.84154859557748" lat="30.587147595360875">
        <ele>531.7999877929688</ele>
        <time>2014-11-28T10:56:54.000Z</time>
      </trkpt>
      <trkpt lon="34.841583631932735" lat="30.587119767442346">
        <ele>531.7999877929688</ele>
        <time>2014-11-28T10:56:55.000Z</time>
      </trkpt>
      <trkpt lon="34.841686645522714" lat="30.586993703618646">
        <ele>532.4000244140625</ele>
        <time>2014-11-28T10:56:59.000Z</time>
      </trkpt>
      <trkpt lon="34.84170491807163" lat="30.586954643949866">
        <ele>532.5999755859375</ele>
        <time>2014-11-28T10:57:00.000Z</time>
      </trkpt>
      <trkpt lon="34.84173106960952" lat="30.586917093023658">
        <ele>532.5999755859375</ele>
        <time>2014-11-28T10:57:01.000Z</time>
      </trkpt>
      <trkpt lon="34.841764848679304" lat="30.586878452450037">
        <ele>532.7999877929688</ele>
        <time>2014-11-28T10:57:02.000Z</time>
      </trkpt>
      <trkpt lon="34.84180483035743" lat="30.586839308962226">
        <ele>532.4000244140625</ele>
        <time>2014-11-28T10:57:03.000Z</time>
      </trkpt>
      <trkpt lon="34.84184908680618" lat="30.586804943159223">
        <ele>532.0</ele>
        <time>2014-11-28T10:57:04.000Z</time>
      </trkpt>
      <trkpt lon="34.842043379321694" lat="30.58663235977292">
        <ele>530.4000244140625</ele>
        <time>2014-11-28T10:57:09.000Z</time>
      </trkpt>
      <trkpt lon="34.8422434553504" lat="30.58647737838328">
        <ele>529.5999755859375</ele>
        <time>2014-11-28T10:57:15.000Z</time>
      </trkpt>
      <trkpt lon="34.842472951859236" lat="30.586453741416335">
        <ele>529.4000244140625</ele>
        <time>2014-11-28T10:57:20.000Z</time>
      </trkpt>
      <trkpt lon="34.84252014197409" lat="30.586438570171595">
        <ele>529.4000244140625</ele>
        <time>2014-11-28T10:57:21.000Z</time>
      </trkpt>
      <trkpt lon="34.84256406314671" lat="30.586420884355903">
        <ele>529.4000244140625</ele>
        <time>2014-11-28T10:57:22.000Z</time>
      </trkpt>
      <trkpt lon="34.84261150471866" lat="30.58639582246542">
        <ele>529.2000122070312</ele>
        <time>2014-11-28T10:57:23.000Z</time>
      </trkpt>
      <trkpt lon="34.8426628857851" lat="30.58636556379497">
        <ele>529.2000122070312</ele>
        <time>2014-11-28T10:57:24.000Z</time>
      </trkpt>
      <trkpt lon="34.842714769765735" lat="30.586333964020014">
        <ele>529.4000244140625</ele>
        <time>2014-11-28T10:57:25.000Z</time>
      </trkpt>
      <trkpt lon="34.84276430681348" lat="30.586298424750566">
        <ele>530.0</ele>
        <time>2014-11-28T10:57:26.000Z</time>
      </trkpt>
      <trkpt lon="34.84280789270997" lat="30.586260370910168">
        <ele>530.4000244140625</ele>
        <time>2014-11-28T10:57:27.000Z</time>
      </trkpt>
      <trkpt lon="34.84284468926489" lat="30.586219802498817">
        <ele>530.7999877929688</ele>
        <time>2014-11-28T10:57:28.000Z</time>
      </trkpt>
      <trkpt lon="34.842873103916645" lat="30.586179234087467">
        <ele>531.2000122070312</ele>
        <time>2014-11-28T10:57:29.000Z</time>
      </trkpt>
      <trkpt lon="34.842897076159716" lat="30.5861343909055">
        <ele>531.5999755859375</ele>
        <time>2014-11-28T10:57:30.000Z</time>
      </trkpt>
      <trkpt lon="34.842917108908296" lat="30.586086362600327">
        <ele>532.2000122070312</ele>
        <time>2014-11-28T10:57:31.000Z</time>
      </trkpt>
      <trkpt lon="34.842929765582085" lat="30.58603774756193">
        <ele>532.7999877929688</ele>
        <time>2014-11-28T10:57:32.000Z</time>
      </trkpt>
      <trkpt lon="34.84298961237073" lat="30.585903888568282">
        <ele>534.4000244140625</ele>
        <time>2014-11-28T10:57:35.000Z</time>
      </trkpt>
      <trkpt lon="34.84301928430796" lat="30.585864409804344">
        <ele>535.0</ele>
        <time>2014-11-28T10:57:36.000Z</time>
      </trkpt>
      <trkpt lon="34.84318105503917" lat="30.585688054561615">
        <ele>535.7999877929688</ele>
        <time>2014-11-28T10:57:41.000Z</time>
      </trkpt>
      <trkpt lon="34.84325925819576" lat="30.5854937620461">
        <ele>535.0</ele>
        <time>2014-11-28T10:57:47.000Z</time>
      </trkpt>
      <trkpt lon="34.84326143749058" lat="30.585331320762634">
        <ele>535.2000122070312</ele>
        <time>2014-11-28T10:57:54.000Z</time>
      </trkpt>
      <trkpt lon="34.84330384992063" lat="30.585125293582678">
        <ele>535.0</ele>
        <time>2014-11-28T10:58:02.000Z</time>
      </trkpt>
      <trkpt lon="34.84330586157739" lat="30.584914488717914">
        <ele>535.0</ele>
        <time>2014-11-28T10:58:10.000Z</time>
      </trkpt>
      <trkpt lon="34.84332472085953" lat="30.584663869813085">
        <ele>534.7999877929688</ele>
        <time>2014-11-28T10:58:19.000Z</time>
      </trkpt>
      <trkpt lon="34.84341038390994" lat="30.58439933694899">
        <ele>534.0</ele>
        <time>2014-11-28T10:58:27.000Z</time>
      </trkpt>
      <trkpt lon="34.84351247549057" lat="30.584125751629472">
        <ele>534.7999877929688</ele>
        <time>2014-11-28T10:58:36.000Z</time>
      </trkpt>
      <trkpt lon="34.84365287236869" lat="30.583845376968384">
        <ele>535.5999755859375</ele>
        <time>2014-11-28T10:58:44.000Z</time>
      </trkpt>
      <trkpt lon="34.84387692064047" lat="30.583500042557716">
        <ele>537.0</ele>
        <time>2014-11-28T10:58:54.000Z</time>
      </trkpt>
      <trkpt lon="34.84389225952327" lat="30.583459390327334">
        <ele>537.2000122070312</ele>
        <time>2014-11-28T10:58:55.000Z</time>
      </trkpt>
      <trkpt lon="34.84390340745449" lat="30.583414463326335">
        <ele>537.5999755859375</ele>
        <time>2014-11-28T10:58:56.000Z</time>
      </trkpt>
      <trkpt lon="34.84391472302377" lat="30.58311279863119">
        <ele>538.5999755859375</ele>
        <time>2014-11-28T10:59:03.000Z</time>
      </trkpt>
      <trkpt lon="34.84392478130758" lat="30.582962008193135">
        <ele>538.7999877929688</ele>
        <time>2014-11-28T10:59:06.000Z</time>
      </trkpt>
      <trkpt lon="34.843942718580365" lat="30.58292160741985">
        <ele>538.7999877929688</ele>
        <time>2014-11-28T10:59:07.000Z</time>
      </trkpt>
      <trkpt lon="34.84396333806217" lat="30.582886822521687">
        <ele>538.7999877929688</ele>
        <time>2014-11-28T10:59:08.000Z</time>
      </trkpt>
      <trkpt lon="34.843980269506574" lat="30.58285128325224">
        <ele>538.7999877929688</ele>
        <time>2014-11-28T10:59:09.000Z</time>
      </trkpt>
      <trkpt lon="34.843996446579695" lat="30.582814989611506">
        <ele>539.0</ele>
        <time>2014-11-28T10:59:10.000Z</time>
      </trkpt>
      <trkpt lon="34.84420322813094" lat="30.582577446475625">
        <ele>539.0</ele>
        <time>2014-11-28T10:59:18.000Z</time>
      </trkpt>
      <trkpt lon="34.84443800523877" lat="30.582364965230227">
        <ele>539.0</ele>
        <time>2014-11-28T10:59:27.000Z</time>
      </trkpt>
      <trkpt lon="34.84451528638601" lat="30.582145024091005">
        <ele>539.0</ele>
        <time>2014-11-28T10:59:35.000Z</time>
      </trkpt>
      <trkpt lon="34.844664400443435" lat="30.58201870881021">
        <ele>539.2000122070312</ele>
        <time>2014-11-28T10:59:41.000Z</time>
      </trkpt>
      <trkpt lon="34.84486204572022" lat="30.581798516213894">
        <ele>539.7999877929688</ele>
        <time>2014-11-28T10:59:51.000Z</time>
      </trkpt>
      <trkpt lon="34.845016272738576" lat="30.58152233250439">
        <ele>539.0</ele>
        <time>2014-11-28T11:00:00.000Z</time>
      </trkpt>
      <trkpt lon="34.84517670236528" lat="30.581318400800228">
        <ele>538.2000122070312</ele>
        <time>2014-11-28T11:00:07.000Z</time>
      </trkpt>
      <trkpt lon="34.84539329074323" lat="30.581008438020945">
        <ele>538.4000244140625</ele>
        <time>2014-11-28T11:00:17.000Z</time>
      </trkpt>
      <trkpt lon="34.84563167206943" lat="30.580710293725133">
        <ele>540.2000122070312</ele>
        <time>2014-11-28T11:00:27.000Z</time>
      </trkpt>
      <trkpt lon="34.84568238258362" lat="30.58051616884768">
        <ele>540.4000244140625</ele>
        <time>2014-11-28T11:00:33.000Z</time>
      </trkpt>
      <trkpt lon="34.845763854682446" lat="30.58033579029143">
        <ele>541.4000244140625</ele>
        <time>2014-11-28T11:00:41.000Z</time>
      </trkpt>
      <trkpt lon="34.84582227654755" lat="30.580143677070737">
        <ele>542.4000244140625</ele>
        <time>2014-11-28T11:00:49.000Z</time>
      </trkpt>
      <trkpt lon="34.84577835537493" lat="30.579932536929846">
        <ele>542.4000244140625</ele>
        <time>2014-11-28T11:00:56.000Z</time>
      </trkpt>
      <trkpt lon="34.845787240192294" lat="30.579765401780605">
        <ele>542.4000244140625</ele>
        <time>2014-11-28T11:01:03.000Z</time>
      </trkpt>
      <trkpt lon="34.84593166038394" lat="30.579585107043386">
        <ele>543.2000122070312</ele>
        <time>2014-11-28T11:01:12.000Z</time>
      </trkpt>
      <trkpt lon="34.84617155045271" lat="30.579418390989304">
        <ele>544.0</ele>
        <time>2014-11-28T11:01:20.000Z</time>
      </trkpt>
      <trkpt lon="34.84641160815954" lat="30.579234324395657">
        <ele>545.2000122070312</ele>
        <time>2014-11-28T11:01:29.000Z</time>
      </trkpt>
      <trkpt lon="34.846623754128814" lat="30.579045731574297">
        <ele>546.4000244140625</ele>
        <time>2014-11-28T11:01:39.000Z</time>
      </trkpt>
      <trkpt lon="34.846820225939155" lat="30.578892258927226">
        <ele>547.4000244140625</ele>
        <time>2014-11-28T11:01:47.000Z</time>
      </trkpt>
      <trkpt lon="34.84710889868438" lat="30.578643232584">
        <ele>548.0</ele>
        <time>2014-11-28T11:01:58.000Z</time>
      </trkpt>
      <trkpt lon="34.84726614318788" lat="30.578497890383005">
        <ele>547.7999877929688</ele>
        <time>2014-11-28T11:02:04.000Z</time>
      </trkpt>
      <trkpt lon="34.84753536991775" lat="30.578240985050797">
        <ele>548.0</ele>
        <time>2014-11-28T11:02:14.000Z</time>
      </trkpt>
      <trkpt lon="34.84778372570872" lat="30.57800126262009">
        <ele>549.0</ele>
        <time>2014-11-28T11:02:24.000Z</time>
      </trkpt>
      <trkpt lon="34.84802252613008" lat="30.577764976769686">
        <ele>549.4000244140625</ele>
        <time>2014-11-28T11:02:34.000Z</time>
      </trkpt>
      <trkpt lon="34.8482789285481" lat="30.57760253548622">
        <ele>550.4000244140625</ele>
        <time>2014-11-28T11:02:43.000Z</time>
      </trkpt>
      <trkpt lon="34.848604230210185" lat="30.577474795281887">
        <ele>551.5999755859375</ele>
        <time>2014-11-28T11:02:53.000Z</time>
      </trkpt>
      <trkpt lon="34.84885266982019" lat="30.57735426351428">
        <ele>552.2000122070312</ele>
        <time>2014-11-28T11:03:02.000Z</time>
      </trkpt>
      <trkpt lon="34.849207643419504" lat="30.577221158891916">
        <ele>552.0</ele>
        <time>2014-11-28T11:03:13.000Z</time>
      </trkpt>
      <trkpt lon="34.849480390548706" lat="30.57719450443983">
        <ele>552.0</ele>
        <time>2014-11-28T11:03:21.000Z</time>
      </trkpt>
      <trkpt lon="34.84971223399043" lat="30.577105823904276">
        <ele>553.0</ele>
        <time>2014-11-28T11:03:29.000Z</time>
      </trkpt>
      <trkpt lon="34.84997450374067" lat="30.57697556912899">
        <ele>554.4000244140625</ele>
        <time>2014-11-28T11:03:38.000Z</time>
      </trkpt>
      <trkpt lon="34.85026879236102" lat="30.57684699073434">
        <ele>556.0</ele>
        <time>2014-11-28T11:03:47.000Z</time>
      </trkpt>
      <trkpt lon="34.85038454644382" lat="30.576799465343356">
        <ele>556.4000244140625</ele>
        <time>2014-11-28T11:03:52.000Z</time>
      </trkpt>
      <trkpt lon="34.85051681287587" lat="30.57676400989294">
        <ele>557.0</ele>
        <time>2014-11-28T11:04:01.000Z</time>
      </trkpt>
      <trkpt lon="34.85075921751559" lat="30.57672930881381">
        <ele>558.0</ele>
        <time>2014-11-28T11:04:10.000Z</time>
      </trkpt>
      <trkpt lon="34.850980415940285" lat="30.57673215866089">
        <ele>557.7999877929688</ele>
        <time>2014-11-28T11:04:17.000Z</time>
      </trkpt>
      <trkpt lon="34.85127428546548" lat="30.576644148677588">
        <ele>557.5999755859375</ele>
        <time>2014-11-28T11:04:27.000Z</time>
      </trkpt>
      <trkpt lon="34.85141803510487" lat="30.57662084698677">
        <ele>558.4000244140625</ele>
        <time>2014-11-28T11:04:31.000Z</time>
      </trkpt>
      <trkpt lon="34.85146136954427" lat="30.576622942462564">
        <ele>558.7999877929688</ele>
        <time>2014-11-28T11:04:32.000Z</time>
      </trkpt>
      <trkpt lon="34.85164308920503" lat="30.576704749837518">
        <ele>559.5999755859375</ele>
        <time>2014-11-28T11:04:39.000Z</time>
      </trkpt>
      <trkpt lon="34.851704109460115" lat="30.576877584680915">
        <ele>560.5999755859375</ele>
        <time>2014-11-28T11:04:45.000Z</time>
      </trkpt>
      <trkpt lon="34.8517410736531" lat="30.57699702680111">
        <ele>560.7999877929688</ele>
        <time>2014-11-28T11:04:51.000Z</time>
      </trkpt>
      <trkpt lon="34.85174090601504" lat="30.577059891074896">
        <ele>561.0</ele>
        <time>2014-11-28T11:04:55.000Z</time>
      </trkpt>
      <trkpt lon="34.85174937173724" lat="30.577072128653526">
        <ele>561.0</ele>
        <time>2014-11-28T11:04:56.000Z</time>
      </trkpt>
      <trkpt lon="34.851765213534236" lat="30.577082689851522">
        <ele>561.2000122070312</ele>
        <time>2014-11-28T11:04:57.000Z</time>
      </trkpt>
      <trkpt lon="34.851790023967624" lat="30.577099537476897">
        <ele>561.2000122070312</ele>
        <time>2014-11-28T11:04:58.000Z</time>
      </trkpt>
      <trkpt lon="34.85182153992355" lat="30.577109763398767">
        <ele>561.4000244140625</ele>
        <time>2014-11-28T11:04:59.000Z</time>
      </trkpt>
      <trkpt lon="34.85184660181403" lat="30.577114121988416">
        <ele>561.5999755859375</ele>
        <time>2014-11-28T11:05:00.000Z</time>
      </trkpt>
      <trkpt lon="34.851866299286485" lat="30.577117642387748">
        <ele>561.7999877929688</ele>
        <time>2014-11-28T11:05:01.000Z</time>
      </trkpt>
      <trkpt lon="34.851870657876134" lat="30.57713138870895">
        <ele>561.7999877929688</ele>
        <time>2014-11-28T11:05:05.000Z</time>
      </trkpt>
      <trkpt lon="34.85183905810118" lat="30.577159551903605">
        <ele>561.5999755859375</ele>
        <time>2014-11-28T11:05:13.000Z</time>
      </trkpt>
      <trkpt lon="34.8518549837172" lat="30.577222080901265">
        <ele>562.5999755859375</ele>
        <time>2014-11-28T11:05:21.000Z</time>
      </trkpt>
      <trkpt lon="34.85184894874692" lat="30.577237755060196">
        <ele>562.7999877929688</ele>
        <time>2014-11-28T11:05:29.000Z</time>
      </trkpt>
      <trkpt lon="34.85188306309283" lat="30.577228534966707">
        <ele>562.7999877929688</ele>
        <time>2014-11-28T11:05:37.000Z</time>
      </trkpt>
      <trkpt lon="34.85191700980067" lat="30.57721151970327">
        <ele>562.7999877929688</ele>
        <time>2014-11-28T11:05:50.000Z</time>
      </trkpt>
      <trkpt lon="34.85202161595225" lat="30.57720565237105">
        <ele>563.2000122070312</ele>
        <time>2014-11-28T11:05:58.000Z</time>
      </trkpt>
      <trkpt lon="34.85203427262604" lat="30.577212441712618">
        <ele>563.4000244140625</ele>
        <time>2014-11-28T11:05:59.000Z</time>
      </trkpt>
      <trkpt lon="34.85204994678497" lat="30.577215878292918">
        <ele>563.5999755859375</ele>
        <time>2014-11-28T11:06:00.000Z</time>
      </trkpt>
      <trkpt lon="34.85206796787679" lat="30.57721604593098">
        <ele>563.7999877929688</ele>
        <time>2014-11-28T11:06:01.000Z</time>
      </trkpt>
      <trkpt lon="34.85208783298731" lat="30.577211435884237">
        <ele>563.7999877929688</ele>
        <time>2014-11-28T11:06:02.000Z</time>
      </trkpt>
      <trkpt lon="34.852106189355254" lat="30.577202886343002">
        <ele>563.7999877929688</ele>
        <time>2014-11-28T11:06:03.000Z</time>
      </trkpt>
      <trkpt lon="34.8522471729666" lat="30.577152678743005">
        <ele>564.2000122070312</ele>
        <time>2014-11-28T11:06:12.000Z</time>
      </trkpt>
      <trkpt lon="34.852265026420355" lat="30.57715091854334">
        <ele>564.2000122070312</ele>
        <time>2014-11-28T11:06:19.000Z</time>
      </trkpt>
      <trkpt lon="34.852263601496816" lat="30.577155277132988">
        <ele>564.2000122070312</ele>
        <time>2014-11-28T11:06:38.000Z</time>
      </trkpt>
      <trkpt lon="34.85228765755892" lat="30.57714999653399">
        <ele>564.4000244140625</ele>
        <time>2014-11-28T11:06:57.000Z</time>
      </trkpt>
      <trkpt lon="34.85226192511618" lat="30.577151756733656">
        <ele>564.2000122070312</ele>
        <time>2014-11-28T11:07:15.000Z</time>
      </trkpt>
      <trkpt lon="34.85234750434756" lat="30.577140524983406">
        <ele>564.7999877929688</ele>
        <time>2014-11-28T11:07:21.000Z</time>
      </trkpt>
      <trkpt lon="34.8525199200958" lat="30.577162401750684">
        <ele>566.2000122070312</ele>
        <time>2014-11-28T11:07:30.000Z</time>
      </trkpt>
      <trkpt lon="34.85271739773452" lat="30.577155612409115">
        <ele>567.5999755859375</ele>
        <time>2014-11-28T11:07:40.000Z</time>
      </trkpt>
      <trkpt lon="34.85286491923034" lat="30.577146224677563">
        <ele>568.5999755859375</ele>
        <time>2014-11-28T11:07:47.000Z</time>
      </trkpt>
      <trkpt lon="34.8530154582113" lat="30.577122922986746">
        <ele>567.7999877929688</ele>
        <time>2014-11-28T11:07:55.000Z</time>
      </trkpt>
      <trkpt lon="34.853187119588256" lat="30.5770908202976">
        <ele>566.5999755859375</ele>
        <time>2014-11-28T11:08:02.000Z</time>
      </trkpt>
      <trkpt lon="34.85340680927038" lat="30.57705377228558">
        <ele>565.2000122070312</ele>
        <time>2014-11-28T11:08:09.000Z</time>
      </trkpt>
      <trkpt lon="34.85355382785201" lat="30.57703181169927">
        <ele>564.2000122070312</ele>
        <time>2014-11-28T11:08:16.000Z</time>
      </trkpt>
      <trkpt lon="34.853733871132135" lat="30.577042708173394">
        <ele>564.7999877929688</ele>
        <time>2014-11-28T11:08:24.000Z</time>
      </trkpt>
      <trkpt lon="34.853895558044314" lat="30.577121078968048">
        <ele>565.4000244140625</ele>
        <time>2014-11-28T11:08:31.000Z</time>
      </trkpt>
      <trkpt lon="34.854109631851315" lat="30.577307241037488">
        <ele>568.5999755859375</ele>
        <time>2014-11-28T11:08:41.000Z</time>
      </trkpt>
      <trkpt lon="34.85429805703461" lat="30.577444452792406">
        <ele>571.5999755859375</ele>
        <time>2014-11-28T11:08:50.000Z</time>
      </trkpt>
      <trkpt lon="34.854551777243614" lat="30.577516118064523">
        <ele>573.5999755859375</ele>
        <time>2014-11-28T11:08:59.000Z</time>
      </trkpt>
      <trkpt lon="34.85476811416447" lat="30.577608235180378">
        <ele>574.5999755859375</ele>
        <time>2014-11-28T11:09:08.000Z</time>
      </trkpt>
      <trkpt lon="34.85494405031204" lat="30.577754750847816">
        <ele>576.7999877929688</ele>
        <time>2014-11-28T11:09:17.000Z</time>
      </trkpt>
      <trkpt lon="34.85509039834142" lat="30.577874528244138">
        <ele>578.4000244140625</ele>
        <time>2014-11-28T11:09:23.000Z</time>
      </trkpt>
      <trkpt lon="34.85511453822255" lat="30.577902607619762">
        <ele>578.7999877929688</ele>
        <time>2014-11-28T11:09:24.000Z</time>
      </trkpt>
      <trkpt lon="34.85513004474342" lat="30.577921299263835">
        <ele>579.0</ele>
        <time>2014-11-28T11:09:25.000Z</time>
      </trkpt>
      <trkpt lon="34.85514043830335" lat="30.577939990907907">
        <ele>579.4000244140625</ele>
        <time>2014-11-28T11:09:26.000Z</time>
      </trkpt>
      <trkpt lon="34.855153849348426" lat="30.577958934009075">
        <ele>579.5999755859375</ele>
        <time>2014-11-28T11:09:27.000Z</time>
      </trkpt>
      <trkpt lon="34.855164075270295" lat="30.577981984242797">
        <ele>580.0</ele>
        <time>2014-11-28T11:09:28.000Z</time>
      </trkpt>
      <trkpt lon="34.85517404973507" lat="30.57800562120974">
        <ele>580.4000244140625</ele>
        <time>2014-11-28T11:09:29.000Z</time>
      </trkpt>
      <trkpt lon="34.85522677190602" lat="30.578161692246795">
        <ele>579.4000244140625</ele>
        <time>2014-11-28T11:09:35.000Z</time>
      </trkpt>
      <trkpt lon="34.855201207101345" lat="30.578305022791028">
        <ele>578.4000244140625</ele>
        <time>2014-11-28T11:09:42.000Z</time>
      </trkpt>
      <trkpt lon="34.85517983324826" lat="30.57847023010254">
        <ele>577.2000122070312</ele>
        <time>2014-11-28T11:09:50.000Z</time>
      </trkpt>
      <trkpt lon="34.855238841846585" lat="30.57860031723976">
        <ele>576.2000122070312</ele>
        <time>2014-11-28T11:09:59.000Z</time>
      </trkpt>
      <trkpt lon="34.85526842996478" lat="30.578692769631743">
        <ele>575.4000244140625</ele>
        <time>2014-11-28T11:10:06.000Z</time>
      </trkpt>
      <trkpt lon="34.85527295619249" lat="30.578802824020386">
        <ele>574.7999877929688</ele>
        <time>2014-11-28T11:10:12.000Z</time>
      </trkpt>
      <trkpt lon="34.85521671362221" lat="30.579048413783312">
        <ele>573.7999877929688</ele>
        <time>2014-11-28T11:10:16.000Z</time>
      </trkpt>
      <trkpt lon="34.8551915679127" lat="30.579107338562608">
        <ele>573.5999755859375</ele>
        <time>2014-11-28T11:10:17.000Z</time>
      </trkpt>
      <trkpt lon="34.85516835004091" lat="30.579160982742906">
        <ele>573.4000244140625</ele>
        <time>2014-11-28T11:10:18.000Z</time>
      </trkpt>
      <trkpt lon="34.85515208914876" lat="30.579211190342903">
        <ele>573.2000122070312</ele>
        <time>2014-11-28T11:10:19.000Z</time>
      </trkpt>
      <trkpt lon="34.85514622181654" lat="30.579257793724537">
        <ele>573.0</ele>
        <time>2014-11-28T11:10:20.000Z</time>
      </trkpt>
      <trkpt lon="34.85514831729233" lat="30.57930540293455">
        <ele>572.7999877929688</ele>
        <time>2014-11-28T11:10:21.000Z</time>
      </trkpt>
      <trkpt lon="34.85515929758549" lat="30.579355945810676">
        <ele>572.4000244140625</ele>
        <time>2014-11-28T11:10:22.000Z</time>
      </trkpt>
      <trkpt lon="34.85517111606896" lat="30.579406656324863">
        <ele>572.0</ele>
        <time>2014-11-28T11:10:23.000Z</time>
      </trkpt>
      <trkpt lon="34.85517539083958" lat="30.579456528648734">
        <ele>571.5999755859375</ele>
        <time>2014-11-28T11:10:24.000Z</time>
      </trkpt>
      <trkpt lon="34.855170361697674" lat="30.579505311325192">
        <ele>571.4000244140625</ele>
        <time>2014-11-28T11:10:25.000Z</time>
      </trkpt>
      <trkpt lon="34.85515980049968" lat="30.579551830887794">
        <ele>571.2000122070312</ele>
        <time>2014-11-28T11:10:26.000Z</time>
      </trkpt>
      <trkpt lon="34.8551498260349" lat="30.579594327136874">
        <ele>571.0</ele>
        <time>2014-11-28T11:10:27.000Z</time>
      </trkpt>
      <trkpt lon="34.85514027066529" lat="30.579633554443717">
        <ele>570.7999877929688</ele>
        <time>2014-11-28T11:10:28.000Z</time>
      </trkpt>
      <trkpt lon="34.855129374191165" lat="30.57967043481767">
        <ele>570.5999755859375</ele>
        <time>2014-11-28T11:10:29.000Z</time>
      </trkpt>
      <trkpt lon="34.855123087763786" lat="30.579706225544214">
        <ele>570.4000244140625</ele>
        <time>2014-11-28T11:10:30.000Z</time>
      </trkpt>
      <trkpt lon="34.85514814965427" lat="30.579868415370584">
        <ele>568.5999755859375</ele>
        <time>2014-11-28T11:10:36.000Z</time>
      </trkpt>
      <trkpt lon="34.85518695786595" lat="30.5799332074821">
        <ele>567.7999877929688</ele>
        <time>2014-11-28T11:10:39.000Z</time>
      </trkpt>
      <trkpt lon="34.8552018776536" lat="30.579943349584937">
        <ele>567.5999755859375</ele>
        <time>2014-11-28T11:10:40.000Z</time>
      </trkpt>
      <trkpt lon="34.855211433023214" lat="30.579957263544202">
        <ele>567.4000244140625</ele>
        <time>2014-11-28T11:10:41.000Z</time>
      </trkpt>
      <trkpt lon="34.85535970889032" lat="30.580047452822328">
        <ele>565.5999755859375</ele>
        <time>2014-11-28T11:10:49.000Z</time>
      </trkpt>
      <trkpt lon="34.85543950460851" lat="30.58011786080897">
        <ele>565.0</ele>
        <time>2014-11-28T11:10:52.000Z</time>
      </trkpt>
      <trkpt lon="34.85546037554741" lat="30.580154489725828">
        <ele>564.5999755859375</ele>
        <time>2014-11-28T11:10:53.000Z</time>
      </trkpt>
      <trkpt lon="34.855478815734386" lat="30.58019715361297">
        <ele>564.2000122070312</ele>
        <time>2014-11-28T11:10:54.000Z</time>
      </trkpt>
      <trkpt lon="34.85550496727228" lat="30.580288348719478">
        <ele>563.4000244140625</ele>
        <time>2014-11-28T11:10:56.000Z</time>
      </trkpt>
      <trkpt lon="34.855514857918024" lat="30.58037987910211">
        <ele>562.5999755859375</ele>
        <time>2014-11-28T11:10:58.000Z</time>
      </trkpt>
      <trkpt lon="34.85551460646093" lat="30.580426985397935">
        <ele>562.2000122070312</ele>
        <time>2014-11-28T11:10:59.000Z</time>
      </trkpt>
      <trkpt lon="34.85549348406494" lat="30.580731919035316">
        <ele>560.4000244140625</ele>
        <time>2014-11-28T11:11:05.000Z</time>
      </trkpt>
      <trkpt lon="34.85549650155008" lat="30.580789418891072">
        <ele>560.2000122070312</ele>
        <time>2014-11-28T11:11:06.000Z</time>
      </trkpt>
      <trkpt lon="34.855506559833884" lat="30.580839458853006">
        <ele>560.0</ele>
        <time>2014-11-28T11:11:07.000Z</time>
      </trkpt>
      <trkpt lon="34.85552089288831" lat="30.580884721130133">
        <ele>559.7999877929688</ele>
        <time>2014-11-28T11:11:08.000Z</time>
      </trkpt>
      <trkpt lon="34.855533298105" lat="30.580927385017276">
        <ele>559.5999755859375</ele>
        <time>2014-11-28T11:11:09.000Z</time>
      </trkpt>
      <trkpt lon="34.85554168000817" lat="30.580965857952833">
        <ele>559.5999755859375</ele>
        <time>2014-11-28T11:11:10.000Z</time>
      </trkpt>
      <trkpt lon="34.8555713519454" lat="30.581114050000906">
        <ele>559.0</ele>
        <time>2014-11-28T11:11:15.000Z</time>
      </trkpt>
      <trkpt lon="34.85555131919682" lat="30.581356454640627">
        <ele>558.2000122070312</ele>
        <time>2014-11-28T11:11:22.000Z</time>
      </trkpt>
      <trkpt lon="34.85545861534774" lat="30.58154856786132">
        <ele>557.5999755859375</ele>
        <time>2014-11-28T11:11:28.000Z</time>
      </trkpt>
      <trkpt lon="34.855380496010184" lat="30.581649653613567">
        <ele>557.4000244140625</ele>
        <time>2014-11-28T11:11:33.000Z</time>
      </trkpt>
      <trkpt lon="34.85531385987997" lat="30.58168930001557">
        <ele>557.4000244140625</ele>
        <time>2014-11-28T11:11:36.000Z</time>
      </trkpt>
      <trkpt lon="34.85530648380518" lat="30.58170882984996">
        <ele>557.4000244140625</ele>
        <time>2014-11-28T11:11:37.000Z</time>
      </trkpt>
      <trkpt lon="34.85530908219516" lat="30.581727605313063">
        <ele>557.4000244140625</ele>
        <time>2014-11-28T11:11:38.000Z</time>
      </trkpt>
      <trkpt lon="34.85531955957413" lat="30.581746883690357">
        <ele>557.4000244140625</ele>
        <time>2014-11-28T11:11:39.000Z</time>
      </trkpt>
      <trkpt lon="34.8553364071995" lat="30.581767838448286">
        <ele>557.2000122070312</ele>
        <time>2014-11-28T11:11:40.000Z</time>
      </trkpt>
      <trkpt lon="34.8553900513798" lat="30.581882083788514">
        <ele>556.7999877929688</ele>
        <time>2014-11-28T11:11:46.000Z</time>
      </trkpt>
      <trkpt lon="34.85551234334707" lat="30.58212080039084">
        <ele>556.4000244140625</ele>
        <time>2014-11-28T11:11:54.000Z</time>
      </trkpt>
      <trkpt lon="34.855650812387466" lat="30.582284666597843">
        <ele>556.5999755859375</ele>
        <time>2014-11-28T11:11:59.000Z</time>
      </trkpt>
      <trkpt lon="34.85567285679281" lat="30.582324732095003">
        <ele>556.5999755859375</ele>
        <time>2014-11-28T11:12:00.000Z</time>
      </trkpt>
      <trkpt lon="34.85569012351334" lat="30.582368401810527">
        <ele>556.7999877929688</ele>
        <time>2014-11-28T11:12:01.000Z</time>
      </trkpt>
      <trkpt lon="34.85573161393404" lat="30.582569986581802">
        <ele>556.7999877929688</ele>
        <time>2014-11-28T11:12:07.000Z</time>
      </trkpt>
      <trkpt lon="34.855781737715006" lat="30.582741731777787">
        <ele>556.7999877929688</ele>
        <time>2014-11-28T11:12:12.000Z</time>
      </trkpt>
      <trkpt lon="34.85596957616508" lat="30.583095364272594">
        <ele>556.7999877929688</ele>
        <time>2014-11-28T11:12:19.000Z</time>
      </trkpt>
      <trkpt lon="34.85614291392267" lat="30.58338487520814">
        <ele>556.4000244140625</ele>
        <time>2014-11-28T11:12:25.000Z</time>
      </trkpt>
      <trkpt lon="34.856183314695954" lat="30.58343726210296">
        <ele>556.4000244140625</ele>
        <time>2014-11-28T11:12:26.000Z</time>
      </trkpt>
      <trkpt lon="34.856235701590776" lat="30.583479423075914">
        <ele>556.4000244140625</ele>
        <time>2014-11-28T11:12:27.000Z</time>
      </trkpt>
      <trkpt lon="34.856292866170406" lat="30.583517979830503">
        <ele>556.2000122070312</ele>
        <time>2014-11-28T11:12:28.000Z</time>
      </trkpt>
      <trkpt lon="34.85635153949261" lat="30.583543963730335">
        <ele>556.0</ele>
        <time>2014-11-28T11:12:29.000Z</time>
      </trkpt>
      <trkpt lon="34.856566954404116" lat="30.58364672586322">
        <ele>555.7999877929688</ele>
        <time>2014-11-28T11:12:33.000Z</time>
      </trkpt>
      <trkpt lon="34.85675420612097" lat="30.583793576806784">
        <ele>555.2000122070312</ele>
        <time>2014-11-28T11:12:37.000Z</time>
      </trkpt>
      <trkpt lon="34.85681044869125" lat="30.58382861316204">
        <ele>555.0</ele>
        <time>2014-11-28T11:12:38.000Z</time>
      </trkpt>
      <trkpt lon="34.85687155276537" lat="30.58386323042214">
        <ele>555.2000122070312</ele>
        <time>2014-11-28T11:12:39.000Z</time>
      </trkpt>
      <trkpt lon="34.85711202956736" lat="30.58400354348123">
        <ele>556.0</ele>
        <time>2014-11-28T11:12:43.000Z</time>
      </trkpt>
      <trkpt lon="34.8571755643934" lat="30.58402994647622">
        <ele>555.7999877929688</ele>
        <time>2014-11-28T11:12:44.000Z</time>
      </trkpt>
      <trkpt lon="34.857240691781044" lat="30.584046710282564">
        <ele>555.4000244140625</ele>
        <time>2014-11-28T11:12:45.000Z</time>
      </trkpt>
      <trkpt lon="34.85741998068988" lat="30.584102114662528">
        <ele>555.0</ele>
        <time>2014-11-28T11:12:48.000Z</time>
      </trkpt>
      <trkpt lon="34.85746004618704" lat="30.584124326705933">
        <ele>555.0</ele>
        <time>2014-11-28T11:12:49.000Z</time>
      </trkpt>
      <trkpt lon="34.85749214887619" lat="30.584150729700923">
        <ele>555.0</ele>
        <time>2014-11-28T11:12:50.000Z</time>
      </trkpt>
      <trkpt lon="34.857591055333614" lat="30.58424879796803">
        <ele>555.2000122070312</ele>
        <time>2014-11-28T11:12:53.000Z</time>
      </trkpt>
      <trkpt lon="34.857642352581024" lat="30.58427754789591">
        <ele>555.2000122070312</ele>
        <time>2014-11-28T11:12:54.000Z</time>
      </trkpt>
      <trkpt lon="34.857875537127256" lat="30.584373269230127">
        <ele>555.0</ele>
        <time>2014-11-28T11:12:58.000Z</time>
      </trkpt>
      <trkpt lon="34.857917949557304" lat="30.584405455738306">
        <ele>554.7999877929688</ele>
        <time>2014-11-28T11:12:59.000Z</time>
      </trkpt>
      <trkpt lon="34.85816395841539" lat="30.58460209518671">
        <ele>554.0</ele>
        <time>2014-11-28T11:13:05.000Z</time>
      </trkpt>
      <trkpt lon="34.85832271166146" lat="30.584672335535288">
        <ele>553.4000244140625</ele>
        <time>2014-11-28T11:13:11.000Z</time>
      </trkpt>
      <trkpt lon="34.85847836360335" lat="30.584805440157652">
        <ele>553.5999755859375</ele>
        <time>2014-11-28T11:13:17.000Z</time>
      </trkpt>
      <trkpt lon="34.858703250065446" lat="30.58498472906649">
        <ele>554.0</ele>
        <time>2014-11-28T11:13:24.000Z</time>
      </trkpt>
      <trkpt lon="34.85899167135358" lat="30.585138788446784">
        <ele>551.7999877929688</ele>
        <time>2014-11-28T11:13:30.000Z</time>
      </trkpt>
      <trkpt lon="34.859056212008" lat="30.58515664190054">
        <ele>551.2000122070312</ele>
        <time>2014-11-28T11:13:31.000Z</time>
      </trkpt>
      <trkpt lon="34.85912075266242" lat="30.58516493998468">
        <ele>550.4000244140625</ele>
        <time>2014-11-28T11:13:32.000Z</time>
      </trkpt>
      <trkpt lon="34.85918479040265" lat="30.585167538374662">
        <ele>549.5999755859375</ele>
        <time>2014-11-28T11:13:33.000Z</time>
      </trkpt>
      <trkpt lon="34.85924773849547" lat="30.58516980148852">
        <ele>549.2000122070312</ele>
        <time>2014-11-28T11:13:34.000Z</time>
      </trkpt>
      <trkpt lon="34.85930984839797" lat="30.58517516590655">
        <ele>548.7999877929688</ele>
        <time>2014-11-28T11:13:35.000Z</time>
      </trkpt>
      <trkpt lon="34.85937028191984" lat="30.58518505655229">
        <ele>548.5999755859375</ele>
        <time>2014-11-28T11:13:36.000Z</time>
      </trkpt>
      <trkpt lon="34.85942845232785" lat="30.585199054330587">
        <ele>548.4000244140625</ele>
        <time>2014-11-28T11:13:37.000Z</time>
      </trkpt>
      <trkpt lon="34.85948561690748" lat="30.585217410698533">
        <ele>548.2000122070312</ele>
        <time>2014-11-28T11:13:38.000Z</time>
      </trkpt>
      <trkpt lon="34.85954194329679" lat="30.58523870073259">
        <ele>548.0</ele>
        <time>2014-11-28T11:13:39.000Z</time>
      </trkpt>
      <trkpt lon="34.859856851398945" lat="30.58536820113659">
        <ele>546.5999755859375</ele>
        <time>2014-11-28T11:13:46.000Z</time>
      </trkpt>
      <trkpt lon="34.860084503889084" lat="30.58548060245812">
        <ele>545.4000244140625</ele>
        <time>2014-11-28T11:13:53.000Z</time>
      </trkpt>
      <trkpt lon="34.86022364348173" lat="30.58564974926412">
        <ele>544.4000244140625</ele>
        <time>2014-11-28T11:14:00.000Z</time>
      </trkpt>
      <trkpt lon="34.860345516353846" lat="30.58592962101102">
        <ele>542.7999877929688</ele>
        <time>2014-11-28T11:14:08.000Z</time>
      </trkpt>
      <trkpt lon="34.86047677695751" lat="30.58633916079998">
        <ele>541.0</ele>
        <time>2014-11-28T11:14:18.000Z</time>
      </trkpt>
      <trkpt lon="34.86055422574282" lat="30.586430355906487">
        <ele>541.0</ele>
        <time>2014-11-28T11:14:21.000Z</time>
      </trkpt>
      <trkpt lon="34.86060258932412" lat="30.586440078914165">
        <ele>541.2000122070312</ele>
        <time>2014-11-28T11:14:22.000Z</time>
      </trkpt>
      <trkpt lon="34.860813058912754" lat="30.586494728922844">
        <ele>541.2000122070312</ele>
        <time>2014-11-28T11:14:26.000Z</time>
      </trkpt>
      <trkpt lon="34.860853208228946" lat="30.586520545184612">
        <ele>541.2000122070312</ele>
        <time>2014-11-28T11:14:27.000Z</time>
      </trkpt>
      <trkpt lon="34.860886819660664" lat="30.58654929511249">
        <ele>541.2000122070312</ele>
        <time>2014-11-28T11:14:28.000Z</time>
      </trkpt>
      <trkpt lon="34.86100232228637" lat="30.586630515754223">
        <ele>541.4000244140625</ele>
        <time>2014-11-28T11:14:33.000Z</time>
      </trkpt>
      <trkpt lon="34.861144395545125" lat="30.586696146056056">
        <ele>541.4000244140625</ele>
        <time>2014-11-28T11:14:40.000Z</time>
      </trkpt>
      <trkpt lon="34.861448742449284" lat="30.58682388626039">
        <ele>542.2000122070312</ele>
        <time>2014-11-28T11:14:49.000Z</time>
      </trkpt>
      <trkpt lon="34.861650075763464" lat="30.58691432699561">
        <ele>542.5999755859375</ele>
        <time>2014-11-28T11:14:56.000Z</time>
      </trkpt>
      <trkpt lon="34.86175702884793" lat="30.586957074701786">
        <ele>543.0</ele>
        <time>2014-11-28T11:14:59.000Z</time>
      </trkpt>
      <trkpt lon="34.86180103383958" lat="30.586979957297444">
        <ele>543.2000122070312</ele>
        <time>2014-11-28T11:15:00.000Z</time>
      </trkpt>
      <trkpt lon="34.86198811791837" lat="30.587085401639342">
        <ele>543.7999877929688</ele>
        <time>2014-11-28T11:15:06.000Z</time>
      </trkpt>
      <trkpt lon="34.86201242543757" lat="30.58711406774819">
        <ele>543.7999877929688</ele>
        <time>2014-11-28T11:15:12.000Z</time>
      </trkpt>
      <trkpt lon="34.86207637935877" lat="30.58711599558592">
        <ele>544.0</ele>
        <time>2014-11-28T11:15:19.000Z</time>
      </trkpt>
      <trkpt lon="34.86215852200985" lat="30.587143152952194">
        <ele>544.2000122070312</ele>
        <time>2014-11-28T11:15:25.000Z</time>
      </trkpt>
      <trkpt lon="34.86236622557044" lat="30.587234599515796">
        <ele>545.5999755859375</ele>
        <time>2014-11-28T11:15:33.000Z</time>
      </trkpt>
      <trkpt lon="34.86260678619146" lat="30.5873466655612">
        <ele>548.2000122070312</ele>
        <time>2014-11-28T11:15:42.000Z</time>
      </trkpt>
      <trkpt lon="34.86279630102217" lat="30.58740969747305">
        <ele>549.7999877929688</ele>
        <time>2014-11-28T11:15:50.000Z</time>
      </trkpt>
      <trkpt lon="34.8630038369447" lat="30.58747231028974">
        <ele>550.4000244140625</ele>
        <time>2014-11-28T11:15:56.000Z</time>
      </trkpt>
      <trkpt lon="34.86345679499209" lat="30.587554201483727">
        <ele>550.2000122070312</ele>
        <time>2014-11-28T11:16:04.000Z</time>
      </trkpt>
      <trkpt lon="34.86413304693997" lat="30.587684037163854">
        <ele>545.4000244140625</ele>
        <time>2014-11-28T11:16:15.000Z</time>
      </trkpt>
      <trkpt lon="34.8642922192812" lat="30.587701806798577">
        <ele>543.7999877929688</ele>
        <time>2014-11-28T11:16:18.000Z</time>
      </trkpt>
      <trkpt lon="34.86434628255665" lat="30.587700298056006">
        <ele>543.5999755859375</ele>
        <time>2014-11-28T11:16:19.000Z</time>
      </trkpt>
      <trkpt lon="34.86439850181341" lat="30.58769216760993">
        <ele>543.4000244140625</ele>
        <time>2014-11-28T11:16:20.000Z</time>
      </trkpt>
      <trkpt lon="34.86444636248052" lat="30.587678169831634">
        <ele>543.2000122070312</ele>
        <time>2014-11-28T11:16:21.000Z</time>
      </trkpt>
      <trkpt lon="34.86448827199638" lat="30.58766232803464">
        <ele>543.2000122070312</ele>
        <time>2014-11-28T11:16:22.000Z</time>
      </trkpt>
      <trkpt lon="34.86452448181808" lat="30.587644474580884">
        <ele>543.0</ele>
        <time>2014-11-28T11:16:23.000Z</time>
      </trkpt>
      <trkpt lon="34.8647497035563" lat="30.58759393170476">
        <ele>542.2000122070312</ele>
        <time>2014-11-28T11:16:29.000Z</time>
      </trkpt>
      <trkpt lon="34.864964950829744" lat="30.587603067979217">
        <ele>541.0</ele>
        <time>2014-11-28T11:16:35.000Z</time>
      </trkpt>
      <trkpt lon="34.86500828526914" lat="30.58761161752045">
        <ele>540.7999877929688</ele>
        <time>2014-11-28T11:16:36.000Z</time>
      </trkpt>
      <trkpt lon="34.86504768021405" lat="30.587624106556177">
        <ele>540.7999877929688</ele>
        <time>2014-11-28T11:16:37.000Z</time>
      </trkpt>
      <trkpt lon="34.865116411820054" lat="30.58765495195985">
        <ele>540.4000244140625</ele>
        <time>2014-11-28T11:16:39.000Z</time>
      </trkpt>
      <trkpt lon="34.86514633521438" lat="30.58768638409674">
        <ele>540.2000122070312</ele>
        <time>2014-11-28T11:16:40.000Z</time>
      </trkpt>
      <trkpt lon="34.865173157304525" lat="30.587719408795238">
        <ele>540.0</ele>
        <time>2014-11-28T11:16:41.000Z</time>
      </trkpt>
      <trkpt lon="34.86523208208382" lat="30.58779082261026">
        <ele>539.5999755859375</ele>
        <time>2014-11-28T11:16:43.000Z</time>
      </trkpt>
      <trkpt lon="34.86526980064809" lat="30.58782108128071">
        <ele>539.4000244140625</ele>
        <time>2014-11-28T11:16:44.000Z</time>
      </trkpt>
      <trkpt lon="34.865312380716205" lat="30.587844466790557">
        <ele>539.2000122070312</ele>
        <time>2014-11-28T11:16:45.000Z</time>
      </trkpt>
      <trkpt lon="34.865480521693826" lat="30.587958376854658">
        <ele>538.2000122070312</ele>
        <time>2014-11-28T11:16:50.000Z</time>
      </trkpt>
      <trkpt lon="34.86549980007112" lat="30.5879907310009">
        <ele>537.7999877929688</ele>
        <time>2014-11-28T11:16:51.000Z</time>
      </trkpt>
      <trkpt lon="34.8655182402581" lat="30.58803607709706">
        <ele>537.5999755859375</ele>
        <time>2014-11-28T11:16:52.000Z</time>
      </trkpt>
      <trkpt lon="34.865567442029715" lat="30.58814998716116">
        <ele>536.5999755859375</ele>
        <time>2014-11-28T11:16:54.000Z</time>
      </trkpt>
      <trkpt lon="34.865608010441065" lat="30.588199188932776">
        <ele>536.2000122070312</ele>
        <time>2014-11-28T11:16:55.000Z</time>
      </trkpt>
      <trkpt lon="34.8656562063843" lat="30.588237829506397">
        <ele>535.7999877929688</ele>
        <time>2014-11-28T11:16:56.000Z</time>
      </trkpt>
      <trkpt lon="34.86574279144406" lat="30.588304633274674">
        <ele>535.0</ele>
        <time>2014-11-28T11:16:58.000Z</time>
      </trkpt>
      <trkpt lon="34.86599584110081" lat="30.58859766460955">
        <ele>532.4000244140625</ele>
        <time>2014-11-28T11:17:06.000Z</time>
      </trkpt>
      <trkpt lon="34.86620740033686" lat="30.588871920481324">
        <ele>530.4000244140625</ele>
        <time>2014-11-28T11:17:13.000Z</time>
      </trkpt>
      <trkpt lon="34.86624704673886" lat="30.58890838176012">
        <ele>530.5999755859375</ele>
        <time>2014-11-28T11:17:14.000Z</time>
      </trkpt>
      <trkpt lon="34.86629130318761" lat="30.588935371488333">
        <ele>530.7999877929688</ele>
        <time>2014-11-28T11:17:15.000Z</time>
      </trkpt>
      <trkpt lon="34.866334553807974" lat="30.58895925991237">
        <ele>530.7999877929688</ele>
        <time>2014-11-28T11:17:16.000Z</time>
      </trkpt>
      <trkpt lon="34.86636674031615" lat="30.588978957384825">
        <ele>531.0</ele>
        <time>2014-11-28T11:17:17.000Z</time>
      </trkpt>
      <trkpt lon="34.86639096401632" lat="30.588999073952436">
        <ele>531.0</ele>
        <time>2014-11-28T11:17:18.000Z</time>
      </trkpt>
      <trkpt lon="34.86653605476022" lat="30.58911507949233">
        <ele>531.7999877929688</ele>
        <time>2014-11-28T11:17:25.000Z</time>
      </trkpt>
      <trkpt lon="34.8667424172163" lat="30.58926905505359">
        <ele>533.0</ele>
        <time>2014-11-28T11:17:30.000Z</time>
      </trkpt>
      <trkpt lon="34.86695741303265" lat="30.589458318427205">
        <ele>534.2000122070312</ele>
        <time>2014-11-28T11:17:36.000Z</time>
      </trkpt>
      <trkpt lon="34.867046512663364" lat="30.58952403254807">
        <ele>534.5999755859375</ele>
        <time>2014-11-28T11:17:38.000Z</time>
      </trkpt>
      <trkpt lon="34.86715530976653" lat="30.589577509090304">
        <ele>534.4000244140625</ele>
        <time>2014-11-28T11:17:40.000Z</time>
      </trkpt>
      <trkpt lon="34.86721666529775" lat="30.5895949434489">
        <ele>534.2000122070312</ele>
        <time>2014-11-28T11:17:41.000Z</time>
      </trkpt>
      <trkpt lon="34.86756719648838" lat="30.589704494923353">
        <ele>532.4000244140625</ele>
        <time>2014-11-28T11:17:46.000Z</time>
      </trkpt>
      <trkpt lon="34.867622684687376" lat="30.589742800220847">
        <ele>532.0</ele>
        <time>2014-11-28T11:17:47.000Z</time>
      </trkpt>
      <trkpt lon="34.86766115762293" lat="30.589792924001813">
        <ele>531.7999877929688</ele>
        <time>2014-11-28T11:17:48.000Z</time>
      </trkpt>
      <trkpt lon="34.86768689006567" lat="30.589844975620508">
        <ele>531.5999755859375</ele>
        <time>2014-11-28T11:17:49.000Z</time>
      </trkpt>
      <trkpt lon="34.867705749347806" lat="30.58989635668695">
        <ele>531.5999755859375</ele>
        <time>2014-11-28T11:17:50.000Z</time>
      </trkpt>
      <trkpt lon="34.86772217787802" lat="30.589938014745712">
        <ele>531.5999755859375</ele>
        <time>2014-11-28T11:17:51.000Z</time>
      </trkpt>
      <trkpt lon="34.86773726530373" lat="30.589968860149384">
        <ele>531.4000244140625</ele>
        <time>2014-11-28T11:17:52.000Z</time>
      </trkpt>
      <trkpt lon="34.86775386147201" lat="30.589997861534357">
        <ele>531.4000244140625</ele>
        <time>2014-11-28T11:17:53.000Z</time>
      </trkpt>
      <trkpt lon="34.867774648591876" lat="30.590027030557394">
        <ele>531.2000122070312</ele>
        <time>2014-11-28T11:17:54.000Z</time>
      </trkpt>
      <trkpt lon="34.86801512539387" lat="30.590216293931007">
        <ele>529.5999755859375</ele>
        <time>2014-11-28T11:18:01.000Z</time>
      </trkpt>
      <trkpt lon="34.86819206736982" lat="30.590351996943355">
        <ele>528.4000244140625</ele>
        <time>2014-11-28T11:18:05.000Z</time>
      </trkpt>
      <trkpt lon="34.86846188083291" lat="30.59051745571196">
        <ele>526.2000122070312</ele>
        <time>2014-11-28T11:18:10.000Z</time>
      </trkpt>
      <trkpt lon="34.868524577468634" lat="30.590543188154697">
        <ele>525.7999877929688</ele>
        <time>2014-11-28T11:18:11.000Z</time>
      </trkpt>
      <trkpt lon="34.86898616887629" lat="30.590713173151016">
        <ele>523.4000244140625</ele>
        <time>2014-11-28T11:18:18.000Z</time>
      </trkpt>
      <trkpt lon="34.869136456400156" lat="30.59074661694467">
        <ele>522.7999877929688</ele>
        <time>2014-11-28T11:18:20.000Z</time>
      </trkpt>
      <trkpt lon="34.869282972067595" lat="30.590766482055187">
        <ele>522.4000244140625</ele>
        <time>2014-11-28T11:18:22.000Z</time>
      </trkpt>
      <trkpt lon="34.8693466745317" lat="30.590779976919293">
        <ele>522.0</ele>
        <time>2014-11-28T11:18:23.000Z</time>
      </trkpt>
      <trkpt lon="34.86957826651633" lat="30.59085264801979">
        <ele>521.4000244140625</ele>
        <time>2014-11-28T11:18:27.000Z</time>
      </trkpt>
      <trkpt lon="34.8700734693557" lat="30.591070912778378">
        <ele>521.0</ele>
        <time>2014-11-28T11:18:36.000Z</time>
      </trkpt>
      <trkpt lon="34.87031243741512" lat="30.591163532808423">
        <ele>521.4000244140625</ele>
        <time>2014-11-28T11:18:40.000Z</time>
      </trkpt>
      <trkpt lon="34.87074653618038" lat="30.591502245515585">
        <ele>519.2000122070312</ele>
        <time>2014-11-28T11:18:49.000Z</time>
      </trkpt>
      <trkpt lon="34.87104727886617" lat="30.59185529127717">
        <ele>516.7999877929688</ele>
        <time>2014-11-28T11:18:57.000Z</time>
      </trkpt>
      <trkpt lon="34.87122899852693" lat="30.592139270156622">
        <ele>515.2000122070312</ele>
        <time>2014-11-28T11:19:03.000Z</time>
      </trkpt>
      <trkpt lon="34.87147240899503" lat="30.59258141554892">
        <ele>514.0</ele>
        <time>2014-11-28T11:19:12.000Z</time>
      </trkpt>
      <trkpt lon="34.87175420857966" lat="30.592923229560256">
        <ele>512.7999877929688</ele>
        <time>2014-11-28T11:19:20.000Z</time>
      </trkpt>
      <trkpt lon="34.871865855529904" lat="30.59302842244506">
        <ele>512.5999755859375</ele>
        <time>2014-11-28T11:19:23.000Z</time>
      </trkpt>
      <trkpt lon="34.87195109948516" lat="30.59307971969247">
        <ele>512.4000244140625</ele>
        <time>2014-11-28T11:19:25.000Z</time>
      </trkpt>
      <trkpt lon="34.87221026793122" lat="30.593201341107488">
        <ele>512.4000244140625</ele>
        <time>2014-11-28T11:19:31.000Z</time>
      </trkpt>
      <trkpt lon="34.87225200980902" lat="30.593216260895133">
        <ele>512.4000244140625</ele>
        <time>2014-11-28T11:19:32.000Z</time>
      </trkpt>
      <trkpt lon="34.87229282967746" lat="30.593232018873096">
        <ele>512.5999755859375</ele>
        <time>2014-11-28T11:19:33.000Z</time>
      </trkpt>
      <trkpt lon="34.87233188934624" lat="30.593250207602978">
        <ele>512.5999755859375</ele>
        <time>2014-11-28T11:19:34.000Z</time>
      </trkpt>
      <trkpt lon="34.87236466258764" lat="30.59326697140932">
        <ele>512.7999877929688</ele>
        <time>2014-11-28T11:19:35.000Z</time>
      </trkpt>
      <trkpt lon="34.87241914495826" lat="30.593286752700806">
        <ele>512.7999877929688</ele>
        <time>2014-11-28T11:19:40.000Z</time>
      </trkpt>
      <trkpt lon="34.87242526374757" lat="30.593276526778936">
        <ele>512.7999877929688</ele>
        <time>2014-11-28T11:19:58.000Z</time>
      </trkpt>
      <trkpt lon="34.87242945469916" lat="30.593281807377934">
        <ele>512.7999877929688</ele>
        <time>2014-11-28T11:20:16.000Z</time>
      </trkpt>
      <trkpt lon="34.87242459319532" lat="30.59328205883503">
        <ele>512.7999877929688</ele>
        <time>2014-11-28T11:20:37.000Z</time>
      </trkpt>
      <trkpt lon="34.87242258153856" lat="30.593285327777267">
        <ele>512.7999877929688</ele>
        <time>2014-11-28T11:20:57.000Z</time>
      </trkpt>
      <trkpt lon="34.87242425791919" lat="30.59329337440431">
        <ele>512.7999877929688</ele>
        <time>2014-11-28T11:21:17.000Z</time>
      </trkpt>
      <trkpt lon="34.87242409028113" lat="30.593292452394962">
        <ele>512.7999877929688</ele>
        <time>2014-11-28T11:21:38.000Z</time>
      </trkpt>
      <trkpt lon="34.87241973169148" lat="30.593294547870755">
        <ele>512.7999877929688</ele>
        <time>2014-11-28T11:22:02.000Z</time>
      </trkpt>
      <trkpt lon="34.87241453491151" lat="30.593295637518167">
        <ele>512.7999877929688</ele>
        <time>2014-11-28T11:22:24.000Z</time>
      </trkpt>
      <trkpt lon="34.87241839058697" lat="30.593293206766248">
        <ele>512.7999877929688</ele>
        <time>2014-11-28T11:22:48.000Z</time>
      </trkpt>
      <trkpt lon="34.872429287061095" lat="30.593295050784945">
        <ele>512.7999877929688</ele>
        <time>2014-11-28T11:23:08.000Z</time>
      </trkpt>
      <trkpt lon="34.87243205308914" lat="30.593286836519837">
        <ele>512.7999877929688</ele>
        <time>2014-11-28T11:23:31.000Z</time>
      </trkpt>
      <trkpt lon="34.87244353629649" lat="30.59328750707209">
        <ele>513.0</ele>
        <time>2014-11-28T11:23:59.000Z</time>
      </trkpt>
      <trkpt lon="34.872441943734884" lat="30.59327577240765">
        <ele>513.0</ele>
        <time>2014-11-28T11:24:22.000Z</time>
      </trkpt>
      <trkpt lon="34.87246809527278" lat="30.59328800998628">
        <ele>513.0</ele>
        <time>2014-11-28T11:24:43.000Z</time>
      </trkpt>
      <trkpt lon="34.87251603975892" lat="30.593339474871755">
        <ele>513.0</ele>
        <time>2014-11-28T11:24:49.000Z</time>
      </trkpt>
      <trkpt lon="34.87250958569348" lat="30.593356993049383">
        <ele>513.0</ele>
        <time>2014-11-28T11:24:50.000Z</time>
      </trkpt>
      <trkpt lon="34.87249935977161" lat="30.593372583389282">
        <ele>513.0</ele>
        <time>2014-11-28T11:24:51.000Z</time>
      </trkpt>
      <trkpt lon="34.87248175777495" lat="30.59338607825339">
        <ele>513.0</ele>
        <time>2014-11-28T11:24:52.000Z</time>
      </trkpt>
      <trkpt lon="34.872464993968606" lat="30.593398734927177">
        <ele>513.0</ele>
        <time>2014-11-28T11:24:53.000Z</time>
      </trkpt>
      <trkpt lon="34.872449319809675" lat="30.59341063722968">
        <ele>513.0</ele>
        <time>2014-11-28T11:24:54.000Z</time>
      </trkpt>
      <trkpt lon="34.872434316203" lat="30.593422707170248">
        <ele>513.0</ele>
        <time>2014-11-28T11:24:55.000Z</time>
      </trkpt>
      <trkpt lon="34.87229802645743" lat="30.59354650788009">
        <ele>513.2000122070312</ele>
        <time>2014-11-28T11:25:02.000Z</time>
      </trkpt>
      <trkpt lon="34.87213524989784" lat="30.59374482370913">
        <ele>513.7999877929688</ele>
        <time>2014-11-28T11:25:09.000Z</time>
      </trkpt>
      <trkpt lon="34.87210205756128" lat="30.593774830922484">
        <ele>513.7999877929688</ele>
        <time>2014-11-28T11:25:10.000Z</time>
      </trkpt>
      <trkpt lon="34.871792094781995" lat="30.593927884474397">
        <ele>514.4000244140625</ele>
        <time>2014-11-28T11:25:18.000Z</time>
      </trkpt>
      <trkpt lon="34.87153669819236" lat="30.594017570838332">
        <ele>514.7999877929688</ele>
        <time>2014-11-28T11:25:26.000Z</time>
      </trkpt>
      <trkpt lon="34.871335700154305" lat="30.594222843647003">
        <ele>514.7999877929688</ele>
        <time>2014-11-28T11:25:34.000Z</time>
      </trkpt>
      <trkpt lon="34.87111567519605" lat="30.59439769014716">
        <ele>515.0</ele>
        <time>2014-11-28T11:25:41.000Z</time>
      </trkpt>
      <trkpt lon="34.870835300534964" lat="30.594584019854665">
        <ele>515.2000122070312</ele>
        <time>2014-11-28T11:25:50.000Z</time>
      </trkpt>
      <trkpt lon="34.8706244956702" lat="30.594770684838295">
        <ele>516.2000122070312</ele>
        <time>2014-11-28T11:25:58.000Z</time>
      </trkpt>
      <trkpt lon="34.87046775408089" lat="30.59493069536984">
        <ele>517.4000244140625</ele>
        <time>2014-11-28T11:26:05.000Z</time>
      </trkpt>
      <trkpt lon="34.870288632810116" lat="30.595125323161483">
        <ele>519.4000244140625</ele>
        <time>2014-11-28T11:26:13.000Z</time>
      </trkpt>
      <trkpt lon="34.87006709910929" lat="30.59535331092775">
        <ele>521.7999877929688</ele>
        <time>2014-11-28T11:26:23.000Z</time>
      </trkpt>
      <trkpt lon="34.86987481825054" lat="30.5955889262259">
        <ele>521.5999755859375</ele>
        <time>2014-11-28T11:26:34.000Z</time>
      </trkpt>
      <trkpt lon="34.869687063619494" lat="30.595835857093334">
        <ele>522.0</ele>
        <time>2014-11-28T11:26:45.000Z</time>
      </trkpt>
      <trkpt lon="34.86949637532234" lat="30.596022522076964">
        <ele>521.2000122070312</ele>
        <time>2014-11-28T11:26:55.000Z</time>
      </trkpt>
      <trkpt lon="34.869294287636876" lat="30.59619192034006">
        <ele>521.4000244140625</ele>
        <time>2014-11-28T11:27:04.000Z</time>
      </trkpt>
      <trkpt lon="34.86906143836677" lat="30.596360815688968">
        <ele>519.7999877929688</ele>
        <time>2014-11-28T11:27:16.000Z</time>
      </trkpt>
      <trkpt lon="34.868835378438234" lat="30.596518982201815">
        <ele>518.4000244140625</ele>
        <time>2014-11-28T11:27:25.000Z</time>
      </trkpt>
      <trkpt lon="34.86850370652974" lat="30.596769265830517">
        <ele>517.2000122070312</ele>
        <time>2014-11-28T11:27:34.000Z</time>
      </trkpt>
      <trkpt lon="34.86809642985463" lat="30.597114767879248">
        <ele>516.7999877929688</ele>
        <time>2014-11-28T11:27:44.000Z</time>
      </trkpt>
      <trkpt lon="34.867705246433616" lat="30.59745104983449">
        <ele>516.0</ele>
        <time>2014-11-28T11:27:53.000Z</time>
      </trkpt>
      <trkpt lon="34.86749670468271" lat="30.597628662362695">
        <ele>515.4000244140625</ele>
        <time>2014-11-28T11:27:58.000Z</time>
      </trkpt>
      <trkpt lon="34.867467200383544" lat="30.59766604565084">
        <ele>515.2000122070312</ele>
        <time>2014-11-28T11:27:59.000Z</time>
      </trkpt>
      <trkpt lon="34.867445323616266" lat="30.597706362605095">
        <ele>515.2000122070312</ele>
        <time>2014-11-28T11:28:00.000Z</time>
      </trkpt>
      <trkpt lon="34.86735085956752" lat="30.59806276112795">
        <ele>514.2000122070312</ele>
        <time>2014-11-28T11:28:08.000Z</time>
      </trkpt>
      <trkpt lon="34.86730341799557" lat="30.598422847688198">
        <ele>513.7999877929688</ele>
        <time>2014-11-28T11:28:16.000Z</time>
      </trkpt>
      <trkpt lon="34.86729436554015" lat="30.59861009940505">
        <ele>513.7999877929688</ele>
        <time>2014-11-28T11:28:20.000Z</time>
      </trkpt>
      <trkpt lon="34.8673037532717" lat="30.598652428016067">
        <ele>513.7999877929688</ele>
        <time>2014-11-28T11:28:21.000Z</time>
      </trkpt>
      <trkpt lon="34.86732001416385" lat="30.598694421350956">
        <ele>513.7999877929688</ele>
        <time>2014-11-28T11:28:22.000Z</time>
      </trkpt>
      <trkpt lon="34.86741020344198" lat="30.598882511258125">
        <ele>513.4000244140625</ele>
        <time>2014-11-28T11:28:26.000Z</time>
      </trkpt>
      <trkpt lon="34.867542553693056" lat="30.599066661670804">
        <ele>512.5999755859375</ele>
        <time>2014-11-28T11:28:30.000Z</time>
      </trkpt>
      <trkpt lon="34.86766836605966" lat="30.59917780570686">
        <ele>512.0</ele>
        <time>2014-11-28T11:28:33.000Z</time>
      </trkpt>
      <trkpt lon="34.86784706823528" lat="30.599288614466786">
        <ele>511.20001220703125</ele>
        <time>2014-11-28T11:28:37.000Z</time>
      </trkpt>
      <trkpt lon="34.86810036934912" lat="30.599412163719535">
        <ele>511.0</ele>
        <time>2014-11-28T11:28:43.000Z</time>
      </trkpt>
      <trkpt lon="34.86810036934912" lat="30.599564211443067">
        <ele>511.0</ele>
        <time>2014-11-28T11:28:47.000Z</time>
      </trkpt>
      <trkpt lon="34.86806935630739" lat="30.599602265283465">
        <ele>511.0</ele>
        <time>2014-11-28T11:28:48.000Z</time>
      </trkpt>
      <trkpt lon="34.86803675070405" lat="30.599638475105166">
        <ele>511.0</ele>
        <time>2014-11-28T11:28:49.000Z</time>
      </trkpt>
      <trkpt lon="34.867797028273344" lat="30.599884232506156">
        <ele>510.3999938964844</ele>
        <time>2014-11-28T11:28:57.000Z</time>
      </trkpt>
      <trkpt lon="34.86759988591075" lat="30.600154548883438">
        <ele>509.6000061035156</ele>
        <time>2014-11-28T11:29:05.000Z</time>
      </trkpt>
      <trkpt lon="34.867569794878364" lat="30.60019025579095">
        <ele>509.3999938964844</ele>
        <time>2014-11-28T11:29:06.000Z</time>
      </trkpt>
      <trkpt lon="34.86752704717219" lat="30.60021422803402">
        <ele>509.20001220703125</ele>
        <time>2014-11-28T11:29:07.000Z</time>
      </trkpt>
      <trkpt lon="34.86748019233346" lat="30.60022789053619">
        <ele>509.20001220703125</ele>
        <time>2014-11-28T11:29:08.000Z</time>
      </trkpt>
      <trkpt lon="34.86743241548538" lat="30.600228644907475">
        <ele>509.20001220703125</ele>
        <time>2014-11-28T11:29:09.000Z</time>
      </trkpt>
      <trkpt lon="34.86738556064665" lat="30.600222274661064">
        <ele>509.0</ele>
        <time>2014-11-28T11:29:10.000Z</time>
      </trkpt>
      <trkpt lon="34.86733912490308" lat="30.600218335166574">
        <ele>509.0</ele>
        <time>2014-11-28T11:29:11.000Z</time>
      </trkpt>
      <trkpt lon="34.867289420217276" lat="30.6002152338624">
        <ele>509.0</ele>
        <time>2014-11-28T11:29:12.000Z</time>
      </trkpt>
      <trkpt lon="34.86693989485502" lat="30.600238032639027">
        <ele>509.0</ele>
        <time>2014-11-28T11:29:20.000Z</time>
      </trkpt>
      <trkpt lon="34.866792960092425" lat="30.600271224975586">
        <ele>509.20001220703125</ele>
        <time>2014-11-28T11:29:25.000Z</time>
      </trkpt>
      <trkpt lon="34.866748452186584" lat="30.60028907842934">
        <ele>508.79998779296875</ele>
        <time>2014-11-28T11:29:31.000Z</time>
      </trkpt>
      <trkpt lon="34.86674660816789" lat="30.6002773437649">
        <ele>509.0</ele>
        <time>2014-11-28T11:29:32.000Z</time>
      </trkpt>
      <trkpt lon="34.86674870364368" lat="30.60026560910046">
        <ele>509.0</ele>
        <time>2014-11-28T11:29:33.000Z</time>
      </trkpt>
      <trkpt lon="34.86677217297256" lat="30.60025437735021">
        <ele>509.20001220703125</ele>
        <time>2014-11-28T11:29:34.000Z</time>
      </trkpt>
      <trkpt lon="34.86679941415787" lat="30.60025278478861">
        <ele>509.20001220703125</ele>
        <time>2014-11-28T11:29:35.000Z</time>
      </trkpt>
      <trkpt lon="34.86682774499059" lat="30.600256472826004">
        <ele>509.20001220703125</ele>
        <time>2014-11-28T11:29:36.000Z</time>
      </trkpt>
      <trkpt lon="34.86685364507139" lat="30.600257897749543">
        <ele>509.20001220703125</ele>
        <time>2014-11-28T11:29:37.000Z</time>
      </trkpt>
      <trkpt lon="34.86688021570444" lat="30.600257059559226">
        <ele>509.0</ele>
        <time>2014-11-28T11:29:38.000Z</time>
      </trkpt>
      <trkpt lon="34.867141814902425" lat="30.600203750655055">
        <ele>508.79998779296875</ele>
        <time>2014-11-28T11:29:47.000Z</time>
      </trkpt>
      <trkpt lon="34.86738103441894" lat="30.6001927703619">
        <ele>509.20001220703125</ele>
        <time>2014-11-28T11:29:56.000Z</time>
      </trkpt>
      <trkpt lon="34.86760005354881" lat="30.600175336003304">
        <ele>509.3999938964844</ele>
        <time>2014-11-28T11:30:03.000Z</time>
      </trkpt>
      <trkpt lon="34.867625115439296" lat="30.60016100294888">
        <ele>509.6000061035156</ele>
        <time>2014-11-28T11:30:04.000Z</time>
      </trkpt>
      <trkpt lon="34.86764648929238" lat="30.600137198343873">
        <ele>509.6000061035156</ele>
        <time>2014-11-28T11:30:05.000Z</time>
      </trkpt>
      <trkpt lon="34.867661660537124" lat="30.6001116335392">
        <ele>509.6000061035156</ele>
        <time>2014-11-28T11:30:06.000Z</time>
      </trkpt>
      <trkpt lon="34.86767574213445" lat="30.60008422471583">
        <ele>509.79998779296875</ele>
        <time>2014-11-28T11:30:07.000Z</time>
      </trkpt>
      <trkpt lon="34.86768680624664" lat="30.600067460909486">
        <ele>509.79998779296875</ele>
        <time>2014-11-28T11:30:08.000Z</time>
      </trkpt>
      <trkpt lon="34.86780423671007" lat="30.599919939413667">
        <ele>510.3999938964844</ele>
        <time>2014-11-28T11:30:18.000Z</time>
      </trkpt>
      <trkpt lon="34.86792728304863" lat="30.59977107681334">
        <ele>511.0</ele>
        <time>2014-11-28T11:30:26.000Z</time>
      </trkpt>
      <trkpt lon="34.868035493418574" lat="30.599685665220022">
        <ele>511.0</ele>
        <time>2014-11-28T11:30:34.000Z</time>
      </trkpt>
      <trkpt lon="34.8681206535548" lat="30.599570330232382">
        <ele>511.0</ele>
        <time>2014-11-28T11:30:41.000Z</time>
      </trkpt>
      <trkpt lon="34.86815166659653" lat="30.599460527300835">
        <ele>511.0</ele>
        <time>2014-11-28T11:30:49.000Z</time>
      </trkpt>
      <trkpt lon="34.86815543845296" lat="30.59943881817162">
        <ele>511.0</ele>
        <time>2014-11-28T11:30:51.000Z</time>
      </trkpt>
      <trkpt lon="34.86815401352942" lat="30.599428340792656">
        <ele>511.0</ele>
        <time>2014-11-28T11:30:52.000Z</time>
      </trkpt>
      <trkpt lon="34.8681568633765" lat="30.59940554201603">
        <ele>511.0</ele>
        <time>2014-11-28T11:30:54.000Z</time>
      </trkpt>
      <trkpt lon="34.868141021579504" lat="30.599394058808684">
        <ele>511.0</ele>
        <time>2014-11-28T11:31:01.000Z</time>
      </trkpt>
      <trkpt lon="34.86811210401356" lat="30.59940210543573">
        <ele>511.0</ele>
        <time>2014-11-28T11:31:23.000Z</time>
      </trkpt>
      <trkpt lon="34.868100453168154" lat="30.599392969161272">
        <ele>511.0</ele>
        <time>2014-11-28T11:31:26.000Z</time>
      </trkpt>
      <trkpt lon="34.86807715147734" lat="30.59937729500234">
        <ele>511.0</ele>
        <time>2014-11-28T11:31:28.000Z</time>
      </trkpt>
      <trkpt lon="34.86793952062726" lat="30.599321220070124">
        <ele>511.0</ele>
        <time>2014-11-28T11:31:34.000Z</time>
      </trkpt>
      <trkpt lon="34.8676872253418" lat="30.599164897575974">
        <ele>512.0</ele>
        <time>2014-11-28T11:31:42.000Z</time>
      </trkpt>
      <trkpt lon="34.8674747440964" lat="30.598933305591345">
        <ele>513.0</ele>
        <time>2014-11-28T11:31:51.000Z</time>
      </trkpt>
      <trkpt lon="34.86735857091844" lat="30.59872535057366">
        <ele>513.5999755859375</ele>
        <time>2014-11-28T11:32:00.000Z</time>
      </trkpt>
      <trkpt lon="34.86726075410843" lat="30.598580595105886">
        <ele>514.0</ele>
        <time>2014-11-28T11:32:08.000Z</time>
      </trkpt>
      <trkpt lon="34.86702245660126" lat="30.598490238189697">
        <ele>515.4000244140625</ele>
        <time>2014-11-28T11:32:15.000Z</time>
      </trkpt>
      <trkpt lon="34.86668047495186" lat="30.5984347499907">
        <ele>519.2000122070312</ele>
        <time>2014-11-28T11:32:23.000Z</time>
      </trkpt>
      <trkpt lon="34.86635592766106" lat="30.59845520183444">
        <ele>520.7999877929688</ele>
        <time>2014-11-28T11:32:32.000Z</time>
      </trkpt>
      <trkpt lon="34.866074630990624" lat="30.59851094149053">
        <ele>521.0</ele>
        <time>2014-11-28T11:32:41.000Z</time>
      </trkpt>
      <trkpt lon="34.86575050279498" lat="30.598698863759637">
        <ele>520.0</ele>
        <time>2014-11-28T11:32:52.000Z</time>
      </trkpt>
      <trkpt lon="34.865571800619364" lat="30.598824424669147">
        <ele>519.2000122070312</ele>
        <time>2014-11-28T11:32:59.000Z</time>
      </trkpt>
      <trkpt lon="34.86534389667213" lat="30.59893640689552">
        <ele>518.4000244140625</ele>
        <time>2014-11-28T11:33:07.000Z</time>
      </trkpt>
      <trkpt lon="34.865194195881486" lat="30.598974376916885">
        <ele>517.4000244140625</ele>
        <time>2014-11-28T11:33:14.000Z</time>
      </trkpt>
      <trkpt lon="34.86517919227481" lat="30.598979657515883">
        <ele>517.4000244140625</ele>
        <time>2014-11-28T11:33:15.000Z</time>
      </trkpt>
      <trkpt lon="34.865167289972305" lat="30.598989129066467">
        <ele>517.2000122070312</ele>
        <time>2014-11-28T11:33:16.000Z</time>
      </trkpt>
      <trkpt lon="34.86515664495528" lat="30.599003545939922">
        <ele>517.2000122070312</ele>
        <time>2014-11-28T11:33:17.000Z</time>
      </trkpt>
      <trkpt lon="34.86515094526112" lat="30.59902106411755">
        <ele>517.0</ele>
        <time>2014-11-28T11:33:18.000Z</time>
      </trkpt>
      <trkpt lon="34.865150107070804" lat="30.59903807938099">
        <ele>517.0</ele>
        <time>2014-11-28T11:33:19.000Z</time>
      </trkpt>
      <trkpt lon="34.865154633298516" lat="30.59905417263508">
        <ele>516.7999877929688</ele>
        <time>2014-11-28T11:33:20.000Z</time>
      </trkpt>
      <trkpt lon="34.86516444012523" lat="30.59906934387982">
        <ele>516.7999877929688</ele>
        <time>2014-11-28T11:33:21.000Z</time>
      </trkpt>
      <trkpt lon="34.86517424695194" lat="30.599084347486496">
        <ele>516.7999877929688</ele>
        <time>2014-11-28T11:33:22.000Z</time>
      </trkpt>
      <trkpt lon="34.86518120393157" lat="30.599103961139917">
        <ele>516.7999877929688</ele>
        <time>2014-11-28T11:33:23.000Z</time>
      </trkpt>
      <trkpt lon="34.86518950201571" lat="30.599126759916544">
        <ele>516.5999755859375</ele>
        <time>2014-11-28T11:33:24.000Z</time>
      </trkpt>
      <trkpt lon="34.865199979394674" lat="30.59915048070252">
        <ele>516.5999755859375</ele>
        <time>2014-11-28T11:33:25.000Z</time>
      </trkpt>
      <trkpt lon="34.865219341591" lat="30.599320717155933">
        <ele>516.0</ele>
        <time>2014-11-28T11:33:32.000Z</time>
      </trkpt>
      <trkpt lon="34.86511339433491" lat="30.599510734900832">
        <ele>515.2000122070312</ele>
        <time>2014-11-28T11:33:38.000Z</time>
      </trkpt>
      <trkpt lon="34.8650742508471" lat="30.599552392959595">
        <ele>515.2000122070312</ele>
        <time>2014-11-28T11:33:39.000Z</time>
      </trkpt>
      <trkpt lon="34.86502571962774" lat="30.599595559760928">
        <ele>515.4000244140625</ele>
        <time>2014-11-28T11:33:40.000Z</time>
      </trkpt>
      <trkpt lon="34.86496469937265" lat="30.59963872656226">
        <ele>515.4000244140625</ele>
        <time>2014-11-28T11:33:41.000Z</time>
      </trkpt>
      <trkpt lon="34.864895045757294" lat="30.599680971354246">
        <ele>515.5999755859375</ele>
        <time>2014-11-28T11:33:42.000Z</time>
      </trkpt>
      <trkpt lon="34.86478138715029" lat="30.59974953532219">
        <ele>515.0</ele>
        <time>2014-11-28T11:33:44.000Z</time>
      </trkpt>
      <trkpt lon="34.86474299803376" lat="30.599779039621353">
        <ele>514.7999877929688</ele>
        <time>2014-11-28T11:33:45.000Z</time>
      </trkpt>
      <trkpt lon="34.864577958360314" lat="30.59989864937961">
        <ele>513.5999755859375</ele>
        <time>2014-11-28T11:33:51.000Z</time>
      </trkpt>
      <trkpt lon="34.86436681821942" lat="30.59989957138896">
        <ele>513.4000244140625</ele>
        <time>2014-11-28T11:33:56.000Z</time>
      </trkpt>
      <trkpt lon="34.86431325785816" lat="30.599903259426355">
        <ele>513.4000244140625</ele>
        <time>2014-11-28T11:33:57.000Z</time>
      </trkpt>
      <trkpt lon="34.86426439136267" lat="30.599917760118842">
        <ele>513.2000122070312</ele>
        <time>2014-11-28T11:33:58.000Z</time>
      </trkpt>
      <trkpt lon="34.864225247874856" lat="30.599942235276103">
        <ele>512.7999877929688</ele>
        <time>2014-11-28T11:33:59.000Z</time>
      </trkpt>
      <trkpt lon="34.86419741995633" lat="30.59997090138495">
        <ele>512.4000244140625</ele>
        <time>2014-11-28T11:34:00.000Z</time>
      </trkpt>
      <trkpt lon="34.86417260952294" lat="30.60000509954989">
        <ele>512.0</ele>
        <time>2014-11-28T11:34:01.000Z</time>
      </trkpt>
      <trkpt lon="34.86415324732661" lat="30.600043907761574">
        <ele>511.6000061035156</ele>
        <time>2014-11-28T11:34:02.000Z</time>
      </trkpt>
      <trkpt lon="34.86403204500675" lat="30.600187154486775">
        <ele>510.0</ele>
        <time>2014-11-28T11:34:08.000Z</time>
      </trkpt>
      <trkpt lon="34.86393188126385" lat="30.600268710404634">
        <ele>509.0</ele>
        <time>2014-11-28T11:34:14.000Z</time>
      </trkpt>
      <trkpt lon="34.863920733332634" lat="30.600302992388606">
        <ele>508.6000061035156</ele>
        <time>2014-11-28T11:34:15.000Z</time>
      </trkpt>
      <trkpt lon="34.86385996453464" lat="30.60054749250412">
        <ele>506.0</ele>
        <time>2014-11-28T11:34:19.000Z</time>
      </trkpt>
      <trkpt lon="34.863793244585395" lat="30.60084111057222">
        <ele>504.79998779296875</ele>
        <time>2014-11-28T11:34:23.000Z</time>
      </trkpt>
      <trkpt lon="34.86352468840778" lat="30.601315777748823">
        <ele>503.3999938964844</ele>
        <time>2014-11-28T11:34:30.000Z</time>
      </trkpt>
      <trkpt lon="34.86326954327524" lat="30.60168206691742">
        <ele>502.3999938964844</ele>
        <time>2014-11-28T11:34:37.000Z</time>
      </trkpt>
      <trkpt lon="34.86301708035171" lat="30.601878622546792">
        <ele>501.3999938964844</ele>
        <time>2014-11-28T11:34:42.000Z</time>
      </trkpt>
      <trkpt lon="34.86295798793435" lat="30.60190779156983">
        <ele>501.3999938964844</ele>
        <time>2014-11-28T11:34:43.000Z</time>
      </trkpt>
      <trkpt lon="34.862727485597134" lat="30.602017007768154">
        <ele>501.3999938964844</ele>
        <time>2014-11-28T11:34:47.000Z</time>
      </trkpt>
      <trkpt lon="34.86267174594104" lat="30.60205447487533">
        <ele>501.79998779296875</ele>
        <time>2014-11-28T11:34:48.000Z</time>
      </trkpt>
      <trkpt lon="34.86237410455942" lat="30.602263854816556">
        <ele>504.3999938964844</ele>
        <time>2014-11-28T11:34:53.000Z</time>
      </trkpt>
      <trkpt lon="34.862066488713026" lat="30.6024066824466">
        <ele>506.3999938964844</ele>
        <time>2014-11-28T11:34:59.000Z</time>
      </trkpt>
      <trkpt lon="34.86194402910769" lat="30.602472312748432">
        <ele>506.3999938964844</ele>
        <time>2014-11-28T11:35:04.000Z</time>
      </trkpt>
      <trkpt lon="34.86180279403925" lat="30.602608602494">
        <ele>506.0</ele>
        <time>2014-11-28T11:35:10.000Z</time>
      </trkpt>
      <trkpt lon="34.86164261586964" lat="30.602852599695325">
        <ele>505.6000061035156</ele>
        <time>2014-11-28T11:35:18.000Z</time>
      </trkpt>
      <trkpt lon="34.86136467196047" lat="30.60316801071167">
        <ele>505.6000061035156</ele>
        <time>2014-11-28T11:35:28.000Z</time>
      </trkpt>
      <trkpt lon="34.86132779158652" lat="30.603195503354073">
        <ele>505.79998779296875</ele>
        <time>2014-11-28T11:35:29.000Z</time>
      </trkpt>
      <trkpt lon="34.861073065549135" lat="30.60337227769196">
        <ele>506.20001220703125</ele>
        <time>2014-11-28T11:35:35.000Z</time>
      </trkpt>
      <trkpt lon="34.86087835393846" lat="30.603570006787777">
        <ele>506.0</ele>
        <time>2014-11-28T11:35:41.000Z</time>
      </trkpt>
      <trkpt lon="34.8608433175832" lat="30.603603115305305">
        <ele>505.79998779296875</ele>
        <time>2014-11-28T11:35:42.000Z</time>
      </trkpt>
      <trkpt lon="34.86081138253212" lat="30.60363756492734">
        <ele>505.6000061035156</ele>
        <time>2014-11-28T11:35:43.000Z</time>
      </trkpt>
      <trkpt lon="34.86058901064098" lat="30.603893045336008">
        <ele>503.6000061035156</ele>
        <time>2014-11-28T11:35:50.000Z</time>
      </trkpt>
      <trkpt lon="34.860324477776885" lat="30.604197224602103">
        <ele>502.79998779296875</ele>
        <time>2014-11-28T11:35:59.000Z</time>
      </trkpt>
      <trkpt lon="34.8601408302784" lat="30.60439637862146">
        <ele>503.20001220703125</ele>
        <time>2014-11-28T11:36:06.000Z</time>
      </trkpt>
      <trkpt lon="34.86010537482798" lat="30.604425044730306">
        <ele>503.20001220703125</ele>
        <time>2014-11-28T11:36:07.000Z</time>
      </trkpt>
      <trkpt lon="34.86006924882531" lat="30.604451280087233">
        <ele>503.20001220703125</ele>
        <time>2014-11-28T11:36:08.000Z</time>
      </trkpt>
      <trkpt lon="34.860031278803945" lat="30.604468630626798">
        <ele>503.20001220703125</ele>
        <time>2014-11-28T11:36:09.000Z</time>
      </trkpt>
      <trkpt lon="34.859986351802945" lat="30.604484137147665">
        <ele>503.20001220703125</ele>
        <time>2014-11-28T11:36:10.000Z</time>
      </trkpt>
      <trkpt lon="34.85993731766939" lat="30.60449763201177">
        <ele>503.20001220703125</ele>
        <time>2014-11-28T11:36:11.000Z</time>
      </trkpt>
      <trkpt lon="34.859889624640346" lat="30.604500649496913">
        <ele>503.20001220703125</ele>
        <time>2014-11-28T11:36:12.000Z</time>
      </trkpt>
      <trkpt lon="34.85984251834452" lat="30.604501152411103">
        <ele>503.3999938964844</ele>
        <time>2014-11-28T11:36:13.000Z</time>
      </trkpt>
      <trkpt lon="34.859792897477746" lat="30.60449570417404">
        <ele>503.3999938964844</ele>
        <time>2014-11-28T11:36:14.000Z</time>
      </trkpt>
      <trkpt lon="34.859529957175255" lat="30.604509031400084">
        <ele>503.6000061035156</ele>
        <time>2014-11-28T11:36:20.000Z</time>
      </trkpt>
      <trkpt lon="34.85950715839863" lat="30.604524789378047">
        <ele>503.6000061035156</ele>
        <time>2014-11-28T11:36:21.000Z</time>
      </trkpt>
      <trkpt lon="34.859491819515824" lat="30.604546582326293">
        <ele>503.3999938964844</ele>
        <time>2014-11-28T11:36:22.000Z</time>
      </trkpt>
      <trkpt lon="34.859483102336526" lat="30.604570219293237">
        <ele>503.3999938964844</ele>
        <time>2014-11-28T11:36:23.000Z</time>
      </trkpt>
      <trkpt lon="34.859482515603304" lat="30.60459771193564">
        <ele>503.3999938964844</ele>
        <time>2014-11-28T11:36:24.000Z</time>
      </trkpt>
      <trkpt lon="34.85948268324137" lat="30.604627635329962">
        <ele>503.20001220703125</ele>
        <time>2014-11-28T11:36:25.000Z</time>
      </trkpt>
      <trkpt lon="34.85943197272718" lat="30.604928210377693">
        <ele>502.20001220703125</ele>
        <time>2014-11-28T11:36:33.000Z</time>
      </trkpt>
      <trkpt lon="34.859359888359904" lat="30.605062069371343">
        <ele>501.79998779296875</ele>
        <time>2014-11-28T11:36:36.000Z</time>
      </trkpt>
      <trkpt lon="34.85925788059831" lat="30.605194587260485">
        <ele>501.3999938964844</ele>
        <time>2014-11-28T11:36:39.000Z</time>
      </trkpt>
      <trkpt lon="34.85923692584038" lat="30.60523741878569">
        <ele>501.20001220703125</ele>
        <time>2014-11-28T11:36:40.000Z</time>
      </trkpt>
      <trkpt lon="34.85919015482068" lat="30.605366667732596">
        <ele>500.20001220703125</ele>
        <time>2014-11-28T11:36:43.000Z</time>
      </trkpt>
      <trkpt lon="34.85891900025308" lat="30.605798168107867">
        <ele>497.6000061035156</ele>
        <time>2014-11-28T11:36:55.000Z</time>
      </trkpt>
      <trkpt lon="34.85872529447079" lat="30.60596840456128">
        <ele>495.3999938964844</ele>
        <time>2014-11-28T11:37:00.000Z</time>
      </trkpt>
      <trkpt lon="34.85854709520936" lat="30.606097150593996">
        <ele>494.3999938964844</ele>
        <time>2014-11-28T11:37:03.000Z</time>
      </trkpt>
      <trkpt lon="34.85836445353925" lat="30.606248611584306">
        <ele>493.79998779296875</ele>
        <time>2014-11-28T11:37:06.000Z</time>
      </trkpt>
      <trkpt lon="34.858292201533914" lat="30.60628599487245">
        <ele>493.6000061035156</ele>
        <time>2014-11-28T11:37:07.000Z</time>
      </trkpt>
      <trkpt lon="34.85821424983442" lat="30.606316085904837">
        <ele>493.3999938964844</ele>
        <time>2014-11-28T11:37:08.000Z</time>
      </trkpt>
      <trkpt lon="34.857926331460476" lat="30.606404934078455">
        <ele>493.6000061035156</ele>
        <time>2014-11-28T11:37:12.000Z</time>
      </trkpt>
      <trkpt lon="34.857877967879176" lat="30.606431420892477">
        <ele>493.3999938964844</ele>
        <time>2014-11-28T11:37:13.000Z</time>
      </trkpt>
      <trkpt lon="34.857837315648794" lat="30.60646226629615">
        <ele>493.6000061035156</ele>
        <time>2014-11-28T11:37:14.000Z</time>
      </trkpt>
      <trkpt lon="34.85779808834195" lat="30.60649168677628">
        <ele>493.79998779296875</ele>
        <time>2014-11-28T11:37:15.000Z</time>
      </trkpt>
      <trkpt lon="34.85775559209287" lat="30.60652236454189">
        <ele>494.0</ele>
        <time>2014-11-28T11:37:16.000Z</time>
      </trkpt>
      <trkpt lon="34.857382932677865" lat="30.60684498399496">
        <ele>495.3999938964844</ele>
        <time>2014-11-28T11:37:24.000Z</time>
      </trkpt>
      <trkpt lon="34.857295425608754" lat="30.60695151798427">
        <ele>495.20001220703125</ele>
        <time>2014-11-28T11:37:26.000Z</time>
      </trkpt>
      <trkpt lon="34.85701664350927" lat="30.60736633837223">
        <ele>496.0</ele>
        <time>2014-11-28T11:37:34.000Z</time>
      </trkpt>
      <trkpt lon="34.85664146952331" lat="30.60765216127038">
        <ele>496.0</ele>
        <time>2014-11-28T11:37:41.000Z</time>
      </trkpt>
      <trkpt lon="34.85616638325155" lat="30.608002776280046">
        <ele>491.79998779296875</ele>
        <time>2014-11-28T11:37:50.000Z</time>
      </trkpt>
      <trkpt lon="34.85586170107126" lat="30.608252054080367">
        <ele>491.0</ele>
        <time>2014-11-28T11:37:58.000Z</time>
      </trkpt>
      <trkpt lon="34.8555504810065" lat="30.608570566400886">
        <ele>489.79998779296875</ele>
        <time>2014-11-28T11:38:07.000Z</time>
      </trkpt>
      <trkpt lon="34.85524110496044" lat="30.60896661132574">
        <ele>489.20001220703125</ele>
        <time>2014-11-28T11:38:17.000Z</time>
      </trkpt>
      <trkpt lon="34.85482485964894" lat="30.60929199680686">
        <ele>488.79998779296875</ele>
        <time>2014-11-28T11:38:26.000Z</time>
      </trkpt>
      <trkpt lon="34.85472293570638" lat="30.60935754328966">
        <ele>488.3999938964844</ele>
        <time>2014-11-28T11:38:28.000Z</time>
      </trkpt>
      <trkpt lon="34.85461154021323" lat="30.609421245753765">
        <ele>487.79998779296875</ele>
        <time>2014-11-28T11:38:30.000Z</time>
      </trkpt>
      <trkpt lon="34.85456904396415" lat="30.609457790851593">
        <ele>487.6000061035156</ele>
        <time>2014-11-28T11:38:31.000Z</time>
      </trkpt>
      <trkpt lon="34.85442127101123" lat="30.609637163579464">
        <ele>487.79998779296875</ele>
        <time>2014-11-28T11:38:36.000Z</time>
      </trkpt>
      <trkpt lon="34.854258159175515" lat="30.609927512705326">
        <ele>488.79998779296875</ele>
        <time>2014-11-28T11:38:43.000Z</time>
      </trkpt>
      <trkpt lon="34.854210214689374" lat="30.610019881278276">
        <ele>489.0</ele>
        <time>2014-11-28T11:38:45.000Z</time>
      </trkpt>
      <trkpt lon="34.85418230295181" lat="30.610068328678608">
        <ele>489.20001220703125</ele>
        <time>2014-11-28T11:38:46.000Z</time>
      </trkpt>
      <trkpt lon="34.853964960202575" lat="30.610458506271243">
        <ele>487.3999938964844</ele>
        <time>2014-11-28T11:38:55.000Z</time>
      </trkpt>
      <trkpt lon="34.85393486917019" lat="30.610492285341024">
        <ele>487.20001220703125</ele>
        <time>2014-11-28T11:38:56.000Z</time>
      </trkpt>
      <trkpt lon="34.85389891080558" lat="30.610519526526332">
        <ele>487.0</ele>
        <time>2014-11-28T11:38:57.000Z</time>
      </trkpt>
      <trkpt lon="34.85385918058455" lat="30.6105419062078">
        <ele>487.20001220703125</ele>
        <time>2014-11-28T11:38:58.000Z</time>
      </trkpt>
      <trkpt lon="34.85381651669741" lat="30.610558921471238">
        <ele>487.20001220703125</ele>
        <time>2014-11-28T11:38:59.000Z</time>
      </trkpt>
      <trkpt lon="34.85377226024866" lat="30.610571829602122">
        <ele>487.20001220703125</ele>
        <time>2014-11-28T11:39:00.000Z</time>
      </trkpt>
      <trkpt lon="34.85346640460193" lat="30.61066461727023">
        <ele>487.79998779296875</ele>
        <time>2014-11-28T11:39:08.000Z</time>
      </trkpt>
      <trkpt lon="34.85320799052715" lat="30.61087709851563">
        <ele>488.6000061035156</ele>
        <time>2014-11-28T11:39:16.000Z</time>
      </trkpt>
      <trkpt lon="34.85323179513216" lat="30.611039036884904">
        <ele>488.6000061035156</ele>
        <time>2014-11-28T11:39:21.000Z</time>
      </trkpt>
      <trkpt lon="34.853303879499435" lat="30.61115655116737">
        <ele>488.6000061035156</ele>
        <time>2014-11-28T11:39:27.000Z</time>
      </trkpt>
      <trkpt lon="34.853494903072715" lat="30.611167615279555">
        <ele>488.20001220703125</ele>
        <time>2014-11-28T11:39:33.000Z</time>
      </trkpt>
      <trkpt lon="34.8537945561111" lat="30.611123777925968">
        <ele>488.0</ele>
        <time>2014-11-28T11:39:40.000Z</time>
      </trkpt>
      <trkpt lon="34.853952806442976" lat="30.61112000606954">
        <ele>488.6000061035156</ele>
        <time>2014-11-28T11:39:45.000Z</time>
      </trkpt>
      <trkpt lon="34.854034362360835" lat="30.6111376080662">
        <ele>488.79998779296875</ele>
        <time>2014-11-28T11:39:51.000Z</time>
      </trkpt>
      <trkpt lon="34.854068141430616" lat="30.61111556366086">
        <ele>489.0</ele>
        <time>2014-11-28T11:39:59.000Z</time>
      </trkpt>
      <trkpt lon="34.85411264933646" lat="30.611109947785735">
        <ele>489.20001220703125</ele>
        <time>2014-11-28T11:40:06.000Z</time>
      </trkpt>
      <trkpt lon="34.85413611866534" lat="30.611099721863866">
        <ele>489.20001220703125</ele>
        <time>2014-11-28T11:40:08.000Z</time>
      </trkpt>
      <trkpt lon="34.85415095463395" lat="30.611093854531646">
        <ele>489.20001220703125</ele>
        <time>2014-11-28T11:40:09.000Z</time>
      </trkpt>
      <trkpt lon="34.85432588495314" lat="30.61105353757739">
        <ele>489.6000061035156</ele>
        <time>2014-11-28T11:40:16.000Z</time>
      </trkpt>
      <trkpt lon="34.85447843559086" lat="30.611027218401432">
        <ele>489.3999938964844</ele>
        <time>2014-11-28T11:40:23.000Z</time>
      </trkpt>
      <trkpt lon="34.85462780110538" lat="30.61098857782781">
        <ele>489.20001220703125</ele>
        <time>2014-11-28T11:40:30.000Z</time>
      </trkpt>
      <trkpt lon="34.854805832728744" lat="30.610987655818462">
        <ele>489.0</ele>
        <time>2014-11-28T11:40:37.000Z</time>
      </trkpt>
      <trkpt lon="34.85502175055444" lat="30.61097726225853">
        <ele>488.6000061035156</ele>
        <time>2014-11-28T11:40:45.000Z</time>
      </trkpt>
      <trkpt lon="34.855275470763445" lat="30.610965443775058">
        <ele>488.20001220703125</ele>
        <time>2014-11-28T11:40:53.000Z</time>
      </trkpt>
      <trkpt lon="34.855485102161765" lat="30.610975166782737">
        <ele>487.79998779296875</ele>
        <time>2014-11-28T11:41:00.000Z</time>
      </trkpt>
      <trkpt lon="34.855688363313675" lat="30.611012550070882">
        <ele>487.3999938964844</ele>
        <time>2014-11-28T11:41:07.000Z</time>
      </trkpt>
      <trkpt lon="34.85595088452101" lat="30.61103492975235">
        <ele>486.6000061035156</ele>
        <time>2014-11-28T11:41:15.000Z</time>
      </trkpt>
      <trkpt lon="34.85618247650564" lat="30.61101397499442">
        <ele>487.0</ele>
        <time>2014-11-28T11:41:22.000Z</time>
      </trkpt>
      <trkpt lon="34.856448685750365" lat="30.610970640555024">
        <ele>486.20001220703125</ele>
        <time>2014-11-28T11:41:30.000Z</time>
      </trkpt>
      <trkpt lon="34.856703747063875" lat="30.61094557866454">
        <ele>485.6000061035156</ele>
        <time>2014-11-28T11:41:37.000Z</time>
      </trkpt>
      <trkpt lon="34.85685554333031" lat="30.610983297228813">
        <ele>485.79998779296875</ele>
        <time>2014-11-28T11:41:43.000Z</time>
      </trkpt>
      <trkpt lon="34.857013458386064" lat="30.611078599467874">
        <ele>485.6000061035156</ele>
        <time>2014-11-28T11:41:50.000Z</time>
      </trkpt>
      <trkpt lon="34.85713977366686" lat="30.611173901706934">
        <ele>485.20001220703125</ele>
        <time>2014-11-28T11:41:57.000Z</time>
      </trkpt>
      <trkpt lon="34.85719450749457" lat="30.611298205330968">
        <ele>484.6000061035156</ele>
        <time>2014-11-28T11:42:03.000Z</time>
      </trkpt>
      <trkpt lon="34.85724597238004" lat="30.61143759638071">
        <ele>484.20001220703125</ele>
        <time>2014-11-28T11:42:11.000Z</time>
      </trkpt>
      <trkpt lon="34.85737874172628" lat="30.61168779619038">
        <ele>483.6000061035156</ele>
        <time>2014-11-28T11:42:23.000Z</time>
      </trkpt>
      <trkpt lon="34.85752433538437" lat="30.611974457278848">
        <ele>483.3999938964844</ele>
        <time>2014-11-28T11:42:33.000Z</time>
      </trkpt>
      <trkpt lon="34.85763447359204" lat="30.61213430017233">
        <ele>483.3999938964844</ele>
        <time>2014-11-28T11:42:40.000Z</time>
      </trkpt>
      <trkpt lon="34.85770873725414" lat="30.612301351502538">
        <ele>484.20001220703125</ele>
        <time>2014-11-28T11:42:48.000Z</time>
      </trkpt>
      <trkpt lon="34.85776715911925" lat="30.612478209659457">
        <ele>485.6000061035156</ele>
        <time>2014-11-28T11:42:57.000Z</time>
      </trkpt>
      <trkpt lon="34.85772365704179" lat="30.612623132765293">
        <ele>486.79998779296875</ele>
        <time>2014-11-28T11:43:06.000Z</time>
      </trkpt>
      <trkpt lon="34.857569597661495" lat="30.612693708389997">
        <ele>487.6000061035156</ele>
        <time>2014-11-28T11:43:15.000Z</time>
      </trkpt>
      <trkpt lon="34.85741335898638" lat="30.61265917494893">
        <ele>487.6000061035156</ele>
        <time>2014-11-28T11:43:23.000Z</time>
      </trkpt>
      <trkpt lon="34.857234405353665" lat="30.612661354243755">
        <ele>487.79998779296875</ele>
        <time>2014-11-28T11:43:33.000Z</time>
      </trkpt>
      <trkpt lon="34.857197776436806" lat="30.612697564065456">
        <ele>488.20001220703125</ele>
        <time>2014-11-28T11:43:39.000Z</time>
      </trkpt>
      <trkpt lon="34.8572204913944" lat="30.612721284851432">
        <ele>488.3999938964844</ele>
        <time>2014-11-28T11:43:57.000Z</time>
      </trkpt>
      <trkpt lon="34.85719048418105" lat="30.61271198093891">
        <ele>488.20001220703125</ele>
        <time>2014-11-28T11:44:14.000Z</time>
      </trkpt>
      <trkpt lon="34.857207499444485" lat="30.612727152183652">
        <ele>488.3999938964844</ele>
        <time>2014-11-28T11:44:34.000Z</time>
      </trkpt>
      <trkpt lon="34.8572308011353" lat="30.612765876576304">
        <ele>488.6000061035156</ele>
        <time>2014-11-28T11:44:45.000Z</time>
      </trkpt>
      <trkpt lon="34.85727371647954" lat="30.61278817243874">
        <ele>488.79998779296875</ele>
        <time>2014-11-28T11:44:51.000Z</time>
      </trkpt>
      <trkpt lon="34.857232477515936" lat="30.612784903496504">
        <ele>488.79998779296875</ele>
        <time>2014-11-28T11:44:57.000Z</time>
      </trkpt>
      <trkpt lon="34.85714958049357" lat="30.612821700051427">
        <ele>489.20001220703125</ele>
        <time>2014-11-28T11:45:05.000Z</time>
      </trkpt>
      <trkpt lon="34.857070706784725" lat="30.612841062247753">
        <ele>489.3999938964844</ele>
        <time>2014-11-28T11:45:13.000Z</time>
      </trkpt>
      <trkpt lon="34.856993928551674" lat="30.61288054101169">
        <ele>490.20001220703125</ele>
        <time>2014-11-28T11:45:21.000Z</time>
      </trkpt>
      <trkpt lon="34.85691664740443" lat="30.612872997298837">
        <ele>490.6000061035156</ele>
        <time>2014-11-28T11:45:29.000Z</time>
      </trkpt>
      <trkpt lon="34.856808856129646" lat="30.612897220999002">
        <ele>491.0</ele>
        <time>2014-11-28T11:45:40.000Z</time>
      </trkpt>
      <trkpt lon="34.856725288555026" lat="30.612940890714526">
        <ele>491.3999938964844</ele>
        <time>2014-11-28T11:45:50.000Z</time>
      </trkpt>
      <trkpt lon="34.85673333518207" lat="30.612952457740903">
        <ele>491.3999938964844</ele>
        <time>2014-11-28T11:45:57.000Z</time>
      </trkpt>
      <trkpt lon="34.85681011341512" lat="30.61293418519199">
        <ele>491.20001220703125</ele>
        <time>2014-11-28T11:46:04.000Z</time>
      </trkpt>
      <trkpt lon="34.85682268626988" lat="30.6128956284374">
        <ele>491.0</ele>
        <time>2014-11-28T11:46:13.000Z</time>
      </trkpt>
      <trkpt lon="34.85682453028858" lat="30.61289655044675">
        <ele>491.0</ele>
        <time>2014-11-28T11:46:22.000Z</time>
      </trkpt>
      <trkpt lon="34.85674154944718" lat="30.612918762490153">
        <ele>491.20001220703125</ele>
        <time>2014-11-28T11:46:30.000Z</time>
      </trkpt>
      <trkpt lon="34.85670357942581" lat="30.612908452749252">
        <ele>491.3999938964844</ele>
        <time>2014-11-28T11:46:39.000Z</time>
      </trkpt>
      <trkpt lon="34.85667223110795" lat="30.612886995077133">
        <ele>491.20001220703125</ele>
        <time>2014-11-28T11:46:56.000Z</time>
      </trkpt>
      <trkpt lon="34.856696454808116" lat="30.612890599295497">
        <ele>491.20001220703125</ele>
        <time>2014-11-28T11:47:10.000Z</time>
      </trkpt>
      <trkpt lon="34.856716487556696" lat="30.61289018020034">
        <ele>491.20001220703125</ele>
        <time>2014-11-28T11:47:29.000Z</time>
      </trkpt>
      <trkpt lon="34.85672411508858" lat="30.61290007084608">
        <ele>491.20001220703125</ele>
        <time>2014-11-28T11:47:43.000Z</time>
      </trkpt>
      <trkpt lon="34.85672595910728" lat="30.612916918471456">
        <ele>491.3999938964844</ele>
        <time>2014-11-28T11:47:58.000Z</time>
      </trkpt>
      <trkpt lon="34.85672637820244" lat="30.612911973148584">
        <ele>491.20001220703125</ele>
        <time>2014-11-28T11:48:16.000Z</time>
      </trkpt>
      <trkpt lon="34.85670098103583" lat="30.61291021294892">
        <ele>491.3999938964844</ele>
        <time>2014-11-28T11:48:35.000Z</time>
      </trkpt>
      <trkpt lon="34.85664934851229" lat="30.61290484853089">
        <ele>491.3999938964844</ele>
        <time>2014-11-28T11:48:52.000Z</time>
      </trkpt>
      <trkpt lon="34.856652365997434" lat="30.6129146553576">
        <ele>491.3999938964844</ele>
        <time>2014-11-28T11:49:10.000Z</time>
      </trkpt>
      <trkpt lon="34.85664549283683" lat="30.612919181585312">
        <ele>491.6000061035156</ele>
        <time>2014-11-28T11:49:28.000Z</time>
      </trkpt>
      <trkpt lon="34.85664574429393" lat="30.61293175444007">
        <ele>491.6000061035156</ele>
        <time>2014-11-28T11:49:50.000Z</time>
      </trkpt>
      <trkpt lon="34.8566850554198" lat="30.61292831785977">
        <ele>491.3999938964844</ele>
        <time>2014-11-28T11:50:12.000Z</time>
      </trkpt>
      <trkpt lon="34.85665999352932" lat="30.612925048917532">
        <ele>491.6000061035156</ele>
        <time>2014-11-28T11:50:35.000Z</time>
      </trkpt>
      <trkpt lon="34.85665404237807" lat="30.612923372536898">
        <ele>491.6000061035156</ele>
        <time>2014-11-28T11:50:52.000Z</time>
      </trkpt>
      <trkpt lon="34.85663082450628" lat="30.613025799393654">
        <ele>492.0</ele>
        <time>2014-11-28T11:50:58.000Z</time>
      </trkpt>
      <trkpt lon="34.856473160907626" lat="30.613146582618356">
        <ele>492.3999938964844</ele>
        <time>2014-11-28T11:51:04.000Z</time>
      </trkpt>
      <trkpt lon="34.85627735964954" lat="30.613213973119855">
        <ele>493.0</ele>
        <time>2014-11-28T11:51:11.000Z</time>
      </trkpt>
      <trkpt lon="34.85605993308127" lat="30.61330701224506">
        <ele>493.3999938964844</ele>
        <time>2014-11-28T11:51:20.000Z</time>
      </trkpt>
      <trkpt lon="34.855714682489634" lat="30.613448582589626">
        <ele>494.0</ele>
        <time>2014-11-28T11:51:31.000Z</time>
      </trkpt>
      <trkpt lon="34.85543112270534" lat="30.61357439495623">
        <ele>495.6000061035156</ele>
        <time>2014-11-28T11:51:40.000Z</time>
      </trkpt>
      <trkpt lon="34.85515980049968" lat="30.613704565912485">
        <ele>496.6000061035156</ele>
        <time>2014-11-28T11:51:50.000Z</time>
      </trkpt>
      <trkpt lon="34.85495762899518" lat="30.613800454884768">
        <ele>497.20001220703125</ele>
        <time>2014-11-28T11:51:59.000Z</time>
      </trkpt>
      <trkpt lon="34.85472419299185" lat="30.613891817629337">
        <ele>497.6000061035156</ele>
        <time>2014-11-28T11:52:09.000Z</time>
      </trkpt>
      <trkpt lon="34.85447692684829" lat="30.613980162888765">
        <ele>498.20001220703125</ele>
        <time>2014-11-28T11:52:20.000Z</time>
      </trkpt>
      <trkpt lon="34.85422312282026" lat="30.61407563276589">
        <ele>498.6000061035156</ele>
        <time>2014-11-28T11:52:30.000Z</time>
      </trkpt>
      <trkpt lon="34.853887343779206" lat="30.614205384626985">
        <ele>498.79998779296875</ele>
        <time>2014-11-28T11:52:40.000Z</time>
      </trkpt>
      <trkpt lon="34.85354946926236" lat="30.614310828968883">
        <ele>498.3999938964844</ele>
        <time>2014-11-28T11:52:50.000Z</time>
      </trkpt>
      <trkpt lon="34.853186113759875" lat="30.61439816839993">
        <ele>498.6000061035156</ele>
        <time>2014-11-28T11:53:01.000Z</time>
      </trkpt>
      <trkpt lon="34.85288151539862" lat="30.614486010745168">
        <ele>499.0</ele>
        <time>2014-11-28T11:53:10.000Z</time>
      </trkpt>
      <trkpt lon="34.85257842577994" lat="30.614544851705432">
        <ele>500.3999938964844</ele>
        <time>2014-11-28T11:53:19.000Z</time>
      </trkpt>
      <trkpt lon="34.8522315826267" lat="30.61461651697755">
        <ele>502.0</ele>
        <time>2014-11-28T11:53:29.000Z</time>
      </trkpt>
      <trkpt lon="34.85183335840702" lat="30.614714501425624">
        <ele>502.79998779296875</ele>
        <time>2014-11-28T11:53:40.000Z</time>
      </trkpt>
      <trkpt lon="34.85133019275963" lat="30.614861017093062">
        <ele>502.3999938964844</ele>
        <time>2014-11-28T11:53:53.000Z</time>
      </trkpt>
      <trkpt lon="34.85087413340807" lat="30.61503443866968">
        <ele>502.20001220703125</ele>
        <time>2014-11-28T11:54:05.000Z</time>
      </trkpt>
      <trkpt lon="34.85051798634231" lat="30.61520484276116">
        <ele>503.0</ele>
        <time>2014-11-28T11:54:15.000Z</time>
      </trkpt>
      <trkpt lon="34.85008799470961" lat="30.615452527999878">
        <ele>504.6000061035156</ele>
        <time>2014-11-28T11:54:28.000Z</time>
      </trkpt>
      <trkpt lon="34.84976839274168" lat="30.6156914960593">
        <ele>506.3999938964844</ele>
        <time>2014-11-28T11:54:39.000Z</time>
      </trkpt>
      <trkpt lon="34.849464632570744" lat="30.615948233753443">
        <ele>508.3999938964844</ele>
        <time>2014-11-28T11:54:50.000Z</time>
      </trkpt>
      <trkpt lon="34.849137822166085" lat="30.61623338609934">
        <ele>509.79998779296875</ele>
        <time>2014-11-28T11:55:02.000Z</time>
      </trkpt>
      <trkpt lon="34.84883557073772" lat="30.616485681384802">
        <ele>511.0</ele>
        <time>2014-11-28T11:55:12.000Z</time>
      </trkpt>
      <trkpt lon="34.848506497219205" lat="30.616757003590465">
        <ele>509.0</ele>
        <time>2014-11-28T11:55:23.000Z</time>
      </trkpt>
      <trkpt lon="34.84815353527665" lat="30.617068726569414">
        <ele>507.6000061035156</ele>
        <time>2014-11-28T11:55:35.000Z</time>
      </trkpt>
      <trkpt lon="34.847795544192195" lat="30.617364943027496">
        <ele>506.79998779296875</ele>
        <time>2014-11-28T11:55:47.000Z</time>
      </trkpt>
      <trkpt lon="34.84736789949238" lat="30.617738692089915">
        <ele>507.20001220703125</ele>
        <time>2014-11-28T11:56:01.000Z</time>
      </trkpt>
      <trkpt lon="34.84707545489073" lat="30.617990316823125">
        <ele>509.79998779296875</ele>
        <time>2014-11-28T11:56:11.000Z</time>
      </trkpt>
      <trkpt lon="34.84682441689074" lat="30.61820162460208">
        <ele>510.20001220703125</ele>
        <time>2014-11-28T11:56:20.000Z</time>
      </trkpt>
      <trkpt lon="34.84649601392448" lat="30.618484346196055">
        <ele>511.3999938964844</ele>
        <time>2014-11-28T11:56:32.000Z</time>
      </trkpt>
      <trkpt lon="34.84621061012149" lat="30.618726834654808">
        <ele>514.0</ele>
        <time>2014-11-28T11:56:42.000Z</time>
      </trkpt>
      <trkpt lon="34.84591171145439" lat="30.618984075263143">
        <ele>513.2000122070312</ele>
        <time>2014-11-28T11:56:53.000Z</time>
      </trkpt>
      <trkpt lon="34.84561951830983" lat="30.619226479902864">
        <ele>512.7999877929688</ele>
        <time>2014-11-28T11:57:04.000Z</time>
      </trkpt>
      <trkpt lon="34.84526772983372" lat="30.619524708017707">
        <ele>514.7999877929688</ele>
        <time>2014-11-28T11:57:17.000Z</time>
      </trkpt>
      <trkpt lon="34.845028510317206" lat="30.6197218503803">
        <ele>515.2000122070312</ele>
        <time>2014-11-28T11:57:26.000Z</time>
      </trkpt>
      <trkpt lon="34.844725001603365" lat="30.61998118646443">
        <ele>514.5999755859375</ele>
        <time>2014-11-28T11:57:37.000Z</time>
      </trkpt>
      <trkpt lon="34.8444639891386" lat="30.620213449001312">
        <ele>516.5999755859375</ele>
        <time>2014-11-28T11:57:47.000Z</time>
      </trkpt>
      <trkpt lon="34.84412267804146" lat="30.620518634095788">
        <ele>517.0</ele>
        <time>2014-11-28T11:58:00.000Z</time>
      </trkpt>
      <trkpt lon="34.84388882294297" lat="30.62076346948743">
        <ele>516.2000122070312</ele>
        <time>2014-11-28T11:58:10.000Z</time>
      </trkpt>
      <trkpt lon="34.84365915879607" lat="30.621009645983577">
        <ele>517.2000122070312</ele>
        <time>2014-11-28T11:58:20.000Z</time>
      </trkpt>
      <trkpt lon="34.843361182138324" lat="30.62133813276887">
        <ele>519.5999755859375</ele>
        <time>2014-11-28T11:58:33.000Z</time>
      </trkpt>
      <trkpt lon="34.84314794652164" lat="30.62157265841961">
        <ele>520.4000244140625</ele>
        <time>2014-11-28T11:58:43.000Z</time>
      </trkpt>
      <trkpt lon="34.84282800927758" lat="30.621932996436954">
        <ele>519.5999755859375</ele>
        <time>2014-11-28T11:58:56.000Z</time>
      </trkpt>
      <trkpt lon="34.8425336368382" lat="30.622253268957138">
        <ele>517.4000244140625</ele>
        <time>2014-11-28T11:59:08.000Z</time>
      </trkpt>
      <trkpt lon="34.84222526662052" lat="30.622599609196186">
        <ele>516.7999877929688</ele>
        <time>2014-11-28T11:59:21.000Z</time>
      </trkpt>
      <trkpt lon="34.84196391887963" lat="30.622904961928725">
        <ele>518.7999877929688</ele>
        <time>2014-11-28T11:59:31.000Z</time>
      </trkpt>
      <trkpt lon="34.84164825640619" lat="30.62325071543455">
        <ele>521.4000244140625</ele>
        <time>2014-11-28T11:59:43.000Z</time>
      </trkpt>
      <trkpt lon="34.8412867449224" lat="30.623596888035536">
        <ele>522.0</ele>
        <time>2014-11-28T11:59:55.000Z</time>
      </trkpt>
      <trkpt lon="34.84091970138252" lat="30.623860834166408">
        <ele>521.4000244140625</ele>
        <time>2014-11-28T12:00:06.000Z</time>
      </trkpt>
      <trkpt lon="34.84049172140658" lat="30.624067950993776">
        <ele>521.5999755859375</ele>
        <time>2014-11-28T12:00:17.000Z</time>
      </trkpt>
      <trkpt lon="34.840111853554845" lat="30.624179681763053">
        <ele>522.0</ele>
        <time>2014-11-28T12:00:27.000Z</time>
      </trkpt>
      <trkpt lon="34.83971136622131" lat="30.62424204312265">
        <ele>523.2000122070312</ele>
        <time>2014-11-28T12:00:37.000Z</time>
      </trkpt>
      <trkpt lon="34.83925446867943" lat="30.624272469431162">
        <ele>526.5999755859375</ele>
        <time>2014-11-28T12:00:48.000Z</time>
      </trkpt>
      <trkpt lon="34.83885775320232" lat="30.624295016750693">
        <ele>528.5999755859375</ele>
        <time>2014-11-28T12:00:59.000Z</time>
      </trkpt>
      <trkpt lon="34.838562877848744" lat="30.624317480251193">
        <ele>529.5999755859375</ele>
        <time>2014-11-28T12:01:08.000Z</time>
      </trkpt>
      <trkpt lon="34.8382075689733" lat="30.62433290295303">
        <ele>530.0</ele>
        <time>2014-11-28T12:01:20.000Z</time>
      </trkpt>
      <trkpt lon="34.83793817460537" lat="30.624349247664213">
        <ele>529.5999755859375</ele>
        <time>2014-11-28T12:01:30.000Z</time>
      </trkpt>
      <trkpt lon="34.83756886795163" lat="30.624366514384747">
        <ele>530.4000244140625</ele>
        <time>2014-11-28T12:01:43.000Z</time>
      </trkpt>
      <trkpt lon="34.83722629956901" lat="30.62439509667456">
        <ele>531.7999877929688</ele>
        <time>2014-11-28T12:01:55.000Z</time>
      </trkpt>
      <trkpt lon="34.83685841783881" lat="30.624414794147015">
        <ele>533.4000244140625</ele>
        <time>2014-11-28T12:02:08.000Z</time>
      </trkpt>
      <trkpt lon="34.83655197545886" lat="30.624433318153024">
        <ele>535.4000244140625</ele>
        <time>2014-11-28T12:02:19.000Z</time>
      </trkpt>
      <trkpt lon="34.83622608706355" lat="30.624455027282238">
        <ele>537.5999755859375</ele>
        <time>2014-11-28T12:02:30.000Z</time>
      </trkpt>
      <trkpt lon="34.8358797468245" lat="30.624476987868547">
        <ele>538.4000244140625</ele>
        <time>2014-11-28T12:02:42.000Z</time>
      </trkpt>
      <trkpt lon="34.835515888407826" lat="30.624507581815124">
        <ele>539.7999877929688</ele>
        <time>2014-11-28T12:02:55.000Z</time>
      </trkpt>
      <trkpt lon="34.83524247072637" lat="30.624510180205107">
        <ele>540.7999877929688</ele>
        <time>2014-11-28T12:03:05.000Z</time>
      </trkpt>
      <trkpt lon="34.83489604666829" lat="30.624527195468545">
        <ele>542.2000122070312</ele>
        <time>2014-11-28T12:03:18.000Z</time>
      </trkpt>
      <trkpt lon="34.834653809666634" lat="30.62454462982714">
        <ele>543.2000122070312</ele>
        <time>2014-11-28T12:03:27.000Z</time>
      </trkpt>
      <trkpt lon="34.83441551215947" lat="30.624555610120296">
        <ele>544.0</ele>
        <time>2014-11-28T12:03:36.000Z</time>
      </trkpt>
      <trkpt lon="34.83410018496215" lat="30.62457002699375">
        <ele>545.2000122070312</ele>
        <time>2014-11-28T12:03:48.000Z</time>
      </trkpt>
      <trkpt lon="34.83381670899689" lat="30.624587712809443">
        <ele>546.4000244140625</ele>
        <time>2014-11-28T12:03:59.000Z</time>
      </trkpt>
      <trkpt lon="34.833498783409595" lat="30.624603554606438">
        <ele>547.4000244140625</ele>
        <time>2014-11-28T12:04:11.000Z</time>
      </trkpt>
      <trkpt lon="34.83318152837455" lat="30.62462174333632">
        <ele>548.5999755859375</ele>
        <time>2014-11-28T12:04:23.000Z</time>
      </trkpt>
      <trkpt lon="34.832876762375236" lat="30.624645967036486">
        <ele>549.7999877929688</ele>
        <time>2014-11-28T12:04:34.000Z</time>
      </trkpt>
      <trkpt lon="34.832630921155214" lat="30.62466524541378">
        <ele>550.2000122070312</ele>
        <time>2014-11-28T12:04:43.000Z</time>
      </trkpt>
      <trkpt lon="34.83234375715256" lat="30.624685948714614">
        <ele>550.5999755859375</ele>
        <time>2014-11-28T12:04:53.000Z</time>
      </trkpt>
      <trkpt lon="34.83208006247878" lat="30.624711262062192">
        <ele>550.7999877929688</ele>
        <time>2014-11-28T12:05:03.000Z</time>
      </trkpt>
      <trkpt lon="34.83205298893154" lat="30.624714447185397">
        <ele>551.0</ele>
        <time>2014-11-28T12:05:04.000Z</time>
      </trkpt>
      <trkpt lon="34.832027507945895" lat="30.62471503391862">
        <ele>551.0</ele>
        <time>2014-11-28T12:05:05.000Z</time>
      </trkpt>
      <trkpt lon="34.83178300783038" lat="30.624718386679888">
        <ele>551.2000122070312</ele>
        <time>2014-11-28T12:05:14.000Z</time>
      </trkpt>
      <trkpt lon="34.83160003088415" lat="30.62472928315401">
        <ele>551.4000244140625</ele>
        <time>2014-11-28T12:05:21.000Z</time>
      </trkpt>
      <trkpt lon="34.83131177723408" lat="30.624749148264527">
        <ele>551.7999877929688</ele>
        <time>2014-11-28T12:05:31.000Z</time>
      </trkpt>
      <trkpt lon="34.83102964237332" lat="30.624764068052173">
        <ele>553.2000122070312</ele>
        <time>2014-11-28T12:05:41.000Z</time>
      </trkpt>
      <trkpt lon="34.83071423135698" lat="30.62478150241077">
        <ele>555.2000122070312</ele>
        <time>2014-11-28T12:05:52.000Z</time>
      </trkpt>
      <trkpt lon="34.83036210760474" lat="30.624805307015777">
        <ele>557.2000122070312</ele>
        <time>2014-11-28T12:06:05.000Z</time>
      </trkpt>
      <trkpt lon="34.83006161637604" lat="30.624823747202754">
        <ele>558.5999755859375</ele>
        <time>2014-11-28T12:06:16.000Z</time>
      </trkpt>
      <trkpt lon="34.829613184556365" lat="30.624849060550332">
        <ele>560.5999755859375</ele>
        <time>2014-11-28T12:06:33.000Z</time>
      </trkpt>
      <trkpt lon="34.829348903149366" lat="30.624871775507927">
        <ele>561.7999877929688</ele>
        <time>2014-11-28T12:06:44.000Z</time>
      </trkpt>
      <trkpt lon="34.829120580106974" lat="30.62488275580108">
        <ele>562.7999877929688</ele>
        <time>2014-11-28T12:06:54.000Z</time>
      </trkpt>
      <trkpt lon="34.82885403558612" lat="30.62490027397871">
        <ele>564.2000122070312</ele>
        <time>2014-11-28T12:07:05.000Z</time>
      </trkpt>
      <trkpt lon="34.828559244051576" lat="30.624915529042482">
        <ele>565.7999877929688</ele>
        <time>2014-11-28T12:07:18.000Z</time>
      </trkpt>
      <trkpt lon="34.82836905866861" lat="30.624927263706923">
        <ele>566.5999755859375</ele>
        <time>2014-11-28T12:07:27.000Z</time>
      </trkpt>
      <trkpt lon="34.828210305422544" lat="30.624939082190394">
        <ele>567.4000244140625</ele>
        <time>2014-11-28T12:07:35.000Z</time>
      </trkpt>
      <trkpt lon="34.82804015278816" lat="30.624949727207422">
        <ele>568.5999755859375</ele>
        <time>2014-11-28T12:07:43.000Z</time>
      </trkpt>
      <trkpt lon="34.827805291861296" lat="30.624962551519275">
        <ele>570.2000122070312</ele>
        <time>2014-11-28T12:07:54.000Z</time>
      </trkpt>
      <trkpt lon="34.82761401683092" lat="30.624982081353664">
        <ele>571.4000244140625</ele>
        <time>2014-11-28T12:08:03.000Z</time>
      </trkpt>
      <trkpt lon="34.82739265076816" lat="30.62499113380909">
        <ele>572.5999755859375</ele>
        <time>2014-11-28T12:08:13.000Z</time>
      </trkpt>
      <trkpt lon="34.82719416730106" lat="30.624995911493897">
        <ele>574.4000244140625</ele>
        <time>2014-11-28T12:08:22.000Z</time>
      </trkpt>
      <trkpt lon="34.82700624503195" lat="30.62501904554665">
        <ele>575.7999877929688</ele>
        <time>2014-11-28T12:08:31.000Z</time>
      </trkpt>
      <trkpt lon="34.826794937253" lat="30.62502482905984">
        <ele>577.2000122070312</ele>
        <time>2014-11-28T12:08:41.000Z</time>
      </trkpt>
      <trkpt lon="34.82653903774917" lat="30.62504293397069">
        <ele>578.7999877929688</ele>
        <time>2014-11-28T12:08:53.000Z</time>
      </trkpt>
      <trkpt lon="34.826379446312785" lat="30.625047208741307">
        <ele>580.2000122070312</ele>
        <time>2014-11-28T12:09:01.000Z</time>
      </trkpt>
      <trkpt lon="34.82620853930712" lat="30.625057769939303">
        <ele>581.7999877929688</ele>
        <time>2014-11-28T12:09:10.000Z</time>
      </trkpt>
      <trkpt lon="34.82605783268809" lat="30.625067492946982">
        <ele>583.2000122070312</ele>
        <time>2014-11-28T12:09:18.000Z</time>
      </trkpt>
      <trkpt lon="34.82591123320162" lat="30.625076293945312">
        <ele>584.4000244140625</ele>
        <time>2014-11-28T12:09:25.000Z</time>
      </trkpt>
      <trkpt lon="34.825685592368245" lat="30.625080317258835">
        <ele>586.5999755859375</ele>
        <time>2014-11-28T12:09:36.000Z</time>
      </trkpt>
      <trkpt lon="34.82547872699797" lat="30.625085597857833">
        <ele>588.7999877929688</ele>
        <time>2014-11-28T12:09:46.000Z</time>
      </trkpt>
      <trkpt lon="34.82530865818262" lat="30.625084340572357">
        <ele>590.4000244140625</ele>
        <time>2014-11-28T12:09:55.000Z</time>
      </trkpt>
      <trkpt lon="34.825136326253414" lat="30.625077467411757">
        <ele>591.7999877929688</ele>
        <time>2014-11-28T12:10:04.000Z</time>
      </trkpt>
      <trkpt lon="34.82493189163506" lat="30.62505072914064">
        <ele>593.4000244140625</ele>
        <time>2014-11-28T12:10:14.000Z</time>
      </trkpt>
      <trkpt lon="34.824732737615705" lat="30.625019297003746">
        <ele>594.7999877929688</ele>
        <time>2014-11-28T12:10:24.000Z</time>
      </trkpt>
      <trkpt lon="34.82454204931855" lat="30.62497545965016">
        <ele>596.2000122070312</ele>
        <time>2014-11-28T12:10:33.000Z</time>
      </trkpt>
      <trkpt lon="34.82421984896064" lat="30.62490220181644">
        <ele>598.5999755859375</ele>
        <time>2014-11-28T12:10:48.000Z</time>
      </trkpt>
      <trkpt lon="34.82406738214195" lat="30.624861968681216">
        <ele>599.5999755859375</ele>
        <time>2014-11-28T12:10:55.000Z</time>
      </trkpt>
      <trkpt lon="34.82385146431625" lat="30.624794578179717">
        <ele>601.0</ele>
        <time>2014-11-28T12:11:05.000Z</time>
      </trkpt>
      <trkpt lon="34.82363655231893" lat="30.62469307333231">
        <ele>602.2000122070312</ele>
        <time>2014-11-28T12:11:16.000Z</time>
      </trkpt>
      <trkpt lon="34.82343211770058" lat="30.624600620940328">
        <ele>604.0</ele>
        <time>2014-11-28T12:11:26.000Z</time>
      </trkpt>
      <trkpt lon="34.823272190988064" lat="30.624520489946008">
        <ele>605.5999755859375</ele>
        <time>2014-11-28T12:11:35.000Z</time>
      </trkpt>
      <trkpt lon="34.823138331994414" lat="30.62444631010294">
        <ele>606.5999755859375</ele>
        <time>2014-11-28T12:11:43.000Z</time>
      </trkpt>
      <trkpt lon="34.823121819645166" lat="30.62444781884551">
        <ele>606.7999877929688</ele>
        <time>2014-11-28T12:12:00.000Z</time>
      </trkpt>
      <trkpt lon="34.82312156818807" lat="30.62443071976304">
        <ele>606.7999877929688</ele>
        <time>2014-11-28T12:12:19.000Z</time>
      </trkpt>
      <trkpt lon="34.823052920401096" lat="30.624381517991424">
        <ele>607.2000122070312</ele>
        <time>2014-11-28T12:12:26.000Z</time>
      </trkpt>
      <trkpt lon="34.82286835089326" lat="30.62426643446088">
        <ele>608.7999877929688</ele>
        <time>2014-11-28T12:12:36.000Z</time>
      </trkpt>
      <trkpt lon="34.822666849941015" lat="30.624137269333005">
        <ele>610.5999755859375</ele>
        <time>2014-11-28T12:12:47.000Z</time>
      </trkpt>
      <trkpt lon="34.82246124185622" lat="30.623996034264565">
        <ele>612.4000244140625</ele>
        <time>2014-11-28T12:12:59.000Z</time>
      </trkpt>
      <trkpt lon="34.82226108200848" lat="30.623864270746708">
        <ele>614.0</ele>
        <time>2014-11-28T12:13:10.000Z</time>
      </trkpt>
      <trkpt lon="34.822053546085954" lat="30.623730830848217">
        <ele>616.2000122070312</ele>
        <time>2014-11-28T12:13:22.000Z</time>
      </trkpt>
      <trkpt lon="34.821884483098984" lat="30.623615328222513">
        <ele>617.5999755859375</ele>
        <time>2014-11-28T12:13:32.000Z</time>
      </trkpt>
      <trkpt lon="34.82161517255008" lat="30.623438386246562">
        <ele>620.0</ele>
        <time>2014-11-28T12:13:45.000Z</time>
      </trkpt>
      <trkpt lon="34.82137033715844" lat="30.623286589980125">
        <ele>623.0</ele>
        <time>2014-11-28T12:13:57.000Z</time>
      </trkpt>
      <trkpt lon="34.821183336898685" lat="30.623161112889647">
        <ele>624.7999877929688</ele>
        <time>2014-11-28T12:14:07.000Z</time>
      </trkpt>
      <trkpt lon="34.820961970835924" lat="30.623017363250256">
        <ele>625.5999755859375</ele>
        <time>2014-11-28T12:14:19.000Z</time>
      </trkpt>
      <trkpt lon="34.82077647931874" lat="30.6229027826339">
        <ele>626.7999877929688</ele>
        <time>2014-11-28T12:14:29.000Z</time>
      </trkpt>
      <trkpt lon="34.82056986540556" lat="30.622755512595177">
        <ele>627.7999877929688</ele>
        <time>2014-11-28T12:14:41.000Z</time>
      </trkpt>
      <trkpt lon="34.82039258815348" lat="30.62263246625662">
        <ele>628.7999877929688</ele>
        <time>2014-11-28T12:14:51.000Z</time>
      </trkpt>
      <trkpt lon="34.820192931219935" lat="30.62249575741589">
        <ele>631.2000122070312</ele>
        <time>2014-11-28T12:15:02.000Z</time>
      </trkpt>
      <trkpt lon="34.81995035894215" lat="30.622285874560475">
        <ele>633.7999877929688</ele>
        <time>2014-11-28T12:15:17.000Z</time>
      </trkpt>
      <trkpt lon="34.81980602256954" lat="30.62212728895247">
        <ele>635.0</ele>
        <time>2014-11-28T12:15:28.000Z</time>
      </trkpt>
      <trkpt lon="34.81966839171946" lat="30.621970212087035">
        <ele>636.5999755859375</ele>
        <time>2014-11-28T12:15:38.000Z</time>
      </trkpt>
      <trkpt lon="34.81954148970544" lat="30.621795784682035">
        <ele>638.0</ele>
        <time>2014-11-28T12:15:48.000Z</time>
      </trkpt>
      <trkpt lon="34.81941324658692" lat="30.621578190475702">
        <ele>640.0</ele>
        <time>2014-11-28T12:15:59.000Z</time>
      </trkpt>
      <trkpt lon="34.81931182555854" lat="30.621363278478384">
        <ele>641.4000244140625</ele>
        <time>2014-11-28T12:16:10.000Z</time>
      </trkpt>
      <trkpt lon="34.819242591038346" lat="30.62116513028741">
        <ele>640.7999877929688</ele>
        <time>2014-11-28T12:16:20.000Z</time>
      </trkpt>
      <trkpt lon="34.81917226687074" lat="30.620962539687753">
        <ele>640.4000244140625</ele>
        <time>2014-11-28T12:16:30.000Z</time>
      </trkpt>
      <trkpt lon="34.819093476980925" lat="30.620696330443025">
        <ele>640.5999755859375</ele>
        <time>2014-11-28T12:16:43.000Z</time>
      </trkpt>
      <trkpt lon="34.81896632350981" lat="30.620482759550214">
        <ele>641.4000244140625</ele>
        <time>2014-11-28T12:16:54.000Z</time>
      </trkpt>
      <trkpt lon="34.81878493912518" lat="30.62035795301199">
        <ele>642.0</ele>
        <time>2014-11-28T12:17:03.000Z</time>
      </trkpt>
      <trkpt lon="34.81856122612953" lat="30.620350912213326">
        <ele>645.0</ele>
        <time>2014-11-28T12:17:12.000Z</time>
      </trkpt>
      <trkpt lon="34.81843180954456" lat="30.620421823114157">
        <ele>649.0</ele>
        <time>2014-11-28T12:17:19.000Z</time>
      </trkpt>
      <trkpt lon="34.81836752034724" lat="30.620565991848707">
        <ele>653.5999755859375</ele>
        <time>2014-11-28T12:17:27.000Z</time>
      </trkpt>
      <trkpt lon="34.81838126666844" lat="30.620740922167897">
        <ele>655.7999877929688</ele>
        <time>2014-11-28T12:17:35.000Z</time>
      </trkpt>
      <trkpt lon="34.81842627748847" lat="30.620905039831996">
        <ele>657.4000244140625</ele>
        <time>2014-11-28T12:17:43.000Z</time>
      </trkpt>
      <trkpt lon="34.818476317450404" lat="30.62109245918691">
        <ele>659.0</ele>
        <time>2014-11-28T12:17:53.000Z</time>
      </trkpt>
      <trkpt lon="34.8185318056494" lat="30.62133075669408">
        <ele>664.7999877929688</ele>
        <time>2014-11-28T12:18:06.000Z</time>
      </trkpt>
      <trkpt lon="34.81858276762068" lat="30.621489007025957">
        <ele>665.4000244140625</ele>
        <time>2014-11-28T12:18:15.000Z</time>
      </trkpt>
      <trkpt lon="34.818637082353234" lat="30.621671481058">
        <ele>665.5999755859375</ele>
        <time>2014-11-28T12:18:26.000Z</time>
      </trkpt>
      <trkpt lon="34.81866683810949" lat="30.62181598506868">
        <ele>666.4000244140625</ele>
        <time>2014-11-28T12:18:35.000Z</time>
      </trkpt>
      <trkpt lon="34.81870740652084" lat="30.621975660324097">
        <ele>666.7999877929688</ele>
        <time>2014-11-28T12:18:45.000Z</time>
      </trkpt>
      <trkpt lon="34.81871847063303" lat="30.622020168229938">
        <ele>667.0</ele>
        <time>2014-11-28T12:18:48.000Z</time>
      </trkpt>
      <trkpt lon="34.81872274540365" lat="30.62203349545598">
        <ele>667.0</ele>
        <time>2014-11-28T12:18:49.000Z</time>
      </trkpt>
      <trkpt lon="34.81877127662301" lat="30.622160229831934">
        <ele>667.0</ele>
        <time>2014-11-28T12:18:58.000Z</time>
      </trkpt>
      <trkpt lon="34.81880706734955" lat="30.622311187908053">
        <ele>668.5999755859375</ele>
        <time>2014-11-28T12:19:08.000Z</time>
      </trkpt>
      <trkpt lon="34.81885073706508" lat="30.622466253116727">
        <ele>670.4000244140625</ele>
        <time>2014-11-28T12:19:18.000Z</time>
      </trkpt>
      <trkpt lon="34.81890060938895" lat="30.62260421924293">
        <ele>671.4000244140625</ele>
        <time>2014-11-28T12:19:27.000Z</time>
      </trkpt>
      <trkpt lon="34.818952241912484" lat="30.622744280844927">
        <ele>672.5999755859375</ele>
        <time>2014-11-28T12:19:36.000Z</time>
      </trkpt>
      <trkpt lon="34.81899976730347" lat="30.622892389073968">
        <ele>674.2000122070312</ele>
        <time>2014-11-28T12:19:46.000Z</time>
      </trkpt>
      <trkpt lon="34.81897856108844" lat="30.62301610596478">
        <ele>677.5999755859375</ele>
        <time>2014-11-28T12:19:54.000Z</time>
      </trkpt>
      <trkpt lon="34.81886733323336" lat="30.623127836734056">
        <ele>685.0</ele>
        <time>2014-11-28T12:20:04.000Z</time>
      </trkpt>
      <trkpt lon="34.818660635501146" lat="30.62315298244357">
        <ele>694.5999755859375</ele>
        <time>2014-11-28T12:20:13.000Z</time>
      </trkpt>
      <trkpt lon="34.81856449507177" lat="30.623131608590484">
        <ele>698.4000244140625</ele>
        <time>2014-11-28T12:20:17.000Z</time>
      </trkpt>
      <trkpt lon="34.818547144532204" lat="30.623120376840234">
        <ele>698.7999877929688</ele>
        <time>2014-11-28T12:20:18.000Z</time>
      </trkpt>
      <trkpt lon="34.81852971017361" lat="30.623109312728047">
        <ele>699.4000244140625</ele>
        <time>2014-11-28T12:20:19.000Z</time>
      </trkpt>
      <trkpt lon="34.81840582564473" lat="30.622968915849924">
        <ele>700.5999755859375</ele>
        <time>2014-11-28T12:20:30.000Z</time>
      </trkpt>
      <trkpt lon="34.818356204777956" lat="30.622773366048932">
        <ele>697.4000244140625</ele>
        <time>2014-11-28T12:20:42.000Z</time>
      </trkpt>
      <trkpt lon="34.81828596442938" lat="30.62258997000754">
        <ele>695.4000244140625</ele>
        <time>2014-11-28T12:20:54.000Z</time>
      </trkpt>
      <trkpt lon="34.818189572542906" lat="30.622407412156463">
        <ele>695.4000244140625</ele>
        <time>2014-11-28T12:21:06.000Z</time>
      </trkpt>
      <trkpt lon="34.818122098222375" lat="30.6222534365952">
        <ele>694.7999877929688</ele>
        <time>2014-11-28T12:21:16.000Z</time>
      </trkpt>
      <trkpt lon="34.81803836300969" lat="30.62208621762693">
        <ele>695.0</ele>
        <time>2014-11-28T12:21:27.000Z</time>
      </trkpt>
      <trkpt lon="34.8179532866925" lat="30.6219029892236">
        <ele>695.2000122070312</ele>
        <time>2014-11-28T12:21:39.000Z</time>
      </trkpt>
      <trkpt lon="34.817861672490835" lat="30.621693525463343">
        <ele>695.2000122070312</ele>
        <time>2014-11-28T12:21:48.000Z</time>
      </trkpt>
      <trkpt lon="34.81774851679802" lat="30.621435279026628">
        <ele>695.0</ele>
        <time>2014-11-28T12:21:59.000Z</time>
      </trkpt>
      <trkpt lon="34.817638378590345" lat="30.62127853743732">
        <ele>694.2000122070312</ele>
        <time>2014-11-28T12:22:07.000Z</time>
      </trkpt>
      <trkpt lon="34.81746110133827" lat="30.6212589237839">
        <ele>700.4000244140625</ele>
        <time>2014-11-28T12:22:14.000Z</time>
      </trkpt>
      <trkpt lon="34.81743964366615" lat="30.621386161074042">
        <ele>706.7999877929688</ele>
        <time>2014-11-28T12:22:20.000Z</time>
      </trkpt>
      <trkpt lon="34.81752337887883" lat="30.621610628440976">
        <ele>707.4000244140625</ele>
        <time>2014-11-28T12:22:30.000Z</time>
      </trkpt>
      <trkpt lon="34.817596385255456" lat="30.62183174304664">
        <ele>708.4000244140625</ele>
        <time>2014-11-28T12:22:41.000Z</time>
      </trkpt>
      <trkpt lon="34.817679449915886" lat="30.62208437360823">
        <ele>710.7999877929688</ele>
        <time>2014-11-28T12:22:54.000Z</time>
      </trkpt>
      <trkpt lon="34.817740973085165" lat="30.622264752164483">
        <ele>712.7999877929688</ele>
        <time>2014-11-28T12:23:04.000Z</time>
      </trkpt>
      <trkpt lon="34.817783553153276" lat="30.622389893978834">
        <ele>714.2000122070312</ele>
        <time>2014-11-28T12:23:13.000Z</time>
      </trkpt>
      <trkpt lon="34.81779461726546" lat="30.622372878715396">
        <ele>713.0</ele>
        <time>2014-11-28T12:23:28.000Z</time>
      </trkpt>
      <trkpt lon="34.81780559755862" lat="30.62242635525763">
        <ele>714.0</ele>
        <time>2014-11-28T12:23:44.000Z</time>
      </trkpt>
      <trkpt lon="34.81783392839134" lat="30.622539008036256">
        <ele>715.7999877929688</ele>
        <time>2014-11-28T12:23:52.000Z</time>
      </trkpt>
      <trkpt lon="34.817885896191" lat="30.622714441269636">
        <ele>718.2000122070312</ele>
        <time>2014-11-28T12:24:02.000Z</time>
      </trkpt>
      <trkpt lon="34.81793317012489" lat="30.622876212000847">
        <ele>720.5999755859375</ele>
        <time>2014-11-28T12:24:11.000Z</time>
      </trkpt>
      <trkpt lon="34.81799041852355" lat="30.623024655506015">
        <ele>722.2000122070312</ele>
        <time>2014-11-28T12:24:21.000Z</time>
      </trkpt>
      <trkpt lon="34.81800315901637" lat="30.623053489252925">
        <ele>722.5999755859375</ele>
        <time>2014-11-28T12:24:23.000Z</time>
      </trkpt>
      <trkpt lon="34.818011205643415" lat="30.623065307736397">
        <ele>722.5999755859375</ele>
        <time>2014-11-28T12:24:24.000Z</time>
      </trkpt>
      <trkpt lon="34.81801765970886" lat="30.62307863496244">
        <ele>722.7999877929688</ele>
        <time>2014-11-28T12:24:25.000Z</time>
      </trkpt>
      <trkpt lon="34.81806334108114" lat="30.62322431243956">
        <ele>726.0</ele>
        <time>2014-11-28T12:24:35.000Z</time>
      </trkpt>
      <trkpt lon="34.81810877099633" lat="30.62334635294974">
        <ele>729.0</ele>
        <time>2014-11-28T12:24:43.000Z</time>
      </trkpt>
      <trkpt lon="34.81810818426311" lat="30.623363787308335">
        <ele>729.7999877929688</ele>
        <time>2014-11-28T12:24:44.000Z</time>
      </trkpt>
      <trkpt lon="34.81810617260635" lat="30.623381389304996">
        <ele>730.5999755859375</ele>
        <time>2014-11-28T12:24:45.000Z</time>
      </trkpt>
      <trkpt lon="34.818066442385316" lat="30.623484821990132">
        <ele>737.4000244140625</ele>
        <time>2014-11-28T12:24:52.000Z</time>
      </trkpt>
      <trkpt lon="34.81804775074124" lat="30.623492198064923">
        <ele>738.7999877929688</ele>
        <time>2014-11-28T12:24:53.000Z</time>
      </trkpt>
      <trkpt lon="34.818028723821044" lat="30.623500244691968">
        <ele>740.2000122070312</ele>
        <time>2014-11-28T12:24:54.000Z</time>
      </trkpt>
      <trkpt lon="34.817866031080484" lat="30.623535197228193">
        <ele>751.0</ele>
        <time>2014-11-28T12:25:02.000Z</time>
      </trkpt>
      <trkpt lon="34.81769495643675" lat="30.62347828410566">
        <ele>758.7999877929688</ele>
        <time>2014-11-28T12:25:10.000Z</time>
      </trkpt>
      <trkpt lon="34.817609041929245" lat="30.623320704326034">
        <ele>757.0</ele>
        <time>2014-11-28T12:25:20.000Z</time>
      </trkpt>
      <trkpt lon="34.81753402389586" lat="30.6231083907187">
        <ele>752.0</ele>
        <time>2014-11-28T12:25:30.000Z</time>
      </trkpt>
      <trkpt lon="34.81738457456231" lat="30.622848803177476">
        <ele>750.7999877929688</ele>
        <time>2014-11-28T12:25:41.000Z</time>
      </trkpt>
      <trkpt lon="34.81723990291357" lat="30.62255484983325">
        <ele>748.4000244140625</ele>
        <time>2014-11-28T12:25:54.000Z</time>
      </trkpt>
      <trkpt lon="34.81709573417902" lat="30.622275481000543">
        <ele>746.7999877929688</ele>
        <time>2014-11-28T12:26:05.000Z</time>
      </trkpt>
      <trkpt lon="34.81693848967552" lat="30.62205201946199">
        <ele>748.2000122070312</ele>
        <time>2014-11-28T12:26:16.000Z</time>
      </trkpt>
      <trkpt lon="34.81674721464515" lat="30.621868455782533">
        <ele>753.0</ele>
        <time>2014-11-28T12:26:27.000Z</time>
      </trkpt>
      <trkpt lon="34.81652635149658" lat="30.6217095348984">
        <ele>760.2000122070312</ele>
        <time>2014-11-28T12:26:38.000Z</time>
      </trkpt>
      <trkpt lon="34.81630062684417" lat="30.621578861027956">
        <ele>768.5999755859375</ele>
        <time>2014-11-28T12:26:49.000Z</time>
      </trkpt>
      <trkpt lon="34.81607213616371" lat="30.62142664566636">
        <ele>775.5999755859375</ele>
        <time>2014-11-28T12:27:00.000Z</time>
      </trkpt>
      <trkpt lon="34.81589561328292" lat="30.62125322408974">
        <ele>778.4000244140625</ele>
        <time>2014-11-28T12:27:09.000Z</time>
      </trkpt>
      <trkpt lon="34.81571305543184" lat="30.621039820834994">
        <ele>779.4000244140625</ele>
        <time>2014-11-28T12:27:19.000Z</time>
      </trkpt>
      <trkpt lon="34.81551105156541" lat="30.620818622410297">
        <ele>781.2000122070312</ele>
        <time>2014-11-28T12:27:28.000Z</time>
      </trkpt>
      <trkpt lon="34.8152766097337" lat="30.620499355718493">
        <ele>780.2000122070312</ele>
        <time>2014-11-28T12:27:38.000Z</time>
      </trkpt>
      <trkpt lon="34.81512213125825" lat="30.620175814256072">
        <ele>775.5999755859375</ele>
        <time>2014-11-28T12:27:47.000Z</time>
      </trkpt>
      <trkpt lon="34.81498014181852" lat="30.619840873405337">
        <ele>769.2000122070312</ele>
        <time>2014-11-28T12:27:56.000Z</time>
      </trkpt>
      <trkpt lon="34.81471267528832" lat="30.619557481259108">
        <ele>769.0</ele>
        <time>2014-11-28T12:28:05.000Z</time>
      </trkpt>
      <trkpt lon="34.814459374174476" lat="30.619429238140583">
        <ele>772.2000122070312</ele>
        <time>2014-11-28T12:28:13.000Z</time>
      </trkpt>
      <trkpt lon="34.81415628455579" lat="30.619316333904862">
        <ele>774.2000122070312</ele>
        <time>2014-11-28T12:28:22.000Z</time>
      </trkpt>
      <trkpt lon="34.81390122324228" lat="30.619217175990343">
        <ele>775.4000244140625</ele>
        <time>2014-11-28T12:28:30.000Z</time>
      </trkpt>
      <trkpt lon="34.81355186551809" lat="30.61908599920571">
        <ele>777.5999755859375</ele>
        <time>2014-11-28T12:28:42.000Z</time>
      </trkpt>
      <trkpt lon="34.81322832405567" lat="30.618976028636098">
        <ele>781.0</ele>
        <time>2014-11-28T12:28:54.000Z</time>
      </trkpt>
      <trkpt lon="34.812985584139824" lat="30.618879050016403">
        <ele>782.5999755859375</ele>
        <time>2014-11-28T12:29:05.000Z</time>
      </trkpt>
      <trkpt lon="34.81277243234217" lat="30.618800092488527">
        <ele>784.4000244140625</ele>
        <time>2014-11-28T12:29:15.000Z</time>
      </trkpt>
      <trkpt lon="34.812536565586925" lat="30.618712585419416">
        <ele>786.5999755859375</ele>
        <time>2014-11-28T12:29:26.000Z</time>
      </trkpt>
      <trkpt lon="34.81228854507208" lat="30.618622982874513">
        <ele>789.0</ele>
        <time>2014-11-28T12:29:37.000Z</time>
      </trkpt>
      <trkpt lon="34.81205955147743" lat="30.61853438615799">
        <ele>791.0</ele>
        <time>2014-11-28T12:29:48.000Z</time>
      </trkpt>
      <trkpt lon="34.81188780628145" lat="30.618451656773686">
        <ele>794.7999877929688</ele>
        <time>2014-11-28T12:29:57.000Z</time>
      </trkpt>
      <trkpt lon="34.81169351376593" lat="30.618354007601738">
        <ele>799.2000122070312</ele>
        <time>2014-11-28T12:30:07.000Z</time>
      </trkpt>
      <trkpt lon="34.81151062063873" lat="30.618250155821443">
        <ele>802.7999877929688</ele>
        <time>2014-11-28T12:30:17.000Z</time>
      </trkpt>
      <trkpt lon="34.81138514354825" lat="30.618175556883216">
        <ele>805.0</ele>
        <time>2014-11-28T12:30:25.000Z</time>
      </trkpt>
      <trkpt lon="34.811253380030394" lat="30.618090061470866">
        <ele>806.0</ele>
        <time>2014-11-28T12:30:34.000Z</time>
      </trkpt>
      <trkpt lon="34.811106361448765" lat="30.617983611300588">
        <ele>807.2000122070312</ele>
        <time>2014-11-28T12:30:44.000Z</time>
      </trkpt>
      <trkpt lon="34.810977363958955" lat="30.61788554303348">
        <ele>808.4000244140625</ele>
        <time>2014-11-28T12:30:53.000Z</time>
      </trkpt>
      <trkpt lon="34.81080561876297" lat="30.617743972688913">
        <ele>809.7999877929688</ele>
        <time>2014-11-28T12:31:05.000Z</time>
      </trkpt>
      <trkpt lon="34.81064208783209" lat="30.617599301040173">
        <ele>810.7999877929688</ele>
        <time>2014-11-28T12:31:16.000Z</time>
      </trkpt>
      <trkpt lon="34.810517616569996" lat="30.617473237216473">
        <ele>811.2000122070312</ele>
        <time>2014-11-28T12:31:25.000Z</time>
      </trkpt>
      <trkpt lon="34.81038576923311" lat="30.61735681258142">
        <ele>812.0</ele>
        <time>2014-11-28T12:31:35.000Z</time>
      </trkpt>
      <trkpt lon="34.81023011729121" lat="30.617222618311644">
        <ele>812.0</ele>
        <time>2014-11-28T12:31:47.000Z</time>
      </trkpt>
      <trkpt lon="34.810133054852486" lat="30.61713209375739">
        <ele>812.2000122070312</ele>
        <time>2014-11-28T12:31:55.000Z</time>
      </trkpt>
      <trkpt lon="34.809978157281876" lat="30.617012567818165">
        <ele>813.2000122070312</ele>
        <time>2014-11-28T12:32:05.000Z</time>
      </trkpt>
      <trkpt lon="34.80982686392963" lat="30.616909470409155">
        <ele>814.4000244140625</ele>
        <time>2014-11-28T12:32:14.000Z</time>
      </trkpt>
      <trkpt lon="34.80965637601912" lat="30.616771588101983">
        <ele>815.4000244140625</ele>
        <time>2014-11-28T12:32:25.000Z</time>
      </trkpt>
      <trkpt lon="34.809540286660194" lat="30.61666790395975">
        <ele>816.0</ele>
        <time>2014-11-28T12:32:34.000Z</time>
      </trkpt>
      <trkpt lon="34.80952796526253" lat="30.616654325276613">
        <ele>816.0</ele>
        <time>2014-11-28T12:32:35.000Z</time>
      </trkpt>
      <trkpt lon="34.80951606296003" lat="30.61663856729865">
        <ele>816.0</ele>
        <time>2014-11-28T12:32:36.000Z</time>
      </trkpt>
      <trkpt lon="34.80951019562781" lat="30.6166291795671">
        <ele>815.7999877929688</ele>
        <time>2014-11-28T12:32:37.000Z</time>
      </trkpt>
      <trkpt lon="34.809498712420464" lat="30.616621300578117">
        <ele>816.0</ele>
        <time>2014-11-28T12:32:38.000Z</time>
      </trkpt>
      <trkpt lon="34.80948404408991" lat="30.616615852341056">
        <ele>816.2000122070312</ele>
        <time>2014-11-28T12:32:39.000Z</time>
      </trkpt>
      <trkpt lon="34.80940123088658" lat="30.61652851291001">
        <ele>816.4000244140625</ele>
        <time>2014-11-28T12:32:47.000Z</time>
      </trkpt>
      <trkpt lon="34.809336271137" lat="30.616440838202834">
        <ele>816.2000122070312</ele>
        <time>2014-11-28T12:32:56.000Z</time>
      </trkpt>
      <trkpt lon="34.809241723269224" lat="30.616299603134394">
        <ele>816.4000244140625</ele>
        <time>2014-11-28T12:33:06.000Z</time>
      </trkpt>
      <trkpt lon="34.80920693837106" lat="30.616240175440907">
        <ele>817.0</ele>
        <time>2014-11-28T12:33:11.000Z</time>
      </trkpt>
      <trkpt lon="34.80915077961981" lat="30.616048062220216">
        <ele>817.2000122070312</ele>
        <time>2014-11-28T12:33:22.000Z</time>
      </trkpt>
      <trkpt lon="34.809159245342016" lat="30.615890733897686">
        <ele>815.2000122070312</ele>
        <time>2014-11-28T12:33:32.000Z</time>
      </trkpt>
      <trkpt lon="34.809178188443184" lat="30.61572041362524">
        <ele>811.2000122070312</ele>
        <time>2014-11-28T12:33:42.000Z</time>
      </trkpt>
      <trkpt lon="34.80917986482382" lat="30.615543387830257">
        <ele>807.7999877929688</ele>
        <time>2014-11-28T12:33:52.000Z</time>
      </trkpt>
      <trkpt lon="34.80918983928859" lat="30.615382874384522">
        <ele>806.7999877929688</ele>
        <time>2014-11-28T12:34:02.000Z</time>
      </trkpt>
      <trkpt lon="34.80918564833701" lat="30.61520484276116">
        <ele>806.7999877929688</ele>
        <time>2014-11-28T12:34:13.000Z</time>
      </trkpt>
      <trkpt lon="34.8091721534729" lat="30.61502412892878">
        <ele>807.0</ele>
        <time>2014-11-28T12:34:24.000Z</time>
      </trkpt>
      <trkpt lon="34.809149857610464" lat="30.6148227956146">
        <ele>807.5999755859375</ele>
        <time>2014-11-28T12:34:36.000Z</time>
      </trkpt>
      <trkpt lon="34.80912764556706" lat="30.614664126187563">
        <ele>808.4000244140625</ele>
        <time>2014-11-28T12:34:46.000Z</time>
      </trkpt>
      <trkpt lon="34.80910669080913" lat="30.614505792036653">
        <ele>809.5999755859375</ele>
        <time>2014-11-28T12:34:57.000Z</time>
      </trkpt>
      <trkpt lon="34.809078611433506" lat="30.6142857670784">
        <ele>811.4000244140625</ele>
        <time>2014-11-28T12:35:11.000Z</time>
      </trkpt>
      <trkpt lon="34.80904282070696" lat="30.614117542281747">
        <ele>813.0</ele>
        <time>2014-11-28T12:35:22.000Z</time>
      </trkpt>
      <trkpt lon="34.80901918374002" lat="30.61396138742566">
        <ele>813.4000244140625</ele>
        <time>2014-11-28T12:35:32.000Z</time>
      </trkpt>
      <trkpt lon="34.80899487622082" lat="30.613755863159895">
        <ele>814.4000244140625</ele>
        <time>2014-11-28T12:35:44.000Z</time>
      </trkpt>
      <trkpt lon="34.80897484347224" lat="30.613577915355563">
        <ele>815.7999877929688</ele>
        <time>2014-11-28T12:35:55.000Z</time>
      </trkpt>
      <trkpt lon="34.808952044695616" lat="30.613413378596306">
        <ele>817.4000244140625</ele>
        <time>2014-11-28T12:36:05.000Z</time>
      </trkpt>
      <trkpt lon="34.80892740190029" lat="30.6132426392287">
        <ele>819.2000122070312</ele>
        <time>2014-11-28T12:36:16.000Z</time>
      </trkpt>
      <trkpt lon="34.808896724134684" lat="30.61305253766477">
        <ele>820.7999877929688</ele>
        <time>2014-11-28T12:36:28.000Z</time>
      </trkpt>
      <trkpt lon="34.808876775205135" lat="30.612893868237734">
        <ele>821.7999877929688</ele>
        <time>2014-11-28T12:36:38.000Z</time>
      </trkpt>
      <trkpt lon="34.80881935916841" lat="30.61271877028048">
        <ele>824.4000244140625</ele>
        <time>2014-11-28T12:36:50.000Z</time>
      </trkpt>
      <trkpt lon="34.80879354290664" lat="30.612576780840755">
        <ele>825.5999755859375</ele>
        <time>2014-11-28T12:36:59.000Z</time>
      </trkpt>
      <trkpt lon="34.80878960341215" lat="30.61256093904376">
        <ele>825.7999877929688</ele>
        <time>2014-11-28T12:37:00.000Z</time>
      </trkpt>
      <trkpt lon="34.80875540524721" lat="30.612436970695853">
        <ele>827.2000122070312</ele>
        <time>2014-11-28T12:37:09.000Z</time>
      </trkpt>
      <trkpt lon="34.80870712548494" lat="30.612230440601707">
        <ele>829.0</ele>
        <time>2014-11-28T12:37:22.000Z</time>
      </trkpt>
      <trkpt lon="34.80870394036174" lat="30.612161960452795">
        <ele>829.0</ele>
        <time>2014-11-28T12:37:27.000Z</time>
      </trkpt>
      <trkpt lon="34.80870645493269" lat="30.612151650711894">
        <ele>829.0</ele>
        <time>2014-11-28T12:37:28.000Z</time>
      </trkpt>
      <trkpt lon="34.808703353628516" lat="30.612139999866486">
        <ele>829.0</ele>
        <time>2014-11-28T12:37:29.000Z</time>
      </trkpt>
      <trkpt lon="34.80866731144488" lat="30.61201167292893">
        <ele>829.0</ele>
        <time>2014-11-28T12:37:38.000Z</time>
      </trkpt>
      <trkpt lon="34.80864602141082" lat="30.611889716237783">
        <ele>828.7999877929688</ele>
        <time>2014-11-28T12:37:47.000Z</time>
      </trkpt>
      <trkpt lon="34.80861492455006" lat="30.611749403178692">
        <ele>828.5999755859375</ele>
        <time>2014-11-28T12:37:58.000Z</time>
      </trkpt>
      <trkpt lon="34.80858692899346" lat="30.61161889694631">
        <ele>828.5999755859375</ele>
        <time>2014-11-28T12:38:08.000Z</time>
      </trkpt>
      <trkpt lon="34.80854460038245" lat="30.611442625522614">
        <ele>828.4000244140625</ele>
        <time>2014-11-28T12:38:20.000Z</time>
      </trkpt>
      <trkpt lon="34.808482490479946" lat="30.611243974417448">
        <ele>830.2000122070312</ele>
        <time>2014-11-28T12:38:32.000Z</time>
      </trkpt>
      <trkpt lon="34.808444352820516" lat="30.611104499548674">
        <ele>832.5999755859375</ele>
        <time>2014-11-28T12:38:42.000Z</time>
      </trkpt>
      <trkpt lon="34.80839431285858" lat="30.610937112942338">
        <ele>834.5999755859375</ele>
        <time>2014-11-28T12:38:54.000Z</time>
      </trkpt>
      <trkpt lon="34.80835475027561" lat="30.610793950036168">
        <ele>836.0</ele>
        <time>2014-11-28T12:39:05.000Z</time>
      </trkpt>
      <trkpt lon="34.80832667089999" lat="30.610665706917644">
        <ele>837.2000122070312</ele>
        <time>2014-11-28T12:39:15.000Z</time>
      </trkpt>
      <trkpt lon="34.80828559957445" lat="30.61054768972099">
        <ele>838.5999755859375</ele>
        <time>2014-11-28T12:39:24.000Z</time>
      </trkpt>
      <trkpt lon="34.808278223499656" lat="30.610513910651207">
        <ele>839.0</ele>
        <time>2014-11-28T12:39:27.000Z</time>
      </trkpt>
      <trkpt lon="34.80827059596777" lat="30.610501002520323">
        <ele>839.2000122070312</ele>
        <time>2014-11-28T12:39:28.000Z</time>
      </trkpt>
      <trkpt lon="34.808222986757755" lat="30.610363455489278">
        <ele>840.4000244140625</ele>
        <time>2014-11-28T12:39:39.000Z</time>
      </trkpt>
      <trkpt lon="34.808157943189144" lat="30.610191961750388">
        <ele>842.2000122070312</ele>
        <time>2014-11-28T12:39:51.000Z</time>
      </trkpt>
      <trkpt lon="34.808098347857594" lat="30.610037315636873">
        <ele>843.7999877929688</ele>
        <time>2014-11-28T12:40:01.000Z</time>
      </trkpt>
      <trkpt lon="34.80808988213539" lat="30.610025748610497">
        <ele>844.0</ele>
        <time>2014-11-28T12:40:02.000Z</time>
      </trkpt>
      <trkpt lon="34.808081751689315" lat="30.61001468449831">
        <ele>844.2000122070312</ele>
        <time>2014-11-28T12:40:03.000Z</time>
      </trkpt>
      <trkpt lon="34.80798376724124" lat="30.609903037548065">
        <ele>846.4000244140625</ele>
        <time>2014-11-28T12:40:13.000Z</time>
      </trkpt>
      <trkpt lon="34.80784839950502" lat="30.609805891290307">
        <ele>848.7999877929688</ele>
        <time>2014-11-28T12:40:23.000Z</time>
      </trkpt>
      <trkpt lon="34.80769073590636" lat="30.609720228239894">
        <ele>849.0</ele>
        <time>2014-11-28T12:40:33.000Z</time>
      </trkpt>
      <trkpt lon="34.80752008035779" lat="30.60967261902988">
        <ele>849.2000122070312</ele>
        <time>2014-11-28T12:40:43.000Z</time>
      </trkpt>
      <trkpt lon="34.8073467426002" lat="30.609645545482635">
        <ele>849.4000244140625</ele>
        <time>2014-11-28T12:40:53.000Z</time>
      </trkpt>
      <trkpt lon="34.80713685974479" lat="30.609673960134387">
        <ele>849.2000122070312</ele>
        <time>2014-11-28T12:41:03.000Z</time>
      </trkpt>
      <trkpt lon="34.806961342692375" lat="30.609740763902664">
        <ele>848.4000244140625</ele>
        <time>2014-11-28T12:41:11.000Z</time>
      </trkpt>
      <trkpt lon="34.80681709013879" lat="30.60982307419181">
        <ele>847.7999877929688</ele>
        <time>2014-11-28T12:41:19.000Z</time>
      </trkpt>
      <trkpt lon="34.80665749870241" lat="30.609938660636544">
        <ele>846.7999877929688</ele>
        <time>2014-11-28T12:41:29.000Z</time>
      </trkpt>
      <trkpt lon="34.80647066608071" lat="30.61011141166091">
        <ele>846.2000122070312</ele>
        <time>2014-11-28T12:41:40.000Z</time>
      </trkpt>
      <trkpt lon="34.806293807923794" lat="30.610239570960402">
        <ele>847.0</ele>
        <time>2014-11-28T12:41:49.000Z</time>
      </trkpt>
      <trkpt lon="34.80616623535752" lat="30.610325820744038">
        <ele>847.4000244140625</ele>
        <time>2014-11-28T12:41:56.000Z</time>
      </trkpt>
      <trkpt lon="34.80590580962598" lat="30.610517850145698">
        <ele>847.7999877929688</ele>
        <time>2014-11-28T12:42:07.000Z</time>
      </trkpt>
      <trkpt lon="34.805625854060054" lat="30.610721027478576">
        <ele>847.5999755859375</ele>
        <time>2014-11-28T12:42:17.000Z</time>
      </trkpt>
      <trkpt lon="34.80547355487943" lat="30.610825214534998">
        <ele>847.5999755859375</ele>
        <time>2014-11-28T12:42:24.000Z</time>
      </trkpt>
      <trkpt lon="34.805265264585614" lat="30.61105538159609">
        <ele>847.0</ele>
        <time>2014-11-28T12:42:34.000Z</time>
      </trkpt>
      <trkpt lon="34.805127466097474" lat="30.61119477264583">
        <ele>846.2000122070312</ele>
        <time>2014-11-28T12:42:40.000Z</time>
      </trkpt>
      <trkpt lon="34.80496108531952" lat="30.61128160916269">
        <ele>845.7999877929688</ele>
        <time>2014-11-28T12:42:47.000Z</time>
      </trkpt>
      <trkpt lon="34.80483912862837" lat="30.611412283033133">
        <ele>845.0</ele>
        <time>2014-11-28T12:42:54.000Z</time>
      </trkpt>
      <trkpt lon="34.80470644310117" lat="30.611564917489886">
        <ele>844.0</ele>
        <time>2014-11-28T12:43:02.000Z</time>
      </trkpt>
      <trkpt lon="34.804706862196326" lat="30.61158562079072">
        <ele>844.0</ele>
        <time>2014-11-28T12:43:03.000Z</time>
      </trkpt>
      <trkpt lon="34.804715663194656" lat="30.61160322278738">
        <ele>843.7999877929688</ele>
        <time>2014-11-28T12:43:04.000Z</time>
      </trkpt>
      <trkpt lon="34.80472773313522" lat="30.611618729308248">
        <ele>843.7999877929688</ele>
        <time>2014-11-28T12:43:05.000Z</time>
      </trkpt>
      <trkpt lon="34.80473938398063" lat="30.61163440346718">
        <ele>843.7999877929688</ele>
        <time>2014-11-28T12:43:06.000Z</time>
      </trkpt>
      <trkpt lon="34.80475237593055" lat="30.611649407073855">
        <ele>843.5999755859375</ele>
        <time>2014-11-28T12:43:07.000Z</time>
      </trkpt>
      <trkpt lon="34.804763020947576" lat="30.61166382394731">
        <ele>843.5999755859375</ele>
        <time>2014-11-28T12:43:08.000Z</time>
      </trkpt>
      <trkpt lon="34.80476746335626" lat="30.611677737906575">
        <ele>843.5999755859375</ele>
        <time>2014-11-28T12:43:09.000Z</time>
      </trkpt>
      <trkpt lon="34.804768385365605" lat="30.61169416643679">
        <ele>843.5999755859375</ele>
        <time>2014-11-28T12:43:10.000Z</time>
      </trkpt>
      <trkpt lon="34.804767379537225" lat="30.611710092052817">
        <ele>843.4000244140625</ele>
        <time>2014-11-28T12:43:11.000Z</time>
      </trkpt>
      <trkpt lon="34.80474407784641" lat="30.611862977966666">
        <ele>843.0</ele>
        <time>2014-11-28T12:43:19.000Z</time>
      </trkpt>
      <trkpt lon="34.80469546280801" lat="30.611980073153973">
        <ele>842.5999755859375</ele>
        <time>2014-11-28T12:43:26.000Z</time>
      </trkpt>
      <trkpt lon="34.804705856367946" lat="30.61199407093227">
        <ele>842.5999755859375</ele>
        <time>2014-11-28T12:43:35.000Z</time>
      </trkpt>
    </trkseg>
  </trk>
</gpx>
